<?xml version="1.0" encoding="UTF-8" standalone="no" ?>
<gpx xmlns="http://www.topografix.com/GPX/1/1" xmlns:xsi="http://www.w3.org/2001/XMLSchema-instance" xsi:schemaLocation="http://www.topografix.com/GPX/1/1 http://www.topografix.com/GPX/1/1/gpx.xsd" version="1.1" creator="VisuGPX - https://www.visugpx.com">
  <metadata>
    <name>Trento</name>
  </metadata>
  <trk>
    <name><![CDATA[Trento]]></name>
    <extensions>
      <line xmlns="http://www.topografix.com/GPX/gpx_style/0/2">
        <color>0000FF</color>
        <width>4</width>
      </line>
    </extensions>
    <trkseg>
      <trkpt lat="46.14802" lon="11.09717">
        <ele>246.262165</ele>
        <time>2023-04-19T08:44:03.761Z</time>
      </trkpt>
      <trkpt lat="46.14802" lon="11.09731">
        <ele>246.262165</ele>
        <time>2023-04-19T08:44:14.749Z</time>
      </trkpt>
      <trkpt lat="46.14797" lon="11.09744">
        <ele>246.262165</ele>
        <time>2023-04-19T08:44:19.760Z</time>
      </trkpt>
      <trkpt lat="46.14794" lon="11.09756">
        <ele>246.262165</ele>
        <time>2023-04-19T08:44:23.758Z</time>
      </trkpt>
      <trkpt lat="46.14791" lon="11.0977">
        <ele>246.262165</ele>
        <time>2023-04-19T08:44:26.770Z</time>
      </trkpt>
      <trkpt lat="46.14788" lon="11.09785">
        <ele>246.262165</ele>
        <time>2023-04-19T08:44:29.778Z</time>
      </trkpt>
      <trkpt lat="46.14785" lon="11.09798">
        <ele>246.262165</ele>
        <time>2023-04-19T08:44:32.746Z</time>
      </trkpt>
      <trkpt lat="46.14782" lon="11.09812">
        <ele>246.262165</ele>
        <time>2023-04-19T08:44:35.764Z</time>
      </trkpt>
      <trkpt lat="46.1478" lon="11.09828">
        <ele>246.262165</ele>
        <time>2023-04-19T08:44:39.762Z</time>
      </trkpt>
      <trkpt lat="46.14777" lon="11.09844">
        <ele>246.34036</ele>
        <time>2023-04-19T08:44:43.749Z</time>
      </trkpt>
      <trkpt lat="46.14775" lon="11.09859">
        <ele>246.678146</ele>
        <time>2023-04-19T08:44:46.780Z</time>
      </trkpt>
      <trkpt lat="46.14772" lon="11.09873">
        <ele>247.016378</ele>
        <time>2023-04-19T08:44:49.756Z</time>
      </trkpt>
      <trkpt lat="46.1477" lon="11.09888">
        <ele>247.359132</ele>
        <time>2023-04-19T08:44:52.845Z</time>
      </trkpt>
      <trkpt lat="46.14768" lon="11.09902">
        <ele>247.696762</ele>
        <time>2023-04-19T08:44:55.762Z</time>
      </trkpt>
      <trkpt lat="46.14766" lon="11.09917">
        <ele>248.035897</ele>
        <time>2023-04-19T08:44:58.757Z</time>
      </trkpt>
      <trkpt lat="46.14763" lon="11.09931">
        <ele>248.369749</ele>
        <time>2023-04-19T08:45:01.762Z</time>
      </trkpt>
      <trkpt lat="46.14761" lon="11.09944">
        <ele>248.688095</ele>
        <time>2023-04-19T08:45:04.769Z</time>
      </trkpt>
      <trkpt lat="46.14752" lon="11.09952">
        <ele>249.034288</ele>
        <time>2023-04-19T08:45:10.751Z</time>
      </trkpt>
      <trkpt lat="46.1474" lon="11.09951">
        <ele>249.43479</ele>
        <time>2023-04-19T08:45:14.784Z</time>
      </trkpt>
      <trkpt lat="46.14729" lon="11.0995">
        <ele>249.788127</ele>
        <time>2023-04-19T08:45:17.779Z</time>
      </trkpt>
      <trkpt lat="46.14717" lon="11.09951">
        <ele>250.201117</ele>
        <time>2023-04-19T08:45:20.781Z</time>
      </trkpt>
      <trkpt lat="46.14705" lon="11.09951">
        <ele>250.593561</ele>
        <time>2023-04-19T08:45:23.784Z</time>
      </trkpt>
      <trkpt lat="46.14693" lon="11.09951">
        <ele>250.972979</ele>
        <time>2023-04-19T08:45:26.762Z</time>
      </trkpt>
      <trkpt lat="46.14681" lon="11.09952">
        <ele>251.372117</ele>
        <time>2023-04-19T08:45:29.773Z</time>
      </trkpt>
      <trkpt lat="46.14669" lon="11.0995">
        <ele>251.76319</ele>
        <time>2023-04-19T08:45:32.766Z</time>
      </trkpt>
      <trkpt lat="46.14658" lon="11.09948">
        <ele>252.138104</ele>
        <time>2023-04-19T08:45:35.767Z</time>
      </trkpt>
      <trkpt lat="46.14648" lon="11.0995">
        <ele>252.223289</ele>
        <time>2023-04-19T08:45:38.764Z</time>
      </trkpt>
      <trkpt lat="46.14637" lon="11.0995">
        <ele>252.258408</ele>
        <time>2023-04-19T08:45:42.766Z</time>
      </trkpt>
      <trkpt lat="46.14627" lon="11.09953">
        <ele>252.295904</ele>
        <time>2023-04-19T08:45:46.779Z</time>
      </trkpt>
      <trkpt lat="46.14617" lon="11.09954">
        <ele>252.328755</ele>
        <time>2023-04-19T08:45:49.767Z</time>
      </trkpt>
      <trkpt lat="46.14607" lon="11.09955">
        <ele>252.361867</ele>
        <time>2023-04-19T08:45:52.787Z</time>
      </trkpt>
      <trkpt lat="46.14597" lon="11.09955">
        <ele>252.397323</ele>
        <time>2023-04-19T08:45:55.763Z</time>
      </trkpt>
      <trkpt lat="46.14586" lon="11.09954">
        <ele>252.43384</ele>
        <time>2023-04-19T08:45:58.767Z</time>
      </trkpt>
      <trkpt lat="46.14576" lon="11.09954">
        <ele>252.468615</ele>
        <time>2023-04-19T08:46:01.788Z</time>
      </trkpt>
      <trkpt lat="46.14568" lon="11.09948">
        <ele>252.500158</ele>
        <time>2023-04-19T08:46:04.758Z</time>
      </trkpt>
      <trkpt lat="46.14566" lon="11.09934">
        <ele>252.534023</ele>
        <time>2023-04-19T08:46:07.766Z</time>
      </trkpt>
      <trkpt lat="46.14567" lon="11.09921">
        <ele>252.566365</ele>
        <time>2023-04-19T08:46:10.759Z</time>
      </trkpt>
      <trkpt lat="46.14568" lon="11.09907">
        <ele>252.598842</ele>
        <time>2023-04-19T08:46:13.762Z</time>
      </trkpt>
      <trkpt lat="46.14569" lon="11.09893">
        <ele>252.632646</ele>
        <time>2023-04-19T08:46:16.773Z</time>
      </trkpt>
      <trkpt lat="46.1457" lon="11.09878">
        <ele>252.668417</ele>
        <time>2023-04-19T08:46:19.770Z</time>
      </trkpt>
      <trkpt lat="46.14568" lon="11.09862">
        <ele>252.706239</ele>
        <time>2023-04-19T08:46:22.777Z</time>
      </trkpt>
      <trkpt lat="46.14561" lon="11.0985">
        <ele>252.742009</ele>
        <time>2023-04-19T08:46:25.755Z</time>
      </trkpt>
      <trkpt lat="46.14549" lon="11.09849">
        <ele>252.785433</ele>
        <time>2023-04-19T08:46:28.751Z</time>
      </trkpt>
      <trkpt lat="46.1454" lon="11.0985">
        <ele>252.856263</ele>
        <time>2023-04-19T08:46:30.764Z</time>
      </trkpt>
      <trkpt lat="46.1453" lon="11.09852">
        <ele>253.027881</ele>
        <time>2023-04-19T08:46:32.755Z</time>
      </trkpt>
      <trkpt lat="46.14521" lon="11.09854">
        <ele>253.198758</ele>
        <time>2023-04-19T08:46:34.776Z</time>
      </trkpt>
      <trkpt lat="46.14512" lon="11.09857">
        <ele>253.364659</ele>
        <time>2023-04-19T08:46:36.761Z</time>
      </trkpt>
      <trkpt lat="46.14502" lon="11.09862">
        <ele>253.546776</ele>
        <time>2023-04-19T08:46:38.756Z</time>
      </trkpt>
      <trkpt lat="46.14493" lon="11.09868">
        <ele>253.718432</ele>
        <time>2023-04-19T08:46:40.772Z</time>
      </trkpt>
      <trkpt lat="46.14486" lon="11.09876">
        <ele>253.881537</ele>
        <time>2023-04-19T08:46:42.763Z</time>
      </trkpt>
      <trkpt lat="46.14479" lon="11.09885">
        <ele>254.046986</ele>
        <time>2023-04-19T08:46:44.781Z</time>
      </trkpt>
      <trkpt lat="46.14472" lon="11.09894">
        <ele>254.208722</ele>
        <time>2023-04-19T08:46:46.798Z</time>
      </trkpt>
      <trkpt lat="46.14462" lon="11.09907">
        <ele>254.452898</ele>
        <time>2023-04-19T08:46:49.762Z</time>
      </trkpt>
      <trkpt lat="46.14454" lon="11.09913">
        <ele>254.619715</ele>
        <time>2023-04-19T08:46:52.762Z</time>
      </trkpt>
      <trkpt lat="46.14444" lon="11.09914">
        <ele>254.785358</ele>
        <time>2023-04-19T08:46:58.774Z</time>
      </trkpt>
      <trkpt lat="46.14432" lon="11.09915">
        <ele>255.016032</ele>
        <time>2023-04-19T08:47:01.771Z</time>
      </trkpt>
      <trkpt lat="46.14421" lon="11.09925">
        <ele>255.236196</ele>
        <time>2023-04-19T08:47:04.748Z</time>
      </trkpt>
      <trkpt lat="46.14416" lon="11.09936">
        <ele>255.405587</ele>
        <time>2023-04-19T08:47:06.772Z</time>
      </trkpt>
      <trkpt lat="46.14413" lon="11.09951">
        <ele>255.58422</ele>
        <time>2023-04-19T08:47:08.771Z</time>
      </trkpt>
      <trkpt lat="46.14415" lon="11.09966">
        <ele>255.771862</ele>
        <time>2023-04-19T08:47:10.764Z</time>
      </trkpt>
      <trkpt lat="46.14415" lon="11.09979">
        <ele>255.934642</ele>
        <time>2023-04-19T08:47:12.771Z</time>
      </trkpt>
      <trkpt lat="46.14411" lon="11.09992">
        <ele>256.080578</ele>
        <time>2023-04-19T08:47:14.794Z</time>
      </trkpt>
      <trkpt lat="46.14405" lon="11.10004">
        <ele>256.211808</ele>
        <time>2023-04-19T08:47:16.758Z</time>
      </trkpt>
      <trkpt lat="46.14398" lon="11.10014">
        <ele>256.347367</ele>
        <time>2023-04-19T08:47:18.786Z</time>
      </trkpt>
      <trkpt lat="46.14391" lon="11.10024">
        <ele>256.472075</ele>
        <time>2023-04-19T08:47:20.757Z</time>
      </trkpt>
      <trkpt lat="46.14384" lon="11.10033">
        <ele>256.594197</ele>
        <time>2023-04-19T08:47:22.770Z</time>
      </trkpt>
      <trkpt lat="46.14377" lon="11.10041">
        <ele>256.713381</ele>
        <time>2023-04-19T08:47:24.774Z</time>
      </trkpt>
      <trkpt lat="46.1437" lon="11.10051">
        <ele>256.834811</ele>
        <time>2023-04-19T08:47:26.781Z</time>
      </trkpt>
      <trkpt lat="46.14363" lon="11.10063">
        <ele>256.972092</ele>
        <time>2023-04-19T08:47:28.771Z</time>
      </trkpt>
      <trkpt lat="46.14357" lon="11.10074">
        <ele>257.103116</ele>
        <time>2023-04-19T08:47:30.761Z</time>
      </trkpt>
      <trkpt lat="46.1435" lon="11.10085">
        <ele>257.233892</ele>
        <time>2023-04-19T08:47:32.760Z</time>
      </trkpt>
      <trkpt lat="46.14344" lon="11.10096">
        <ele>257.360149</ele>
        <time>2023-04-19T08:47:34.771Z</time>
      </trkpt>
      <trkpt lat="46.14339" lon="11.10108">
        <ele>257.489891</ele>
        <time>2023-04-19T08:47:36.750Z</time>
      </trkpt>
      <trkpt lat="46.14333" lon="11.10121">
        <ele>257.624289</ele>
        <time>2023-04-19T08:47:38.754Z</time>
      </trkpt>
      <trkpt lat="46.14328" lon="11.10133">
        <ele>257.752842</ele>
        <time>2023-04-19T08:47:40.750Z</time>
      </trkpt>
      <trkpt lat="46.14323" lon="11.10146">
        <ele>257.882582</ele>
        <time>2023-04-19T08:47:42.749Z</time>
      </trkpt>
      <trkpt lat="46.14318" lon="11.10159">
        <ele>258.018759</ele>
        <time>2023-04-19T08:47:44.771Z</time>
      </trkpt>
      <trkpt lat="46.14313" lon="11.10173">
        <ele>258.157568</ele>
        <time>2023-04-19T08:47:46.777Z</time>
      </trkpt>
      <trkpt lat="46.14307" lon="11.10186">
        <ele>258.292967</ele>
        <time>2023-04-19T08:47:48.762Z</time>
      </trkpt>
      <trkpt lat="46.14303" lon="11.10198">
        <ele>258.412323</ele>
        <time>2023-04-19T08:47:50.780Z</time>
      </trkpt>
      <trkpt lat="46.14298" lon="11.10211">
        <ele>258.526004</ele>
        <time>2023-04-19T08:47:52.767Z</time>
      </trkpt>
      <trkpt lat="46.14293" lon="11.10223">
        <ele>258.639788</ele>
        <time>2023-04-19T08:47:54.780Z</time>
      </trkpt>
      <trkpt lat="46.14288" lon="11.10235">
        <ele>258.752617</ele>
        <time>2023-04-19T08:47:56.769Z</time>
      </trkpt>
      <trkpt lat="46.14283" lon="11.10247">
        <ele>258.863044</ele>
        <time>2023-04-19T08:47:58.767Z</time>
      </trkpt>
      <trkpt lat="46.14279" lon="11.10259">
        <ele>258.973178</ele>
        <time>2023-04-19T08:48:00.771Z</time>
      </trkpt>
      <trkpt lat="46.14274" lon="11.10271">
        <ele>259.080365</ele>
        <time>2023-04-19T08:48:02.763Z</time>
      </trkpt>
      <trkpt lat="46.14269" lon="11.10283">
        <ele>259.192662</ele>
        <time>2023-04-19T08:48:04.781Z</time>
      </trkpt>
      <trkpt lat="46.14264" lon="11.10294">
        <ele>259.30033</ele>
        <time>2023-04-19T08:48:06.784Z</time>
      </trkpt>
      <trkpt lat="46.1426" lon="11.10306">
        <ele>259.406128</ele>
        <time>2023-04-19T08:48:08.764Z</time>
      </trkpt>
      <trkpt lat="46.14256" lon="11.10317">
        <ele>259.512342</ele>
        <time>2023-04-19T08:48:10.782Z</time>
      </trkpt>
      <trkpt lat="46.14249" lon="11.10334">
        <ele>259.664335</ele>
        <time>2023-04-19T08:48:13.774Z</time>
      </trkpt>
      <trkpt lat="46.14242" lon="11.10349">
        <ele>259.809372</ele>
        <time>2023-04-19T08:48:16.765Z</time>
      </trkpt>
      <trkpt lat="46.14232" lon="11.10359">
        <ele>259.953504</ele>
        <time>2023-04-19T08:48:19.759Z</time>
      </trkpt>
      <trkpt lat="46.14224" lon="11.10372">
        <ele>260.095709</ele>
        <time>2023-04-19T08:48:22.754Z</time>
      </trkpt>
      <trkpt lat="46.14216" lon="11.10387">
        <ele>260.238804</ele>
        <time>2023-04-19T08:48:25.749Z</time>
      </trkpt>
      <trkpt lat="46.1421" lon="11.10396">
        <ele>260.345309</ele>
        <time>2023-04-19T08:48:27.754Z</time>
      </trkpt>
      <trkpt lat="46.14202" lon="11.1041">
        <ele>260.439399</ele>
        <time>2023-04-19T08:48:30.800Z</time>
      </trkpt>
      <trkpt lat="46.14195" lon="11.10423">
        <ele>260.480605</ele>
        <time>2023-04-19T08:48:33.769Z</time>
      </trkpt>
      <trkpt lat="46.14185" lon="11.10432">
        <ele>260.519599</ele>
        <time>2023-04-19T08:48:36.760Z</time>
      </trkpt>
      <trkpt lat="46.14177" lon="11.1044">
        <ele>260.554419</ele>
        <time>2023-04-19T08:48:39.763Z</time>
      </trkpt>
      <trkpt lat="46.14167" lon="11.10447">
        <ele>260.592332</ele>
        <time>2023-04-19T08:48:43.776Z</time>
      </trkpt>
      <trkpt lat="46.14159" lon="11.10454">
        <ele>260.623919</ele>
        <time>2023-04-19T08:48:55.761Z</time>
      </trkpt>
      <trkpt lat="46.1415" lon="11.10457">
        <ele>260.657437</ele>
        <time>2023-04-19T08:49:02.769Z</time>
      </trkpt>
      <trkpt lat="46.14138" lon="11.10461">
        <ele>260.697994</ele>
        <time>2023-04-19T08:49:06.762Z</time>
      </trkpt>
      <trkpt lat="46.14129" lon="11.10464">
        <ele>260.729979</ele>
        <time>2023-04-19T08:49:09.764Z</time>
      </trkpt>
      <trkpt lat="46.1412" lon="11.10464">
        <ele>260.762151</ele>
        <time>2023-04-19T08:49:12.768Z</time>
      </trkpt>
      <trkpt lat="46.14111" lon="11.10461">
        <ele>260.793745</ele>
        <time>2023-04-19T08:49:15.754Z</time>
      </trkpt>
      <trkpt lat="46.14102" lon="11.10454">
        <ele>260.827695</ele>
        <time>2023-04-19T08:49:18.751Z</time>
      </trkpt>
      <trkpt lat="46.14095" lon="11.10445">
        <ele>260.862713</ele>
        <time>2023-04-19T08:49:21.754Z</time>
      </trkpt>
      <trkpt lat="46.14088" lon="11.10436">
        <ele>260.893918</ele>
        <time>2023-04-19T08:49:24.773Z</time>
      </trkpt>
      <trkpt lat="46.1408" lon="11.10426">
        <ele>260.931448</ele>
        <time>2023-04-19T08:49:28.770Z</time>
      </trkpt>
      <trkpt lat="46.14073" lon="11.10416">
        <ele>260.96494</ele>
        <time>2023-04-19T08:49:33.821Z</time>
      </trkpt>
      <trkpt lat="46.14067" lon="11.1043">
        <ele>261.002806</ele>
        <time>2023-04-19T08:49:43.777Z</time>
      </trkpt>
      <trkpt lat="46.14062" lon="11.1044">
        <ele>261.034309</ele>
        <time>2023-04-19T08:49:46.767Z</time>
      </trkpt>
      <trkpt lat="46.14056" lon="11.10456">
        <ele>261.390111</ele>
        <time>2023-04-19T08:49:49.798Z</time>
      </trkpt>
      <trkpt lat="46.1405" lon="11.1047">
        <ele>261.784267</ele>
        <time>2023-04-19T08:49:52.762Z</time>
      </trkpt>
      <trkpt lat="46.14043" lon="11.10485">
        <ele>262.199488</ele>
        <time>2023-04-19T08:49:55.761Z</time>
      </trkpt>
      <trkpt lat="46.14037" lon="11.105">
        <ele>262.616673</ele>
        <time>2023-04-19T08:49:58.749Z</time>
      </trkpt>
      <trkpt lat="46.14031" lon="11.10514">
        <ele>263.00129</ele>
        <time>2023-04-19T08:50:01.769Z</time>
      </trkpt>
      <trkpt lat="46.14025" lon="11.10529">
        <ele>263.399155</ele>
        <time>2023-04-19T08:50:04.761Z</time>
      </trkpt>
      <trkpt lat="46.14018" lon="11.10543">
        <ele>263.800804</ele>
        <time>2023-04-19T08:50:07.783Z</time>
      </trkpt>
      <trkpt lat="46.14014" lon="11.10555">
        <ele>264.128551</ele>
        <time>2023-04-19T08:50:10.746Z</time>
      </trkpt>
      <trkpt lat="46.14009" lon="11.10569">
        <ele>264.48316</ele>
        <time>2023-04-19T08:50:13.781Z</time>
      </trkpt>
      <trkpt lat="46.14003" lon="11.10581">
        <ele>264.821573</ele>
        <time>2023-04-19T08:50:16.763Z</time>
      </trkpt>
      <trkpt lat="46.13994" lon="11.10593">
        <ele>265.241428</ele>
        <time>2023-04-19T08:50:20.767Z</time>
      </trkpt>
      <trkpt lat="46.13988" lon="11.10609">
        <ele>265.657473</ele>
        <time>2023-04-19T08:50:23.759Z</time>
      </trkpt>
      <trkpt lat="46.13986" lon="11.10624">
        <ele>266.025433</ele>
        <time>2023-04-19T08:50:26.763Z</time>
      </trkpt>
      <trkpt lat="46.13986" lon="11.10642">
        <ele>266.429845</ele>
        <time>2023-04-19T08:50:29.770Z</time>
      </trkpt>
      <trkpt lat="46.13981" lon="11.10659">
        <ele>266.869817</ele>
        <time>2023-04-19T08:50:32.763Z</time>
      </trkpt>
      <trkpt lat="46.13975" lon="11.10675">
        <ele>267.273335</ele>
        <time>2023-04-19T08:50:35.762Z</time>
      </trkpt>
      <trkpt lat="46.13969" lon="11.10689">
        <ele>267.604738</ele>
        <time>2023-04-19T08:50:38.770Z</time>
      </trkpt>
      <trkpt lat="46.13963" lon="11.10702">
        <ele>267.927821</ele>
        <time>2023-04-19T08:50:41.780Z</time>
      </trkpt>
      <trkpt lat="46.13956" lon="11.10718">
        <ele>268.288979</ele>
        <time>2023-04-19T08:50:44.768Z</time>
      </trkpt>
      <trkpt lat="46.13949" lon="11.10733">
        <ele>268.648105</ele>
        <time>2023-04-19T08:50:47.749Z</time>
      </trkpt>
      <trkpt lat="46.13943" lon="11.10748">
        <ele>268.997235</ele>
        <time>2023-04-19T08:50:50.780Z</time>
      </trkpt>
      <trkpt lat="46.13937" lon="11.10763">
        <ele>269.346049</ele>
        <time>2023-04-19T08:50:53.755Z</time>
      </trkpt>
      <trkpt lat="46.1393" lon="11.10776">
        <ele>269.690787</ele>
        <time>2023-04-19T08:50:56.756Z</time>
      </trkpt>
      <trkpt lat="46.13923" lon="11.1079">
        <ele>270.023514</ele>
        <time>2023-04-19T08:50:59.764Z</time>
      </trkpt>
      <trkpt lat="46.13916" lon="11.10802">
        <ele>270.352268</ele>
        <time>2023-04-19T08:51:02.770Z</time>
      </trkpt>
      <trkpt lat="46.13908" lon="11.10814">
        <ele>270.681661</ele>
        <time>2023-04-19T08:51:05.761Z</time>
      </trkpt>
      <trkpt lat="46.13897" lon="11.10825">
        <ele>271.052205</ele>
        <time>2023-04-19T08:51:08.748Z</time>
      </trkpt>
      <trkpt lat="46.1389" lon="11.10832">
        <ele>271.318643</ele>
        <time>2023-04-19T08:51:10.762Z</time>
      </trkpt>
      <trkpt lat="46.13882" lon="11.1084">
        <ele>271.591947</ele>
        <time>2023-04-19T08:51:12.750Z</time>
      </trkpt>
      <trkpt lat="46.13871" lon="11.10849">
        <ele>271.959632</ele>
        <time>2023-04-19T08:51:15.771Z</time>
      </trkpt>
      <trkpt lat="46.13861" lon="11.10858">
        <ele>272.301528</ele>
        <time>2023-04-19T08:51:18.763Z</time>
      </trkpt>
      <trkpt lat="46.13851" lon="11.10865">
        <ele>272.285859</ele>
        <time>2023-04-19T08:51:21.742Z</time>
      </trkpt>
      <trkpt lat="46.13844" lon="11.10875">
        <ele>272.261608</ele>
        <time>2023-04-19T08:51:24.763Z</time>
      </trkpt>
      <trkpt lat="46.13835" lon="11.10883">
        <ele>272.237167</ele>
        <time>2023-04-19T08:51:26.758Z</time>
      </trkpt>
      <trkpt lat="46.13827" lon="11.10887">
        <ele>272.214878</ele>
        <time>2023-04-19T08:51:28.763Z</time>
      </trkpt>
      <trkpt lat="46.13817" lon="11.10894">
        <ele>272.188894</ele>
        <time>2023-04-19T08:51:31.759Z</time>
      </trkpt>
      <trkpt lat="46.13807" lon="11.10902">
        <ele>272.161885</ele>
        <time>2023-04-19T08:51:34.756Z</time>
      </trkpt>
      <trkpt lat="46.13796" lon="11.10906">
        <ele>272.136799</ele>
        <time>2023-04-19T08:51:36.729Z</time>
      </trkpt>
      <trkpt lat="46.13788" lon="11.10914">
        <ele>272.112299</ele>
        <time>2023-04-19T08:51:38.758Z</time>
      </trkpt>
      <trkpt lat="46.13779" lon="11.10918">
        <ele>272.090799</ele>
        <time>2023-04-19T08:51:40.764Z</time>
      </trkpt>
      <trkpt lat="46.13769" lon="11.10926">
        <ele>272.06371</ele>
        <time>2023-04-19T08:51:43.780Z</time>
      </trkpt>
      <trkpt lat="46.13758" lon="11.10932">
        <ele>272.035732</ele>
        <time>2023-04-19T08:51:47.757Z</time>
      </trkpt>
      <trkpt lat="46.13748" lon="11.10937">
        <ele>272.010604</ele>
        <time>2023-04-19T08:51:50.750Z</time>
      </trkpt>
      <trkpt lat="46.13738" lon="11.10947">
        <ele>271.982162</ele>
        <time>2023-04-19T08:51:53.787Z</time>
      </trkpt>
      <trkpt lat="46.13729" lon="11.1095">
        <ele>271.959548</ele>
        <time>2023-04-19T08:51:56.766Z</time>
      </trkpt>
      <trkpt lat="46.13719" lon="11.10951">
        <ele>271.937217</ele>
        <time>2023-04-19T08:51:59.754Z</time>
      </trkpt>
      <trkpt lat="46.13709" lon="11.10952">
        <ele>271.912759</ele>
        <time>2023-04-19T08:52:02.752Z</time>
      </trkpt>
      <trkpt lat="46.137" lon="11.10956">
        <ele>271.890139</ele>
        <time>2023-04-19T08:52:05.750Z</time>
      </trkpt>
      <trkpt lat="46.13692" lon="11.10965">
        <ele>272.010804</ele>
        <time>2023-04-19T08:52:08.770Z</time>
      </trkpt>
      <trkpt lat="46.13682" lon="11.10973">
        <ele>272.204441</ele>
        <time>2023-04-19T08:52:11.766Z</time>
      </trkpt>
      <trkpt lat="46.13672" lon="11.1098">
        <ele>272.404874</ele>
        <time>2023-04-19T08:52:14.780Z</time>
      </trkpt>
      <trkpt lat="46.13663" lon="11.10986">
        <ele>272.578826</ele>
        <time>2023-04-19T08:52:17.767Z</time>
      </trkpt>
      <trkpt lat="46.13654" lon="11.1099">
        <ele>272.737885</ele>
        <time>2023-04-19T08:52:20.763Z</time>
      </trkpt>
      <trkpt lat="46.13642" lon="11.10995">
        <ele>272.948054</ele>
        <time>2023-04-19T08:52:24.771Z</time>
      </trkpt>
      <trkpt lat="46.13631" lon="11.11">
        <ele>273.147969</ele>
        <time>2023-04-19T08:52:28.756Z</time>
      </trkpt>
      <trkpt lat="46.1362" lon="11.11005">
        <ele>273.35184</ele>
        <time>2023-04-19T08:52:32.736Z</time>
      </trkpt>
      <trkpt lat="46.13609" lon="11.1101">
        <ele>273.549332</ele>
        <time>2023-04-19T08:52:36.774Z</time>
      </trkpt>
      <trkpt lat="46.13601" lon="11.11015">
        <ele>273.70457</ele>
        <time>2023-04-19T08:52:40.775Z</time>
      </trkpt>
      <trkpt lat="46.13593" lon="11.11007">
        <ele>273.866013</ele>
        <time>2023-04-19T08:52:45.756Z</time>
      </trkpt>
      <trkpt lat="46.13588" lon="11.10996">
        <ele>274.02591</ele>
        <time>2023-04-19T08:52:50.760Z</time>
      </trkpt>
      <trkpt lat="46.13584" lon="11.10983">
        <ele>274.190762</ele>
        <time>2023-04-19T08:52:55.750Z</time>
      </trkpt>
      <trkpt lat="46.13579" lon="11.1097">
        <ele>274.375179</ele>
        <time>2023-04-19T08:52:59.768Z</time>
      </trkpt>
      <trkpt lat="46.13577" lon="11.10983">
        <ele>274.538944</ele>
        <time>2023-04-19T08:53:06.756Z</time>
      </trkpt>
      <trkpt lat="46.13566" lon="11.10988">
        <ele>274.737839</ele>
        <time>2023-04-19T08:53:10.758Z</time>
      </trkpt>
      <trkpt lat="46.13556" lon="11.10992">
        <ele>274.912822</ele>
        <time>2023-04-19T08:53:13.762Z</time>
      </trkpt>
      <trkpt lat="46.13546" lon="11.10996">
        <ele>274.920301</ele>
        <time>2023-04-19T08:53:16.784Z</time>
      </trkpt>
      <trkpt lat="46.13535" lon="11.10999">
        <ele>274.789436</ele>
        <time>2023-04-19T08:53:19.742Z</time>
      </trkpt>
      <trkpt lat="46.13523" lon="11.11005">
        <ele>274.639303</ele>
        <time>2023-04-19T08:53:22.762Z</time>
      </trkpt>
      <trkpt lat="46.13512" lon="11.1101">
        <ele>274.502859</ele>
        <time>2023-04-19T08:53:25.764Z</time>
      </trkpt>
      <trkpt lat="46.135" lon="11.11014">
        <ele>274.363493</ele>
        <time>2023-04-19T08:53:28.759Z</time>
      </trkpt>
      <trkpt lat="46.13489" lon="11.11018">
        <ele>274.226141</ele>
        <time>2023-04-19T08:53:31.869Z</time>
      </trkpt>
      <trkpt lat="46.1348" lon="11.11021">
        <ele>274.112424</ele>
        <time>2023-04-19T08:53:34.763Z</time>
      </trkpt>
      <trkpt lat="46.13469" lon="11.11024">
        <ele>273.986036</ele>
        <time>2023-04-19T08:53:38.765Z</time>
      </trkpt>
      <trkpt lat="46.13466" lon="11.11008">
        <ele>273.84693</ele>
        <time>2023-04-19T08:53:42.758Z</time>
      </trkpt>
      <trkpt lat="46.13461" lon="11.10995">
        <ele>273.730326</ele>
        <time>2023-04-19T08:53:44.789Z</time>
      </trkpt>
      <trkpt lat="46.13457" lon="11.10982">
        <ele>273.612477</ele>
        <time>2023-04-19T08:53:46.765Z</time>
      </trkpt>
      <trkpt lat="46.13452" lon="11.10967">
        <ele>273.483048</ele>
        <time>2023-04-19T08:53:48.772Z</time>
      </trkpt>
      <trkpt lat="46.13448" lon="11.10953">
        <ele>273.352654</ele>
        <time>2023-04-19T08:53:50.761Z</time>
      </trkpt>
      <trkpt lat="46.13443" lon="11.10938">
        <ele>273.218762</ele>
        <time>2023-04-19T08:53:52.762Z</time>
      </trkpt>
      <trkpt lat="46.13438" lon="11.10922">
        <ele>273.081691</ele>
        <time>2023-04-19T08:53:54.773Z</time>
      </trkpt>
      <trkpt lat="46.13433" lon="11.10907">
        <ele>272.938918</ele>
        <time>2023-04-19T08:53:56.763Z</time>
      </trkpt>
      <trkpt lat="46.13428" lon="11.10891">
        <ele>272.799523</ele>
        <time>2023-04-19T08:53:58.768Z</time>
      </trkpt>
      <trkpt lat="46.13423" lon="11.10877">
        <ele>272.667947</ele>
        <time>2023-04-19T08:54:00.763Z</time>
      </trkpt>
      <trkpt lat="46.13418" lon="11.10862">
        <ele>272.538256</ele>
        <time>2023-04-19T08:54:02.763Z</time>
      </trkpt>
      <trkpt lat="46.13413" lon="11.10849">
        <ele>272.418193</ele>
        <time>2023-04-19T08:54:04.770Z</time>
      </trkpt>
      <trkpt lat="46.13408" lon="11.10836">
        <ele>272.294252</ele>
        <time>2023-04-19T08:54:06.762Z</time>
      </trkpt>
      <trkpt lat="46.13404" lon="11.10822">
        <ele>272.169748</ele>
        <time>2023-04-19T08:54:08.752Z</time>
      </trkpt>
      <trkpt lat="46.13398" lon="11.10808">
        <ele>272.039704</ele>
        <time>2023-04-19T08:54:10.779Z</time>
      </trkpt>
      <trkpt lat="46.13393" lon="11.10793">
        <ele>271.910736</ele>
        <time>2023-04-19T08:54:12.779Z</time>
      </trkpt>
      <trkpt lat="46.13389" lon="11.10778">
        <ele>271.776463</ele>
        <time>2023-04-19T08:54:14.771Z</time>
      </trkpt>
      <trkpt lat="46.13384" lon="11.10763">
        <ele>271.64317</ele>
        <time>2023-04-19T08:54:16.773Z</time>
      </trkpt>
      <trkpt lat="46.13379" lon="11.10749">
        <ele>271.51036</ele>
        <time>2023-04-19T08:54:18.758Z</time>
      </trkpt>
      <trkpt lat="46.13374" lon="11.10733">
        <ele>271.37119</ele>
        <time>2023-04-19T08:54:20.784Z</time>
      </trkpt>
      <trkpt lat="46.13369" lon="11.10717">
        <ele>271.229563</ele>
        <time>2023-04-19T08:54:22.770Z</time>
      </trkpt>
      <trkpt lat="46.13364" lon="11.10701">
        <ele>271.087698</ele>
        <time>2023-04-19T08:54:24.772Z</time>
      </trkpt>
      <trkpt lat="46.13359" lon="11.10685">
        <ele>270.944104</ele>
        <time>2023-04-19T08:54:26.759Z</time>
      </trkpt>
      <trkpt lat="46.13353" lon="11.10669">
        <ele>270.800004</ele>
        <time>2023-04-19T08:54:28.749Z</time>
      </trkpt>
      <trkpt lat="46.13348" lon="11.10653">
        <ele>270.561496</ele>
        <time>2023-04-19T08:54:30.761Z</time>
      </trkpt>
      <trkpt lat="46.13343" lon="11.10637">
        <ele>270.292518</ele>
        <time>2023-04-19T08:54:32.775Z</time>
      </trkpt>
      <trkpt lat="46.13337" lon="11.1062">
        <ele>270.02149</ele>
        <time>2023-04-19T08:54:34.766Z</time>
      </trkpt>
      <trkpt lat="46.13332" lon="11.10604">
        <ele>269.75857</ele>
        <time>2023-04-19T08:54:36.774Z</time>
      </trkpt>
      <trkpt lat="46.13327" lon="11.10588">
        <ele>269.493798</ele>
        <time>2023-04-19T08:54:38.763Z</time>
      </trkpt>
      <trkpt lat="46.13322" lon="11.10573">
        <ele>269.232641</ele>
        <time>2023-04-19T08:54:40.739Z</time>
      </trkpt>
      <trkpt lat="46.13317" lon="11.10556">
        <ele>268.967778</ele>
        <time>2023-04-19T08:54:42.772Z</time>
      </trkpt>
      <trkpt lat="46.13311" lon="11.1054">
        <ele>268.702425</ele>
        <time>2023-04-19T08:54:44.759Z</time>
      </trkpt>
      <trkpt lat="46.13305" lon="11.10525">
        <ele>268.438731</ele>
        <time>2023-04-19T08:54:46.772Z</time>
      </trkpt>
      <trkpt lat="46.133" lon="11.10509">
        <ele>268.173377</ele>
        <time>2023-04-19T08:54:48.752Z</time>
      </trkpt>
      <trkpt lat="46.13295" lon="11.10492">
        <ele>267.904156</ele>
        <time>2023-04-19T08:54:50.782Z</time>
      </trkpt>
      <trkpt lat="46.13289" lon="11.10476">
        <ele>267.632675</ele>
        <time>2023-04-19T08:54:52.772Z</time>
      </trkpt>
      <trkpt lat="46.13284" lon="11.10459">
        <ele>267.357374</ele>
        <time>2023-04-19T08:54:54.774Z</time>
      </trkpt>
      <trkpt lat="46.13278" lon="11.10443">
        <ele>267.083074</ele>
        <time>2023-04-19T08:54:56.769Z</time>
      </trkpt>
      <trkpt lat="46.13272" lon="11.10426">
        <ele>266.804788</ele>
        <time>2023-04-19T08:54:58.753Z</time>
      </trkpt>
      <trkpt lat="46.13265" lon="11.1041">
        <ele>266.527676</ele>
        <time>2023-04-19T08:55:00.769Z</time>
      </trkpt>
      <trkpt lat="46.13258" lon="11.10394">
        <ele>266.2518</ele>
        <time>2023-04-19T08:55:02.766Z</time>
      </trkpt>
      <trkpt lat="46.13251" lon="11.10379">
        <ele>265.977243</ele>
        <time>2023-04-19T08:55:04.786Z</time>
      </trkpt>
      <trkpt lat="46.13244" lon="11.10363">
        <ele>265.709703</ele>
        <time>2023-04-19T08:55:06.771Z</time>
      </trkpt>
      <trkpt lat="46.13236" lon="11.10348">
        <ele>265.436319</ele>
        <time>2023-04-19T08:55:08.774Z</time>
      </trkpt>
      <trkpt lat="46.13229" lon="11.10333">
        <ele>265.166547</ele>
        <time>2023-04-19T08:55:10.774Z</time>
      </trkpt>
      <trkpt lat="46.13221" lon="11.10319">
        <ele>264.911124</ele>
        <time>2023-04-19T08:55:12.756Z</time>
      </trkpt>
      <trkpt lat="46.13215" lon="11.10305">
        <ele>264.660666</ele>
        <time>2023-04-19T08:55:14.768Z</time>
      </trkpt>
      <trkpt lat="46.13208" lon="11.10291">
        <ele>264.405432</ele>
        <time>2023-04-19T08:55:16.764Z</time>
      </trkpt>
      <trkpt lat="46.13202" lon="11.10276">
        <ele>264.159733</ele>
        <time>2023-04-19T08:55:18.755Z</time>
      </trkpt>
      <trkpt lat="46.13195" lon="11.10263">
        <ele>263.916307</ele>
        <time>2023-04-19T08:55:20.779Z</time>
      </trkpt>
      <trkpt lat="46.13188" lon="11.1025">
        <ele>263.67012</ele>
        <time>2023-04-19T08:55:22.784Z</time>
      </trkpt>
      <trkpt lat="46.13181" lon="11.10238">
        <ele>263.441757</ele>
        <time>2023-04-19T08:55:24.778Z</time>
      </trkpt>
      <trkpt lat="46.13174" lon="11.10225">
        <ele>263.204559</ele>
        <time>2023-04-19T08:55:26.765Z</time>
      </trkpt>
      <trkpt lat="46.13167" lon="11.10213">
        <ele>262.994792</ele>
        <time>2023-04-19T08:55:28.766Z</time>
      </trkpt>
      <trkpt lat="46.1316" lon="11.10199">
        <ele>262.788947</ele>
        <time>2023-04-19T08:55:30.767Z</time>
      </trkpt>
      <trkpt lat="46.13153" lon="11.10184">
        <ele>262.57521</ele>
        <time>2023-04-19T08:55:32.737Z</time>
      </trkpt>
      <trkpt lat="46.13147" lon="11.10168">
        <ele>262.359135</ele>
        <time>2023-04-19T08:55:34.760Z</time>
      </trkpt>
      <trkpt lat="46.1314" lon="11.10154">
        <ele>262.143419</ele>
        <time>2023-04-19T08:55:36.781Z</time>
      </trkpt>
      <trkpt lat="46.13133" lon="11.10139">
        <ele>261.925653</ele>
        <time>2023-04-19T08:55:38.755Z</time>
      </trkpt>
      <trkpt lat="46.13126" lon="11.10124">
        <ele>261.712873</ele>
        <time>2023-04-19T08:55:40.783Z</time>
      </trkpt>
      <trkpt lat="46.13119" lon="11.10109">
        <ele>261.495175</ele>
        <time>2023-04-19T08:55:42.785Z</time>
      </trkpt>
      <trkpt lat="46.13112" lon="11.10095">
        <ele>261.279405</ele>
        <time>2023-04-19T08:55:44.763Z</time>
      </trkpt>
      <trkpt lat="46.13105" lon="11.10079">
        <ele>261.058549</ele>
        <time>2023-04-19T08:55:46.767Z</time>
      </trkpt>
      <trkpt lat="46.13097" lon="11.10064">
        <ele>260.831942</ele>
        <time>2023-04-19T08:55:48.768Z</time>
      </trkpt>
      <trkpt lat="46.1309" lon="11.10049">
        <ele>260.611221</ele>
        <time>2023-04-19T08:55:50.762Z</time>
      </trkpt>
      <trkpt lat="46.13083" lon="11.10034">
        <ele>260.389512</ele>
        <time>2023-04-19T08:55:52.781Z</time>
      </trkpt>
      <trkpt lat="46.13076" lon="11.10019">
        <ele>260.176415</ele>
        <time>2023-04-19T08:55:54.784Z</time>
      </trkpt>
      <trkpt lat="46.13069" lon="11.10004">
        <ele>259.968294</ele>
        <time>2023-04-19T08:55:56.778Z</time>
      </trkpt>
      <trkpt lat="46.13063" lon="11.09989">
        <ele>259.809722</ele>
        <time>2023-04-19T08:55:58.761Z</time>
      </trkpt>
      <trkpt lat="46.13055" lon="11.09973">
        <ele>259.645465</ele>
        <time>2023-04-19T08:56:00.766Z</time>
      </trkpt>
      <trkpt lat="46.13048" lon="11.09958">
        <ele>259.486043</ele>
        <time>2023-04-19T08:56:02.783Z</time>
      </trkpt>
      <trkpt lat="46.13041" lon="11.09943">
        <ele>259.33179</ele>
        <time>2023-04-19T08:56:04.765Z</time>
      </trkpt>
      <trkpt lat="46.13034" lon="11.09928">
        <ele>259.173985</ele>
        <time>2023-04-19T08:56:06.771Z</time>
      </trkpt>
      <trkpt lat="46.13027" lon="11.09913">
        <ele>259.018927</ele>
        <time>2023-04-19T08:56:08.750Z</time>
      </trkpt>
      <trkpt lat="46.13021" lon="11.09898">
        <ele>258.86091</ele>
        <time>2023-04-19T08:56:10.778Z</time>
      </trkpt>
      <trkpt lat="46.13014" lon="11.09883">
        <ele>258.702227</ele>
        <time>2023-04-19T08:56:12.766Z</time>
      </trkpt>
      <trkpt lat="46.13007" lon="11.09867">
        <ele>258.541504</ele>
        <time>2023-04-19T08:56:14.768Z</time>
      </trkpt>
      <trkpt lat="46.13" lon="11.09852">
        <ele>258.380086</ele>
        <time>2023-04-19T08:56:16.778Z</time>
      </trkpt>
      <trkpt lat="46.12993" lon="11.09837">
        <ele>258.224435</ele>
        <time>2023-04-19T08:56:18.762Z</time>
      </trkpt>
      <trkpt lat="46.12986" lon="11.09822">
        <ele>258.070161</ele>
        <time>2023-04-19T08:56:20.771Z</time>
      </trkpt>
      <trkpt lat="46.1298" lon="11.09808">
        <ele>257.91866</ele>
        <time>2023-04-19T08:56:22.781Z</time>
      </trkpt>
      <trkpt lat="46.12973" lon="11.09793">
        <ele>257.769416</ele>
        <time>2023-04-19T08:56:24.760Z</time>
      </trkpt>
      <trkpt lat="46.12966" lon="11.09779">
        <ele>257.607162</ele>
        <time>2023-04-19T08:56:26.763Z</time>
      </trkpt>
      <trkpt lat="46.1296" lon="11.09764">
        <ele>257.443639</ele>
        <time>2023-04-19T08:56:28.762Z</time>
      </trkpt>
      <trkpt lat="46.12953" lon="11.09749">
        <ele>257.276247</ele>
        <time>2023-04-19T08:56:30.771Z</time>
      </trkpt>
      <trkpt lat="46.12946" lon="11.09733">
        <ele>257.106577</ele>
        <time>2023-04-19T08:56:32.779Z</time>
      </trkpt>
      <trkpt lat="46.12939" lon="11.09718">
        <ele>256.936951</ele>
        <time>2023-04-19T08:56:34.761Z</time>
      </trkpt>
      <trkpt lat="46.12932" lon="11.09703">
        <ele>256.768876</ele>
        <time>2023-04-19T08:56:36.784Z</time>
      </trkpt>
      <trkpt lat="46.12925" lon="11.09688">
        <ele>256.596969</ele>
        <time>2023-04-19T08:56:38.746Z</time>
      </trkpt>
      <trkpt lat="46.12918" lon="11.09672">
        <ele>256.425741</ele>
        <time>2023-04-19T08:56:40.756Z</time>
      </trkpt>
      <trkpt lat="46.12911" lon="11.09657">
        <ele>256.260628</ele>
        <time>2023-04-19T08:56:42.770Z</time>
      </trkpt>
      <trkpt lat="46.12904" lon="11.09642">
        <ele>256.095452</ele>
        <time>2023-04-19T08:56:44.767Z</time>
      </trkpt>
      <trkpt lat="46.12898" lon="11.09627">
        <ele>255.931684</ele>
        <time>2023-04-19T08:56:46.775Z</time>
      </trkpt>
      <trkpt lat="46.12891" lon="11.09612">
        <ele>255.769626</ele>
        <time>2023-04-19T08:56:48.758Z</time>
      </trkpt>
      <trkpt lat="46.12885" lon="11.09597">
        <ele>255.602095</ele>
        <time>2023-04-19T08:56:50.761Z</time>
      </trkpt>
      <trkpt lat="46.12878" lon="11.09582">
        <ele>255.434641</ele>
        <time>2023-04-19T08:56:52.768Z</time>
      </trkpt>
      <trkpt lat="46.12871" lon="11.09567">
        <ele>255.272888</ele>
        <time>2023-04-19T08:56:54.770Z</time>
      </trkpt>
      <trkpt lat="46.12864" lon="11.09551">
        <ele>255.11981</ele>
        <time>2023-04-19T08:56:56.776Z</time>
      </trkpt>
      <trkpt lat="46.12857" lon="11.09536">
        <ele>254.973499</ele>
        <time>2023-04-19T08:56:58.764Z</time>
      </trkpt>
      <trkpt lat="46.1285" lon="11.09521">
        <ele>254.818945</ele>
        <time>2023-04-19T08:57:00.763Z</time>
      </trkpt>
      <trkpt lat="46.12844" lon="11.09506">
        <ele>254.674462</ele>
        <time>2023-04-19T08:57:02.778Z</time>
      </trkpt>
      <trkpt lat="46.12838" lon="11.09491">
        <ele>254.531916</ele>
        <time>2023-04-19T08:57:04.762Z</time>
      </trkpt>
      <trkpt lat="46.12832" lon="11.09476">
        <ele>254.391412</ele>
        <time>2023-04-19T08:57:06.766Z</time>
      </trkpt>
      <trkpt lat="46.12826" lon="11.09462">
        <ele>254.246928</ele>
        <time>2023-04-19T08:57:08.743Z</time>
      </trkpt>
      <trkpt lat="46.1282" lon="11.09447">
        <ele>254.108103</ele>
        <time>2023-04-19T08:57:10.772Z</time>
      </trkpt>
      <trkpt lat="46.12814" lon="11.09433">
        <ele>253.96984</ele>
        <time>2023-04-19T08:57:12.749Z</time>
      </trkpt>
      <trkpt lat="46.12808" lon="11.0942">
        <ele>253.835163</ele>
        <time>2023-04-19T08:57:14.778Z</time>
      </trkpt>
      <trkpt lat="46.12801" lon="11.09407">
        <ele>253.695416</ele>
        <time>2023-04-19T08:57:16.776Z</time>
      </trkpt>
      <trkpt lat="46.12793" lon="11.09394">
        <ele>253.56041</ele>
        <time>2023-04-19T08:57:18.755Z</time>
      </trkpt>
      <trkpt lat="46.12786" lon="11.09381">
        <ele>253.417916</ele>
        <time>2023-04-19T08:57:20.767Z</time>
      </trkpt>
      <trkpt lat="46.12778" lon="11.09369">
        <ele>253.27808</ele>
        <time>2023-04-19T08:57:22.782Z</time>
      </trkpt>
      <trkpt lat="46.1277" lon="11.09355">
        <ele>253.137764</ele>
        <time>2023-04-19T08:57:24.771Z</time>
      </trkpt>
      <trkpt lat="46.12761" lon="11.09343">
        <ele>253.021808</ele>
        <time>2023-04-19T08:57:26.774Z</time>
      </trkpt>
      <trkpt lat="46.12754" lon="11.09329">
        <ele>252.907267</ele>
        <time>2023-04-19T08:57:28.759Z</time>
      </trkpt>
      <trkpt lat="46.12746" lon="11.09316">
        <ele>252.791475</ele>
        <time>2023-04-19T08:57:30.738Z</time>
      </trkpt>
      <trkpt lat="46.12738" lon="11.09304">
        <ele>252.680699</ele>
        <time>2023-04-19T08:57:32.783Z</time>
      </trkpt>
      <trkpt lat="46.1273" lon="11.09291">
        <ele>252.565058</ele>
        <time>2023-04-19T08:57:34.766Z</time>
      </trkpt>
      <trkpt lat="46.12721" lon="11.09278">
        <ele>252.45072</ele>
        <time>2023-04-19T08:57:36.770Z</time>
      </trkpt>
      <trkpt lat="46.12713" lon="11.09265">
        <ele>252.332818</ele>
        <time>2023-04-19T08:57:38.752Z</time>
      </trkpt>
      <trkpt lat="46.12705" lon="11.09252">
        <ele>252.214425</ele>
        <time>2023-04-19T08:57:40.760Z</time>
      </trkpt>
      <trkpt lat="46.12697" lon="11.09238">
        <ele>252.094549</ele>
        <time>2023-04-19T08:57:42.762Z</time>
      </trkpt>
      <trkpt lat="46.12688" lon="11.09226">
        <ele>251.978705</ele>
        <time>2023-04-19T08:57:44.761Z</time>
      </trkpt>
      <trkpt lat="46.1268" lon="11.09212">
        <ele>251.860453</ele>
        <time>2023-04-19T08:57:46.751Z</time>
      </trkpt>
      <trkpt lat="46.12672" lon="11.09199">
        <ele>251.742201</ele>
        <time>2023-04-19T08:57:48.747Z</time>
      </trkpt>
      <trkpt lat="46.12663" lon="11.09186">
        <ele>251.623973</ele>
        <time>2023-04-19T08:57:50.763Z</time>
      </trkpt>
      <trkpt lat="46.12655" lon="11.09172">
        <ele>251.503806</ele>
        <time>2023-04-19T08:57:52.770Z</time>
      </trkpt>
      <trkpt lat="46.12646" lon="11.09159">
        <ele>251.354583</ele>
        <time>2023-04-19T08:57:54.769Z</time>
      </trkpt>
      <trkpt lat="46.12638" lon="11.09145">
        <ele>251.180206</ele>
        <time>2023-04-19T08:57:56.767Z</time>
      </trkpt>
      <trkpt lat="46.1263" lon="11.09132">
        <ele>251.008885</ele>
        <time>2023-04-19T08:57:58.755Z</time>
      </trkpt>
      <trkpt lat="46.12621" lon="11.09118">
        <ele>250.836018</ele>
        <time>2023-04-19T08:58:00.775Z</time>
      </trkpt>
      <trkpt lat="46.12613" lon="11.09105">
        <ele>250.659289</ele>
        <time>2023-04-19T08:58:02.749Z</time>
      </trkpt>
      <trkpt lat="46.12605" lon="11.09091">
        <ele>250.491452</ele>
        <time>2023-04-19T08:58:04.759Z</time>
      </trkpt>
      <trkpt lat="46.12597" lon="11.09079">
        <ele>250.332821</ele>
        <time>2023-04-19T08:58:06.758Z</time>
      </trkpt>
      <trkpt lat="46.12589" lon="11.0907">
        <ele>250.193995</ele>
        <time>2023-04-19T08:58:08.771Z</time>
      </trkpt>
      <trkpt lat="46.12578" lon="11.09061">
        <ele>250.015961</ele>
        <time>2023-04-19T08:58:11.758Z</time>
      </trkpt>
      <trkpt lat="46.12576" lon="11.09045">
        <ele>249.859889</ele>
        <time>2023-04-19T08:58:14.759Z</time>
      </trkpt>
      <trkpt lat="46.12578" lon="11.09033">
        <ele>249.735485</ele>
        <time>2023-04-19T08:58:16.771Z</time>
      </trkpt>
      <trkpt lat="46.12583" lon="11.09017">
        <ele>249.571133</ele>
        <time>2023-04-19T08:58:18.769Z</time>
      </trkpt>
      <trkpt lat="46.12589" lon="11.08999">
        <ele>249.379212</ele>
        <time>2023-04-19T08:58:20.754Z</time>
      </trkpt>
      <trkpt lat="46.12595" lon="11.08983">
        <ele>249.198638</ele>
        <time>2023-04-19T08:58:22.759Z</time>
      </trkpt>
      <trkpt lat="46.12597" lon="11.08967">
        <ele>249.049424</ele>
        <time>2023-04-19T08:58:24.769Z</time>
      </trkpt>
      <trkpt lat="46.1259" lon="11.08955">
        <ele>248.872908</ele>
        <time>2023-04-19T08:58:26.766Z</time>
      </trkpt>
      <trkpt lat="46.12581" lon="11.08948">
        <ele>248.670707</ele>
        <time>2023-04-19T08:58:28.761Z</time>
      </trkpt>
      <trkpt lat="46.12571" lon="11.08943">
        <ele>248.466059</ele>
        <time>2023-04-19T08:58:30.751Z</time>
      </trkpt>
      <trkpt lat="46.12559" lon="11.08939">
        <ele>248.249094</ele>
        <time>2023-04-19T08:58:32.782Z</time>
      </trkpt>
      <trkpt lat="46.12549" lon="11.08934">
        <ele>248.045236</ele>
        <time>2023-04-19T08:58:34.773Z</time>
      </trkpt>
      <trkpt lat="46.12539" lon="11.0893">
        <ele>247.837762</ele>
        <time>2023-04-19T08:58:36.768Z</time>
      </trkpt>
      <trkpt lat="46.12528" lon="11.08924">
        <ele>247.618557</ele>
        <time>2023-04-19T08:58:38.762Z</time>
      </trkpt>
      <trkpt lat="46.12517" lon="11.08917">
        <ele>247.402532</ele>
        <time>2023-04-19T08:58:40.779Z</time>
      </trkpt>
      <trkpt lat="46.12507" lon="11.08911">
        <ele>247.190089</ele>
        <time>2023-04-19T08:58:42.776Z</time>
      </trkpt>
      <trkpt lat="46.12496" lon="11.08903">
        <ele>246.960616</ele>
        <time>2023-04-19T08:58:44.759Z</time>
      </trkpt>
      <trkpt lat="46.12484" lon="11.08895">
        <ele>246.716378</ele>
        <time>2023-04-19T08:58:46.763Z</time>
      </trkpt>
      <trkpt lat="46.12473" lon="11.08889">
        <ele>246.484891</ele>
        <time>2023-04-19T08:58:48.772Z</time>
      </trkpt>
      <trkpt lat="46.12462" lon="11.08881">
        <ele>246.262216</ele>
        <time>2023-04-19T08:58:50.782Z</time>
      </trkpt>
      <trkpt lat="46.12452" lon="11.08874">
        <ele>246.052008</ele>
        <time>2023-04-19T08:58:52.763Z</time>
      </trkpt>
      <trkpt lat="46.12443" lon="11.08867">
        <ele>245.85079</ele>
        <time>2023-04-19T08:58:54.771Z</time>
      </trkpt>
      <trkpt lat="46.12434" lon="11.0886">
        <ele>245.650617</ele>
        <time>2023-04-19T08:58:56.761Z</time>
      </trkpt>
      <trkpt lat="46.12424" lon="11.08852">
        <ele>245.419451</ele>
        <time>2023-04-19T08:58:58.768Z</time>
      </trkpt>
      <trkpt lat="46.12412" lon="11.08844">
        <ele>245.158421</ele>
        <time>2023-04-19T08:59:00.765Z</time>
      </trkpt>
      <trkpt lat="46.12402" lon="11.08836">
        <ele>244.895123</ele>
        <time>2023-04-19T08:59:02.780Z</time>
      </trkpt>
      <trkpt lat="46.12392" lon="11.08826">
        <ele>244.652727</ele>
        <time>2023-04-19T08:59:04.774Z</time>
      </trkpt>
      <trkpt lat="46.12384" lon="11.08816">
        <ele>244.41974</ele>
        <time>2023-04-19T08:59:06.757Z</time>
      </trkpt>
      <trkpt lat="46.12376" lon="11.08805">
        <ele>244.186399</ele>
        <time>2023-04-19T08:59:08.753Z</time>
      </trkpt>
      <trkpt lat="46.12368" lon="11.08794">
        <ele>243.949397</ele>
        <time>2023-04-19T08:59:10.761Z</time>
      </trkpt>
      <trkpt lat="46.1236" lon="11.08783">
        <ele>243.711092</ele>
        <time>2023-04-19T08:59:12.766Z</time>
      </trkpt>
      <trkpt lat="46.12352" lon="11.08772">
        <ele>243.479423</ele>
        <time>2023-04-19T08:59:14.775Z</time>
      </trkpt>
      <trkpt lat="46.12344" lon="11.08761">
        <ele>243.249178</ele>
        <time>2023-04-19T08:59:16.766Z</time>
      </trkpt>
      <trkpt lat="46.12338" lon="11.08749">
        <ele>243.025458</ele>
        <time>2023-04-19T08:59:18.750Z</time>
      </trkpt>
      <trkpt lat="46.12331" lon="11.08737">
        <ele>242.802518</ele>
        <time>2023-04-19T08:59:20.761Z</time>
      </trkpt>
      <trkpt lat="46.12322" lon="11.08727">
        <ele>242.571275</ele>
        <time>2023-04-19T08:59:22.777Z</time>
      </trkpt>
      <trkpt lat="46.12312" lon="11.08728">
        <ele>242.360943</ele>
        <time>2023-04-19T08:59:24.763Z</time>
      </trkpt>
      <trkpt lat="46.12303" lon="11.08737">
        <ele>242.132772</ele>
        <time>2023-04-19T08:59:26.759Z</time>
      </trkpt>
      <trkpt lat="46.12294" lon="11.08745">
        <ele>241.901776</ele>
        <time>2023-04-19T08:59:28.742Z</time>
      </trkpt>
      <trkpt lat="46.12284" lon="11.08749">
        <ele>241.71072</ele>
        <time>2023-04-19T08:59:30.753Z</time>
      </trkpt>
      <trkpt lat="46.12274" lon="11.08748">
        <ele>241.589717</ele>
        <time>2023-04-19T08:59:32.760Z</time>
      </trkpt>
      <trkpt lat="46.12265" lon="11.0874">
        <ele>241.472833</ele>
        <time>2023-04-19T08:59:34.750Z</time>
      </trkpt>
      <trkpt lat="46.12259" lon="11.08729">
        <ele>241.353422</ele>
        <time>2023-04-19T08:59:36.749Z</time>
      </trkpt>
      <trkpt lat="46.12254" lon="11.08715">
        <ele>241.22583</ele>
        <time>2023-04-19T08:59:38.753Z</time>
      </trkpt>
      <trkpt lat="46.12249" lon="11.08701">
        <ele>241.100556</ele>
        <time>2023-04-19T08:59:40.748Z</time>
      </trkpt>
      <trkpt lat="46.12245" lon="11.08688">
        <ele>240.981148</ele>
        <time>2023-04-19T08:59:42.773Z</time>
      </trkpt>
      <trkpt lat="46.12241" lon="11.08673">
        <ele>240.853653</ele>
        <time>2023-04-19T08:59:44.737Z</time>
      </trkpt>
      <trkpt lat="46.12238" lon="11.08659">
        <ele>240.729598</ele>
        <time>2023-04-19T08:59:46.767Z</time>
      </trkpt>
      <trkpt lat="46.12236" lon="11.08644">
        <ele>240.60713</ele>
        <time>2023-04-19T08:59:48.744Z</time>
      </trkpt>
      <trkpt lat="46.12235" lon="11.0863">
        <ele>240.492177</ele>
        <time>2023-04-19T08:59:50.756Z</time>
      </trkpt>
      <trkpt lat="46.1223" lon="11.08612">
        <ele>240.336686</ele>
        <time>2023-04-19T08:59:53.743Z</time>
      </trkpt>
      <trkpt lat="46.12223" lon="11.08603">
        <ele>240.223362</ele>
        <time>2023-04-19T08:59:55.754Z</time>
      </trkpt>
      <trkpt lat="46.12213" lon="11.08595">
        <ele>240.092147</ele>
        <time>2023-04-19T08:59:59.749Z</time>
      </trkpt>
      <trkpt lat="46.12205" lon="11.08585">
        <ele>239.965597</ele>
        <time>2023-04-19T09:00:02.755Z</time>
      </trkpt>
      <trkpt lat="46.12199" lon="11.08574">
        <ele>239.856187</ele>
        <time>2023-04-19T09:00:05.753Z</time>
      </trkpt>
      <trkpt lat="46.12192" lon="11.08564">
        <ele>239.740945</ele>
        <time>2023-04-19T09:00:18.749Z</time>
      </trkpt>
      <trkpt lat="46.12183" lon="11.08551">
        <ele>239.70074</ele>
        <time>2023-04-19T09:00:21.754Z</time>
      </trkpt>
      <trkpt lat="46.12177" lon="11.08539">
        <ele>239.856217</ele>
        <time>2023-04-19T09:00:23.751Z</time>
      </trkpt>
      <trkpt lat="46.1217" lon="11.08525">
        <ele>240.0324</ele>
        <time>2023-04-19T09:00:25.734Z</time>
      </trkpt>
      <trkpt lat="46.12162" lon="11.08515">
        <ele>240.174367</ele>
        <time>2023-04-19T09:00:27.764Z</time>
      </trkpt>
      <trkpt lat="46.12155" lon="11.08506">
        <ele>240.321591</ele>
        <time>2023-04-19T09:00:29.743Z</time>
      </trkpt>
      <trkpt lat="46.12145" lon="11.08496">
        <ele>240.491639</ele>
        <time>2023-04-19T09:00:31.741Z</time>
      </trkpt>
      <trkpt lat="46.12137" lon="11.08487">
        <ele>240.634626</ele>
        <time>2023-04-19T09:00:33.758Z</time>
      </trkpt>
      <trkpt lat="46.12127" lon="11.0848">
        <ele>240.7943</ele>
        <time>2023-04-19T09:00:36.748Z</time>
      </trkpt>
      <trkpt lat="46.12116" lon="11.08475">
        <ele>240.964653</ele>
        <time>2023-04-19T09:00:39.762Z</time>
      </trkpt>
      <trkpt lat="46.12103" lon="11.08473">
        <ele>241.153637</ele>
        <time>2023-04-19T09:00:42.739Z</time>
      </trkpt>
      <trkpt lat="46.1209" lon="11.08475">
        <ele>241.34188</ele>
        <time>2023-04-19T09:00:45.770Z</time>
      </trkpt>
      <trkpt lat="46.12082" lon="11.08478">
        <ele>241.473553</ele>
        <time>2023-04-19T09:00:47.767Z</time>
      </trkpt>
      <trkpt lat="46.12069" lon="11.08482">
        <ele>241.652806</ele>
        <time>2023-04-19T09:00:50.776Z</time>
      </trkpt>
      <trkpt lat="46.12056" lon="11.08486">
        <ele>241.85297</ele>
        <time>2023-04-19T09:00:53.757Z</time>
      </trkpt>
      <trkpt lat="46.12047" lon="11.08488">
        <ele>241.987971</ele>
        <time>2023-04-19T09:00:55.769Z</time>
      </trkpt>
      <trkpt lat="46.12037" lon="11.08491">
        <ele>242.129165</ele>
        <time>2023-04-19T09:00:57.769Z</time>
      </trkpt>
      <trkpt lat="46.12028" lon="11.08494">
        <ele>242.247393</ele>
        <time>2023-04-19T09:00:59.755Z</time>
      </trkpt>
      <trkpt lat="46.12018" lon="11.08497">
        <ele>242.219717</ele>
        <time>2023-04-19T09:01:01.770Z</time>
      </trkpt>
      <trkpt lat="46.12008" lon="11.08501">
        <ele>242.191825</ele>
        <time>2023-04-19T09:01:03.755Z</time>
      </trkpt>
      <trkpt lat="46.11998" lon="11.08503">
        <ele>242.163321</ele>
        <time>2023-04-19T09:01:05.734Z</time>
      </trkpt>
      <trkpt lat="46.11987" lon="11.08506">
        <ele>242.134955</ele>
        <time>2023-04-19T09:01:07.772Z</time>
      </trkpt>
      <trkpt lat="46.11977" lon="11.08509">
        <ele>242.106354</ele>
        <time>2023-04-19T09:01:09.760Z</time>
      </trkpt>
      <trkpt lat="46.11967" lon="11.08512">
        <ele>242.077342</ele>
        <time>2023-04-19T09:01:11.758Z</time>
      </trkpt>
      <trkpt lat="46.11956" lon="11.08515">
        <ele>242.047428</ele>
        <time>2023-04-19T09:01:13.757Z</time>
      </trkpt>
      <trkpt lat="46.11946" lon="11.08518">
        <ele>242.018377</ele>
        <time>2023-04-19T09:01:15.753Z</time>
      </trkpt>
      <trkpt lat="46.11936" lon="11.08521">
        <ele>241.990166</ele>
        <time>2023-04-19T09:01:17.749Z</time>
      </trkpt>
      <trkpt lat="46.11926" lon="11.08525">
        <ele>241.963691</ele>
        <time>2023-04-19T09:01:19.772Z</time>
      </trkpt>
      <trkpt lat="46.11917" lon="11.08528">
        <ele>241.936951</ele>
        <time>2023-04-19T09:01:21.771Z</time>
      </trkpt>
      <trkpt lat="46.11907" lon="11.08531">
        <ele>241.908779</ele>
        <time>2023-04-19T09:01:23.763Z</time>
      </trkpt>
      <trkpt lat="46.11896" lon="11.08534">
        <ele>241.880072</ele>
        <time>2023-04-19T09:01:25.753Z</time>
      </trkpt>
      <trkpt lat="46.11886" lon="11.08537">
        <ele>241.851472</ele>
        <time>2023-04-19T09:01:27.766Z</time>
      </trkpt>
      <trkpt lat="46.11875" lon="11.0854">
        <ele>241.821796</ele>
        <time>2023-04-19T09:01:29.759Z</time>
      </trkpt>
      <trkpt lat="46.11865" lon="11.08543">
        <ele>241.792285</ele>
        <time>2023-04-19T09:01:31.753Z</time>
      </trkpt>
      <trkpt lat="46.11854" lon="11.08546">
        <ele>241.762619</ele>
        <time>2023-04-19T09:01:33.764Z</time>
      </trkpt>
      <trkpt lat="46.11843" lon="11.08549">
        <ele>241.712098</ele>
        <time>2023-04-19T09:01:35.768Z</time>
      </trkpt>
      <trkpt lat="46.11833" lon="11.08552">
        <ele>241.659889</ele>
        <time>2023-04-19T09:01:37.766Z</time>
      </trkpt>
      <trkpt lat="46.11822" lon="11.08555">
        <ele>241.606521</ele>
        <time>2023-04-19T09:01:39.773Z</time>
      </trkpt>
      <trkpt lat="46.11811" lon="11.08558">
        <ele>241.554378</ele>
        <time>2023-04-19T09:01:41.773Z</time>
      </trkpt>
      <trkpt lat="46.11801" lon="11.08562">
        <ele>241.503896</ele>
        <time>2023-04-19T09:01:43.760Z</time>
      </trkpt>
      <trkpt lat="46.1179" lon="11.08565">
        <ele>241.450282</ele>
        <time>2023-04-19T09:01:45.774Z</time>
      </trkpt>
      <trkpt lat="46.11779" lon="11.08567">
        <ele>241.398965</ele>
        <time>2023-04-19T09:01:47.771Z</time>
      </trkpt>
      <trkpt lat="46.11769" lon="11.0857">
        <ele>241.350166</ele>
        <time>2023-04-19T09:01:49.756Z</time>
      </trkpt>
      <trkpt lat="46.11758" lon="11.08574">
        <ele>241.298137</ele>
        <time>2023-04-19T09:01:51.766Z</time>
      </trkpt>
      <trkpt lat="46.11748" lon="11.08577">
        <ele>241.248466</ele>
        <time>2023-04-19T09:01:53.751Z</time>
      </trkpt>
      <trkpt lat="46.11738" lon="11.0858">
        <ele>241.19873</ele>
        <time>2023-04-19T09:01:55.755Z</time>
      </trkpt>
      <trkpt lat="46.11727" lon="11.08583">
        <ele>241.146521</ele>
        <time>2023-04-19T09:01:57.759Z</time>
      </trkpt>
      <trkpt lat="46.11717" lon="11.08586">
        <ele>241.095783</ele>
        <time>2023-04-19T09:01:59.754Z</time>
      </trkpt>
      <trkpt lat="46.11706" lon="11.08589">
        <ele>241.045044</ele>
        <time>2023-04-19T09:02:01.758Z</time>
      </trkpt>
      <trkpt lat="46.11696" lon="11.08592">
        <ele>240.995639</ele>
        <time>2023-04-19T09:02:03.755Z</time>
      </trkpt>
      <trkpt lat="46.11686" lon="11.08595">
        <ele>240.946371</ele>
        <time>2023-04-19T09:02:05.765Z</time>
      </trkpt>
      <trkpt lat="46.11676" lon="11.08599">
        <ele>240.886921</ele>
        <time>2023-04-19T09:02:07.772Z</time>
      </trkpt>
      <trkpt lat="46.11665" lon="11.08602">
        <ele>240.7381</ele>
        <time>2023-04-19T09:02:09.788Z</time>
      </trkpt>
      <trkpt lat="46.11655" lon="11.08606">
        <ele>240.588393</ele>
        <time>2023-04-19T09:02:11.768Z</time>
      </trkpt>
      <trkpt lat="46.11644" lon="11.08609">
        <ele>240.440726</ele>
        <time>2023-04-19T09:02:13.771Z</time>
      </trkpt>
      <trkpt lat="46.11634" lon="11.08612">
        <ele>240.299072</ele>
        <time>2023-04-19T09:02:15.757Z</time>
      </trkpt>
      <trkpt lat="46.11624" lon="11.08614">
        <ele>240.154432</ele>
        <time>2023-04-19T09:02:17.752Z</time>
      </trkpt>
      <trkpt lat="46.11614" lon="11.08616">
        <ele>240.016556</ele>
        <time>2023-04-19T09:02:19.759Z</time>
      </trkpt>
      <trkpt lat="46.11604" lon="11.08619">
        <ele>239.869085</ele>
        <time>2023-04-19T09:02:21.752Z</time>
      </trkpt>
      <trkpt lat="46.11594" lon="11.08621">
        <ele>239.726005</ele>
        <time>2023-04-19T09:02:23.759Z</time>
      </trkpt>
      <trkpt lat="46.11583" lon="11.08624">
        <ele>239.582044</ele>
        <time>2023-04-19T09:02:25.779Z</time>
      </trkpt>
      <trkpt lat="46.11573" lon="11.08627">
        <ele>239.43366</ele>
        <time>2023-04-19T09:02:27.753Z</time>
      </trkpt>
      <trkpt lat="46.11562" lon="11.0863">
        <ele>239.27712</ele>
        <time>2023-04-19T09:02:29.744Z</time>
      </trkpt>
      <trkpt lat="46.11551" lon="11.08634">
        <ele>239.127868</ele>
        <time>2023-04-19T09:02:31.774Z</time>
      </trkpt>
      <trkpt lat="46.11541" lon="11.08637">
        <ele>238.986616</ele>
        <time>2023-04-19T09:02:33.760Z</time>
      </trkpt>
      <trkpt lat="46.11531" lon="11.0864">
        <ele>238.842967</ele>
        <time>2023-04-19T09:02:35.766Z</time>
      </trkpt>
      <trkpt lat="46.11521" lon="11.08643">
        <ele>238.70125</ele>
        <time>2023-04-19T09:02:37.770Z</time>
      </trkpt>
      <trkpt lat="46.1151" lon="11.08645">
        <ele>238.55392</ele>
        <time>2023-04-19T09:02:39.760Z</time>
      </trkpt>
      <trkpt lat="46.115" lon="11.08649">
        <ele>238.414183</ele>
        <time>2023-04-19T09:02:41.776Z</time>
      </trkpt>
      <trkpt lat="46.1149" lon="11.08651">
        <ele>238.443667</ele>
        <time>2023-04-19T09:02:43.753Z</time>
      </trkpt>
      <trkpt lat="46.1148" lon="11.08654">
        <ele>238.473081</ele>
        <time>2023-04-19T09:02:45.754Z</time>
      </trkpt>
      <trkpt lat="46.1147" lon="11.08657">
        <ele>238.50418</ele>
        <time>2023-04-19T09:02:47.768Z</time>
      </trkpt>
      <trkpt lat="46.1146" lon="11.0866">
        <ele>238.532965</ele>
        <time>2023-04-19T09:02:49.759Z</time>
      </trkpt>
      <trkpt lat="46.1145" lon="11.08663">
        <ele>238.562449</ele>
        <time>2023-04-19T09:02:51.768Z</time>
      </trkpt>
      <trkpt lat="46.11439" lon="11.08665">
        <ele>238.594002</ele>
        <time>2023-04-19T09:02:53.768Z</time>
      </trkpt>
      <trkpt lat="46.11429" lon="11.08668">
        <ele>238.624378</ele>
        <time>2023-04-19T09:02:55.757Z</time>
      </trkpt>
      <trkpt lat="46.11418" lon="11.08671">
        <ele>238.656695</ele>
        <time>2023-04-19T09:02:57.763Z</time>
      </trkpt>
      <trkpt lat="46.11407" lon="11.08674">
        <ele>238.688647</ele>
        <time>2023-04-19T09:02:59.760Z</time>
      </trkpt>
      <trkpt lat="46.11397" lon="11.08678">
        <ele>238.718787</ele>
        <time>2023-04-19T09:03:01.742Z</time>
      </trkpt>
      <trkpt lat="46.11386" lon="11.08681">
        <ele>238.750494</ele>
        <time>2023-04-19T09:03:03.756Z</time>
      </trkpt>
      <trkpt lat="46.11376" lon="11.08685">
        <ele>238.782329</ele>
        <time>2023-04-19T09:03:05.754Z</time>
      </trkpt>
      <trkpt lat="46.11365" lon="11.08688">
        <ele>238.813673</ele>
        <time>2023-04-19T09:03:07.756Z</time>
      </trkpt>
      <trkpt lat="46.11355" lon="11.0869">
        <ele>238.84452</ele>
        <time>2023-04-19T09:03:09.751Z</time>
      </trkpt>
      <trkpt lat="46.11344" lon="11.08693">
        <ele>238.876863</ele>
        <time>2023-04-19T09:03:11.739Z</time>
      </trkpt>
      <trkpt lat="46.11333" lon="11.08696">
        <ele>238.907393</ele>
        <time>2023-04-19T09:03:13.745Z</time>
      </trkpt>
      <trkpt lat="46.11323" lon="11.08699">
        <ele>238.943615</ele>
        <time>2023-04-19T09:03:15.760Z</time>
      </trkpt>
      <trkpt lat="46.11313" lon="11.08703">
        <ele>239.034324</ele>
        <time>2023-04-19T09:03:17.757Z</time>
      </trkpt>
      <trkpt lat="46.11302" lon="11.08705">
        <ele>239.132329</ele>
        <time>2023-04-19T09:03:19.755Z</time>
      </trkpt>
      <trkpt lat="46.11292" lon="11.08709">
        <ele>239.227174</ele>
        <time>2023-04-19T09:03:21.751Z</time>
      </trkpt>
      <trkpt lat="46.11281" lon="11.08712">
        <ele>239.322302</ele>
        <time>2023-04-19T09:03:23.763Z</time>
      </trkpt>
      <trkpt lat="46.1127" lon="11.08715">
        <ele>239.41812</ele>
        <time>2023-04-19T09:03:25.756Z</time>
      </trkpt>
      <trkpt lat="46.1126" lon="11.08717">
        <ele>239.506972</ele>
        <time>2023-04-19T09:03:27.754Z</time>
      </trkpt>
      <trkpt lat="46.1125" lon="11.0872">
        <ele>239.598999</ele>
        <time>2023-04-19T09:03:29.759Z</time>
      </trkpt>
      <trkpt lat="46.1124" lon="11.08723">
        <ele>239.691728</ele>
        <time>2023-04-19T09:03:31.777Z</time>
      </trkpt>
      <trkpt lat="46.1123" lon="11.08726">
        <ele>239.784208</ele>
        <time>2023-04-19T09:03:33.752Z</time>
      </trkpt>
      <trkpt lat="46.1122" lon="11.0873">
        <ele>239.874369</ele>
        <time>2023-04-19T09:03:35.741Z</time>
      </trkpt>
      <trkpt lat="46.1121" lon="11.08732">
        <ele>239.961957</ele>
        <time>2023-04-19T09:03:37.734Z</time>
      </trkpt>
      <trkpt lat="46.11199" lon="11.08735">
        <ele>240.055719</ele>
        <time>2023-04-19T09:03:39.740Z</time>
      </trkpt>
      <trkpt lat="46.11189" lon="11.08739">
        <ele>240.147994</ele>
        <time>2023-04-19T09:03:41.761Z</time>
      </trkpt>
      <trkpt lat="46.11179" lon="11.08741">
        <ele>240.240022</ele>
        <time>2023-04-19T09:03:43.765Z</time>
      </trkpt>
      <trkpt lat="46.11168" lon="11.08744">
        <ele>240.336596</ele>
        <time>2023-04-19T09:03:45.760Z</time>
      </trkpt>
      <trkpt lat="46.11158" lon="11.08748">
        <ele>240.427079</ele>
        <time>2023-04-19T09:03:47.756Z</time>
      </trkpt>
      <trkpt lat="46.11148" lon="11.0875">
        <ele>240.517858</ele>
        <time>2023-04-19T09:03:49.754Z</time>
      </trkpt>
      <trkpt lat="46.11139" lon="11.08753">
        <ele>240.508044</ele>
        <time>2023-04-19T09:03:51.781Z</time>
      </trkpt>
      <trkpt lat="46.11128" lon="11.08756">
        <ele>240.496967</ele>
        <time>2023-04-19T09:03:53.757Z</time>
      </trkpt>
      <trkpt lat="46.11118" lon="11.08759">
        <ele>240.48638</ele>
        <time>2023-04-19T09:03:55.758Z</time>
      </trkpt>
      <trkpt lat="46.11108" lon="11.08762">
        <ele>240.475765</ele>
        <time>2023-04-19T09:03:57.763Z</time>
      </trkpt>
      <trkpt lat="46.11098" lon="11.08764">
        <ele>240.465521</ele>
        <time>2023-04-19T09:03:59.759Z</time>
      </trkpt>
      <trkpt lat="46.11088" lon="11.08766">
        <ele>240.454628</ele>
        <time>2023-04-19T09:04:01.757Z</time>
      </trkpt>
      <trkpt lat="46.11077" lon="11.0877">
        <ele>240.443502</ele>
        <time>2023-04-19T09:04:03.770Z</time>
      </trkpt>
      <trkpt lat="46.11066" lon="11.08774">
        <ele>240.432276</ele>
        <time>2023-04-19T09:04:05.770Z</time>
      </trkpt>
      <trkpt lat="46.11056" lon="11.08777">
        <ele>240.420941</ele>
        <time>2023-04-19T09:04:07.769Z</time>
      </trkpt>
      <trkpt lat="46.11045" lon="11.0878">
        <ele>240.409547</ele>
        <time>2023-04-19T09:04:09.767Z</time>
      </trkpt>
      <trkpt lat="46.11034" lon="11.08784">
        <ele>240.397851</ele>
        <time>2023-04-19T09:04:11.756Z</time>
      </trkpt>
      <trkpt lat="46.11023" lon="11.08787">
        <ele>240.386673</ele>
        <time>2023-04-19T09:04:13.773Z</time>
      </trkpt>
      <trkpt lat="46.11013" lon="11.0879">
        <ele>240.375857</ele>
        <time>2023-04-19T09:04:15.777Z</time>
      </trkpt>
      <trkpt lat="46.11002" lon="11.08794">
        <ele>240.364377</ele>
        <time>2023-04-19T09:04:17.756Z</time>
      </trkpt>
      <trkpt lat="46.10991" lon="11.08797">
        <ele>240.353143</ele>
        <time>2023-04-19T09:04:19.750Z</time>
      </trkpt>
      <trkpt lat="46.10981" lon="11.088">
        <ele>240.342139</ele>
        <time>2023-04-19T09:04:21.761Z</time>
      </trkpt>
      <trkpt lat="46.1097" lon="11.08802">
        <ele>240.344956</ele>
        <time>2023-04-19T09:04:23.766Z</time>
      </trkpt>
      <trkpt lat="46.10959" lon="11.08805">
        <ele>240.413864</ele>
        <time>2023-04-19T09:04:25.772Z</time>
      </trkpt>
      <trkpt lat="46.10948" lon="11.08808">
        <ele>240.481861</ele>
        <time>2023-04-19T09:04:27.759Z</time>
      </trkpt>
      <trkpt lat="46.10937" lon="11.08811">
        <ele>240.550687</ele>
        <time>2023-04-19T09:04:29.750Z</time>
      </trkpt>
      <trkpt lat="46.10926" lon="11.08815">
        <ele>240.61789</ele>
        <time>2023-04-19T09:04:31.768Z</time>
      </trkpt>
      <trkpt lat="46.10914" lon="11.08818">
        <ele>240.687912</ele>
        <time>2023-04-19T09:04:33.751Z</time>
      </trkpt>
      <trkpt lat="46.10903" lon="11.08821">
        <ele>240.757933</ele>
        <time>2023-04-19T09:04:35.758Z</time>
      </trkpt>
      <trkpt lat="46.10892" lon="11.08824">
        <ele>240.824886</ele>
        <time>2023-04-19T09:04:37.759Z</time>
      </trkpt>
      <trkpt lat="46.10881" lon="11.08828">
        <ele>240.893842</ele>
        <time>2023-04-19T09:04:39.773Z</time>
      </trkpt>
      <trkpt lat="46.1087" lon="11.08831">
        <ele>240.961913</ele>
        <time>2023-04-19T09:04:41.776Z</time>
      </trkpt>
      <trkpt lat="46.10859" lon="11.08835">
        <ele>241.030971</ele>
        <time>2023-04-19T09:04:43.754Z</time>
      </trkpt>
      <trkpt lat="46.10848" lon="11.08837">
        <ele>241.10024</ele>
        <time>2023-04-19T09:04:45.780Z</time>
      </trkpt>
      <trkpt lat="46.10837" lon="11.0884">
        <ele>241.170109</ele>
        <time>2023-04-19T09:04:47.755Z</time>
      </trkpt>
      <trkpt lat="46.10826" lon="11.08844">
        <ele>241.239613</ele>
        <time>2023-04-19T09:04:49.760Z</time>
      </trkpt>
      <trkpt lat="46.10815" lon="11.08847">
        <ele>241.307684</ele>
        <time>2023-04-19T09:04:51.755Z</time>
      </trkpt>
      <trkpt lat="46.10803" lon="11.0885">
        <ele>241.377868</ele>
        <time>2023-04-19T09:04:53.761Z</time>
      </trkpt>
      <trkpt lat="46.10793" lon="11.08853">
        <ele>241.419369</ele>
        <time>2023-04-19T09:04:55.762Z</time>
      </trkpt>
      <trkpt lat="46.10782" lon="11.08857">
        <ele>241.385988</ele>
        <time>2023-04-19T09:04:57.752Z</time>
      </trkpt>
      <trkpt lat="46.10771" lon="11.0886">
        <ele>241.35304</ele>
        <time>2023-04-19T09:04:59.772Z</time>
      </trkpt>
      <trkpt lat="46.10761" lon="11.08863">
        <ele>241.319954</ele>
        <time>2023-04-19T09:05:01.759Z</time>
      </trkpt>
      <trkpt lat="46.1075" lon="11.08866">
        <ele>241.285771</ele>
        <time>2023-04-19T09:05:03.758Z</time>
      </trkpt>
      <trkpt lat="46.10739" lon="11.08869">
        <ele>241.252865</ele>
        <time>2023-04-19T09:05:05.762Z</time>
      </trkpt>
      <trkpt lat="46.10728" lon="11.08873">
        <ele>241.219233</ele>
        <time>2023-04-19T09:05:07.768Z</time>
      </trkpt>
      <trkpt lat="46.10717" lon="11.08876">
        <ele>241.183899</ele>
        <time>2023-04-19T09:05:09.739Z</time>
      </trkpt>
      <trkpt lat="46.10706" lon="11.08879">
        <ele>241.149758</ele>
        <time>2023-04-19T09:05:11.751Z</time>
      </trkpt>
      <trkpt lat="46.10695" lon="11.08882">
        <ele>241.115618</ele>
        <time>2023-04-19T09:05:13.773Z</time>
      </trkpt>
      <trkpt lat="46.10684" lon="11.08886">
        <ele>241.081137</ele>
        <time>2023-04-19T09:05:15.751Z</time>
      </trkpt>
      <trkpt lat="46.10673" lon="11.08888">
        <ele>241.047752</ele>
        <time>2023-04-19T09:05:17.754Z</time>
      </trkpt>
      <trkpt lat="46.10662" lon="11.08891">
        <ele>241.014329</ele>
        <time>2023-04-19T09:05:19.762Z</time>
      </trkpt>
      <trkpt lat="46.10652" lon="11.08895">
        <ele>240.980994</ele>
        <time>2023-04-19T09:05:21.772Z</time>
      </trkpt>
      <trkpt lat="46.10641" lon="11.08898">
        <ele>240.94787</ele>
        <time>2023-04-19T09:05:23.759Z</time>
      </trkpt>
      <trkpt lat="46.1063" lon="11.089">
        <ele>240.914987</ele>
        <time>2023-04-19T09:05:25.764Z</time>
      </trkpt>
      <trkpt lat="46.10619" lon="11.08904">
        <ele>240.881309</ele>
        <time>2023-04-19T09:05:27.770Z</time>
      </trkpt>
      <trkpt lat="46.10608" lon="11.08907">
        <ele>240.855188</ele>
        <time>2023-04-19T09:05:29.773Z</time>
      </trkpt>
      <trkpt lat="46.10598" lon="11.0891">
        <ele>240.831468</ele>
        <time>2023-04-19T09:05:31.753Z</time>
      </trkpt>
      <trkpt lat="46.10588" lon="11.08912">
        <ele>240.807356</ele>
        <time>2023-04-19T09:05:33.770Z</time>
      </trkpt>
      <trkpt lat="46.10578" lon="11.08916">
        <ele>240.782401</ele>
        <time>2023-04-19T09:05:35.775Z</time>
      </trkpt>
      <trkpt lat="46.10567" lon="11.08918">
        <ele>240.758014</ele>
        <time>2023-04-19T09:05:37.770Z</time>
      </trkpt>
      <trkpt lat="46.10557" lon="11.08921">
        <ele>240.733839</ele>
        <time>2023-04-19T09:05:39.759Z</time>
      </trkpt>
      <trkpt lat="46.10547" lon="11.08924">
        <ele>240.709209</ele>
        <time>2023-04-19T09:05:41.763Z</time>
      </trkpt>
      <trkpt lat="46.10536" lon="11.08928">
        <ele>240.684513</ele>
        <time>2023-04-19T09:05:43.752Z</time>
      </trkpt>
      <trkpt lat="46.10526" lon="11.08931">
        <ele>240.65933</ele>
        <time>2023-04-19T09:05:45.772Z</time>
      </trkpt>
      <trkpt lat="46.10515" lon="11.08934">
        <ele>240.633985</ele>
        <time>2023-04-19T09:05:47.753Z</time>
      </trkpt>
      <trkpt lat="46.10504" lon="11.08937">
        <ele>240.60864</ele>
        <time>2023-04-19T09:05:49.754Z</time>
      </trkpt>
      <trkpt lat="46.10493" lon="11.0894">
        <ele>240.582353</ele>
        <time>2023-04-19T09:05:51.761Z</time>
      </trkpt>
      <trkpt lat="46.10483" lon="11.08944">
        <ele>240.557431</ele>
        <time>2023-04-19T09:05:53.761Z</time>
      </trkpt>
      <trkpt lat="46.10472" lon="11.08946">
        <ele>240.532513</ele>
        <time>2023-04-19T09:05:55.759Z</time>
      </trkpt>
      <trkpt lat="46.10462" lon="11.08949">
        <ele>240.507522</ele>
        <time>2023-04-19T09:05:57.771Z</time>
      </trkpt>
      <trkpt lat="46.10451" lon="11.08953">
        <ele>240.482793</ele>
        <time>2023-04-19T09:05:59.756Z</time>
      </trkpt>
      <trkpt lat="46.10441" lon="11.08956">
        <ele>240.461267</ele>
        <time>2023-04-19T09:06:01.770Z</time>
      </trkpt>
      <trkpt lat="46.1043" lon="11.0896">
        <ele>240.454082</ele>
        <time>2023-04-19T09:06:03.768Z</time>
      </trkpt>
      <trkpt lat="46.1042" lon="11.08965">
        <ele>240.446614</ele>
        <time>2023-04-19T09:06:05.776Z</time>
      </trkpt>
      <trkpt lat="46.1041" lon="11.08969">
        <ele>240.439545</ele>
        <time>2023-04-19T09:06:07.764Z</time>
      </trkpt>
      <trkpt lat="46.10399" lon="11.08974">
        <ele>240.43209</ele>
        <time>2023-04-19T09:06:09.738Z</time>
      </trkpt>
      <trkpt lat="46.10389" lon="11.08978">
        <ele>240.425239</ele>
        <time>2023-04-19T09:06:11.776Z</time>
      </trkpt>
      <trkpt lat="46.10379" lon="11.08982">
        <ele>240.418386</ele>
        <time>2023-04-19T09:06:13.752Z</time>
      </trkpt>
      <trkpt lat="46.10369" lon="11.08987">
        <ele>240.411067</ele>
        <time>2023-04-19T09:06:15.762Z</time>
      </trkpt>
      <trkpt lat="46.10359" lon="11.08991">
        <ele>240.404036</ele>
        <time>2023-04-19T09:06:17.776Z</time>
      </trkpt>
      <trkpt lat="46.10348" lon="11.08996">
        <ele>240.396682</ele>
        <time>2023-04-19T09:06:19.772Z</time>
      </trkpt>
      <trkpt lat="46.10337" lon="11.09001">
        <ele>240.389214</ele>
        <time>2023-04-19T09:06:21.762Z</time>
      </trkpt>
      <trkpt lat="46.10327" lon="11.09006">
        <ele>240.381832</ele>
        <time>2023-04-19T09:06:23.759Z</time>
      </trkpt>
      <trkpt lat="46.10316" lon="11.09011">
        <ele>240.374286</ele>
        <time>2023-04-19T09:06:25.769Z</time>
      </trkpt>
      <trkpt lat="46.10305" lon="11.09016">
        <ele>240.3666</ele>
        <time>2023-04-19T09:06:27.754Z</time>
      </trkpt>
      <trkpt lat="46.10295" lon="11.0902">
        <ele>240.35921</ele>
        <time>2023-04-19T09:06:29.774Z</time>
      </trkpt>
      <trkpt lat="46.10283" lon="11.09025">
        <ele>240.351512</ele>
        <time>2023-04-19T09:06:31.771Z</time>
      </trkpt>
      <trkpt lat="46.10273" lon="11.09029">
        <ele>240.344006</ele>
        <time>2023-04-19T09:06:33.759Z</time>
      </trkpt>
      <trkpt lat="46.10262" lon="11.09034">
        <ele>240.253457</ele>
        <time>2023-04-19T09:06:35.755Z</time>
      </trkpt>
      <trkpt lat="46.10252" lon="11.09038">
        <ele>240.144159</ele>
        <time>2023-04-19T09:06:37.772Z</time>
      </trkpt>
      <trkpt lat="46.10241" lon="11.09043">
        <ele>240.031181</ele>
        <time>2023-04-19T09:06:39.754Z</time>
      </trkpt>
      <trkpt lat="46.10231" lon="11.09047">
        <ele>239.922291</ele>
        <time>2023-04-19T09:06:41.753Z</time>
      </trkpt>
      <trkpt lat="46.1022" lon="11.09052">
        <ele>239.807527</ele>
        <time>2023-04-19T09:06:43.781Z</time>
      </trkpt>
      <trkpt lat="46.1021" lon="11.09057">
        <ele>239.695116</ele>
        <time>2023-04-19T09:06:45.771Z</time>
      </trkpt>
      <trkpt lat="46.10199" lon="11.09061">
        <ele>239.58545</ele>
        <time>2023-04-19T09:06:47.772Z</time>
      </trkpt>
      <trkpt lat="46.10188" lon="11.09066">
        <ele>239.470256</ele>
        <time>2023-04-19T09:06:49.777Z</time>
      </trkpt>
      <trkpt lat="46.10178" lon="11.09071">
        <ele>239.357948</ele>
        <time>2023-04-19T09:06:51.754Z</time>
      </trkpt>
      <trkpt lat="46.10168" lon="11.09076">
        <ele>239.247329</ele>
        <time>2023-04-19T09:06:53.750Z</time>
      </trkpt>
      <trkpt lat="46.10157" lon="11.09081">
        <ele>239.132009</ele>
        <time>2023-04-19T09:06:55.763Z</time>
      </trkpt>
      <trkpt lat="46.10145" lon="11.09086">
        <ele>239.014156</ele>
        <time>2023-04-19T09:06:57.755Z</time>
      </trkpt>
      <trkpt lat="46.10136" lon="11.0909">
        <ele>238.910524</ele>
        <time>2023-04-19T09:06:59.753Z</time>
      </trkpt>
      <trkpt lat="46.10127" lon="11.09094">
        <ele>238.81603</ele>
        <time>2023-04-19T09:07:01.767Z</time>
      </trkpt>
      <trkpt lat="46.10116" lon="11.09098">
        <ele>238.702271</ele>
        <time>2023-04-19T09:07:04.758Z</time>
      </trkpt>
      <trkpt lat="46.10105" lon="11.09103">
        <ele>238.583633</ele>
        <time>2023-04-19T09:07:07.755Z</time>
      </trkpt>
      <trkpt lat="46.10092" lon="11.09109">
        <ele>238.452568</ele>
        <time>2023-04-19T09:07:10.754Z</time>
      </trkpt>
      <trkpt lat="46.10081" lon="11.09113">
        <ele>238.346365</ele>
        <time>2023-04-19T09:07:12.760Z</time>
      </trkpt>
      <trkpt lat="46.1007" lon="11.09118">
        <ele>238.236839</ele>
        <time>2023-04-19T09:07:14.765Z</time>
      </trkpt>
      <trkpt lat="46.10058" lon="11.09124">
        <ele>238.12484</ele>
        <time>2023-04-19T09:07:16.761Z</time>
      </trkpt>
      <trkpt lat="46.10048" lon="11.0913">
        <ele>238.018409</ele>
        <time>2023-04-19T09:07:18.749Z</time>
      </trkpt>
      <trkpt lat="46.10039" lon="11.09136">
        <ele>237.921274</ele>
        <time>2023-04-19T09:07:20.749Z</time>
      </trkpt>
      <trkpt lat="46.10031" lon="11.09146">
        <ele>237.825221</ele>
        <time>2023-04-19T09:07:22.766Z</time>
      </trkpt>
      <trkpt lat="46.10025" lon="11.09158">
        <ele>237.730027</ele>
        <time>2023-04-19T09:07:24.749Z</time>
      </trkpt>
      <trkpt lat="46.1002" lon="11.0917">
        <ele>237.637061</ele>
        <time>2023-04-19T09:07:26.766Z</time>
      </trkpt>
      <trkpt lat="46.10016" lon="11.09184">
        <ele>237.542669</ele>
        <time>2023-04-19T09:07:28.764Z</time>
      </trkpt>
      <trkpt lat="46.10012" lon="11.09197">
        <ele>237.44813</ele>
        <time>2023-04-19T09:07:30.765Z</time>
      </trkpt>
      <trkpt lat="46.10007" lon="11.0921">
        <ele>237.347128</ele>
        <time>2023-04-19T09:07:32.772Z</time>
      </trkpt>
      <trkpt lat="46.1" lon="11.09221">
        <ele>237.254105</ele>
        <time>2023-04-19T09:07:34.756Z</time>
      </trkpt>
      <trkpt lat="46.09992" lon="11.09228">
        <ele>237.167253</ele>
        <time>2023-04-19T09:07:36.761Z</time>
      </trkpt>
      <trkpt lat="46.09983" lon="11.09233">
        <ele>237.080151</ele>
        <time>2023-04-19T09:07:38.769Z</time>
      </trkpt>
      <trkpt lat="46.09974" lon="11.09234">
        <ele>236.992743</ele>
        <time>2023-04-19T09:07:40.756Z</time>
      </trkpt>
      <trkpt lat="46.09964" lon="11.09237">
        <ele>236.902044</ele>
        <time>2023-04-19T09:07:42.756Z</time>
      </trkpt>
      <trkpt lat="46.09952" lon="11.0924">
        <ele>236.843557</ele>
        <time>2023-04-19T09:07:45.770Z</time>
      </trkpt>
      <trkpt lat="46.09943" lon="11.09242">
        <ele>236.857721</ele>
        <time>2023-04-19T09:07:47.770Z</time>
      </trkpt>
      <trkpt lat="46.09933" lon="11.09244">
        <ele>236.872842</ele>
        <time>2023-04-19T09:07:49.773Z</time>
      </trkpt>
      <trkpt lat="46.09924" lon="11.09247">
        <ele>236.887874</ele>
        <time>2023-04-19T09:07:51.759Z</time>
      </trkpt>
      <trkpt lat="46.09914" lon="11.09248">
        <ele>236.90306</ele>
        <time>2023-04-19T09:07:53.751Z</time>
      </trkpt>
      <trkpt lat="46.09904" lon="11.0925">
        <ele>236.918675</ele>
        <time>2023-04-19T09:07:55.758Z</time>
      </trkpt>
      <trkpt lat="46.09894" lon="11.09253">
        <ele>236.934035</ele>
        <time>2023-04-19T09:07:57.753Z</time>
      </trkpt>
      <trkpt lat="46.09884" lon="11.09256">
        <ele>236.949742</ele>
        <time>2023-04-19T09:07:59.762Z</time>
      </trkpt>
      <trkpt lat="46.09874" lon="11.09258">
        <ele>236.96587</ele>
        <time>2023-04-19T09:08:01.755Z</time>
      </trkpt>
      <trkpt lat="46.09864" lon="11.09261">
        <ele>236.981981</ele>
        <time>2023-04-19T09:08:03.746Z</time>
      </trkpt>
      <trkpt lat="46.09854" lon="11.09262">
        <ele>236.998229</ele>
        <time>2023-04-19T09:08:05.763Z</time>
      </trkpt>
      <trkpt lat="46.09843" lon="11.09264">
        <ele>237.014722</ele>
        <time>2023-04-19T09:08:07.746Z</time>
      </trkpt>
      <trkpt lat="46.09833" lon="11.09266">
        <ele>237.03046</ele>
        <time>2023-04-19T09:08:09.742Z</time>
      </trkpt>
      <trkpt lat="46.09823" lon="11.09268">
        <ele>237.046454</ele>
        <time>2023-04-19T09:08:11.770Z</time>
      </trkpt>
      <trkpt lat="46.09813" lon="11.0927">
        <ele>237.062086</ele>
        <time>2023-04-19T09:08:13.754Z</time>
      </trkpt>
      <trkpt lat="46.09803" lon="11.09273">
        <ele>237.077856</ele>
        <time>2023-04-19T09:08:15.770Z</time>
      </trkpt>
      <trkpt lat="46.09793" lon="11.09276">
        <ele>237.094257</ele>
        <time>2023-04-19T09:08:17.755Z</time>
      </trkpt>
      <trkpt lat="46.09783" lon="11.09278">
        <ele>237.109564</ele>
        <time>2023-04-19T09:08:19.767Z</time>
      </trkpt>
      <trkpt lat="46.09773" lon="11.0928">
        <ele>237.096406</ele>
        <time>2023-04-19T09:08:21.764Z</time>
      </trkpt>
      <trkpt lat="46.09764" lon="11.09282">
        <ele>237.068188</ele>
        <time>2023-04-19T09:08:23.747Z</time>
      </trkpt>
      <trkpt lat="46.09754" lon="11.09284">
        <ele>237.038959</ele>
        <time>2023-04-19T09:08:25.756Z</time>
      </trkpt>
      <trkpt lat="46.09745" lon="11.09286">
        <ele>237.011063</ele>
        <time>2023-04-19T09:08:27.758Z</time>
      </trkpt>
      <trkpt lat="46.09735" lon="11.09289">
        <ele>236.98291</ele>
        <time>2023-04-19T09:08:29.753Z</time>
      </trkpt>
      <trkpt lat="46.09725" lon="11.0929">
        <ele>236.954262</ele>
        <time>2023-04-19T09:08:31.744Z</time>
      </trkpt>
      <trkpt lat="46.09716" lon="11.09292">
        <ele>236.925639</ele>
        <time>2023-04-19T09:08:33.753Z</time>
      </trkpt>
      <trkpt lat="46.09705" lon="11.09294">
        <ele>236.895076</ele>
        <time>2023-04-19T09:08:35.762Z</time>
      </trkpt>
      <trkpt lat="46.09696" lon="11.09298">
        <ele>236.865312</ele>
        <time>2023-04-19T09:08:37.747Z</time>
      </trkpt>
      <trkpt lat="46.09685" lon="11.09301">
        <ele>236.835063</ele>
        <time>2023-04-19T09:08:39.758Z</time>
      </trkpt>
      <trkpt lat="46.09676" lon="11.09304">
        <ele>236.805205</ele>
        <time>2023-04-19T09:08:41.749Z</time>
      </trkpt>
      <trkpt lat="46.09665" lon="11.09309">
        <ele>236.773775</ele>
        <time>2023-04-19T09:08:43.743Z</time>
      </trkpt>
      <trkpt lat="46.09655" lon="11.09315">
        <ele>236.742698</ele>
        <time>2023-04-19T09:08:45.743Z</time>
      </trkpt>
      <trkpt lat="46.09646" lon="11.0932">
        <ele>236.712166</ele>
        <time>2023-04-19T09:08:47.750Z</time>
      </trkpt>
      <trkpt lat="46.09636" lon="11.09325">
        <ele>236.681781</ele>
        <time>2023-04-19T09:08:49.756Z</time>
      </trkpt>
      <trkpt lat="46.09626" lon="11.0933">
        <ele>236.650908</ele>
        <time>2023-04-19T09:08:51.758Z</time>
      </trkpt>
      <trkpt lat="46.09616" lon="11.09336">
        <ele>236.619642</ele>
        <time>2023-04-19T09:08:53.756Z</time>
      </trkpt>
      <trkpt lat="46.09606" lon="11.09342">
        <ele>236.58698</ele>
        <time>2023-04-19T09:08:55.753Z</time>
      </trkpt>
      <trkpt lat="46.09596" lon="11.09348">
        <ele>236.550357</ele>
        <time>2023-04-19T09:08:57.761Z</time>
      </trkpt>
      <trkpt lat="46.09587" lon="11.09354">
        <ele>236.512047</ele>
        <time>2023-04-19T09:08:59.745Z</time>
      </trkpt>
      <trkpt lat="46.09576" lon="11.09359">
        <ele>236.471588</ele>
        <time>2023-04-19T09:09:01.771Z</time>
      </trkpt>
      <trkpt lat="46.09566" lon="11.09367">
        <ele>236.432406</ele>
        <time>2023-04-19T09:09:03.763Z</time>
      </trkpt>
      <trkpt lat="46.09557" lon="11.09374">
        <ele>236.394614</ele>
        <time>2023-04-19T09:09:05.766Z</time>
      </trkpt>
      <trkpt lat="46.09547" lon="11.09381">
        <ele>236.353929</ele>
        <time>2023-04-19T09:09:07.768Z</time>
      </trkpt>
      <trkpt lat="46.09537" lon="11.09388">
        <ele>236.31422</ele>
        <time>2023-04-19T09:09:09.765Z</time>
      </trkpt>
      <trkpt lat="46.09526" lon="11.09393">
        <ele>236.273926</ele>
        <time>2023-04-19T09:09:11.769Z</time>
      </trkpt>
      <trkpt lat="46.09516" lon="11.094">
        <ele>236.234428</ele>
        <time>2023-04-19T09:09:13.769Z</time>
      </trkpt>
      <trkpt lat="46.09507" lon="11.09406">
        <ele>236.195893</ele>
        <time>2023-04-19T09:09:15.736Z</time>
      </trkpt>
      <trkpt lat="46.09497" lon="11.09412">
        <ele>236.159629</ele>
        <time>2023-04-19T09:09:17.764Z</time>
      </trkpt>
      <trkpt lat="46.09488" lon="11.09419">
        <ele>236.121002</ele>
        <time>2023-04-19T09:09:19.757Z</time>
      </trkpt>
      <trkpt lat="46.09478" lon="11.09425">
        <ele>236.081709</ele>
        <time>2023-04-19T09:09:21.755Z</time>
      </trkpt>
      <trkpt lat="46.09467" lon="11.09432">
        <ele>236.04037</ele>
        <time>2023-04-19T09:09:23.773Z</time>
      </trkpt>
      <trkpt lat="46.09458" lon="11.09439">
        <ele>236.002168</ele>
        <time>2023-04-19T09:09:25.759Z</time>
      </trkpt>
      <trkpt lat="46.09448" lon="11.09447">
        <ele>235.963029</ele>
        <time>2023-04-19T09:09:27.769Z</time>
      </trkpt>
      <trkpt lat="46.09439" lon="11.09456">
        <ele>235.925308</ele>
        <time>2023-04-19T09:09:29.760Z</time>
      </trkpt>
      <trkpt lat="46.0943" lon="11.09465">
        <ele>235.893268</ele>
        <time>2023-04-19T09:09:31.752Z</time>
      </trkpt>
      <trkpt lat="46.09422" lon="11.09475">
        <ele>235.859096</ele>
        <time>2023-04-19T09:09:33.758Z</time>
      </trkpt>
      <trkpt lat="46.09413" lon="11.09484">
        <ele>235.826686</ele>
        <time>2023-04-19T09:09:35.760Z</time>
      </trkpt>
      <trkpt lat="46.09404" lon="11.09494">
        <ele>235.793513</ele>
        <time>2023-04-19T09:09:37.751Z</time>
      </trkpt>
      <trkpt lat="46.09396" lon="11.09503">
        <ele>235.761214</ele>
        <time>2023-04-19T09:09:39.759Z</time>
      </trkpt>
      <trkpt lat="46.09387" lon="11.09511">
        <ele>235.729914</ele>
        <time>2023-04-19T09:09:41.765Z</time>
      </trkpt>
      <trkpt lat="46.09379" lon="11.0952">
        <ele>235.697995</ele>
        <time>2023-04-19T09:09:43.767Z</time>
      </trkpt>
      <trkpt lat="46.0937" lon="11.0953">
        <ele>235.663613</ele>
        <time>2023-04-19T09:09:45.763Z</time>
      </trkpt>
      <trkpt lat="46.0936" lon="11.09538">
        <ele>235.630602</ele>
        <time>2023-04-19T09:09:47.757Z</time>
      </trkpt>
      <trkpt lat="46.09352" lon="11.09545">
        <ele>235.600066</ele>
        <time>2023-04-19T09:09:49.746Z</time>
      </trkpt>
      <trkpt lat="46.09343" lon="11.09554">
        <ele>235.568387</ele>
        <time>2023-04-19T09:09:51.757Z</time>
      </trkpt>
      <trkpt lat="46.09334" lon="11.09561">
        <ele>235.536951</ele>
        <time>2023-04-19T09:09:53.755Z</time>
      </trkpt>
      <trkpt lat="46.09325" lon="11.09569">
        <ele>235.504747</ele>
        <time>2023-04-19T09:09:55.766Z</time>
      </trkpt>
      <trkpt lat="46.09316" lon="11.09577">
        <ele>235.47274</ele>
        <time>2023-04-19T09:09:57.770Z</time>
      </trkpt>
      <trkpt lat="46.09307" lon="11.09584">
        <ele>235.440207</ele>
        <time>2023-04-19T09:09:59.757Z</time>
      </trkpt>
      <trkpt lat="46.09297" lon="11.09591">
        <ele>235.406615</ele>
        <time>2023-04-19T09:10:01.754Z</time>
      </trkpt>
      <trkpt lat="46.09286" lon="11.09598">
        <ele>235.408301</ele>
        <time>2023-04-19T09:10:03.749Z</time>
      </trkpt>
      <trkpt lat="46.09276" lon="11.09604">
        <ele>235.42624</ele>
        <time>2023-04-19T09:10:05.773Z</time>
      </trkpt>
      <trkpt lat="46.09266" lon="11.0961">
        <ele>235.44431</ele>
        <time>2023-04-19T09:10:07.754Z</time>
      </trkpt>
      <trkpt lat="46.09255" lon="11.09616">
        <ele>235.46272</ele>
        <time>2023-04-19T09:10:09.754Z</time>
      </trkpt>
      <trkpt lat="46.09245" lon="11.0962">
        <ele>235.48106</ele>
        <time>2023-04-19T09:10:11.754Z</time>
      </trkpt>
      <trkpt lat="46.09234" lon="11.09624">
        <ele>235.499054</ele>
        <time>2023-04-19T09:10:13.773Z</time>
      </trkpt>
      <trkpt lat="46.09223" lon="11.09628">
        <ele>235.51696</ele>
        <time>2023-04-19T09:10:15.737Z</time>
      </trkpt>
      <trkpt lat="46.09213" lon="11.09633">
        <ele>235.535273</ele>
        <time>2023-04-19T09:10:17.756Z</time>
      </trkpt>
      <trkpt lat="46.09202" lon="11.09638">
        <ele>235.55333</ele>
        <time>2023-04-19T09:10:19.759Z</time>
      </trkpt>
      <trkpt lat="46.09191" lon="11.09642">
        <ele>235.571325</ele>
        <time>2023-04-19T09:10:21.761Z</time>
      </trkpt>
      <trkpt lat="46.09181" lon="11.09646">
        <ele>235.589571</ele>
        <time>2023-04-19T09:10:23.768Z</time>
      </trkpt>
      <trkpt lat="46.0917" lon="11.09651">
        <ele>235.60785</ele>
        <time>2023-04-19T09:10:25.760Z</time>
      </trkpt>
      <trkpt lat="46.09159" lon="11.09655">
        <ele>235.626576</ele>
        <time>2023-04-19T09:10:27.779Z</time>
      </trkpt>
      <trkpt lat="46.09149" lon="11.0966">
        <ele>235.644196</ele>
        <time>2023-04-19T09:10:29.747Z</time>
      </trkpt>
      <trkpt lat="46.09138" lon="11.09665">
        <ele>235.66173</ele>
        <time>2023-04-19T09:10:31.773Z</time>
      </trkpt>
      <trkpt lat="46.09128" lon="11.0967">
        <ele>235.679334</ele>
        <time>2023-04-19T09:10:33.760Z</time>
      </trkpt>
      <trkpt lat="46.09118" lon="11.09676">
        <ele>235.650202</ele>
        <time>2023-04-19T09:10:35.769Z</time>
      </trkpt>
      <trkpt lat="46.09109" lon="11.09683">
        <ele>235.557727</ele>
        <time>2023-04-19T09:10:37.761Z</time>
      </trkpt>
      <trkpt lat="46.091" lon="11.0969">
        <ele>235.465748</ele>
        <time>2023-04-19T09:10:39.754Z</time>
      </trkpt>
      <trkpt lat="46.0909" lon="11.09696">
        <ele>235.372736</ele>
        <time>2023-04-19T09:10:41.775Z</time>
      </trkpt>
      <trkpt lat="46.0908" lon="11.09703">
        <ele>235.277616</ele>
        <time>2023-04-19T09:10:43.774Z</time>
      </trkpt>
      <trkpt lat="46.09071" lon="11.09709">
        <ele>235.184793</ele>
        <time>2023-04-19T09:10:45.773Z</time>
      </trkpt>
      <trkpt lat="46.09062" lon="11.09715">
        <ele>235.097848</ele>
        <time>2023-04-19T09:10:47.761Z</time>
      </trkpt>
      <trkpt lat="46.09052" lon="11.09721">
        <ele>235.00854</ele>
        <time>2023-04-19T09:10:49.772Z</time>
      </trkpt>
      <trkpt lat="46.09043" lon="11.09727">
        <ele>234.917915</ele>
        <time>2023-04-19T09:10:51.775Z</time>
      </trkpt>
      <trkpt lat="46.09034" lon="11.09735">
        <ele>234.828168</ele>
        <time>2023-04-19T09:10:53.740Z</time>
      </trkpt>
      <trkpt lat="46.09026" lon="11.09741">
        <ele>234.743092</ele>
        <time>2023-04-19T09:10:55.752Z</time>
      </trkpt>
      <trkpt lat="46.09017" lon="11.09748">
        <ele>234.653642</ele>
        <time>2023-04-19T09:10:57.781Z</time>
      </trkpt>
      <trkpt lat="46.09007" lon="11.09756">
        <ele>234.554134</ele>
        <time>2023-04-19T09:10:59.761Z</time>
      </trkpt>
      <trkpt lat="46.08997" lon="11.09764">
        <ele>234.456763</ele>
        <time>2023-04-19T09:11:01.772Z</time>
      </trkpt>
      <trkpt lat="46.08988" lon="11.09772">
        <ele>234.363662</ele>
        <time>2023-04-19T09:11:03.743Z</time>
      </trkpt>
      <trkpt lat="46.08979" lon="11.09779">
        <ele>234.270112</ele>
        <time>2023-04-19T09:11:05.763Z</time>
      </trkpt>
      <trkpt lat="46.0897" lon="11.09786">
        <ele>234.180183</ele>
        <time>2023-04-19T09:11:07.756Z</time>
      </trkpt>
      <trkpt lat="46.08961" lon="11.09794">
        <ele>234.14005</ele>
        <time>2023-04-19T09:11:09.754Z</time>
      </trkpt>
      <trkpt lat="46.08951" lon="11.09801">
        <ele>234.288021</ele>
        <time>2023-04-19T09:11:11.755Z</time>
      </trkpt>
      <trkpt lat="46.08942" lon="11.09808">
        <ele>234.436312</ele>
        <time>2023-04-19T09:11:13.771Z</time>
      </trkpt>
      <trkpt lat="46.08933" lon="11.09816">
        <ele>234.580859</ele>
        <time>2023-04-19T09:11:15.759Z</time>
      </trkpt>
      <trkpt lat="46.08924" lon="11.09824">
        <ele>234.731207</ele>
        <time>2023-04-19T09:11:17.753Z</time>
      </trkpt>
      <trkpt lat="46.08915" lon="11.09831">
        <ele>234.872672</ele>
        <time>2023-04-19T09:11:19.759Z</time>
      </trkpt>
      <trkpt lat="46.08906" lon="11.09838">
        <ele>235.018493</ele>
        <time>2023-04-19T09:11:21.757Z</time>
      </trkpt>
      <trkpt lat="46.08897" lon="11.09846">
        <ele>235.168627</ele>
        <time>2023-04-19T09:11:23.766Z</time>
      </trkpt>
      <trkpt lat="46.08888" lon="11.09855">
        <ele>235.321983</ele>
        <time>2023-04-19T09:11:25.772Z</time>
      </trkpt>
      <trkpt lat="46.08878" lon="11.09863">
        <ele>235.476376</ele>
        <time>2023-04-19T09:11:27.762Z</time>
      </trkpt>
      <trkpt lat="46.08869" lon="11.09873">
        <ele>235.633946</ele>
        <time>2023-04-19T09:11:29.769Z</time>
      </trkpt>
      <trkpt lat="46.0886" lon="11.09882">
        <ele>235.785341</ele>
        <time>2023-04-19T09:11:31.761Z</time>
      </trkpt>
      <trkpt lat="46.08852" lon="11.09892">
        <ele>235.93445</ele>
        <time>2023-04-19T09:11:33.757Z</time>
      </trkpt>
      <trkpt lat="46.08843" lon="11.09901">
        <ele>236.091463</ele>
        <time>2023-04-19T09:11:35.763Z</time>
      </trkpt>
      <trkpt lat="46.08833" lon="11.09909">
        <ele>236.244716</ele>
        <time>2023-04-19T09:11:37.750Z</time>
      </trkpt>
      <trkpt lat="46.08824" lon="11.09916">
        <ele>236.396538</ele>
        <time>2023-04-19T09:11:39.767Z</time>
      </trkpt>
      <trkpt lat="46.08815" lon="11.09925">
        <ele>236.544494</ele>
        <time>2023-04-19T09:11:41.762Z</time>
      </trkpt>
      <trkpt lat="46.08806" lon="11.09935">
        <ele>236.646856</ele>
        <time>2023-04-19T09:11:43.765Z</time>
      </trkpt>
      <trkpt lat="46.08798" lon="11.09945">
        <ele>236.697869</ele>
        <time>2023-04-19T09:11:45.745Z</time>
      </trkpt>
      <trkpt lat="46.08789" lon="11.09954">
        <ele>236.750884</ele>
        <time>2023-04-19T09:11:47.758Z</time>
      </trkpt>
      <trkpt lat="46.0878" lon="11.09963">
        <ele>236.800697</ele>
        <time>2023-04-19T09:11:49.767Z</time>
      </trkpt>
      <trkpt lat="46.08771" lon="11.09971">
        <ele>236.853489</ele>
        <time>2023-04-19T09:11:51.749Z</time>
      </trkpt>
      <trkpt lat="46.08762" lon="11.0998">
        <ele>236.903812</ele>
        <time>2023-04-19T09:11:53.755Z</time>
      </trkpt>
      <trkpt lat="46.08753" lon="11.09989">
        <ele>236.955086</ele>
        <time>2023-04-19T09:11:55.749Z</time>
      </trkpt>
      <trkpt lat="46.08745" lon="11.09999">
        <ele>237.006621</ele>
        <time>2023-04-19T09:11:57.764Z</time>
      </trkpt>
      <trkpt lat="46.08736" lon="11.10009">
        <ele>237.059465</ele>
        <time>2023-04-19T09:11:59.758Z</time>
      </trkpt>
      <trkpt lat="46.08727" lon="11.10018">
        <ele>237.111117</ele>
        <time>2023-04-19T09:12:01.763Z</time>
      </trkpt>
      <trkpt lat="46.08718" lon="11.10028">
        <ele>237.164906</ele>
        <time>2023-04-19T09:12:03.777Z</time>
      </trkpt>
      <trkpt lat="46.08709" lon="11.10038">
        <ele>237.217706</ele>
        <time>2023-04-19T09:12:05.772Z</time>
      </trkpt>
      <trkpt lat="46.087" lon="11.10048">
        <ele>237.269405</ele>
        <time>2023-04-19T09:12:07.753Z</time>
      </trkpt>
      <trkpt lat="46.08692" lon="11.10057">
        <ele>237.320127</ele>
        <time>2023-04-19T09:12:09.756Z</time>
      </trkpt>
      <trkpt lat="46.08684" lon="11.10068">
        <ele>237.370141</ele>
        <time>2023-04-19T09:12:11.761Z</time>
      </trkpt>
      <trkpt lat="46.08677" lon="11.10078">
        <ele>237.419218</ele>
        <time>2023-04-19T09:12:13.763Z</time>
      </trkpt>
      <trkpt lat="46.08669" lon="11.10089">
        <ele>237.468611</ele>
        <time>2023-04-19T09:12:15.770Z</time>
      </trkpt>
      <trkpt lat="46.08662" lon="11.101">
        <ele>237.453627</ele>
        <time>2023-04-19T09:12:17.765Z</time>
      </trkpt>
      <trkpt lat="46.08656" lon="11.10111">
        <ele>237.437555</ele>
        <time>2023-04-19T09:12:19.742Z</time>
      </trkpt>
      <trkpt lat="46.08649" lon="11.10123">
        <ele>237.420126</ele>
        <time>2023-04-19T09:12:21.777Z</time>
      </trkpt>
      <trkpt lat="46.08641" lon="11.10135">
        <ele>237.401815</ele>
        <time>2023-04-19T09:12:23.763Z</time>
      </trkpt>
      <trkpt lat="46.08634" lon="11.10147">
        <ele>237.384404</ele>
        <time>2023-04-19T09:12:25.753Z</time>
      </trkpt>
      <trkpt lat="46.08627" lon="11.10159">
        <ele>237.366849</ele>
        <time>2023-04-19T09:12:27.761Z</time>
      </trkpt>
      <trkpt lat="46.0862" lon="11.10171">
        <ele>237.349812</ele>
        <time>2023-04-19T09:12:29.757Z</time>
      </trkpt>
      <trkpt lat="46.08613" lon="11.10183">
        <ele>237.332279</ele>
        <time>2023-04-19T09:12:31.772Z</time>
      </trkpt>
      <trkpt lat="46.08606" lon="11.10196">
        <ele>237.314698</ele>
        <time>2023-04-19T09:12:33.767Z</time>
      </trkpt>
      <trkpt lat="46.08599" lon="11.10208">
        <ele>237.296538</ele>
        <time>2023-04-19T09:12:35.779Z</time>
      </trkpt>
      <trkpt lat="46.08591" lon="11.1022">
        <ele>237.278253</ele>
        <time>2023-04-19T09:12:37.752Z</time>
      </trkpt>
      <trkpt lat="46.08584" lon="11.10233">
        <ele>237.260228</ele>
        <time>2023-04-19T09:12:39.761Z</time>
      </trkpt>
      <trkpt lat="46.08577" lon="11.10246">
        <ele>237.242341</ele>
        <time>2023-04-19T09:12:41.765Z</time>
      </trkpt>
      <trkpt lat="46.08571" lon="11.10259">
        <ele>237.224972</ele>
        <time>2023-04-19T09:12:43.764Z</time>
      </trkpt>
      <trkpt lat="46.08564" lon="11.10272">
        <ele>237.206795</ele>
        <time>2023-04-19T09:12:45.781Z</time>
      </trkpt>
      <trkpt lat="46.08556" lon="11.10284">
        <ele>237.188946</ele>
        <time>2023-04-19T09:12:47.789Z</time>
      </trkpt>
      <trkpt lat="46.0855" lon="11.10297">
        <ele>237.1588</ele>
        <time>2023-04-19T09:12:49.777Z</time>
      </trkpt>
      <trkpt lat="46.08543" lon="11.10309">
        <ele>237.120865</ele>
        <time>2023-04-19T09:12:51.770Z</time>
      </trkpt>
      <trkpt lat="46.08537" lon="11.10322">
        <ele>237.083624</ele>
        <time>2023-04-19T09:12:53.780Z</time>
      </trkpt>
      <trkpt lat="46.08531" lon="11.10334">
        <ele>237.04656</ele>
        <time>2023-04-19T09:12:55.779Z</time>
      </trkpt>
      <trkpt lat="46.08524" lon="11.10346">
        <ele>237.009586</ele>
        <time>2023-04-19T09:12:57.761Z</time>
      </trkpt>
      <trkpt lat="46.08518" lon="11.10358">
        <ele>236.974012</ele>
        <time>2023-04-19T09:12:59.766Z</time>
      </trkpt>
      <trkpt lat="46.08511" lon="11.1037">
        <ele>236.936508</ele>
        <time>2023-04-19T09:13:01.743Z</time>
      </trkpt>
      <trkpt lat="46.08504" lon="11.10382">
        <ele>236.900157</ele>
        <time>2023-04-19T09:13:03.763Z</time>
      </trkpt>
      <trkpt lat="46.08498" lon="11.10394">
        <ele>236.863507</ele>
        <time>2023-04-19T09:13:05.761Z</time>
      </trkpt>
      <trkpt lat="46.08492" lon="11.10406">
        <ele>236.828389</ele>
        <time>2023-04-19T09:13:07.766Z</time>
      </trkpt>
      <trkpt lat="46.08487" lon="11.10418">
        <ele>236.794476</ele>
        <time>2023-04-19T09:13:09.779Z</time>
      </trkpt>
      <trkpt lat="46.08482" lon="11.10431">
        <ele>236.757565</ele>
        <time>2023-04-19T09:13:11.761Z</time>
      </trkpt>
      <trkpt lat="46.08475" lon="11.10447">
        <ele>236.714744</ele>
        <time>2023-04-19T09:13:13.750Z</time>
      </trkpt>
      <trkpt lat="46.08468" lon="11.10462">
        <ele>236.668636</ele>
        <time>2023-04-19T09:13:15.760Z</time>
      </trkpt>
      <trkpt lat="46.08459" lon="11.10478">
        <ele>236.622459</ele>
        <time>2023-04-19T09:13:17.769Z</time>
      </trkpt>
      <trkpt lat="46.08452" lon="11.10492">
        <ele>236.579482</ele>
        <time>2023-04-19T09:13:19.768Z</time>
      </trkpt>
      <trkpt lat="46.08445" lon="11.10507">
        <ele>236.58865</ele>
        <time>2023-04-19T09:13:21.755Z</time>
      </trkpt>
      <trkpt lat="46.08438" lon="11.10521">
        <ele>236.634845</ele>
        <time>2023-04-19T09:13:23.761Z</time>
      </trkpt>
      <trkpt lat="46.08432" lon="11.10534">
        <ele>236.675294</ele>
        <time>2023-04-19T09:13:25.744Z</time>
      </trkpt>
      <trkpt lat="46.08425" lon="11.10547">
        <ele>236.717938</ele>
        <time>2023-04-19T09:13:27.768Z</time>
      </trkpt>
      <trkpt lat="46.08418" lon="11.10561">
        <ele>236.763071</ele>
        <time>2023-04-19T09:13:29.754Z</time>
      </trkpt>
      <trkpt lat="46.08412" lon="11.10571">
        <ele>236.800743</ele>
        <time>2023-04-19T09:13:31.771Z</time>
      </trkpt>
      <trkpt lat="46.08402" lon="11.10583">
        <ele>236.846344</ele>
        <time>2023-04-19T09:13:34.770Z</time>
      </trkpt>
      <trkpt lat="46.08394" lon="11.10597">
        <ele>236.895218</ele>
        <time>2023-04-19T09:13:37.746Z</time>
      </trkpt>
      <trkpt lat="46.08386" lon="11.10613">
        <ele>236.946373</ele>
        <time>2023-04-19T09:13:40.747Z</time>
      </trkpt>
      <trkpt lat="46.08381" lon="11.10624">
        <ele>236.98285</ele>
        <time>2023-04-19T09:13:42.768Z</time>
      </trkpt>
      <trkpt lat="46.08375" lon="11.10635">
        <ele>237.019776</ele>
        <time>2023-04-19T09:13:44.767Z</time>
      </trkpt>
      <trkpt lat="46.08369" lon="11.10647">
        <ele>237.057158</ele>
        <time>2023-04-19T09:13:46.744Z</time>
      </trkpt>
      <trkpt lat="46.08363" lon="11.10658">
        <ele>237.094283</ele>
        <time>2023-04-19T09:13:48.763Z</time>
      </trkpt>
      <trkpt lat="46.08358" lon="11.1067">
        <ele>237.130763</ele>
        <time>2023-04-19T09:13:50.766Z</time>
      </trkpt>
      <trkpt lat="46.08352" lon="11.10682">
        <ele>237.169621</ele>
        <time>2023-04-19T09:13:52.764Z</time>
      </trkpt>
      <trkpt lat="46.08346" lon="11.10694">
        <ele>237.208904</ele>
        <time>2023-04-19T09:13:54.760Z</time>
      </trkpt>
      <trkpt lat="46.0834" lon="11.10706">
        <ele>237.235233</ele>
        <time>2023-04-19T09:13:56.763Z</time>
      </trkpt>
      <trkpt lat="46.08335" lon="11.10718">
        <ele>237.168112</ele>
        <time>2023-04-19T09:13:58.752Z</time>
      </trkpt>
      <trkpt lat="46.08329" lon="11.1073">
        <ele>237.100233</ele>
        <time>2023-04-19T09:14:00.761Z</time>
      </trkpt>
      <trkpt lat="46.08322" lon="11.10742">
        <ele>237.033072</ele>
        <time>2023-04-19T09:14:02.763Z</time>
      </trkpt>
      <trkpt lat="46.08317" lon="11.10754">
        <ele>236.965947</ele>
        <time>2023-04-19T09:14:04.767Z</time>
      </trkpt>
      <trkpt lat="46.0831" lon="11.10766">
        <ele>236.89763</ele>
        <time>2023-04-19T09:14:06.769Z</time>
      </trkpt>
      <trkpt lat="46.08304" lon="11.10778">
        <ele>236.829383</ele>
        <time>2023-04-19T09:14:08.753Z</time>
      </trkpt>
      <trkpt lat="46.08299" lon="11.1079">
        <ele>236.762255</ele>
        <time>2023-04-19T09:14:10.763Z</time>
      </trkpt>
      <trkpt lat="46.08293" lon="11.10803">
        <ele>236.693192</ele>
        <time>2023-04-19T09:14:12.783Z</time>
      </trkpt>
      <trkpt lat="46.08287" lon="11.10815">
        <ele>236.626438</ele>
        <time>2023-04-19T09:14:14.776Z</time>
      </trkpt>
      <trkpt lat="46.08281" lon="11.10827">
        <ele>236.5593</ele>
        <time>2023-04-19T09:14:16.771Z</time>
      </trkpt>
      <trkpt lat="46.08275" lon="11.10839">
        <ele>236.490296</ele>
        <time>2023-04-19T09:14:18.764Z</time>
      </trkpt>
      <trkpt lat="46.08269" lon="11.10851">
        <ele>236.422701</ele>
        <time>2023-04-19T09:14:20.761Z</time>
      </trkpt>
      <trkpt lat="46.08263" lon="11.10863">
        <ele>236.353689</ele>
        <time>2023-04-19T09:14:22.769Z</time>
      </trkpt>
      <trkpt lat="46.08257" lon="11.10875">
        <ele>236.287316</ele>
        <time>2023-04-19T09:14:24.774Z</time>
      </trkpt>
      <trkpt lat="46.08251" lon="11.10888">
        <ele>236.219817</ele>
        <time>2023-04-19T09:14:26.765Z</time>
      </trkpt>
      <trkpt lat="46.08246" lon="11.10901">
        <ele>236.147735</ele>
        <time>2023-04-19T09:14:28.763Z</time>
      </trkpt>
      <trkpt lat="46.0824" lon="11.10913">
        <ele>236.080591</ele>
        <time>2023-04-19T09:14:30.781Z</time>
      </trkpt>
      <trkpt lat="46.08234" lon="11.10926">
        <ele>236.015685</ele>
        <time>2023-04-19T09:14:32.762Z</time>
      </trkpt>
      <trkpt lat="46.08227" lon="11.10939">
        <ele>235.953806</ele>
        <time>2023-04-19T09:14:34.763Z</time>
      </trkpt>
      <trkpt lat="46.0822" lon="11.10951">
        <ele>235.893296</ele>
        <time>2023-04-19T09:14:36.782Z</time>
      </trkpt>
      <trkpt lat="46.08214" lon="11.10963">
        <ele>235.832717</ele>
        <time>2023-04-19T09:14:38.754Z</time>
      </trkpt>
      <trkpt lat="46.08208" lon="11.10976">
        <ele>235.773755</ele>
        <time>2023-04-19T09:14:40.765Z</time>
      </trkpt>
      <trkpt lat="46.08202" lon="11.10988">
        <ele>235.714477</ele>
        <time>2023-04-19T09:14:42.787Z</time>
      </trkpt>
      <trkpt lat="46.08197" lon="11.11001">
        <ele>235.655188</ele>
        <time>2023-04-19T09:14:44.776Z</time>
      </trkpt>
      <trkpt lat="46.08191" lon="11.11014">
        <ele>235.596068</ele>
        <time>2023-04-19T09:14:46.782Z</time>
      </trkpt>
      <trkpt lat="46.08185" lon="11.11026">
        <ele>235.536785</ele>
        <time>2023-04-19T09:14:48.745Z</time>
      </trkpt>
      <trkpt lat="46.0818" lon="11.11039">
        <ele>235.478463</ele>
        <time>2023-04-19T09:14:50.762Z</time>
      </trkpt>
      <trkpt lat="46.08173" lon="11.11051">
        <ele>235.417253</ele>
        <time>2023-04-19T09:14:52.770Z</time>
      </trkpt>
      <trkpt lat="46.08168" lon="11.11065">
        <ele>235.356321</ele>
        <time>2023-04-19T09:14:54.759Z</time>
      </trkpt>
      <trkpt lat="46.08162" lon="11.11077">
        <ele>235.298309</ele>
        <time>2023-04-19T09:14:56.773Z</time>
      </trkpt>
      <trkpt lat="46.08156" lon="11.1109">
        <ele>235.237098</ele>
        <time>2023-04-19T09:14:58.761Z</time>
      </trkpt>
      <trkpt lat="46.08151" lon="11.11103">
        <ele>235.177638</ele>
        <time>2023-04-19T09:15:00.767Z</time>
      </trkpt>
      <trkpt lat="46.08144" lon="11.11115">
        <ele>235.116669</ele>
        <time>2023-04-19T09:15:02.768Z</time>
      </trkpt>
      <trkpt lat="46.08139" lon="11.11128">
        <ele>235.0586</ele>
        <time>2023-04-19T09:15:04.789Z</time>
      </trkpt>
      <trkpt lat="46.08133" lon="11.11141">
        <ele>234.976638</ele>
        <time>2023-04-19T09:15:06.744Z</time>
      </trkpt>
      <trkpt lat="46.08126" lon="11.11152">
        <ele>234.88777</ele>
        <time>2023-04-19T09:15:08.764Z</time>
      </trkpt>
      <trkpt lat="46.08119" lon="11.11165">
        <ele>234.796219</ele>
        <time>2023-04-19T09:15:10.747Z</time>
      </trkpt>
      <trkpt lat="46.08113" lon="11.11177">
        <ele>234.706688</ele>
        <time>2023-04-19T09:15:12.767Z</time>
      </trkpt>
      <trkpt lat="46.08108" lon="11.11191">
        <ele>234.615555</ele>
        <time>2023-04-19T09:15:14.780Z</time>
      </trkpt>
      <trkpt lat="46.08102" lon="11.11202">
        <ele>234.532773</ele>
        <time>2023-04-19T09:15:16.769Z</time>
      </trkpt>
      <trkpt lat="46.08094" lon="11.11218">
        <ele>234.420076</ele>
        <time>2023-04-19T09:15:19.793Z</time>
      </trkpt>
      <trkpt lat="46.08087" lon="11.11233">
        <ele>234.311304</ele>
        <time>2023-04-19T09:15:22.764Z</time>
      </trkpt>
      <trkpt lat="46.0808" lon="11.11246">
        <ele>234.212577</ele>
        <time>2023-04-19T09:15:25.773Z</time>
      </trkpt>
      <trkpt lat="46.08072" lon="11.11259">
        <ele>234.11621</ele>
        <time>2023-04-19T09:15:28.764Z</time>
      </trkpt>
      <trkpt lat="46.0807" lon="11.11273">
        <ele>234.029966</ele>
        <time>2023-04-19T09:15:31.763Z</time>
      </trkpt>
      <trkpt lat="46.08078" lon="11.11286">
        <ele>233.927907</ele>
        <time>2023-04-19T09:15:34.770Z</time>
      </trkpt>
      <trkpt lat="46.08087" lon="11.11295">
        <ele>233.834741</ele>
        <time>2023-04-19T09:15:36.760Z</time>
      </trkpt>
      <trkpt lat="46.08093" lon="11.1131">
        <ele>233.735768</ele>
        <time>2023-04-19T09:15:38.775Z</time>
      </trkpt>
      <trkpt lat="46.08091" lon="11.11327">
        <ele>233.633929</ele>
        <time>2023-04-19T09:15:40.760Z</time>
      </trkpt>
      <trkpt lat="46.08084" lon="11.11343">
        <ele>233.525618</ele>
        <time>2023-04-19T09:15:42.835Z</time>
      </trkpt>
      <trkpt lat="46.08077" lon="11.11349">
        <ele>233.639265</ele>
        <time>2023-04-19T09:15:44.762Z</time>
      </trkpt>
      <trkpt lat="46.08068" lon="11.11351">
        <ele>233.759108</ele>
        <time>2023-04-19T09:15:46.776Z</time>
      </trkpt>
      <trkpt lat="46.08057" lon="11.11345">
        <ele>233.905475</ele>
        <time>2023-04-19T09:15:49.765Z</time>
      </trkpt>
      <trkpt lat="46.08049" lon="11.11339">
        <ele>234.032245</ele>
        <time>2023-04-19T09:15:52.776Z</time>
      </trkpt>
      <trkpt lat="46.08039" lon="11.11331">
        <ele>234.183207</ele>
        <time>2023-04-19T09:15:56.769Z</time>
      </trkpt>
      <trkpt lat="46.08031" lon="11.11322">
        <ele>234.305241</ele>
        <time>2023-04-19T09:16:00.747Z</time>
      </trkpt>
      <trkpt lat="46.08022" lon="11.11334">
        <ele>234.471727</ele>
        <time>2023-04-19T09:17:12.761Z</time>
      </trkpt>
      <trkpt lat="46.08014" lon="11.11343">
        <ele>234.601912</ele>
        <time>2023-04-19T09:17:15.765Z</time>
      </trkpt>
      <trkpt lat="46.08006" lon="11.11354">
        <ele>234.744728</ele>
        <time>2023-04-19T09:17:18.765Z</time>
      </trkpt>
      <trkpt lat="46.08" lon="11.11363">
        <ele>234.868222</ele>
        <time>2023-04-19T09:17:20.778Z</time>
      </trkpt>
      <trkpt lat="46.07989" lon="11.11376">
        <ele>235.045198</ele>
        <time>2023-04-19T09:17:23.763Z</time>
      </trkpt>
      <trkpt lat="46.0798" lon="11.11389">
        <ele>235.218817</ele>
        <time>2023-04-19T09:17:26.767Z</time>
      </trkpt>
      <trkpt lat="46.07973" lon="11.11398">
        <ele>235.345795</ele>
        <time>2023-04-19T09:17:28.753Z</time>
      </trkpt>
      <trkpt lat="46.07965" lon="11.11407">
        <ele>235.474129</ele>
        <time>2023-04-19T09:17:30.763Z</time>
      </trkpt>
      <trkpt lat="46.07958" lon="11.11416">
        <ele>235.599362</ele>
        <time>2023-04-19T09:17:32.773Z</time>
      </trkpt>
      <trkpt lat="46.0795" lon="11.11424">
        <ele>235.726195</ele>
        <time>2023-04-19T09:17:34.756Z</time>
      </trkpt>
      <trkpt lat="46.07942" lon="11.11433">
        <ele>235.857175</ele>
        <time>2023-04-19T09:17:36.764Z</time>
      </trkpt>
      <trkpt lat="46.07934" lon="11.11441">
        <ele>235.922463</ele>
        <time>2023-04-19T09:17:38.742Z</time>
      </trkpt>
      <trkpt lat="46.07926" lon="11.1145">
        <ele>235.966591</ele>
        <time>2023-04-19T09:17:40.766Z</time>
      </trkpt>
      <trkpt lat="46.07918" lon="11.11458">
        <ele>236.008307</ele>
        <time>2023-04-19T09:17:42.782Z</time>
      </trkpt>
      <trkpt lat="46.0791" lon="11.11467">
        <ele>236.051404</ele>
        <time>2023-04-19T09:17:44.765Z</time>
      </trkpt>
      <trkpt lat="46.07902" lon="11.11475">
        <ele>236.094331</ele>
        <time>2023-04-19T09:17:46.824Z</time>
      </trkpt>
      <trkpt lat="46.07893" lon="11.11483">
        <ele>236.137444</ele>
        <time>2023-04-19T09:17:48.742Z</time>
      </trkpt>
      <trkpt lat="46.07885" lon="11.11491">
        <ele>236.180984</ele>
        <time>2023-04-19T09:17:50.758Z</time>
      </trkpt>
      <trkpt lat="46.07876" lon="11.11499">
        <ele>236.225871</ele>
        <time>2023-04-19T09:17:52.764Z</time>
      </trkpt>
      <trkpt lat="46.07867" lon="11.11507">
        <ele>236.269832</ele>
        <time>2023-04-19T09:17:54.758Z</time>
      </trkpt>
      <trkpt lat="46.07858" lon="11.11514">
        <ele>236.312318</ele>
        <time>2023-04-19T09:17:56.755Z</time>
      </trkpt>
      <trkpt lat="46.07849" lon="11.11521">
        <ele>236.35732</ele>
        <time>2023-04-19T09:17:58.754Z</time>
      </trkpt>
      <trkpt lat="46.0784" lon="11.11529">
        <ele>236.399807</ele>
        <time>2023-04-19T09:18:00.775Z</time>
      </trkpt>
      <trkpt lat="46.07831" lon="11.11536">
        <ele>236.443918</ele>
        <time>2023-04-19T09:18:02.768Z</time>
      </trkpt>
      <trkpt lat="46.07822" lon="11.11543">
        <ele>236.48729</ele>
        <time>2023-04-19T09:18:04.775Z</time>
      </trkpt>
      <trkpt lat="46.07813" lon="11.1155">
        <ele>236.530715</ele>
        <time>2023-04-19T09:18:06.787Z</time>
      </trkpt>
      <trkpt lat="46.07804" lon="11.11557">
        <ele>236.574767</ele>
        <time>2023-04-19T09:18:08.765Z</time>
      </trkpt>
      <trkpt lat="46.07795" lon="11.11563">
        <ele>236.618308</ele>
        <time>2023-04-19T09:18:10.781Z</time>
      </trkpt>
      <trkpt lat="46.07786" lon="11.1157">
        <ele>236.656824</ele>
        <time>2023-04-19T09:18:12.766Z</time>
      </trkpt>
      <trkpt lat="46.07778" lon="11.11576">
        <ele>236.62803</ele>
        <time>2023-04-19T09:18:14.771Z</time>
      </trkpt>
      <trkpt lat="46.07766" lon="11.11579">
        <ele>236.587782</ele>
        <time>2023-04-19T09:18:17.762Z</time>
      </trkpt>
      <trkpt lat="46.07754" lon="11.11586">
        <ele>236.547018</ele>
        <time>2023-04-19T09:18:20.757Z</time>
      </trkpt>
      <trkpt lat="46.07745" lon="11.11598">
        <ele>236.50602</ele>
        <time>2023-04-19T09:18:23.755Z</time>
      </trkpt>
      <trkpt lat="46.07734" lon="11.11598">
        <ele>236.47311</ele>
        <time>2023-04-19T09:18:26.750Z</time>
      </trkpt>
      <trkpt lat="46.07723" lon="11.11604">
        <ele>236.435261</ele>
        <time>2023-04-19T09:18:29.748Z</time>
      </trkpt>
      <trkpt lat="46.07713" lon="11.11609">
        <ele>236.401056</ele>
        <time>2023-04-19T09:18:31.754Z</time>
      </trkpt>
      <trkpt lat="46.07703" lon="11.11615">
        <ele>236.366297</ele>
        <time>2023-04-19T09:18:33.763Z</time>
      </trkpt>
      <trkpt lat="46.07693" lon="11.1162">
        <ele>236.329969</ele>
        <time>2023-04-19T09:18:35.768Z</time>
      </trkpt>
      <trkpt lat="46.07683" lon="11.11626">
        <ele>236.295154</ele>
        <time>2023-04-19T09:18:37.762Z</time>
      </trkpt>
      <trkpt lat="46.07673" lon="11.1163">
        <ele>236.262295</ele>
        <time>2023-04-19T09:18:39.763Z</time>
      </trkpt>
      <trkpt lat="46.07663" lon="11.11635">
        <ele>236.228621</ele>
        <time>2023-04-19T09:18:41.765Z</time>
      </trkpt>
      <trkpt lat="46.07654" lon="11.11639">
        <ele>236.197635</ele>
        <time>2023-04-19T09:18:43.764Z</time>
      </trkpt>
      <trkpt lat="46.07645" lon="11.11643">
        <ele>236.166464</ele>
        <time>2023-04-19T09:18:45.773Z</time>
      </trkpt>
      <trkpt lat="46.07635" lon="11.11648">
        <ele>236.13398</ele>
        <time>2023-04-19T09:18:47.766Z</time>
      </trkpt>
      <trkpt lat="46.07625" lon="11.11652">
        <ele>236.099774</ele>
        <time>2023-04-19T09:18:49.755Z</time>
      </trkpt>
      <trkpt lat="46.07614" lon="11.11656">
        <ele>236.086557</ele>
        <time>2023-04-19T09:18:51.779Z</time>
      </trkpt>
      <trkpt lat="46.07605" lon="11.11659">
        <ele>236.107814</ele>
        <time>2023-04-19T09:18:53.763Z</time>
      </trkpt>
      <trkpt lat="46.07595" lon="11.11661">
        <ele>236.1291</ele>
        <time>2023-04-19T09:18:55.773Z</time>
      </trkpt>
      <trkpt lat="46.07582" lon="11.11666">
        <ele>236.158087</ele>
        <time>2023-04-19T09:18:58.761Z</time>
      </trkpt>
      <trkpt lat="46.07573" lon="11.11669">
        <ele>236.178444</ele>
        <time>2023-04-19T09:19:00.761Z</time>
      </trkpt>
      <trkpt lat="46.07563" lon="11.11672">
        <ele>236.200774</ele>
        <time>2023-04-19T09:19:02.765Z</time>
      </trkpt>
      <trkpt lat="46.07553" lon="11.11675">
        <ele>236.222516</ele>
        <time>2023-04-19T09:19:04.776Z</time>
      </trkpt>
      <trkpt lat="46.07543" lon="11.11678">
        <ele>236.24393</ele>
        <time>2023-04-19T09:19:06.757Z</time>
      </trkpt>
      <trkpt lat="46.07534" lon="11.11681">
        <ele>236.265643</ele>
        <time>2023-04-19T09:19:08.738Z</time>
      </trkpt>
      <trkpt lat="46.07524" lon="11.11683">
        <ele>236.28739</ele>
        <time>2023-04-19T09:19:10.756Z</time>
      </trkpt>
      <trkpt lat="46.07513" lon="11.11685">
        <ele>236.310213</ele>
        <time>2023-04-19T09:19:12.736Z</time>
      </trkpt>
      <trkpt lat="46.07503" lon="11.11687">
        <ele>236.332369</ele>
        <time>2023-04-19T09:19:14.738Z</time>
      </trkpt>
      <trkpt lat="46.07493" lon="11.1169">
        <ele>236.354762</ele>
        <time>2023-04-19T09:19:16.770Z</time>
      </trkpt>
      <trkpt lat="46.07483" lon="11.11691">
        <ele>236.376558</ele>
        <time>2023-04-19T09:19:18.764Z</time>
      </trkpt>
      <trkpt lat="46.07473" lon="11.11692">
        <ele>236.399221</ele>
        <time>2023-04-19T09:19:20.769Z</time>
      </trkpt>
      <trkpt lat="46.07462" lon="11.11693">
        <ele>236.42144</ele>
        <time>2023-04-19T09:19:22.779Z</time>
      </trkpt>
      <trkpt lat="46.07452" lon="11.11694">
        <ele>236.443464</ele>
        <time>2023-04-19T09:19:24.776Z</time>
      </trkpt>
      <trkpt lat="46.07442" lon="11.11695">
        <ele>236.46524</ele>
        <time>2023-04-19T09:19:26.772Z</time>
      </trkpt>
      <trkpt lat="46.07431" lon="11.11696">
        <ele>236.410422</ele>
        <time>2023-04-19T09:19:28.752Z</time>
      </trkpt>
      <trkpt lat="46.0742" lon="11.11696">
        <ele>236.34079</ele>
        <time>2023-04-19T09:19:30.787Z</time>
      </trkpt>
      <trkpt lat="46.07409" lon="11.11697">
        <ele>236.271728</ele>
        <time>2023-04-19T09:19:32.757Z</time>
      </trkpt>
      <trkpt lat="46.07398" lon="11.11697">
        <ele>236.206953</ele>
        <time>2023-04-19T09:19:34.768Z</time>
      </trkpt>
      <trkpt lat="46.07388" lon="11.11698">
        <ele>236.146883</ele>
        <time>2023-04-19T09:19:36.764Z</time>
      </trkpt>
      <trkpt lat="46.07378" lon="11.11697">
        <ele>236.084412</ele>
        <time>2023-04-19T09:19:38.751Z</time>
      </trkpt>
      <trkpt lat="46.07368" lon="11.11697">
        <ele>236.022114</ele>
        <time>2023-04-19T09:19:40.761Z</time>
      </trkpt>
      <trkpt lat="46.07355" lon="11.11698">
        <ele>235.945154</ele>
        <time>2023-04-19T09:19:43.752Z</time>
      </trkpt>
      <trkpt lat="46.07343" lon="11.11697">
        <ele>235.869302</ele>
        <time>2023-04-19T09:19:46.773Z</time>
      </trkpt>
      <trkpt lat="46.07331" lon="11.11695">
        <ele>235.795863</ele>
        <time>2023-04-19T09:19:49.767Z</time>
      </trkpt>
      <trkpt lat="46.07319" lon="11.11693">
        <ele>235.721981</ele>
        <time>2023-04-19T09:19:52.787Z</time>
      </trkpt>
      <trkpt lat="46.07305" lon="11.11692">
        <ele>235.639954</ele>
        <time>2023-04-19T09:19:55.745Z</time>
      </trkpt>
      <trkpt lat="46.07296" lon="11.1169">
        <ele>235.583855</ele>
        <time>2023-04-19T09:19:57.751Z</time>
      </trkpt>
      <trkpt lat="46.07287" lon="11.11689">
        <ele>235.526219</ele>
        <time>2023-04-19T09:19:59.757Z</time>
      </trkpt>
      <trkpt lat="46.07278" lon="11.11686">
        <ele>235.469474</ele>
        <time>2023-04-19T09:20:01.758Z</time>
      </trkpt>
      <trkpt lat="46.07265" lon="11.11683">
        <ele>235.387255</ele>
        <time>2023-04-19T09:20:04.770Z</time>
      </trkpt>
      <trkpt lat="46.07255" lon="11.11681">
        <ele>235.419386</ele>
        <time>2023-04-19T09:20:06.770Z</time>
      </trkpt>
      <trkpt lat="46.07246" lon="11.11679">
        <ele>235.490427</ele>
        <time>2023-04-19T09:20:08.766Z</time>
      </trkpt>
      <trkpt lat="46.07237" lon="11.11676">
        <ele>235.561101</ele>
        <time>2023-04-19T09:20:10.766Z</time>
      </trkpt>
      <trkpt lat="46.07227" lon="11.11675">
        <ele>235.631401</ele>
        <time>2023-04-19T09:20:12.774Z</time>
      </trkpt>
      <trkpt lat="46.07218" lon="11.11672">
        <ele>235.704296</ele>
        <time>2023-04-19T09:20:14.757Z</time>
      </trkpt>
      <trkpt lat="46.07209" lon="11.11671">
        <ele>235.772982</ele>
        <time>2023-04-19T09:20:16.760Z</time>
      </trkpt>
      <trkpt lat="46.07195" lon="11.11666">
        <ele>235.878107</ele>
        <time>2023-04-19T09:20:19.781Z</time>
      </trkpt>
      <trkpt lat="46.07186" lon="11.11662">
        <ele>235.946369</ele>
        <time>2023-04-19T09:20:21.749Z</time>
      </trkpt>
      <trkpt lat="46.07177" lon="11.11658">
        <ele>236.016998</ele>
        <time>2023-04-19T09:20:23.777Z</time>
      </trkpt>
      <trkpt lat="46.07167" lon="11.11655">
        <ele>236.093595</ele>
        <time>2023-04-19T09:20:25.773Z</time>
      </trkpt>
      <trkpt lat="46.07158" lon="11.11652">
        <ele>236.16495</ele>
        <time>2023-04-19T09:20:27.773Z</time>
      </trkpt>
      <trkpt lat="46.07148" lon="11.11649">
        <ele>236.243856</ele>
        <time>2023-04-19T09:20:29.767Z</time>
      </trkpt>
      <trkpt lat="46.07138" lon="11.11644">
        <ele>236.320762</ele>
        <time>2023-04-19T09:20:31.759Z</time>
      </trkpt>
      <trkpt lat="46.07129" lon="11.1164">
        <ele>236.392106</ele>
        <time>2023-04-19T09:20:33.753Z</time>
      </trkpt>
      <trkpt lat="46.0712" lon="11.11636">
        <ele>236.46376</ele>
        <time>2023-04-19T09:20:35.754Z</time>
      </trkpt>
      <trkpt lat="46.07111" lon="11.11632">
        <ele>236.536844</ele>
        <time>2023-04-19T09:20:37.756Z</time>
      </trkpt>
      <trkpt lat="46.07102" lon="11.11627">
        <ele>236.60616</ele>
        <time>2023-04-19T09:20:39.755Z</time>
      </trkpt>
      <trkpt lat="46.07093" lon="11.11623">
        <ele>236.67513</ele>
        <time>2023-04-19T09:20:41.745Z</time>
      </trkpt>
      <trkpt lat="46.07081" lon="11.11617">
        <ele>236.873044</ele>
        <time>2023-04-19T09:20:44.767Z</time>
      </trkpt>
      <trkpt lat="46.07069" lon="11.11611">
        <ele>237.139106</ele>
        <time>2023-04-19T09:20:47.758Z</time>
      </trkpt>
      <trkpt lat="46.07058" lon="11.11605">
        <ele>237.406045</ele>
        <time>2023-04-19T09:20:50.762Z</time>
      </trkpt>
      <trkpt lat="46.07047" lon="11.11601">
        <ele>237.664843</ele>
        <time>2023-04-19T09:20:53.762Z</time>
      </trkpt>
      <trkpt lat="46.07035" lon="11.11596">
        <ele>237.927037</ele>
        <time>2023-04-19T09:20:56.778Z</time>
      </trkpt>
      <trkpt lat="46.07024" lon="11.1159">
        <ele>238.185948</ele>
        <time>2023-04-19T09:20:59.752Z</time>
      </trkpt>
      <trkpt lat="46.07016" lon="11.11583">
        <ele>238.391003</ele>
        <time>2023-04-19T09:21:02.787Z</time>
      </trkpt>
      <trkpt lat="46.07007" lon="11.11579">
        <ele>238.5991</ele>
        <time>2023-04-19T09:21:06.763Z</time>
      </trkpt>
      <trkpt lat="46.06998" lon="11.11571">
        <ele>238.829511</ele>
        <time>2023-04-19T09:21:11.751Z</time>
      </trkpt>
      <trkpt lat="46.06987" lon="11.11571">
        <ele>239.052392</ele>
        <time>2023-04-19T09:21:16.761Z</time>
      </trkpt>
      <trkpt lat="46.06984" lon="11.11574">
        <ele>239.131233</ele>
        <time>2023-04-19T09:21:18.796Z</time>
      </trkpt>
      <trkpt lat="46.06979" lon="11.11562">
        <ele>239.340254</ele>
        <time>2023-04-19T09:45:10.761Z</time>
      </trkpt>
      <trkpt lat="46.0697" lon="11.11557">
        <ele>239.550777</ele>
        <time>2023-04-19T09:45:15.757Z</time>
      </trkpt>
      <trkpt lat="46.06954" lon="11.11548">
        <ele>239.915799</ele>
        <time>2023-04-19T09:46:24.751Z</time>
      </trkpt>
      <trkpt lat="46.06944" lon="11.11543">
        <ele>240.144908</ele>
        <time>2023-04-19T09:46:28.755Z</time>
      </trkpt>
      <trkpt lat="46.06933" lon="11.11538">
        <ele>240.406716</ele>
        <time>2023-04-19T09:46:32.762Z</time>
      </trkpt>
      <trkpt lat="46.06921" lon="11.11531">
        <ele>240.636771</ele>
        <time>2023-04-19T09:46:35.752Z</time>
      </trkpt>
      <trkpt lat="46.06911" lon="11.11527">
        <ele>240.597128</ele>
        <time>2023-04-19T09:46:37.786Z</time>
      </trkpt>
      <trkpt lat="46.06901" lon="11.11523">
        <ele>240.559232</ele>
        <time>2023-04-19T09:46:39.768Z</time>
      </trkpt>
      <trkpt lat="46.06892" lon="11.11519">
        <ele>240.520822</ele>
        <time>2023-04-19T09:46:41.761Z</time>
      </trkpt>
      <trkpt lat="46.06882" lon="11.11514">
        <ele>240.482449</ele>
        <time>2023-04-19T09:46:43.774Z</time>
      </trkpt>
      <trkpt lat="46.06872" lon="11.11509">
        <ele>240.44335</ele>
        <time>2023-04-19T09:46:45.757Z</time>
      </trkpt>
      <trkpt lat="46.06864" lon="11.11504">
        <ele>240.408009</ele>
        <time>2023-04-19T09:46:47.765Z</time>
      </trkpt>
      <trkpt lat="46.06855" lon="11.115">
        <ele>240.37324</ele>
        <time>2023-04-19T09:46:49.751Z</time>
      </trkpt>
      <trkpt lat="46.06842" lon="11.11494">
        <ele>240.322406</ele>
        <time>2023-04-19T09:46:52.762Z</time>
      </trkpt>
      <trkpt lat="46.06833" lon="11.11488">
        <ele>240.283401</ele>
        <time>2023-04-19T09:46:54.785Z</time>
      </trkpt>
      <trkpt lat="46.06823" lon="11.11483">
        <ele>240.244767</ele>
        <time>2023-04-19T09:46:56.769Z</time>
      </trkpt>
      <trkpt lat="46.06814" lon="11.11478">
        <ele>240.208709</ele>
        <time>2023-04-19T09:46:58.765Z</time>
      </trkpt>
      <trkpt lat="46.06805" lon="11.11473">
        <ele>240.171942</ele>
        <time>2023-04-19T09:47:00.757Z</time>
      </trkpt>
      <trkpt lat="46.06796" lon="11.1147">
        <ele>240.135613</ele>
        <time>2023-04-19T09:47:02.754Z</time>
      </trkpt>
      <trkpt lat="46.06785" lon="11.11468">
        <ele>240.093505</ele>
        <time>2023-04-19T09:47:05.759Z</time>
      </trkpt>
      <trkpt lat="46.06773" lon="11.11465">
        <ele>240.048853</ele>
        <time>2023-04-19T09:47:08.758Z</time>
      </trkpt>
      <trkpt lat="46.06762" lon="11.11458">
        <ele>240.001748</ele>
        <time>2023-04-19T09:47:11.778Z</time>
      </trkpt>
      <trkpt lat="46.06751" lon="11.11452">
        <ele>239.964111</ele>
        <time>2023-04-19T09:47:14.777Z</time>
      </trkpt>
      <trkpt lat="46.06739" lon="11.11447">
        <ele>239.966604</ele>
        <time>2023-04-19T09:47:17.750Z</time>
      </trkpt>
      <trkpt lat="46.06727" lon="11.11439">
        <ele>239.969248</ele>
        <time>2023-04-19T09:47:20.761Z</time>
      </trkpt>
      <trkpt lat="46.06717" lon="11.11435">
        <ele>239.97129</ele>
        <time>2023-04-19T09:47:22.766Z</time>
      </trkpt>
      <trkpt lat="46.06708" lon="11.1143">
        <ele>239.97323</ele>
        <time>2023-04-19T09:47:24.765Z</time>
      </trkpt>
      <trkpt lat="46.06699" lon="11.11425">
        <ele>239.97517</ele>
        <time>2023-04-19T09:47:26.768Z</time>
      </trkpt>
      <trkpt lat="46.0669" lon="11.11421">
        <ele>239.977124</ele>
        <time>2023-04-19T09:47:28.764Z</time>
      </trkpt>
      <trkpt lat="46.06681" lon="11.11415">
        <ele>239.979131</ele>
        <time>2023-04-19T09:47:30.766Z</time>
      </trkpt>
      <trkpt lat="46.06672" lon="11.11409">
        <ele>239.981119</ele>
        <time>2023-04-19T09:47:32.766Z</time>
      </trkpt>
      <trkpt lat="46.06662" lon="11.11404">
        <ele>239.983136</ele>
        <time>2023-04-19T09:47:34.779Z</time>
      </trkpt>
      <trkpt lat="46.06652" lon="11.114">
        <ele>239.98527</ele>
        <time>2023-04-19T09:47:36.770Z</time>
      </trkpt>
      <trkpt lat="46.06642" lon="11.11396">
        <ele>239.98734</ele>
        <time>2023-04-19T09:47:38.761Z</time>
      </trkpt>
      <trkpt lat="46.06632" lon="11.11391">
        <ele>239.989563</ele>
        <time>2023-04-19T09:47:40.766Z</time>
      </trkpt>
      <trkpt lat="46.06622" lon="11.11385">
        <ele>239.991779</ele>
        <time>2023-04-19T09:47:42.763Z</time>
      </trkpt>
      <trkpt lat="46.06612" lon="11.11379">
        <ele>239.993855</ele>
        <time>2023-04-19T09:47:44.764Z</time>
      </trkpt>
      <trkpt lat="46.06602" lon="11.11374">
        <ele>239.996026</ele>
        <time>2023-04-19T09:47:46.777Z</time>
      </trkpt>
      <trkpt lat="46.06592" lon="11.11368">
        <ele>239.998222</ele>
        <time>2023-04-19T09:47:48.746Z</time>
      </trkpt>
      <trkpt lat="46.06582" lon="11.11362">
        <ele>239.993897</ele>
        <time>2023-04-19T09:47:50.774Z</time>
      </trkpt>
      <trkpt lat="46.06571" lon="11.11357">
        <ele>239.959706</ele>
        <time>2023-04-19T09:47:52.741Z</time>
      </trkpt>
      <trkpt lat="46.06561" lon="11.11352">
        <ele>239.92759</ele>
        <time>2023-04-19T09:47:54.753Z</time>
      </trkpt>
      <trkpt lat="46.06551" lon="11.11347">
        <ele>239.896324</ele>
        <time>2023-04-19T09:47:56.762Z</time>
      </trkpt>
      <trkpt lat="46.06541" lon="11.11342">
        <ele>239.863854</ele>
        <time>2023-04-19T09:47:58.757Z</time>
      </trkpt>
      <trkpt lat="46.06531" lon="11.11336">
        <ele>239.830605</ele>
        <time>2023-04-19T09:48:00.759Z</time>
      </trkpt>
      <trkpt lat="46.06521" lon="11.11332">
        <ele>239.798861</ele>
        <time>2023-04-19T09:48:02.768Z</time>
      </trkpt>
      <trkpt lat="46.0651" lon="11.11328">
        <ele>239.765264</ele>
        <time>2023-04-19T09:48:04.771Z</time>
      </trkpt>
      <trkpt lat="46.065" lon="11.11323">
        <ele>239.733273</ele>
        <time>2023-04-19T09:48:06.765Z</time>
      </trkpt>
      <trkpt lat="46.0649" lon="11.11317">
        <ele>239.700374</ele>
        <time>2023-04-19T09:48:08.750Z</time>
      </trkpt>
      <trkpt lat="46.06479" lon="11.11313">
        <ele>239.667932</ele>
        <time>2023-04-19T09:48:10.744Z</time>
      </trkpt>
      <trkpt lat="46.06468" lon="11.11309">
        <ele>239.632413</ele>
        <time>2023-04-19T09:48:12.762Z</time>
      </trkpt>
      <trkpt lat="46.06457" lon="11.11304">
        <ele>239.5976</ele>
        <time>2023-04-19T09:48:14.760Z</time>
      </trkpt>
      <trkpt lat="46.06446" lon="11.11299">
        <ele>239.563018</ele>
        <time>2023-04-19T09:48:16.763Z</time>
      </trkpt>
      <trkpt lat="46.06435" lon="11.11295">
        <ele>239.529882</ele>
        <time>2023-04-19T09:48:18.758Z</time>
      </trkpt>
      <trkpt lat="46.06425" lon="11.11291">
        <ele>239.497199</ele>
        <time>2023-04-19T09:48:20.768Z</time>
      </trkpt>
      <trkpt lat="46.06414" lon="11.11287">
        <ele>239.464172</ele>
        <time>2023-04-19T09:48:22.756Z</time>
      </trkpt>
      <trkpt lat="46.06404" lon="11.11284">
        <ele>239.434</ele>
        <time>2023-04-19T09:48:24.755Z</time>
      </trkpt>
      <trkpt lat="46.06393" lon="11.11282">
        <ele>239.403323</ele>
        <time>2023-04-19T09:48:26.763Z</time>
      </trkpt>
      <trkpt lat="46.06381" lon="11.11278">
        <ele>239.371115</ele>
        <time>2023-04-19T09:48:28.752Z</time>
      </trkpt>
      <trkpt lat="46.0637" lon="11.11274">
        <ele>239.33936</ele>
        <time>2023-04-19T09:48:30.764Z</time>
      </trkpt>
      <trkpt lat="46.06359" lon="11.11271">
        <ele>239.307041</ele>
        <time>2023-04-19T09:48:32.735Z</time>
      </trkpt>
      <trkpt lat="46.06348" lon="11.11269">
        <ele>239.276449</ele>
        <time>2023-04-19T09:48:34.754Z</time>
      </trkpt>
      <trkpt lat="46.06337" lon="11.11265">
        <ele>239.24582</ele>
        <time>2023-04-19T09:48:36.776Z</time>
      </trkpt>
      <trkpt lat="46.06326" lon="11.11263">
        <ele>239.215172</ele>
        <time>2023-04-19T09:48:38.753Z</time>
      </trkpt>
      <trkpt lat="46.06316" lon="11.1126">
        <ele>239.186202</ele>
        <time>2023-04-19T09:48:40.773Z</time>
      </trkpt>
      <trkpt lat="46.06305" lon="11.11257">
        <ele>239.154933</ele>
        <time>2023-04-19T09:48:42.756Z</time>
      </trkpt>
      <trkpt lat="46.06295" lon="11.11254">
        <ele>239.125353</ele>
        <time>2023-04-19T09:48:44.753Z</time>
      </trkpt>
      <trkpt lat="46.06284" lon="11.11253">
        <ele>239.094969</ele>
        <time>2023-04-19T09:48:46.758Z</time>
      </trkpt>
      <trkpt lat="46.06274" lon="11.11251">
        <ele>239.06721</ele>
        <time>2023-04-19T09:48:48.756Z</time>
      </trkpt>
      <trkpt lat="46.06263" lon="11.11249">
        <ele>239.038178</ele>
        <time>2023-04-19T09:48:50.756Z</time>
      </trkpt>
      <trkpt lat="46.06254" lon="11.11247">
        <ele>239.010393</ele>
        <time>2023-04-19T09:48:52.759Z</time>
      </trkpt>
      <trkpt lat="46.06243" lon="11.11244">
        <ele>238.981805</ele>
        <time>2023-04-19T09:48:54.763Z</time>
      </trkpt>
      <trkpt lat="46.06233" lon="11.11242">
        <ele>238.948113</ele>
        <time>2023-04-19T09:48:56.758Z</time>
      </trkpt>
      <trkpt lat="46.06221" lon="11.11239">
        <ele>238.899915</ele>
        <time>2023-04-19T09:48:58.748Z</time>
      </trkpt>
      <trkpt lat="46.0621" lon="11.11236">
        <ele>238.852551</ele>
        <time>2023-04-19T09:49:00.773Z</time>
      </trkpt>
      <trkpt lat="46.062" lon="11.11235">
        <ele>238.807094</ele>
        <time>2023-04-19T09:49:02.768Z</time>
      </trkpt>
      <trkpt lat="46.06188" lon="11.11234">
        <ele>238.757506</ele>
        <time>2023-04-19T09:49:04.755Z</time>
      </trkpt>
      <trkpt lat="46.06176" lon="11.11232">
        <ele>238.706374</ele>
        <time>2023-04-19T09:49:06.764Z</time>
      </trkpt>
      <trkpt lat="46.06165" lon="11.11229">
        <ele>238.657759</ele>
        <time>2023-04-19T09:49:08.754Z</time>
      </trkpt>
      <trkpt lat="46.06154" lon="11.11227">
        <ele>238.609842</ele>
        <time>2023-04-19T09:49:10.774Z</time>
      </trkpt>
      <trkpt lat="46.06142" lon="11.11225">
        <ele>238.562003</ele>
        <time>2023-04-19T09:49:12.774Z</time>
      </trkpt>
      <trkpt lat="46.06131" lon="11.11224">
        <ele>238.513543</ele>
        <time>2023-04-19T09:49:14.758Z</time>
      </trkpt>
      <trkpt lat="46.0612" lon="11.11222">
        <ele>238.467663</ele>
        <time>2023-04-19T09:49:16.749Z</time>
      </trkpt>
      <trkpt lat="46.06111" lon="11.11222">
        <ele>238.427001</ele>
        <time>2023-04-19T09:49:18.757Z</time>
      </trkpt>
      <trkpt lat="46.06098" lon="11.11222">
        <ele>238.372785</ele>
        <time>2023-04-19T09:49:21.760Z</time>
      </trkpt>
      <trkpt lat="46.06084" lon="11.11222">
        <ele>238.316025</ele>
        <time>2023-04-19T09:49:24.758Z</time>
      </trkpt>
      <trkpt lat="46.06075" lon="11.11222">
        <ele>238.277472</ele>
        <time>2023-04-19T09:49:26.809Z</time>
      </trkpt>
      <trkpt lat="46.06062" lon="11.11221">
        <ele>238.219793</ele>
        <time>2023-04-19T09:49:29.760Z</time>
      </trkpt>
      <trkpt lat="46.06052" lon="11.11221">
        <ele>238.251879</ele>
        <time>2023-04-19T09:49:31.760Z</time>
      </trkpt>
      <trkpt lat="46.06043" lon="11.1122">
        <ele>238.383235</ele>
        <time>2023-04-19T09:49:33.760Z</time>
      </trkpt>
      <trkpt lat="46.06034" lon="11.11219">
        <ele>238.515607</ele>
        <time>2023-04-19T09:49:35.750Z</time>
      </trkpt>
      <trkpt lat="46.06024" lon="11.11219">
        <ele>238.65547</ele>
        <time>2023-04-19T09:49:37.772Z</time>
      </trkpt>
      <trkpt lat="46.06014" lon="11.11218">
        <ele>238.801091</ele>
        <time>2023-04-19T09:49:39.749Z</time>
      </trkpt>
      <trkpt lat="46.06004" lon="11.11216">
        <ele>238.942346</ele>
        <time>2023-04-19T09:49:41.777Z</time>
      </trkpt>
      <trkpt lat="46.05994" lon="11.11215">
        <ele>239.081682</ele>
        <time>2023-04-19T09:49:43.739Z</time>
      </trkpt>
      <trkpt lat="46.05984" lon="11.11215">
        <ele>239.221545</ele>
        <time>2023-04-19T09:49:45.753Z</time>
      </trkpt>
      <trkpt lat="46.05975" lon="11.11215">
        <ele>239.362846</ele>
        <time>2023-04-19T09:49:47.781Z</time>
      </trkpt>
      <trkpt lat="46.05962" lon="11.11216">
        <ele>239.547013</ele>
        <time>2023-04-19T09:49:50.766Z</time>
      </trkpt>
      <trkpt lat="46.05952" lon="11.11211">
        <ele>239.696725</ele>
        <time>2023-04-19T09:49:53.746Z</time>
      </trkpt>
      <trkpt lat="46.05951" lon="11.11194">
        <ele>239.856222</ele>
        <time>2023-04-19T09:49:57.755Z</time>
      </trkpt>
      <trkpt lat="46.05952" lon="11.1118">
        <ele>240.004115</ele>
        <time>2023-04-19T09:50:01.786Z</time>
      </trkpt>
      <trkpt lat="46.05952" lon="11.11165">
        <ele>240.143756</ele>
        <time>2023-04-19T09:50:05.750Z</time>
      </trkpt>
      <trkpt lat="46.05951" lon="11.11151">
        <ele>240.290661</ele>
        <time>2023-04-19T09:50:48.760Z</time>
      </trkpt>
      <trkpt lat="46.05951" lon="11.11135">
        <ele>240.45033</ele>
        <time>2023-04-19T09:50:53.754Z</time>
      </trkpt>
      <trkpt lat="46.05949" lon="11.11121">
        <ele>240.584257</ele>
        <time>2023-04-19T09:50:57.759Z</time>
      </trkpt>
      <trkpt lat="46.05948" lon="11.11108">
        <ele>240.712811</ele>
        <time>2023-04-19T09:51:01.772Z</time>
      </trkpt>
      <trkpt lat="46.05946" lon="11.11092">
        <ele>240.594238</ele>
        <time>2023-04-19T09:51:05.772Z</time>
      </trkpt>
      <trkpt lat="46.05944" lon="11.11077">
        <ele>240.363136</ele>
        <time>2023-04-19T09:51:08.756Z</time>
      </trkpt>
      <trkpt lat="46.0594" lon="11.11061">
        <ele>240.111097</ele>
        <time>2023-04-19T09:51:11.756Z</time>
      </trkpt>
      <trkpt lat="46.05927" lon="11.11059">
        <ele>239.81798</ele>
        <time>2023-04-19T09:51:14.753Z</time>
      </trkpt>
      <trkpt lat="46.05917" lon="11.11059">
        <ele>239.608427</ele>
        <time>2023-04-19T09:51:16.728Z</time>
      </trkpt>
      <trkpt lat="46.05906" lon="11.11058">
        <ele>239.379306</ele>
        <time>2023-04-19T09:51:18.747Z</time>
      </trkpt>
      <trkpt lat="46.05894" lon="11.11058">
        <ele>239.120124</ele>
        <time>2023-04-19T09:51:20.747Z</time>
      </trkpt>
      <trkpt lat="46.05882" lon="11.11058">
        <ele>238.858777</ele>
        <time>2023-04-19T09:51:22.765Z</time>
      </trkpt>
      <trkpt lat="46.0587" lon="11.11057">
        <ele>238.603558</ele>
        <time>2023-04-19T09:51:24.781Z</time>
      </trkpt>
      <trkpt lat="46.05859" lon="11.11055">
        <ele>238.365402</ele>
        <time>2023-04-19T09:51:26.746Z</time>
      </trkpt>
      <trkpt lat="46.05848" lon="11.11053">
        <ele>238.124462</ele>
        <time>2023-04-19T09:51:28.766Z</time>
      </trkpt>
      <trkpt lat="46.05837" lon="11.11052">
        <ele>237.88782</ele>
        <time>2023-04-19T09:51:30.756Z</time>
      </trkpt>
      <trkpt lat="46.05826" lon="11.11051">
        <ele>237.645356</ele>
        <time>2023-04-19T09:51:32.742Z</time>
      </trkpt>
      <trkpt lat="46.05815" lon="11.1105">
        <ele>237.409356</ele>
        <time>2023-04-19T09:51:34.768Z</time>
      </trkpt>
      <trkpt lat="46.05805" lon="11.11049">
        <ele>237.188542</ele>
        <time>2023-04-19T09:51:36.768Z</time>
      </trkpt>
      <trkpt lat="46.05795" lon="11.11047">
        <ele>236.974082</ele>
        <time>2023-04-19T09:51:38.768Z</time>
      </trkpt>
      <trkpt lat="46.05786" lon="11.11045">
        <ele>236.866301</ele>
        <time>2023-04-19T09:51:40.762Z</time>
      </trkpt>
      <trkpt lat="46.05775" lon="11.11044">
        <ele>236.843083</ele>
        <time>2023-04-19T09:51:42.772Z</time>
      </trkpt>
      <trkpt lat="46.05765" lon="11.11042">
        <ele>236.820258</ele>
        <time>2023-04-19T09:51:44.762Z</time>
      </trkpt>
      <trkpt lat="46.05755" lon="11.11041">
        <ele>236.797522</ele>
        <time>2023-04-19T09:51:46.773Z</time>
      </trkpt>
      <trkpt lat="46.05744" lon="11.1104">
        <ele>236.774353</ele>
        <time>2023-04-19T09:51:48.760Z</time>
      </trkpt>
      <trkpt lat="46.05734" lon="11.1104">
        <ele>236.750567</ele>
        <time>2023-04-19T09:51:50.774Z</time>
      </trkpt>
      <trkpt lat="46.05723" lon="11.11039">
        <ele>236.726972</ele>
        <time>2023-04-19T09:51:52.774Z</time>
      </trkpt>
      <trkpt lat="46.05712" lon="11.11039">
        <ele>236.702521</ele>
        <time>2023-04-19T09:51:54.776Z</time>
      </trkpt>
      <trkpt lat="46.05701" lon="11.11039">
        <ele>236.678068</ele>
        <time>2023-04-19T09:51:56.777Z</time>
      </trkpt>
      <trkpt lat="46.0569" lon="11.1104">
        <ele>236.652892</ele>
        <time>2023-04-19T09:51:58.752Z</time>
      </trkpt>
      <trkpt lat="46.05678" lon="11.1104">
        <ele>236.62598</ele>
        <time>2023-04-19T09:52:00.767Z</time>
      </trkpt>
      <trkpt lat="46.05665" lon="11.11038">
        <ele>236.597642</ele>
        <time>2023-04-19T09:52:02.752Z</time>
      </trkpt>
      <trkpt lat="46.05652" lon="11.11037">
        <ele>236.569773</ele>
        <time>2023-04-19T09:52:04.762Z</time>
      </trkpt>
      <trkpt lat="46.0564" lon="11.11036">
        <ele>236.541294</ele>
        <time>2023-04-19T09:52:06.773Z</time>
      </trkpt>
      <trkpt lat="46.05627" lon="11.11033">
        <ele>236.512621</ele>
        <time>2023-04-19T09:52:08.766Z</time>
      </trkpt>
      <trkpt lat="46.05614" lon="11.11032">
        <ele>236.484048</ele>
        <time>2023-04-19T09:52:10.769Z</time>
      </trkpt>
      <trkpt lat="46.05602" lon="11.1103">
        <ele>236.466347</ele>
        <time>2023-04-19T09:52:12.751Z</time>
      </trkpt>
      <trkpt lat="46.0559" lon="11.11028">
        <ele>236.451767</ele>
        <time>2023-04-19T09:52:14.765Z</time>
      </trkpt>
      <trkpt lat="46.05579" lon="11.11025">
        <ele>236.436985</ele>
        <time>2023-04-19T09:52:16.759Z</time>
      </trkpt>
      <trkpt lat="46.05567" lon="11.11024">
        <ele>236.421735</ele>
        <time>2023-04-19T09:52:18.759Z</time>
      </trkpt>
      <trkpt lat="46.05555" lon="11.11022">
        <ele>236.406485</ele>
        <time>2023-04-19T09:52:20.762Z</time>
      </trkpt>
      <trkpt lat="46.05543" lon="11.1102">
        <ele>236.391829</ele>
        <time>2023-04-19T09:52:22.769Z</time>
      </trkpt>
      <trkpt lat="46.05531" lon="11.11018">
        <ele>236.377307</ele>
        <time>2023-04-19T09:52:24.758Z</time>
      </trkpt>
      <trkpt lat="46.0552" lon="11.11016">
        <ele>236.36239</ele>
        <time>2023-04-19T09:52:26.772Z</time>
      </trkpt>
      <trkpt lat="46.05508" lon="11.11013">
        <ele>236.347921</ele>
        <time>2023-04-19T09:52:28.767Z</time>
      </trkpt>
      <trkpt lat="46.05496" lon="11.11011">
        <ele>236.332857</ele>
        <time>2023-04-19T09:52:30.769Z</time>
      </trkpt>
      <trkpt lat="46.05485" lon="11.11008">
        <ele>236.317864</ele>
        <time>2023-04-19T09:52:32.756Z</time>
      </trkpt>
      <trkpt lat="46.05474" lon="11.11005">
        <ele>236.303936</ele>
        <time>2023-04-19T09:52:34.754Z</time>
      </trkpt>
      <trkpt lat="46.05464" lon="11.11003">
        <ele>236.291143</ele>
        <time>2023-04-19T09:52:36.757Z</time>
      </trkpt>
      <trkpt lat="46.05454" lon="11.11002">
        <ele>236.279087</ele>
        <time>2023-04-19T09:52:38.763Z</time>
      </trkpt>
      <trkpt lat="46.05445" lon="11.11003">
        <ele>236.26721</ele>
        <time>2023-04-19T09:52:40.749Z</time>
      </trkpt>
      <trkpt lat="46.05433" lon="11.11004">
        <ele>236.252959</ele>
        <time>2023-04-19T09:52:42.738Z</time>
      </trkpt>
      <trkpt lat="46.05418" lon="11.11005">
        <ele>236.254952</ele>
        <time>2023-04-19T09:52:44.776Z</time>
      </trkpt>
      <trkpt lat="46.05401" lon="11.11003">
        <ele>236.257208</ele>
        <time>2023-04-19T09:52:46.754Z</time>
      </trkpt>
      <trkpt lat="46.05384" lon="11.11001">
        <ele>236.259542</ele>
        <time>2023-04-19T09:52:48.748Z</time>
      </trkpt>
      <trkpt lat="46.05368" lon="11.10999">
        <ele>236.261668</ele>
        <time>2023-04-19T09:52:50.747Z</time>
      </trkpt>
      <trkpt lat="46.05354" lon="11.10996">
        <ele>236.263618</ele>
        <time>2023-04-19T09:52:52.754Z</time>
      </trkpt>
      <trkpt lat="46.05341" lon="11.10991">
        <ele>236.265454</ele>
        <time>2023-04-19T09:52:54.744Z</time>
      </trkpt>
      <trkpt lat="46.0533" lon="11.10987">
        <ele>236.266981</ele>
        <time>2023-04-19T09:52:56.752Z</time>
      </trkpt>
      <trkpt lat="46.05321" lon="11.10984">
        <ele>236.268232</ele>
        <time>2023-04-19T09:52:58.763Z</time>
      </trkpt>
      <trkpt lat="46.05309" lon="11.1098">
        <ele>236.269805</ele>
        <time>2023-04-19T09:53:01.739Z</time>
      </trkpt>
      <trkpt lat="46.053" lon="11.10979">
        <ele>236.271037</ele>
        <time>2023-04-19T09:53:03.743Z</time>
      </trkpt>
      <trkpt lat="46.05291" lon="11.10979">
        <ele>236.272316</ele>
        <time>2023-04-19T09:53:05.761Z</time>
      </trkpt>
      <trkpt lat="46.05281" lon="11.10978">
        <ele>236.273596</ele>
        <time>2023-04-19T09:53:07.754Z</time>
      </trkpt>
      <trkpt lat="46.05272" lon="11.10979">
        <ele>236.274835</ele>
        <time>2023-04-19T09:53:09.752Z</time>
      </trkpt>
      <trkpt lat="46.05262" lon="11.10978">
        <ele>236.276185</ele>
        <time>2023-04-19T09:53:11.774Z</time>
      </trkpt>
      <trkpt lat="46.05252" lon="11.10978">
        <ele>236.272316</ele>
        <time>2023-04-19T09:53:13.770Z</time>
      </trkpt>
      <trkpt lat="46.05241" lon="11.10977">
        <ele>236.256288</ele>
        <time>2023-04-19T09:53:15.748Z</time>
      </trkpt>
      <trkpt lat="46.05231" lon="11.10977">
        <ele>236.240109</ele>
        <time>2023-04-19T09:53:17.748Z</time>
      </trkpt>
      <trkpt lat="46.05221" lon="11.10977">
        <ele>236.224544</ele>
        <time>2023-04-19T09:53:19.769Z</time>
      </trkpt>
      <trkpt lat="46.0521" lon="11.10977">
        <ele>236.208057</ele>
        <time>2023-04-19T09:53:21.735Z</time>
      </trkpt>
      <trkpt lat="46.052" lon="11.10978">
        <ele>236.191707</ele>
        <time>2023-04-19T09:53:23.763Z</time>
      </trkpt>
      <trkpt lat="46.05189" lon="11.10978">
        <ele>236.17522</ele>
        <time>2023-04-19T09:53:25.754Z</time>
      </trkpt>
      <trkpt lat="46.05178" lon="11.10979">
        <ele>236.158231</ele>
        <time>2023-04-19T09:53:27.769Z</time>
      </trkpt>
      <trkpt lat="46.05167" lon="11.1098">
        <ele>236.140918</ele>
        <time>2023-04-19T09:53:29.761Z</time>
      </trkpt>
      <trkpt lat="46.05155" lon="11.10981">
        <ele>236.123297</ele>
        <time>2023-04-19T09:53:31.752Z</time>
      </trkpt>
      <trkpt lat="46.05144" lon="11.10983">
        <ele>236.106273</ele>
        <time>2023-04-19T09:53:33.749Z</time>
      </trkpt>
      <trkpt lat="46.05133" lon="11.10985">
        <ele>236.089062</ele>
        <time>2023-04-19T09:53:35.758Z</time>
      </trkpt>
      <trkpt lat="46.05122" lon="11.10985">
        <ele>236.071784</ele>
        <time>2023-04-19T09:53:37.751Z</time>
      </trkpt>
      <trkpt lat="46.05111" lon="11.10986">
        <ele>236.054213</ele>
        <time>2023-04-19T09:53:39.758Z</time>
      </trkpt>
      <trkpt lat="46.05099" lon="11.10988">
        <ele>236.036518</ele>
        <time>2023-04-19T09:53:41.765Z</time>
      </trkpt>
      <trkpt lat="46.05088" lon="11.10989">
        <ele>236.01892</ele>
        <time>2023-04-19T09:53:43.767Z</time>
      </trkpt>
      <trkpt lat="46.05076" lon="11.1099">
        <ele>236.00147</ele>
        <time>2023-04-19T09:53:45.758Z</time>
      </trkpt>
      <trkpt lat="46.05065" lon="11.10991">
        <ele>236.020376</ele>
        <time>2023-04-19T09:53:47.740Z</time>
      </trkpt>
      <trkpt lat="46.05054" lon="11.10993">
        <ele>236.042747</ele>
        <time>2023-04-19T09:53:49.749Z</time>
      </trkpt>
      <trkpt lat="46.05043" lon="11.10995">
        <ele>236.06451</ele>
        <time>2023-04-19T09:53:51.761Z</time>
      </trkpt>
      <trkpt lat="46.05032" lon="11.10998">
        <ele>236.087841</ele>
        <time>2023-04-19T09:53:53.758Z</time>
      </trkpt>
      <trkpt lat="46.0502" lon="11.11">
        <ele>236.11046</ele>
        <time>2023-04-19T09:53:55.761Z</time>
      </trkpt>
      <trkpt lat="46.05009" lon="11.11003">
        <ele>236.13248</ele>
        <time>2023-04-19T09:53:57.753Z</time>
      </trkpt>
      <trkpt lat="46.04999" lon="11.11006">
        <ele>236.153901</ele>
        <time>2023-04-19T09:53:59.756Z</time>
      </trkpt>
      <trkpt lat="46.04988" lon="11.11009">
        <ele>236.175745</ele>
        <time>2023-04-19T09:54:01.751Z</time>
      </trkpt>
      <trkpt lat="46.04977" lon="11.11013">
        <ele>236.198391</ele>
        <time>2023-04-19T09:54:03.746Z</time>
      </trkpt>
      <trkpt lat="46.04966" lon="11.11017">
        <ele>236.220235</ele>
        <time>2023-04-19T09:54:05.748Z</time>
      </trkpt>
      <trkpt lat="46.04956" lon="11.11022">
        <ele>236.24236</ele>
        <time>2023-04-19T09:54:07.757Z</time>
      </trkpt>
      <trkpt lat="46.04945" lon="11.11027">
        <ele>236.264319</ele>
        <time>2023-04-19T09:54:09.756Z</time>
      </trkpt>
      <trkpt lat="46.04935" lon="11.11032">
        <ele>236.285647</ele>
        <time>2023-04-19T09:54:11.746Z</time>
      </trkpt>
      <trkpt lat="46.04924" lon="11.11035">
        <ele>236.307382</ele>
        <time>2023-04-19T09:54:13.775Z</time>
      </trkpt>
      <trkpt lat="46.04914" lon="11.1104">
        <ele>236.329594</ele>
        <time>2023-04-19T09:54:15.757Z</time>
      </trkpt>
      <trkpt lat="46.04903" lon="11.11047">
        <ele>236.352339</ele>
        <time>2023-04-19T09:54:17.738Z</time>
      </trkpt>
      <trkpt lat="46.04892" lon="11.11053">
        <ele>236.371148</ele>
        <time>2023-04-19T09:54:19.760Z</time>
      </trkpt>
      <trkpt lat="46.04882" lon="11.11058">
        <ele>236.388714</ele>
        <time>2023-04-19T09:54:21.753Z</time>
      </trkpt>
      <trkpt lat="46.04872" lon="11.11064">
        <ele>236.406192</ele>
        <time>2023-04-19T09:54:23.769Z</time>
      </trkpt>
      <trkpt lat="46.04862" lon="11.11071">
        <ele>236.423511</ele>
        <time>2023-04-19T09:54:25.752Z</time>
      </trkpt>
      <trkpt lat="46.04852" lon="11.11078">
        <ele>236.441395</ele>
        <time>2023-04-19T09:54:27.769Z</time>
      </trkpt>
      <trkpt lat="46.04841" lon="11.11086">
        <ele>236.460136</ele>
        <time>2023-04-19T09:54:29.769Z</time>
      </trkpt>
      <trkpt lat="46.04831" lon="11.11094">
        <ele>236.478492</ele>
        <time>2023-04-19T09:54:31.751Z</time>
      </trkpt>
      <trkpt lat="46.04821" lon="11.11102">
        <ele>236.496741</ele>
        <time>2023-04-19T09:54:33.772Z</time>
      </trkpt>
      <trkpt lat="46.04811" lon="11.1111">
        <ele>236.514824</ele>
        <time>2023-04-19T09:54:35.758Z</time>
      </trkpt>
      <trkpt lat="46.04801" lon="11.11119">
        <ele>236.533131</ele>
        <time>2023-04-19T09:54:37.735Z</time>
      </trkpt>
      <trkpt lat="46.04791" lon="11.11128">
        <ele>236.551246</ele>
        <time>2023-04-19T09:54:39.768Z</time>
      </trkpt>
      <trkpt lat="46.04782" lon="11.11136">
        <ele>236.568403</ele>
        <time>2023-04-19T09:54:41.758Z</time>
      </trkpt>
      <trkpt lat="46.04773" lon="11.11145">
        <ele>236.585506</ele>
        <time>2023-04-19T09:54:43.755Z</time>
      </trkpt>
      <trkpt lat="46.04764" lon="11.11153">
        <ele>236.602627</ele>
        <time>2023-04-19T09:54:45.768Z</time>
      </trkpt>
      <trkpt lat="46.04755" lon="11.11163">
        <ele>236.620062</ele>
        <time>2023-04-19T09:54:47.772Z</time>
      </trkpt>
      <trkpt lat="46.04747" lon="11.11173">
        <ele>236.637386</ele>
        <time>2023-04-19T09:54:49.753Z</time>
      </trkpt>
      <trkpt lat="46.04738" lon="11.11183">
        <ele>236.650408</ele>
        <time>2023-04-19T09:54:51.757Z</time>
      </trkpt>
      <trkpt lat="46.04729" lon="11.11193">
        <ele>236.662931</ele>
        <time>2023-04-19T09:54:53.749Z</time>
      </trkpt>
      <trkpt lat="46.04721" lon="11.11202">
        <ele>236.674732</ele>
        <time>2023-04-19T09:54:55.773Z</time>
      </trkpt>
      <trkpt lat="46.04712" lon="11.11211">
        <ele>236.686706</ele>
        <time>2023-04-19T09:54:57.774Z</time>
      </trkpt>
      <trkpt lat="46.04703" lon="11.1122">
        <ele>236.699041</ele>
        <time>2023-04-19T09:54:59.761Z</time>
      </trkpt>
      <trkpt lat="46.04694" lon="11.1123">
        <ele>236.711828</ele>
        <time>2023-04-19T09:55:01.773Z</time>
      </trkpt>
      <trkpt lat="46.04685" lon="11.1124">
        <ele>236.723988</ele>
        <time>2023-04-19T09:55:03.767Z</time>
      </trkpt>
      <trkpt lat="46.04676" lon="11.1125">
        <ele>236.736235</ele>
        <time>2023-04-19T09:55:05.765Z</time>
      </trkpt>
      <trkpt lat="46.04667" lon="11.11259">
        <ele>236.748799</ele>
        <time>2023-04-19T09:55:07.765Z</time>
      </trkpt>
      <trkpt lat="46.04659" lon="11.1127">
        <ele>236.761293</ele>
        <time>2023-04-19T09:55:09.758Z</time>
      </trkpt>
      <trkpt lat="46.0465" lon="11.1128">
        <ele>236.773616</ele>
        <time>2023-04-19T09:55:11.766Z</time>
      </trkpt>
      <trkpt lat="46.04641" lon="11.11291">
        <ele>236.786478</ele>
        <time>2023-04-19T09:55:13.778Z</time>
      </trkpt>
      <trkpt lat="46.04633" lon="11.113">
        <ele>236.798597</ele>
        <time>2023-04-19T09:55:15.760Z</time>
      </trkpt>
      <trkpt lat="46.04624" lon="11.1131">
        <ele>236.810617</ele>
        <time>2023-04-19T09:55:17.757Z</time>
      </trkpt>
      <trkpt lat="46.04616" lon="11.11318">
        <ele>236.821375</ele>
        <time>2023-04-19T09:55:19.744Z</time>
      </trkpt>
      <trkpt lat="46.04608" lon="11.11325">
        <ele>236.831654</ele>
        <time>2023-04-19T09:55:21.780Z</time>
      </trkpt>
      <trkpt lat="46.04598" lon="11.11336">
        <ele>236.832147</ele>
        <time>2023-04-19T09:55:24.758Z</time>
      </trkpt>
      <trkpt lat="46.04589" lon="11.11345">
        <ele>236.813108</ele>
        <time>2023-04-19T09:55:27.757Z</time>
      </trkpt>
      <trkpt lat="46.04582" lon="11.11354">
        <ele>236.796076</ele>
        <time>2023-04-19T09:55:30.772Z</time>
      </trkpt>
      <trkpt lat="46.04575" lon="11.11363">
        <ele>236.780144</ele>
        <time>2023-04-19T09:55:34.755Z</time>
      </trkpt>
      <trkpt lat="46.04566" lon="11.11379">
        <ele>236.756381</ele>
        <time>2023-04-19T09:58:09.771Z</time>
      </trkpt>
      <trkpt lat="46.04558" lon="11.11387">
        <ele>236.739579</ele>
        <time>2023-04-19T09:58:15.759Z</time>
      </trkpt>
      <trkpt lat="46.0455" lon="11.11397">
        <ele>236.720735</ele>
        <time>2023-04-19T09:58:18.773Z</time>
      </trkpt>
      <trkpt lat="46.04543" lon="11.11405">
        <ele>236.704994</ele>
        <time>2023-04-19T09:58:20.758Z</time>
      </trkpt>
      <trkpt lat="46.04533" lon="11.11417">
        <ele>236.683128</ele>
        <time>2023-04-19T09:58:23.750Z</time>
      </trkpt>
      <trkpt lat="46.04523" lon="11.11426">
        <ele>236.662546</ele>
        <time>2023-04-19T09:58:26.759Z</time>
      </trkpt>
      <trkpt lat="46.04512" lon="11.11437">
        <ele>236.639301</ele>
        <time>2023-04-19T09:58:29.778Z</time>
      </trkpt>
      <trkpt lat="46.04502" lon="11.11449">
        <ele>236.616671</ele>
        <time>2023-04-19T09:58:32.760Z</time>
      </trkpt>
      <trkpt lat="46.04494" lon="11.11457">
        <ele>236.600642</ele>
        <time>2023-04-19T09:58:34.758Z</time>
      </trkpt>
      <trkpt lat="46.04486" lon="11.11466">
        <ele>236.583142</ele>
        <time>2023-04-19T09:58:36.751Z</time>
      </trkpt>
      <trkpt lat="46.04478" lon="11.11475">
        <ele>236.565331</ele>
        <time>2023-04-19T09:58:38.752Z</time>
      </trkpt>
      <trkpt lat="46.0447" lon="11.11484">
        <ele>236.547551</ele>
        <time>2023-04-19T09:58:40.764Z</time>
      </trkpt>
      <trkpt lat="46.04461" lon="11.11492">
        <ele>236.530698</ele>
        <time>2023-04-19T09:58:42.769Z</time>
      </trkpt>
      <trkpt lat="46.04453" lon="11.11501">
        <ele>236.614194</ele>
        <time>2023-04-19T09:58:44.754Z</time>
      </trkpt>
      <trkpt lat="46.04445" lon="11.1151">
        <ele>236.700059</ele>
        <time>2023-04-19T09:58:46.753Z</time>
      </trkpt>
      <trkpt lat="46.04437" lon="11.11519">
        <ele>236.784632</ele>
        <time>2023-04-19T09:58:48.752Z</time>
      </trkpt>
      <trkpt lat="46.04429" lon="11.11528">
        <ele>236.871945</ele>
        <time>2023-04-19T09:58:50.799Z</time>
      </trkpt>
      <trkpt lat="46.04421" lon="11.11537">
        <ele>236.955113</ele>
        <time>2023-04-19T09:58:52.761Z</time>
      </trkpt>
      <trkpt lat="46.04412" lon="11.11545">
        <ele>237.040311</ele>
        <time>2023-04-19T09:58:54.765Z</time>
      </trkpt>
      <trkpt lat="46.04405" lon="11.11554">
        <ele>237.124032</ele>
        <time>2023-04-19T09:58:56.753Z</time>
      </trkpt>
      <trkpt lat="46.04397" lon="11.11564">
        <ele>237.204604</ele>
        <time>2023-04-19T09:58:58.755Z</time>
      </trkpt>
      <trkpt lat="46.0439" lon="11.11573">
        <ele>237.282394</ele>
        <time>2023-04-19T09:59:00.754Z</time>
      </trkpt>
      <trkpt lat="46.04382" lon="11.11581">
        <ele>237.367242</ele>
        <time>2023-04-19T09:59:02.760Z</time>
      </trkpt>
      <trkpt lat="46.04374" lon="11.1159">
        <ele>237.44979</ele>
        <time>2023-04-19T09:59:04.740Z</time>
      </trkpt>
      <trkpt lat="46.04366" lon="11.116">
        <ele>237.539305</ele>
        <time>2023-04-19T09:59:06.774Z</time>
      </trkpt>
      <trkpt lat="46.04357" lon="11.11609">
        <ele>237.62957</ele>
        <time>2023-04-19T09:59:08.756Z</time>
      </trkpt>
      <trkpt lat="46.04349" lon="11.1162">
        <ele>237.722232</ele>
        <time>2023-04-19T09:59:10.777Z</time>
      </trkpt>
      <trkpt lat="46.04339" lon="11.1163">
        <ele>237.821966</ele>
        <time>2023-04-19T09:59:12.757Z</time>
      </trkpt>
      <trkpt lat="46.0433" lon="11.11639">
        <ele>237.917399</ele>
        <time>2023-04-19T09:59:14.757Z</time>
      </trkpt>
      <trkpt lat="46.04321" lon="11.11649">
        <ele>238.011088</ele>
        <time>2023-04-19T09:59:16.770Z</time>
      </trkpt>
      <trkpt lat="46.04312" lon="11.11658">
        <ele>238.067706</ele>
        <time>2023-04-19T09:59:18.750Z</time>
      </trkpt>
      <trkpt lat="46.04304" lon="11.11669">
        <ele>238.117925</ele>
        <time>2023-04-19T09:59:20.766Z</time>
      </trkpt>
      <trkpt lat="46.04297" lon="11.11681">
        <ele>238.167796</ele>
        <time>2023-04-19T09:59:22.740Z</time>
      </trkpt>
      <trkpt lat="46.0429" lon="11.11695">
        <ele>238.220686</ele>
        <time>2023-04-19T09:59:24.758Z</time>
      </trkpt>
      <trkpt lat="46.04281" lon="11.11708">
        <ele>238.27599</ele>
        <time>2023-04-19T09:59:26.772Z</time>
      </trkpt>
      <trkpt lat="46.04272" lon="11.1172">
        <ele>238.329377</ele>
        <time>2023-04-19T09:59:28.756Z</time>
      </trkpt>
      <trkpt lat="46.04263" lon="11.1173">
        <ele>238.382051</ele>
        <time>2023-04-19T09:59:30.741Z</time>
      </trkpt>
      <trkpt lat="46.04253" lon="11.1174">
        <ele>238.435562</ele>
        <time>2023-04-19T09:59:32.745Z</time>
      </trkpt>
      <trkpt lat="46.04243" lon="11.1175">
        <ele>238.489267</ele>
        <time>2023-04-19T09:59:34.765Z</time>
      </trkpt>
      <trkpt lat="46.04234" lon="11.1176">
        <ele>238.539007</ele>
        <time>2023-04-19T09:59:36.786Z</time>
      </trkpt>
      <trkpt lat="46.04225" lon="11.11769">
        <ele>238.590201</ele>
        <time>2023-04-19T09:59:38.748Z</time>
      </trkpt>
      <trkpt lat="46.04216" lon="11.11779">
        <ele>238.641024</ele>
        <time>2023-04-19T09:59:40.763Z</time>
      </trkpt>
      <trkpt lat="46.04206" lon="11.11788">
        <ele>238.690933</ele>
        <time>2023-04-19T09:59:42.774Z</time>
      </trkpt>
      <trkpt lat="46.04197" lon="11.11798">
        <ele>238.741947</ele>
        <time>2023-04-19T09:59:44.774Z</time>
      </trkpt>
      <trkpt lat="46.04188" lon="11.11808">
        <ele>238.792747</ele>
        <time>2023-04-19T09:59:46.757Z</time>
      </trkpt>
      <trkpt lat="46.04179" lon="11.11818">
        <ele>238.823258</ele>
        <time>2023-04-19T09:59:48.754Z</time>
      </trkpt>
      <trkpt lat="46.0417" lon="11.11829">
        <ele>238.799876</ele>
        <time>2023-04-19T09:59:50.780Z</time>
      </trkpt>
      <trkpt lat="46.04161" lon="11.1184">
        <ele>238.777091</ele>
        <time>2023-04-19T09:59:52.773Z</time>
      </trkpt>
      <trkpt lat="46.04152" lon="11.11852">
        <ele>238.752451</ele>
        <time>2023-04-19T09:59:54.758Z</time>
      </trkpt>
      <trkpt lat="46.04142" lon="11.11863">
        <ele>238.728081</ele>
        <time>2023-04-19T09:59:56.769Z</time>
      </trkpt>
      <trkpt lat="46.04132" lon="11.11874">
        <ele>238.703322</ele>
        <time>2023-04-19T09:59:58.752Z</time>
      </trkpt>
      <trkpt lat="46.04121" lon="11.11883">
        <ele>238.678246</ele>
        <time>2023-04-19T10:00:00.779Z</time>
      </trkpt>
      <trkpt lat="46.04111" lon="11.11892">
        <ele>238.655348</ele>
        <time>2023-04-19T10:00:02.763Z</time>
      </trkpt>
      <trkpt lat="46.04101" lon="11.11902">
        <ele>238.631215</ele>
        <time>2023-04-19T10:00:04.729Z</time>
      </trkpt>
      <trkpt lat="46.04091" lon="11.11912">
        <ele>238.607634</ele>
        <time>2023-04-19T10:00:06.762Z</time>
      </trkpt>
      <trkpt lat="46.04082" lon="11.11923">
        <ele>238.584387</ele>
        <time>2023-04-19T10:00:08.737Z</time>
      </trkpt>
      <trkpt lat="46.04073" lon="11.11933">
        <ele>238.561536</ele>
        <time>2023-04-19T10:00:10.756Z</time>
      </trkpt>
      <trkpt lat="46.04063" lon="11.11941">
        <ele>238.539763</ele>
        <time>2023-04-19T10:00:12.765Z</time>
      </trkpt>
      <trkpt lat="46.04055" lon="11.1195">
        <ele>238.5186</ele>
        <time>2023-04-19T10:00:14.755Z</time>
      </trkpt>
      <trkpt lat="46.04046" lon="11.11959">
        <ele>238.497754</ele>
        <time>2023-04-19T10:00:16.769Z</time>
      </trkpt>
      <trkpt lat="46.04037" lon="11.11967">
        <ele>238.477627</ele>
        <time>2023-04-19T10:00:18.755Z</time>
      </trkpt>
      <trkpt lat="46.04029" lon="11.11975">
        <ele>238.368875</ele>
        <time>2023-04-19T10:00:20.752Z</time>
      </trkpt>
      <trkpt lat="46.04017" lon="11.11984">
        <ele>238.209125</ele>
        <time>2023-04-19T10:00:23.757Z</time>
      </trkpt>
      <trkpt lat="46.04006" lon="11.11994">
        <ele>238.054453</ele>
        <time>2023-04-19T10:00:26.756Z</time>
      </trkpt>
      <trkpt lat="46.03995" lon="11.12002">
        <ele>237.914121</ele>
        <time>2023-04-19T10:00:29.757Z</time>
      </trkpt>
      <trkpt lat="46.03985" lon="11.12011">
        <ele>237.777335</ele>
        <time>2023-04-19T10:00:32.737Z</time>
      </trkpt>
      <trkpt lat="46.03975" lon="11.12019">
        <ele>237.636625</ele>
        <time>2023-04-19T10:00:35.761Z</time>
      </trkpt>
      <trkpt lat="46.03964" lon="11.12028">
        <ele>237.492117</ele>
        <time>2023-04-19T10:00:38.739Z</time>
      </trkpt>
      <trkpt lat="46.03953" lon="11.12037">
        <ele>237.339894</ele>
        <time>2023-04-19T10:00:41.762Z</time>
      </trkpt>
      <trkpt lat="46.03942" lon="11.12045">
        <ele>237.201353</ele>
        <time>2023-04-19T10:00:44.768Z</time>
      </trkpt>
      <trkpt lat="46.03932" lon="11.12052">
        <ele>237.070262</ele>
        <time>2023-04-19T10:00:47.775Z</time>
      </trkpt>
      <trkpt lat="46.03921" lon="11.12054">
        <ele>236.939787</ele>
        <time>2023-04-19T10:00:50.761Z</time>
      </trkpt>
      <trkpt lat="46.03914" lon="11.12042">
        <ele>236.812325</ele>
        <time>2023-04-19T10:00:53.744Z</time>
      </trkpt>
      <trkpt lat="46.03902" lon="11.12036">
        <ele>236.657987</ele>
        <time>2023-04-19T10:00:56.765Z</time>
      </trkpt>
      <trkpt lat="46.03892" lon="11.12041">
        <ele>236.537291</ele>
        <time>2023-04-19T10:00:58.760Z</time>
      </trkpt>
      <trkpt lat="46.03884" lon="11.12052">
        <ele>236.403859</ele>
        <time>2023-04-19T10:01:00.760Z</time>
      </trkpt>
      <trkpt lat="46.03876" lon="11.12065">
        <ele>236.297308</ele>
        <time>2023-04-19T10:01:02.738Z</time>
      </trkpt>
      <trkpt lat="46.03867" lon="11.12077">
        <ele>236.206629</ele>
        <time>2023-04-19T10:01:04.755Z</time>
      </trkpt>
      <trkpt lat="46.03858" lon="11.12088">
        <ele>236.114464</ele>
        <time>2023-04-19T10:01:06.749Z</time>
      </trkpt>
      <trkpt lat="46.03849" lon="11.121">
        <ele>236.0247</ele>
        <time>2023-04-19T10:01:08.755Z</time>
      </trkpt>
      <trkpt lat="46.0384" lon="11.1211">
        <ele>235.936738</ele>
        <time>2023-04-19T10:01:10.758Z</time>
      </trkpt>
      <trkpt lat="46.03831" lon="11.1212">
        <ele>235.850415</ele>
        <time>2023-04-19T10:01:12.770Z</time>
      </trkpt>
      <trkpt lat="46.03822" lon="11.1213">
        <ele>235.7662</ele>
        <time>2023-04-19T10:01:14.760Z</time>
      </trkpt>
      <trkpt lat="46.03814" lon="11.12141">
        <ele>235.681817</ele>
        <time>2023-04-19T10:01:16.774Z</time>
      </trkpt>
      <trkpt lat="46.03805" lon="11.12151">
        <ele>235.597861</ele>
        <time>2023-04-19T10:01:18.772Z</time>
      </trkpt>
      <trkpt lat="46.03796" lon="11.12161">
        <ele>235.511892</ele>
        <time>2023-04-19T10:01:20.771Z</time>
      </trkpt>
      <trkpt lat="46.03787" lon="11.1217">
        <ele>235.42649</ele>
        <time>2023-04-19T10:01:22.767Z</time>
      </trkpt>
      <trkpt lat="46.03777" lon="11.12177">
        <ele>235.339112</ele>
        <time>2023-04-19T10:01:24.774Z</time>
      </trkpt>
      <trkpt lat="46.03766" lon="11.12182">
        <ele>235.252556</ele>
        <time>2023-04-19T10:01:26.753Z</time>
      </trkpt>
      <trkpt lat="46.03754" lon="11.12187">
        <ele>235.163651</ele>
        <time>2023-04-19T10:01:28.760Z</time>
      </trkpt>
      <trkpt lat="46.03743" lon="11.1219">
        <ele>235.07806</ele>
        <time>2023-04-19T10:01:30.782Z</time>
      </trkpt>
      <trkpt lat="46.03733" lon="11.12194">
        <ele>234.992992</ele>
        <time>2023-04-19T10:01:32.780Z</time>
      </trkpt>
      <trkpt lat="46.03722" lon="11.12197">
        <ele>234.901368</ele>
        <time>2023-04-19T10:01:34.767Z</time>
      </trkpt>
      <trkpt lat="46.03711" lon="11.12201">
        <ele>234.811002</ele>
        <time>2023-04-19T10:01:36.781Z</time>
      </trkpt>
      <trkpt lat="46.037" lon="11.12205">
        <ele>234.716432</ele>
        <time>2023-04-19T10:01:38.751Z</time>
      </trkpt>
      <trkpt lat="46.03689" lon="11.12209">
        <ele>234.618165</ele>
        <time>2023-04-19T10:01:40.773Z</time>
      </trkpt>
      <trkpt lat="46.03678" lon="11.12212">
        <ele>234.526764</ele>
        <time>2023-04-19T10:01:42.779Z</time>
      </trkpt>
      <trkpt lat="46.03668" lon="11.12215">
        <ele>234.435252</ele>
        <time>2023-04-19T10:01:44.776Z</time>
      </trkpt>
      <trkpt lat="46.03657" lon="11.12218">
        <ele>234.344565</ele>
        <time>2023-04-19T10:01:46.763Z</time>
      </trkpt>
      <trkpt lat="46.03647" lon="11.1222">
        <ele>234.254893</ele>
        <time>2023-04-19T10:01:48.733Z</time>
      </trkpt>
      <trkpt lat="46.03636" lon="11.12223">
        <ele>234.162142</ele>
        <time>2023-04-19T10:01:50.756Z</time>
      </trkpt>
      <trkpt lat="46.03625" lon="11.12225">
        <ele>234.070575</ele>
        <time>2023-04-19T10:01:52.777Z</time>
      </trkpt>
      <trkpt lat="46.03614" lon="11.12227">
        <ele>233.978255</ele>
        <time>2023-04-19T10:01:54.772Z</time>
      </trkpt>
      <trkpt lat="46.03603" lon="11.12228">
        <ele>233.885601</ele>
        <time>2023-04-19T10:01:56.764Z</time>
      </trkpt>
      <trkpt lat="46.03592" lon="11.1223">
        <ele>233.791172</ele>
        <time>2023-04-19T10:01:58.761Z</time>
      </trkpt>
      <trkpt lat="46.03581" lon="11.12231">
        <ele>233.700191</ele>
        <time>2023-04-19T10:02:00.768Z</time>
      </trkpt>
      <trkpt lat="46.0357" lon="11.12232">
        <ele>233.609434</ele>
        <time>2023-04-19T10:02:02.769Z</time>
      </trkpt>
      <trkpt lat="46.03559" lon="11.12232">
        <ele>233.516234</ele>
        <time>2023-04-19T10:02:04.766Z</time>
      </trkpt>
      <trkpt lat="46.03548" lon="11.1223">
        <ele>233.522353</ele>
        <time>2023-04-19T10:02:06.761Z</time>
      </trkpt>
      <trkpt lat="46.03536" lon="11.12226">
        <ele>233.575109</ele>
        <time>2023-04-19T10:02:08.750Z</time>
      </trkpt>
      <trkpt lat="46.03522" lon="11.12224">
        <ele>233.631286</ele>
        <time>2023-04-19T10:02:10.763Z</time>
      </trkpt>
      <trkpt lat="46.03508" lon="11.12221">
        <ele>233.690879</ele>
        <time>2023-04-19T10:02:12.746Z</time>
      </trkpt>
      <trkpt lat="46.03494" lon="11.1222">
        <ele>233.751154</ele>
        <time>2023-04-19T10:02:14.770Z</time>
      </trkpt>
      <trkpt lat="46.03482" lon="11.12222">
        <ele>233.801329</ele>
        <time>2023-04-19T10:02:16.754Z</time>
      </trkpt>
      <trkpt lat="46.03471" lon="11.12226">
        <ele>233.846167</ele>
        <time>2023-04-19T10:02:18.754Z</time>
      </trkpt>
      <trkpt lat="46.03462" lon="11.1223">
        <ele>233.887585</ele>
        <time>2023-04-19T10:02:20.752Z</time>
      </trkpt>
      <trkpt lat="46.03452" lon="11.12232">
        <ele>233.928021</ele>
        <time>2023-04-19T10:02:22.758Z</time>
      </trkpt>
      <trkpt lat="46.03442" lon="11.12232">
        <ele>233.97068</ele>
        <time>2023-04-19T10:02:24.766Z</time>
      </trkpt>
      <trkpt lat="46.03431" lon="11.12232">
        <ele>234.013752</ele>
        <time>2023-04-19T10:02:26.761Z</time>
      </trkpt>
      <trkpt lat="46.03421" lon="11.12232">
        <ele>234.057243</ele>
        <time>2023-04-19T10:02:28.757Z</time>
      </trkpt>
      <trkpt lat="46.0341" lon="11.12232">
        <ele>234.099488</ele>
        <time>2023-04-19T10:02:30.754Z</time>
      </trkpt>
      <trkpt lat="46.034" lon="11.12232">
        <ele>234.143802</ele>
        <time>2023-04-19T10:02:32.763Z</time>
      </trkpt>
      <trkpt lat="46.03389" lon="11.12231">
        <ele>234.187726</ele>
        <time>2023-04-19T10:02:34.766Z</time>
      </trkpt>
      <trkpt lat="46.03378" lon="11.12231">
        <ele>234.233306</ele>
        <time>2023-04-19T10:02:36.763Z</time>
      </trkpt>
      <trkpt lat="46.03367" lon="11.12231">
        <ele>234.279335</ele>
        <time>2023-04-19T10:02:38.761Z</time>
      </trkpt>
      <trkpt lat="46.03357" lon="11.12231">
        <ele>234.324131</ele>
        <time>2023-04-19T10:02:40.757Z</time>
      </trkpt>
      <trkpt lat="46.03345" lon="11.12231">
        <ele>234.371469</ele>
        <time>2023-04-19T10:02:42.761Z</time>
      </trkpt>
      <trkpt lat="46.03335" lon="11.12231">
        <ele>234.416687</ele>
        <time>2023-04-19T10:02:44.770Z</time>
      </trkpt>
      <trkpt lat="46.03324" lon="11.12231">
        <ele>234.463597</ele>
        <time>2023-04-19T10:02:46.776Z</time>
      </trkpt>
      <trkpt lat="46.03313" lon="11.12231">
        <ele>234.508838</ele>
        <time>2023-04-19T10:02:48.750Z</time>
      </trkpt>
      <trkpt lat="46.03302" lon="11.12231">
        <ele>234.554904</ele>
        <time>2023-04-19T10:02:50.765Z</time>
      </trkpt>
      <trkpt lat="46.03291" lon="11.12231">
        <ele>234.600547</ele>
        <time>2023-04-19T10:02:52.767Z</time>
      </trkpt>
      <trkpt lat="46.0328" lon="11.12231">
        <ele>234.648299</ele>
        <time>2023-04-19T10:02:54.766Z</time>
      </trkpt>
      <trkpt lat="46.03269" lon="11.12231">
        <ele>234.694788</ele>
        <time>2023-04-19T10:02:56.763Z</time>
      </trkpt>
      <trkpt lat="46.03258" lon="11.12231">
        <ele>234.740854</ele>
        <time>2023-04-19T10:02:58.755Z</time>
      </trkpt>
      <trkpt lat="46.03247" lon="11.12231">
        <ele>234.787342</ele>
        <time>2023-04-19T10:03:00.773Z</time>
      </trkpt>
      <trkpt lat="46.03236" lon="11.12231">
        <ele>234.835109</ele>
        <time>2023-04-19T10:03:02.753Z</time>
      </trkpt>
      <trkpt lat="46.03225" lon="11.12231">
        <ele>234.880772</ele>
        <time>2023-04-19T10:03:04.766Z</time>
      </trkpt>
      <trkpt lat="46.03214" lon="11.12231">
        <ele>234.928105</ele>
        <time>2023-04-19T10:03:06.759Z</time>
      </trkpt>
      <trkpt lat="46.03203" lon="11.1223">
        <ele>234.974591</ele>
        <time>2023-04-19T10:03:08.756Z</time>
      </trkpt>
      <trkpt lat="46.03192" lon="11.1223">
        <ele>235.016703</ele>
        <time>2023-04-19T10:03:10.762Z</time>
      </trkpt>
      <trkpt lat="46.03181" lon="11.1223">
        <ele>235.055105</ele>
        <time>2023-04-19T10:03:12.763Z</time>
      </trkpt>
      <trkpt lat="46.03169" lon="11.1223">
        <ele>235.093524</ele>
        <time>2023-04-19T10:03:14.750Z</time>
      </trkpt>
      <trkpt lat="46.03158" lon="11.1223">
        <ele>235.132617</ele>
        <time>2023-04-19T10:03:16.774Z</time>
      </trkpt>
      <trkpt lat="46.03147" lon="11.12229">
        <ele>235.172074</ele>
        <time>2023-04-19T10:03:18.754Z</time>
      </trkpt>
      <trkpt lat="46.03135" lon="11.12229">
        <ele>235.212205</ele>
        <time>2023-04-19T10:03:20.760Z</time>
      </trkpt>
      <trkpt lat="46.03124" lon="11.12229">
        <ele>235.251991</ele>
        <time>2023-04-19T10:03:22.760Z</time>
      </trkpt>
      <trkpt lat="46.03113" lon="11.1223">
        <ele>235.290398</ele>
        <time>2023-04-19T10:03:24.763Z</time>
      </trkpt>
      <trkpt lat="46.03101" lon="11.12229">
        <ele>235.329509</ele>
        <time>2023-04-19T10:03:26.758Z</time>
      </trkpt>
      <trkpt lat="46.0309" lon="11.1223">
        <ele>235.36862</ele>
        <time>2023-04-19T10:03:28.741Z</time>
      </trkpt>
      <trkpt lat="46.03079" lon="11.1223">
        <ele>235.406329</ele>
        <time>2023-04-19T10:03:30.752Z</time>
      </trkpt>
      <trkpt lat="46.03068" lon="11.12229">
        <ele>235.444387</ele>
        <time>2023-04-19T10:03:32.766Z</time>
      </trkpt>
      <trkpt lat="46.03057" lon="11.12229">
        <ele>235.482098</ele>
        <time>2023-04-19T10:03:34.778Z</time>
      </trkpt>
      <trkpt lat="46.03046" lon="11.1223">
        <ele>235.521549</ele>
        <time>2023-04-19T10:03:36.759Z</time>
      </trkpt>
      <trkpt lat="46.03035" lon="11.1223">
        <ele>235.559665</ele>
        <time>2023-04-19T10:03:38.759Z</time>
      </trkpt>
      <trkpt lat="46.03024" lon="11.1223">
        <ele>235.597732</ele>
        <time>2023-04-19T10:03:40.765Z</time>
      </trkpt>
      <trkpt lat="46.03013" lon="11.12231">
        <ele>235.589675</ele>
        <time>2023-04-19T10:03:42.759Z</time>
      </trkpt>
      <trkpt lat="46.03002" lon="11.12231">
        <ele>235.531118</ele>
        <time>2023-04-19T10:03:44.760Z</time>
      </trkpt>
      <trkpt lat="46.02992" lon="11.1223">
        <ele>235.472561</ele>
        <time>2023-04-19T10:03:46.780Z</time>
      </trkpt>
      <trkpt lat="46.02981" lon="11.1223">
        <ele>235.411786</ele>
        <time>2023-04-19T10:03:48.768Z</time>
      </trkpt>
      <trkpt lat="46.0297" lon="11.12231">
        <ele>235.353697</ele>
        <time>2023-04-19T10:03:50.774Z</time>
      </trkpt>
      <trkpt lat="46.02959" lon="11.12231">
        <ele>235.29514</ele>
        <time>2023-04-19T10:03:52.785Z</time>
      </trkpt>
      <trkpt lat="46.02949" lon="11.12231">
        <ele>235.236573</ele>
        <time>2023-04-19T10:03:54.772Z</time>
      </trkpt>
      <trkpt lat="46.02938" lon="11.12231">
        <ele>235.176903</ele>
        <time>2023-04-19T10:03:56.765Z</time>
      </trkpt>
      <trkpt lat="46.02927" lon="11.1223">
        <ele>235.117247</ele>
        <time>2023-04-19T10:03:58.746Z</time>
      </trkpt>
      <trkpt lat="46.02916" lon="11.12231">
        <ele>235.059784</ele>
        <time>2023-04-19T10:04:00.764Z</time>
      </trkpt>
      <trkpt lat="46.02906" lon="11.12231">
        <ele>235.001227</ele>
        <time>2023-04-19T10:04:02.766Z</time>
      </trkpt>
      <trkpt lat="46.02895" lon="11.12231">
        <ele>234.94266</ele>
        <time>2023-04-19T10:04:04.758Z</time>
      </trkpt>
      <trkpt lat="46.02884" lon="11.12231">
        <ele>234.88082</ele>
        <time>2023-04-19T10:04:06.764Z</time>
      </trkpt>
      <trkpt lat="46.02873" lon="11.1223">
        <ele>234.821686</ele>
        <time>2023-04-19T10:04:08.772Z</time>
      </trkpt>
      <trkpt lat="46.02862" lon="11.12231">
        <ele>234.760383</ele>
        <time>2023-04-19T10:04:10.767Z</time>
      </trkpt>
      <trkpt lat="46.02851" lon="11.12231">
        <ele>234.70073</ele>
        <time>2023-04-19T10:04:12.783Z</time>
      </trkpt>
      <trkpt lat="46.0284" lon="11.12231">
        <ele>234.641069</ele>
        <time>2023-04-19T10:04:14.779Z</time>
      </trkpt>
      <trkpt lat="46.02829" lon="11.12231">
        <ele>234.662265</ele>
        <time>2023-04-19T10:04:16.763Z</time>
      </trkpt>
      <trkpt lat="46.02818" lon="11.1223">
        <ele>234.696411</ele>
        <time>2023-04-19T10:04:18.754Z</time>
      </trkpt>
      <trkpt lat="46.02807" lon="11.1223">
        <ele>234.730236</ele>
        <time>2023-04-19T10:04:20.757Z</time>
      </trkpt>
      <trkpt lat="46.02795" lon="11.1223">
        <ele>234.765601</ele>
        <time>2023-04-19T10:04:22.762Z</time>
      </trkpt>
      <trkpt lat="46.02784" lon="11.1223">
        <ele>234.800654</ele>
        <time>2023-04-19T10:04:24.760Z</time>
      </trkpt>
      <trkpt lat="46.02773" lon="11.1223">
        <ele>234.835094</ele>
        <time>2023-04-19T10:04:26.769Z</time>
      </trkpt>
      <trkpt lat="46.02761" lon="11.1223">
        <ele>234.870454</ele>
        <time>2023-04-19T10:04:28.756Z</time>
      </trkpt>
      <trkpt lat="46.0275" lon="11.1223">
        <ele>234.904897</ele>
        <time>2023-04-19T10:04:30.785Z</time>
      </trkpt>
      <trkpt lat="46.02738" lon="11.12229">
        <ele>234.94028</ele>
        <time>2023-04-19T10:04:32.762Z</time>
      </trkpt>
      <trkpt lat="46.02727" lon="11.12229">
        <ele>234.974717</ele>
        <time>2023-04-19T10:04:34.763Z</time>
      </trkpt>
      <trkpt lat="46.02716" lon="11.12229">
        <ele>235.009461</ele>
        <time>2023-04-19T10:04:36.761Z</time>
      </trkpt>
      <trkpt lat="46.02705" lon="11.12229">
        <ele>235.043591</ele>
        <time>2023-04-19T10:04:38.753Z</time>
      </trkpt>
      <trkpt lat="46.02694" lon="11.12229">
        <ele>235.078031</ele>
        <time>2023-04-19T10:04:40.780Z</time>
      </trkpt>
      <trkpt lat="46.02683" lon="11.12228">
        <ele>235.11157</ele>
        <time>2023-04-19T10:04:42.758Z</time>
      </trkpt>
      <trkpt lat="46.02671" lon="11.12228">
        <ele>235.146622</ele>
        <time>2023-04-19T10:04:44.760Z</time>
      </trkpt>
      <trkpt lat="46.0266" lon="11.12229">
        <ele>235.180754</ele>
        <time>2023-04-19T10:04:46.767Z</time>
      </trkpt>
      <trkpt lat="46.02649" lon="11.12229">
        <ele>235.133688</ele>
        <time>2023-04-19T10:04:48.743Z</time>
      </trkpt>
      <trkpt lat="46.02638" lon="11.12229">
        <ele>235.075345</ele>
        <time>2023-04-19T10:04:50.756Z</time>
      </trkpt>
      <trkpt lat="46.02627" lon="11.12229">
        <ele>235.017003</ele>
        <time>2023-04-19T10:04:52.775Z</time>
      </trkpt>
      <trkpt lat="46.02616" lon="11.12229">
        <ele>234.959191</ele>
        <time>2023-04-19T10:04:54.770Z</time>
      </trkpt>
      <trkpt lat="46.02606" lon="11.1223">
        <ele>234.900805</ele>
        <time>2023-04-19T10:04:56.767Z</time>
      </trkpt>
      <trkpt lat="46.02595" lon="11.12229">
        <ele>234.84188</ele>
        <time>2023-04-19T10:04:58.754Z</time>
      </trkpt>
      <trkpt lat="46.02584" lon="11.12229">
        <ele>234.782457</ele>
        <time>2023-04-19T10:05:00.756Z</time>
      </trkpt>
      <trkpt lat="46.02573" lon="11.1223">
        <ele>234.722992</ele>
        <time>2023-04-19T10:05:02.755Z</time>
      </trkpt>
      <trkpt lat="46.02562" lon="11.12229">
        <ele>234.665711</ele>
        <time>2023-04-19T10:05:04.734Z</time>
      </trkpt>
      <trkpt lat="46.02551" lon="11.12229">
        <ele>234.605719</ele>
        <time>2023-04-19T10:05:06.776Z</time>
      </trkpt>
      <trkpt lat="46.02541" lon="11.12229">
        <ele>234.549533</ele>
        <time>2023-04-19T10:05:08.757Z</time>
      </trkpt>
      <trkpt lat="46.0253" lon="11.12229">
        <ele>234.490651</ele>
        <time>2023-04-19T10:05:10.773Z</time>
      </trkpt>
      <trkpt lat="46.02519" lon="11.12228">
        <ele>234.432298</ele>
        <time>2023-04-19T10:05:12.768Z</time>
      </trkpt>
      <trkpt lat="46.02509" lon="11.12228">
        <ele>234.376086</ele>
        <time>2023-04-19T10:05:14.756Z</time>
      </trkpt>
      <trkpt lat="46.02498" lon="11.12227">
        <ele>234.317725</ele>
        <time>2023-04-19T10:05:16.760Z</time>
      </trkpt>
      <trkpt lat="46.02487" lon="11.12227">
        <ele>234.259372</ele>
        <time>2023-04-19T10:05:18.770Z</time>
      </trkpt>
      <trkpt lat="46.02476" lon="11.12228">
        <ele>234.21693</ele>
        <time>2023-04-19T10:05:20.766Z</time>
      </trkpt>
      <trkpt lat="46.02465" lon="11.12227">
        <ele>234.227967</ele>
        <time>2023-04-19T10:05:22.767Z</time>
      </trkpt>
      <trkpt lat="46.02454" lon="11.12227">
        <ele>234.239092</ele>
        <time>2023-04-19T10:05:24.778Z</time>
      </trkpt>
      <trkpt lat="46.02442" lon="11.12227">
        <ele>234.25031</ele>
        <time>2023-04-19T10:05:26.759Z</time>
      </trkpt>
      <trkpt lat="46.02431" lon="11.12227">
        <ele>234.261233</ele>
        <time>2023-04-19T10:05:28.751Z</time>
      </trkpt>
      <trkpt lat="46.0242" lon="11.12227">
        <ele>234.271954</ele>
        <time>2023-04-19T10:05:30.765Z</time>
      </trkpt>
      <trkpt lat="46.02409" lon="11.12227">
        <ele>234.282677</ele>
        <time>2023-04-19T10:05:32.766Z</time>
      </trkpt>
      <trkpt lat="46.02399" lon="11.12227">
        <ele>234.293204</ele>
        <time>2023-04-19T10:05:34.765Z</time>
      </trkpt>
      <trkpt lat="46.02388" lon="11.12227">
        <ele>234.304026</ele>
        <time>2023-04-19T10:05:36.767Z</time>
      </trkpt>
      <trkpt lat="46.02377" lon="11.12227">
        <ele>234.314847</ele>
        <time>2023-04-19T10:05:38.749Z</time>
      </trkpt>
      <trkpt lat="46.02366" lon="11.12227">
        <ele>234.325568</ele>
        <time>2023-04-19T10:05:40.773Z</time>
      </trkpt>
      <trkpt lat="46.02354" lon="11.12227">
        <ele>234.336584</ele>
        <time>2023-04-19T10:05:42.770Z</time>
      </trkpt>
      <trkpt lat="46.02344" lon="11.12227">
        <ele>234.347209</ele>
        <time>2023-04-19T10:05:44.755Z</time>
      </trkpt>
      <trkpt lat="46.02333" lon="11.12227">
        <ele>234.358028</ele>
        <time>2023-04-19T10:05:46.752Z</time>
      </trkpt>
      <trkpt lat="46.02322" lon="11.12227">
        <ele>234.368653</ele>
        <time>2023-04-19T10:05:48.769Z</time>
      </trkpt>
      <trkpt lat="46.02311" lon="11.12228">
        <ele>234.379177</ele>
        <time>2023-04-19T10:05:50.762Z</time>
      </trkpt>
      <trkpt lat="46.023" lon="11.12227">
        <ele>234.389805</ele>
        <time>2023-04-19T10:05:52.756Z</time>
      </trkpt>
      <trkpt lat="46.02289" lon="11.12227">
        <ele>234.390497</ele>
        <time>2023-04-19T10:05:54.760Z</time>
      </trkpt>
      <trkpt lat="46.02278" lon="11.12227">
        <ele>234.38955</ele>
        <time>2023-04-19T10:05:56.758Z</time>
      </trkpt>
      <trkpt lat="46.02267" lon="11.12228">
        <ele>234.38862</ele>
        <time>2023-04-19T10:05:58.765Z</time>
      </trkpt>
      <trkpt lat="46.02256" lon="11.12227">
        <ele>234.387673</ele>
        <time>2023-04-19T10:06:00.770Z</time>
      </trkpt>
      <trkpt lat="46.02244" lon="11.12226">
        <ele>234.3867</ele>
        <time>2023-04-19T10:06:02.776Z</time>
      </trkpt>
      <trkpt lat="46.02233" lon="11.12226">
        <ele>234.385745</ele>
        <time>2023-04-19T10:06:04.770Z</time>
      </trkpt>
      <trkpt lat="46.02222" lon="11.12226">
        <ele>234.384807</ele>
        <time>2023-04-19T10:06:06.761Z</time>
      </trkpt>
      <trkpt lat="46.02211" lon="11.12226">
        <ele>234.383911</ele>
        <time>2023-04-19T10:06:08.753Z</time>
      </trkpt>
      <trkpt lat="46.02201" lon="11.12226">
        <ele>234.383024</ele>
        <time>2023-04-19T10:06:10.753Z</time>
      </trkpt>
      <trkpt lat="46.0219" lon="11.12226">
        <ele>234.382103</ele>
        <time>2023-04-19T10:06:12.760Z</time>
      </trkpt>
      <trkpt lat="46.02179" lon="11.12226">
        <ele>234.381181</ele>
        <time>2023-04-19T10:06:14.765Z</time>
      </trkpt>
      <trkpt lat="46.02169" lon="11.12226">
        <ele>234.380303</ele>
        <time>2023-04-19T10:06:16.746Z</time>
      </trkpt>
      <trkpt lat="46.02158" lon="11.12225">
        <ele>234.379373</ele>
        <time>2023-04-19T10:06:18.762Z</time>
      </trkpt>
      <trkpt lat="46.02147" lon="11.12225">
        <ele>234.378434</ele>
        <time>2023-04-19T10:06:20.766Z</time>
      </trkpt>
      <trkpt lat="46.02136" lon="11.12225">
        <ele>234.377505</ele>
        <time>2023-04-19T10:06:22.756Z</time>
      </trkpt>
      <trkpt lat="46.02125" lon="11.12224">
        <ele>234.376583</ele>
        <time>2023-04-19T10:06:24.773Z</time>
      </trkpt>
      <trkpt lat="46.02114" lon="11.12224">
        <ele>234.391512</ele>
        <time>2023-04-19T10:06:26.776Z</time>
      </trkpt>
      <trkpt lat="46.02102" lon="11.12225">
        <ele>234.424288</ele>
        <time>2023-04-19T10:06:28.756Z</time>
      </trkpt>
      <trkpt lat="46.02091" lon="11.12225">
        <ele>234.456186</ele>
        <time>2023-04-19T10:06:30.776Z</time>
      </trkpt>
      <trkpt lat="46.0208" lon="11.12224">
        <ele>234.487814</ele>
        <time>2023-04-19T10:06:32.765Z</time>
      </trkpt>
      <trkpt lat="46.02069" lon="11.12225">
        <ele>234.518848</ele>
        <time>2023-04-19T10:06:34.772Z</time>
      </trkpt>
      <trkpt lat="46.02059" lon="11.12225">
        <ele>234.54873</ele>
        <time>2023-04-19T10:06:36.768Z</time>
      </trkpt>
      <trkpt lat="46.02048" lon="11.12225">
        <ele>234.578909</ele>
        <time>2023-04-19T10:06:38.739Z</time>
      </trkpt>
      <trkpt lat="46.02038" lon="11.12224">
        <ele>234.609676</ele>
        <time>2023-04-19T10:06:40.763Z</time>
      </trkpt>
      <trkpt lat="46.02027" lon="11.12224">
        <ele>234.641284</ele>
        <time>2023-04-19T10:06:42.777Z</time>
      </trkpt>
      <trkpt lat="46.02015" lon="11.12224">
        <ele>234.673756</ele>
        <time>2023-04-19T10:06:44.754Z</time>
      </trkpt>
      <trkpt lat="46.02004" lon="11.12225">
        <ele>234.705939</ele>
        <time>2023-04-19T10:06:46.761Z</time>
      </trkpt>
      <trkpt lat="46.01994" lon="11.12225">
        <ele>234.736683</ele>
        <time>2023-04-19T10:06:48.769Z</time>
      </trkpt>
      <trkpt lat="46.01982" lon="11.12225">
        <ele>234.768576</ele>
        <time>2023-04-19T10:06:50.781Z</time>
      </trkpt>
      <trkpt lat="46.01972" lon="11.12225">
        <ele>234.7999</ele>
        <time>2023-04-19T10:06:52.758Z</time>
      </trkpt>
      <trkpt lat="46.01961" lon="11.12225">
        <ele>234.830667</ele>
        <time>2023-04-19T10:06:54.763Z</time>
      </trkpt>
      <trkpt lat="46.01951" lon="11.12225">
        <ele>234.860285</ele>
        <time>2023-04-19T10:06:56.761Z</time>
      </trkpt>
      <trkpt lat="46.01941" lon="11.12224">
        <ele>234.889042</ele>
        <time>2023-04-19T10:06:58.751Z</time>
      </trkpt>
      <trkpt lat="46.0193" lon="11.12224">
        <ele>234.892381</ele>
        <time>2023-04-19T10:07:00.769Z</time>
      </trkpt>
      <trkpt lat="46.0192" lon="11.12224">
        <ele>234.891799</ele>
        <time>2023-04-19T10:07:02.768Z</time>
      </trkpt>
      <trkpt lat="46.0191" lon="11.12224">
        <ele>234.891228</ele>
        <time>2023-04-19T10:07:04.773Z</time>
      </trkpt>
      <trkpt lat="46.01899" lon="11.12223">
        <ele>234.89064</ele>
        <time>2023-04-19T10:07:06.766Z</time>
      </trkpt>
      <trkpt lat="46.01889" lon="11.12223">
        <ele>234.890058</ele>
        <time>2023-04-19T10:07:08.747Z</time>
      </trkpt>
      <trkpt lat="46.01878" lon="11.12224">
        <ele>234.889442</ele>
        <time>2023-04-19T10:07:10.757Z</time>
      </trkpt>
      <trkpt lat="46.01868" lon="11.12223">
        <ele>234.888854</ele>
        <time>2023-04-19T10:07:12.772Z</time>
      </trkpt>
      <trkpt lat="46.01858" lon="11.12223">
        <ele>234.888278</ele>
        <time>2023-04-19T10:07:14.773Z</time>
      </trkpt>
      <trkpt lat="46.01847" lon="11.12224">
        <ele>234.88769</ele>
        <time>2023-04-19T10:07:16.758Z</time>
      </trkpt>
      <trkpt lat="46.01838" lon="11.12223">
        <ele>234.887141</ele>
        <time>2023-04-19T10:07:18.755Z</time>
      </trkpt>
      <trkpt lat="46.01827" lon="11.12223">
        <ele>234.88657</ele>
        <time>2023-04-19T10:07:20.763Z</time>
      </trkpt>
      <trkpt lat="46.01817" lon="11.12223">
        <ele>234.886005</ele>
        <time>2023-04-19T10:07:22.779Z</time>
      </trkpt>
      <trkpt lat="46.01807" lon="11.12223">
        <ele>234.885429</ele>
        <time>2023-04-19T10:07:24.764Z</time>
      </trkpt>
      <trkpt lat="46.01797" lon="11.12223">
        <ele>234.884853</ele>
        <time>2023-04-19T10:07:26.755Z</time>
      </trkpt>
      <trkpt lat="46.01787" lon="11.12224">
        <ele>234.884264</ele>
        <time>2023-04-19T10:07:28.765Z</time>
      </trkpt>
      <trkpt lat="46.01776" lon="11.12224">
        <ele>234.883677</ele>
        <time>2023-04-19T10:07:30.759Z</time>
      </trkpt>
      <trkpt lat="46.01766" lon="11.12224">
        <ele>234.883089</ele>
        <time>2023-04-19T10:07:32.737Z</time>
      </trkpt>
      <trkpt lat="46.01756" lon="11.12224">
        <ele>234.863906</ele>
        <time>2023-04-19T10:07:34.759Z</time>
      </trkpt>
      <trkpt lat="46.01745" lon="11.12224">
        <ele>234.813104</ele>
        <time>2023-04-19T10:07:36.778Z</time>
      </trkpt>
      <trkpt lat="46.01734" lon="11.12224">
        <ele>234.761375</ele>
        <time>2023-04-19T10:07:38.765Z</time>
      </trkpt>
      <trkpt lat="46.01724" lon="11.12223">
        <ele>234.710612</ele>
        <time>2023-04-19T10:07:40.775Z</time>
      </trkpt>
      <trkpt lat="46.01713" lon="11.12223">
        <ele>234.660334</ele>
        <time>2023-04-19T10:07:42.742Z</time>
      </trkpt>
      <trkpt lat="46.01703" lon="11.12223">
        <ele>234.611004</ele>
        <time>2023-04-19T10:07:44.754Z</time>
      </trkpt>
      <trkpt lat="46.01693" lon="11.12224">
        <ele>234.561663</ele>
        <time>2023-04-19T10:07:46.766Z</time>
      </trkpt>
      <trkpt lat="46.01683" lon="11.12223">
        <ele>234.512806</ele>
        <time>2023-04-19T10:07:48.752Z</time>
      </trkpt>
      <trkpt lat="46.01673" lon="11.12223">
        <ele>234.463974</ele>
        <time>2023-04-19T10:07:50.755Z</time>
      </trkpt>
      <trkpt lat="46.01663" lon="11.12223">
        <ele>234.414168</ele>
        <time>2023-04-19T10:07:52.774Z</time>
      </trkpt>
      <trkpt lat="46.01652" lon="11.12223">
        <ele>234.364345</ele>
        <time>2023-04-19T10:07:54.768Z</time>
      </trkpt>
      <trkpt lat="46.01642" lon="11.12223">
        <ele>234.313555</ele>
        <time>2023-04-19T10:07:56.762Z</time>
      </trkpt>
      <trkpt lat="46.01631" lon="11.12223">
        <ele>234.262305</ele>
        <time>2023-04-19T10:07:58.759Z</time>
      </trkpt>
      <trkpt lat="46.0162" lon="11.12222">
        <ele>234.210549</ele>
        <time>2023-04-19T10:08:00.767Z</time>
      </trkpt>
      <trkpt lat="46.0161" lon="11.12222">
        <ele>234.15882</ele>
        <time>2023-04-19T10:08:02.758Z</time>
      </trkpt>
      <trkpt lat="46.01599" lon="11.12223">
        <ele>234.106107</ele>
        <time>2023-04-19T10:08:04.762Z</time>
      </trkpt>
      <trkpt lat="46.01588" lon="11.12223">
        <ele>234.055345</ele>
        <time>2023-04-19T10:08:06.762Z</time>
      </trkpt>
      <trkpt lat="46.01578" lon="11.12223">
        <ele>234.013061</ele>
        <time>2023-04-19T10:08:08.776Z</time>
      </trkpt>
      <trkpt lat="46.01567" lon="11.12223">
        <ele>234.012278</ele>
        <time>2023-04-19T10:08:10.774Z</time>
      </trkpt>
      <trkpt lat="46.01557" lon="11.12223">
        <ele>234.011508</ele>
        <time>2023-04-19T10:08:12.764Z</time>
      </trkpt>
      <trkpt lat="46.01546" lon="11.12223">
        <ele>234.010731</ele>
        <time>2023-04-19T10:08:14.771Z</time>
      </trkpt>
      <trkpt lat="46.01536" lon="11.12222">
        <ele>234.009976</ele>
        <time>2023-04-19T10:08:16.768Z</time>
      </trkpt>
      <trkpt lat="46.01526" lon="11.12222">
        <ele>234.009221</ele>
        <time>2023-04-19T10:08:18.752Z</time>
      </trkpt>
      <trkpt lat="46.01515" lon="11.12221">
        <ele>234.008458</ele>
        <time>2023-04-19T10:08:20.753Z</time>
      </trkpt>
      <trkpt lat="46.01504" lon="11.12221">
        <ele>234.007645</ele>
        <time>2023-04-19T10:08:22.766Z</time>
      </trkpt>
      <trkpt lat="46.01493" lon="11.12221">
        <ele>234.006847</ele>
        <time>2023-04-19T10:08:24.772Z</time>
      </trkpt>
      <trkpt lat="46.01483" lon="11.12222">
        <ele>234.006062</ele>
        <time>2023-04-19T10:08:26.768Z</time>
      </trkpt>
      <trkpt lat="46.01472" lon="11.12222">
        <ele>234.005271</ele>
        <time>2023-04-19T10:08:28.755Z</time>
      </trkpt>
      <trkpt lat="46.01461" lon="11.12221">
        <ele>234.004465</ele>
        <time>2023-04-19T10:08:30.757Z</time>
      </trkpt>
      <trkpt lat="46.0145" lon="11.12222">
        <ele>234.003688</ele>
        <time>2023-04-19T10:08:32.766Z</time>
      </trkpt>
      <trkpt lat="46.01439" lon="11.12222">
        <ele>234.002904</ele>
        <time>2023-04-19T10:08:34.769Z</time>
      </trkpt>
      <trkpt lat="46.01428" lon="11.12222">
        <ele>234.002091</ele>
        <time>2023-04-19T10:08:36.754Z</time>
      </trkpt>
      <trkpt lat="46.01417" lon="11.12222">
        <ele>234.001278</ele>
        <time>2023-04-19T10:08:38.742Z</time>
      </trkpt>
      <trkpt lat="46.01406" lon="11.12221">
        <ele>234.000486</ele>
        <time>2023-04-19T10:08:40.761Z</time>
      </trkpt>
      <trkpt lat="46.01396" lon="11.12221">
        <ele>234</ele>
        <time>2023-04-19T10:08:42.761Z</time>
      </trkpt>
      <trkpt lat="46.01385" lon="11.12221">
        <ele>234</ele>
        <time>2023-04-19T10:08:44.765Z</time>
      </trkpt>
      <trkpt lat="46.01375" lon="11.12221">
        <ele>234</ele>
        <time>2023-04-19T10:08:46.761Z</time>
      </trkpt>
      <trkpt lat="46.01364" lon="11.12221">
        <ele>234</ele>
        <time>2023-04-19T10:08:48.744Z</time>
      </trkpt>
      <trkpt lat="46.01353" lon="11.12221">
        <ele>234</ele>
        <time>2023-04-19T10:08:50.757Z</time>
      </trkpt>
      <trkpt lat="46.01342" lon="11.12221">
        <ele>234</ele>
        <time>2023-04-19T10:08:52.761Z</time>
      </trkpt>
      <trkpt lat="46.01331" lon="11.1222">
        <ele>234</ele>
        <time>2023-04-19T10:08:54.759Z</time>
      </trkpt>
      <trkpt lat="46.0132" lon="11.1222">
        <ele>234</ele>
        <time>2023-04-19T10:08:56.774Z</time>
      </trkpt>
      <trkpt lat="46.0131" lon="11.1222">
        <ele>234</ele>
        <time>2023-04-19T10:08:58.751Z</time>
      </trkpt>
      <trkpt lat="46.01298" lon="11.12221">
        <ele>234</ele>
        <time>2023-04-19T10:09:00.756Z</time>
      </trkpt>
      <trkpt lat="46.01287" lon="11.12221">
        <ele>234</ele>
        <time>2023-04-19T10:09:02.758Z</time>
      </trkpt>
      <trkpt lat="46.01276" lon="11.12221">
        <ele>234</ele>
        <time>2023-04-19T10:09:04.755Z</time>
      </trkpt>
      <trkpt lat="46.01265" lon="11.12221">
        <ele>234</ele>
        <time>2023-04-19T10:09:06.752Z</time>
      </trkpt>
      <trkpt lat="46.01253" lon="11.12221">
        <ele>234</ele>
        <time>2023-04-19T10:09:08.760Z</time>
      </trkpt>
      <trkpt lat="46.01242" lon="11.12221">
        <ele>234</ele>
        <time>2023-04-19T10:09:10.756Z</time>
      </trkpt>
      <trkpt lat="46.01231" lon="11.1222">
        <ele>234</ele>
        <time>2023-04-19T10:09:12.767Z</time>
      </trkpt>
      <trkpt lat="46.01221" lon="11.12219">
        <ele>234</ele>
        <time>2023-04-19T10:09:14.745Z</time>
      </trkpt>
      <trkpt lat="46.01209" lon="11.12219">
        <ele>234.006581</ele>
        <time>2023-04-19T10:09:16.757Z</time>
      </trkpt>
      <trkpt lat="46.01198" lon="11.1222">
        <ele>234.013572</ele>
        <time>2023-04-19T10:09:18.750Z</time>
      </trkpt>
      <trkpt lat="46.01187" lon="11.1222">
        <ele>234.020686</ele>
        <time>2023-04-19T10:09:20.759Z</time>
      </trkpt>
      <trkpt lat="46.01175" lon="11.1222">
        <ele>234.027553</ele>
        <time>2023-04-19T10:09:22.759Z</time>
      </trkpt>
      <trkpt lat="46.01164" lon="11.12219">
        <ele>234.034362</ele>
        <time>2023-04-19T10:09:24.761Z</time>
      </trkpt>
      <trkpt lat="46.01153" lon="11.12219">
        <ele>234.041352</ele>
        <time>2023-04-19T10:09:26.775Z</time>
      </trkpt>
      <trkpt lat="46.01142" lon="11.1222">
        <ele>234.048098</ele>
        <time>2023-04-19T10:09:28.755Z</time>
      </trkpt>
      <trkpt lat="46.01131" lon="11.1222">
        <ele>234.054779</ele>
        <time>2023-04-19T10:09:30.762Z</time>
      </trkpt>
      <trkpt lat="46.01121" lon="11.1222">
        <ele>234.06146</ele>
        <time>2023-04-19T10:09:32.768Z</time>
      </trkpt>
      <trkpt lat="46.0111" lon="11.1222">
        <ele>234.067955</ele>
        <time>2023-04-19T10:09:34.766Z</time>
      </trkpt>
      <trkpt lat="46.01099" lon="11.1222">
        <ele>234.074698</ele>
        <time>2023-04-19T10:09:36.759Z</time>
      </trkpt>
      <trkpt lat="46.01089" lon="11.1222">
        <ele>234.081255</ele>
        <time>2023-04-19T10:09:38.758Z</time>
      </trkpt>
      <trkpt lat="46.01078" lon="11.1222">
        <ele>234.087812</ele>
        <time>2023-04-19T10:09:40.767Z</time>
      </trkpt>
      <trkpt lat="46.01067" lon="11.1222">
        <ele>234.094432</ele>
        <time>2023-04-19T10:09:42.762Z</time>
      </trkpt>
      <trkpt lat="46.01057" lon="11.12219">
        <ele>234.101058</ele>
        <time>2023-04-19T10:09:44.756Z</time>
      </trkpt>
      <trkpt lat="46.01046" lon="11.1222">
        <ele>234.107433</ele>
        <time>2023-04-19T10:09:46.768Z</time>
      </trkpt>
      <trkpt lat="46.01036" lon="11.1222">
        <ele>234.135353</ele>
        <time>2023-04-19T10:09:48.753Z</time>
      </trkpt>
      <trkpt lat="46.01026" lon="11.12221">
        <ele>234.199915</ele>
        <time>2023-04-19T10:09:50.762Z</time>
      </trkpt>
      <trkpt lat="46.01016" lon="11.12221">
        <ele>234.263764</ele>
        <time>2023-04-19T10:09:52.758Z</time>
      </trkpt>
      <trkpt lat="46.01006" lon="11.1222">
        <ele>234.32646</ele>
        <time>2023-04-19T10:09:54.754Z</time>
      </trkpt>
      <trkpt lat="46.00997" lon="11.1222">
        <ele>234.38587</ele>
        <time>2023-04-19T10:09:56.757Z</time>
      </trkpt>
      <trkpt lat="46.00984" lon="11.1222">
        <ele>234.465507</ele>
        <time>2023-04-19T10:09:59.764Z</time>
      </trkpt>
      <trkpt lat="46.00975" lon="11.12219">
        <ele>234.523696</ele>
        <time>2023-04-19T10:10:02.757Z</time>
      </trkpt>
      <trkpt lat="46.00965" lon="11.12221">
        <ele>234.585403</ele>
        <time>2023-04-19T10:10:08.775Z</time>
      </trkpt>
      <trkpt lat="46.00962" lon="11.12238">
        <ele>234.66272</ele>
        <time>2023-04-19T10:10:12.766Z</time>
      </trkpt>
      <trkpt lat="46.00962" lon="11.12255">
        <ele>234.737369</ele>
        <time>2023-04-19T10:10:15.757Z</time>
      </trkpt>
      <trkpt lat="46.00961" lon="11.12273">
        <ele>234.81826</ele>
        <time>2023-04-19T10:10:18.758Z</time>
      </trkpt>
      <trkpt lat="46.00962" lon="11.12292">
        <ele>234.898243</ele>
        <time>2023-04-19T10:10:21.788Z</time>
      </trkpt>
      <trkpt lat="46.00962" lon="11.12305">
        <ele>234.957068</ele>
        <time>2023-04-19T10:10:23.782Z</time>
      </trkpt>
      <trkpt lat="46.00961" lon="11.12318">
        <ele>235.01419</ele>
        <time>2023-04-19T10:10:25.750Z</time>
      </trkpt>
      <trkpt lat="46.00961" lon="11.12331">
        <ele>235.072189</ele>
        <time>2023-04-19T10:10:27.768Z</time>
      </trkpt>
      <trkpt lat="46.00962" lon="11.1235">
        <ele>235.153314</ele>
        <time>2023-04-19T10:10:30.760Z</time>
      </trkpt>
      <trkpt lat="46.0097" lon="11.12357">
        <ele>235.211826</ele>
        <time>2023-04-19T10:10:34.754Z</time>
      </trkpt>
      <trkpt lat="46.00987" lon="11.12356">
        <ele>235.224406</ele>
        <time>2023-04-19T10:11:17.762Z</time>
      </trkpt>
      <trkpt lat="46.00998" lon="11.12356">
        <ele>235.202163</ele>
        <time>2023-04-19T10:11:20.782Z</time>
      </trkpt>
      <trkpt lat="46.01008" lon="11.12357">
        <ele>235.181345</ele>
        <time>2023-04-19T10:11:23.759Z</time>
      </trkpt>
      <trkpt lat="46.01019" lon="11.12355">
        <ele>235.15802</ele>
        <time>2023-04-19T10:11:26.772Z</time>
      </trkpt>
      <trkpt lat="46.01032" lon="11.12356">
        <ele>235.132687</ele>
        <time>2023-04-19T10:11:29.753Z</time>
      </trkpt>
      <trkpt lat="46.01044" lon="11.12355">
        <ele>235.106324</ele>
        <time>2023-04-19T10:11:32.772Z</time>
      </trkpt>
      <trkpt lat="46.01056" lon="11.12355">
        <ele>235.081816</ele>
        <time>2023-04-19T10:11:35.761Z</time>
      </trkpt>
      <trkpt lat="46.01069" lon="11.12356">
        <ele>235.055448</ele>
        <time>2023-04-19T10:11:38.759Z</time>
      </trkpt>
      <trkpt lat="46.01078" lon="11.12355">
        <ele>235.036493</ele>
        <time>2023-04-19T10:11:40.778Z</time>
      </trkpt>
      <trkpt lat="46.01088" lon="11.12355">
        <ele>235.016516</ele>
        <time>2023-04-19T10:11:42.760Z</time>
      </trkpt>
      <trkpt lat="46.01098" lon="11.12356">
        <ele>234.996537</ele>
        <time>2023-04-19T10:11:44.775Z</time>
      </trkpt>
      <trkpt lat="46.01107" lon="11.12357">
        <ele>234.976692</ele>
        <time>2023-04-19T10:11:46.757Z</time>
      </trkpt>
      <trkpt lat="46.01117" lon="11.12357">
        <ele>234.956299</ele>
        <time>2023-04-19T10:11:48.747Z</time>
      </trkpt>
      <trkpt lat="46.01127" lon="11.12358">
        <ele>234.93568</ele>
        <time>2023-04-19T10:11:50.769Z</time>
      </trkpt>
      <trkpt lat="46.01138" lon="11.12358">
        <ele>234.914043</ele>
        <time>2023-04-19T10:11:52.779Z</time>
      </trkpt>
      <trkpt lat="46.01148" lon="11.12358">
        <ele>234.892625</ele>
        <time>2023-04-19T10:11:54.769Z</time>
      </trkpt>
      <trkpt lat="46.01158" lon="11.12358">
        <ele>234.866152</ele>
        <time>2023-04-19T10:11:56.779Z</time>
      </trkpt>
      <trkpt lat="46.01169" lon="11.12358">
        <ele>234.821777</ele>
        <time>2023-04-19T10:11:58.754Z</time>
      </trkpt>
      <trkpt lat="46.0118" lon="11.12359">
        <ele>234.778605</ele>
        <time>2023-04-19T10:12:00.751Z</time>
      </trkpt>
      <trkpt lat="46.0119" lon="11.12359">
        <ele>234.735859</ele>
        <time>2023-04-19T10:12:02.758Z</time>
      </trkpt>
      <trkpt lat="46.01201" lon="11.12359">
        <ele>234.691894</ele>
        <time>2023-04-19T10:12:04.771Z</time>
      </trkpt>
      <trkpt lat="46.01212" lon="11.12359">
        <ele>234.648721</ele>
        <time>2023-04-19T10:12:06.776Z</time>
      </trkpt>
      <trkpt lat="46.01223" lon="11.12359">
        <ele>234.603126</ele>
        <time>2023-04-19T10:12:08.761Z</time>
      </trkpt>
      <trkpt lat="46.01234" lon="11.12359">
        <ele>234.558755</ele>
        <time>2023-04-19T10:12:10.776Z</time>
      </trkpt>
      <trkpt lat="46.01244" lon="11.12359">
        <ele>234.516012</ele>
        <time>2023-04-19T10:12:12.776Z</time>
      </trkpt>
      <trkpt lat="46.01255" lon="11.12359">
        <ele>234.472047</ele>
        <time>2023-04-19T10:12:14.778Z</time>
      </trkpt>
      <trkpt lat="46.01266" lon="11.12359">
        <ele>234.427676</ele>
        <time>2023-04-19T10:12:16.753Z</time>
      </trkpt>
      <trkpt lat="46.01277" lon="11.12359">
        <ele>234.382884</ele>
        <time>2023-04-19T10:12:18.763Z</time>
      </trkpt>
      <trkpt lat="46.01288" lon="11.12359">
        <ele>234.339323</ele>
        <time>2023-04-19T10:12:20.739Z</time>
      </trkpt>
      <trkpt lat="46.01298" lon="11.12359">
        <ele>234.295759</ele>
        <time>2023-04-19T10:12:22.775Z</time>
      </trkpt>
      <trkpt lat="46.0131" lon="11.12359">
        <ele>234.249756</ele>
        <time>2023-04-19T10:12:24.773Z</time>
      </trkpt>
      <trkpt lat="46.01321" lon="11.12359">
        <ele>234.204978</ele>
        <time>2023-04-19T10:12:26.770Z</time>
      </trkpt>
      <trkpt lat="46.01332" lon="11.12359">
        <ele>234.158975</ele>
        <time>2023-04-19T10:12:28.758Z</time>
      </trkpt>
      <trkpt lat="46.01343" lon="11.12359">
        <ele>234.122325</ele>
        <time>2023-04-19T10:12:30.755Z</time>
      </trkpt>
      <trkpt lat="46.01355" lon="11.12359">
        <ele>234.088292</ele>
        <time>2023-04-19T10:12:32.742Z</time>
      </trkpt>
      <trkpt lat="46.01366" lon="11.12359">
        <ele>234.054843</ele>
        <time>2023-04-19T10:12:34.753Z</time>
      </trkpt>
      <trkpt lat="46.01378" lon="11.12359">
        <ele>234.020517</ele>
        <time>2023-04-19T10:12:36.777Z</time>
      </trkpt>
      <trkpt lat="46.01389" lon="11.12359">
        <ele>233.986483</ele>
        <time>2023-04-19T10:12:38.749Z</time>
      </trkpt>
      <trkpt lat="46.014" lon="11.12359">
        <ele>233.953911</ele>
        <time>2023-04-19T10:12:40.765Z</time>
      </trkpt>
      <trkpt lat="46.01412" lon="11.12359">
        <ele>233.920748</ele>
        <time>2023-04-19T10:12:42.773Z</time>
      </trkpt>
      <trkpt lat="46.01423" lon="11.12359">
        <ele>233.886417</ele>
        <time>2023-04-19T10:12:44.772Z</time>
      </trkpt>
      <trkpt lat="46.01435" lon="11.12359">
        <ele>233.853263</ele>
        <time>2023-04-19T10:12:46.765Z</time>
      </trkpt>
      <trkpt lat="46.01446" lon="11.12359">
        <ele>233.820697</ele>
        <time>2023-04-19T10:12:48.754Z</time>
      </trkpt>
      <trkpt lat="46.01457" lon="11.12359">
        <ele>233.788715</ele>
        <time>2023-04-19T10:12:50.748Z</time>
      </trkpt>
      <trkpt lat="46.01468" lon="11.12359">
        <ele>233.756149</ele>
        <time>2023-04-19T10:12:52.769Z</time>
      </trkpt>
      <trkpt lat="46.01479" lon="11.12359">
        <ele>233.72358</ele>
        <time>2023-04-19T10:12:54.757Z</time>
      </trkpt>
      <trkpt lat="46.0149" lon="11.12358">
        <ele>233.691297</ele>
        <time>2023-04-19T10:12:56.778Z</time>
      </trkpt>
      <trkpt lat="46.01501" lon="11.12359">
        <ele>233.659902</ele>
        <time>2023-04-19T10:12:58.764Z</time>
      </trkpt>
      <trkpt lat="46.01511" lon="11.12359">
        <ele>233.628787</ele>
        <time>2023-04-19T10:13:00.764Z</time>
      </trkpt>
      <trkpt lat="46.01521" lon="11.12362">
        <ele>233.558273</ele>
        <time>2023-04-19T10:13:02.753Z</time>
      </trkpt>
      <trkpt lat="46.01534" lon="11.12367">
        <ele>233.447086</ele>
        <time>2023-04-19T10:13:04.773Z</time>
      </trkpt>
      <trkpt lat="46.0155" lon="11.12369">
        <ele>233.304619</ele>
        <time>2023-04-19T10:13:06.779Z</time>
      </trkpt>
      <trkpt lat="46.01566" lon="11.12369">
        <ele>233.15925</ele>
        <time>2023-04-19T10:13:08.772Z</time>
      </trkpt>
      <trkpt lat="46.01583" lon="11.12369">
        <ele>233.012995</ele>
        <time>2023-04-19T10:13:10.762Z</time>
      </trkpt>
      <trkpt lat="46.01598" lon="11.12369">
        <ele>232.878264</ele>
        <time>2023-04-19T10:13:12.763Z</time>
      </trkpt>
      <trkpt lat="46.01613" lon="11.12369">
        <ele>232.745283</ele>
        <time>2023-04-19T10:13:14.768Z</time>
      </trkpt>
      <trkpt lat="46.01628" lon="11.1237">
        <ele>232.612289</ele>
        <time>2023-04-19T10:13:16.772Z</time>
      </trkpt>
      <trkpt lat="46.01642" lon="11.1237">
        <ele>232.484649</ele>
        <time>2023-04-19T10:13:18.741Z</time>
      </trkpt>
      <trkpt lat="46.01656" lon="11.1237">
        <ele>232.361427</ele>
        <time>2023-04-19T10:13:20.768Z</time>
      </trkpt>
      <trkpt lat="46.0167" lon="11.1237">
        <ele>232.2391</ele>
        <time>2023-04-19T10:13:22.765Z</time>
      </trkpt>
      <trkpt lat="46.01683" lon="11.1237">
        <ele>232.121208</ele>
        <time>2023-04-19T10:13:24.764Z</time>
      </trkpt>
      <trkpt lat="46.01696" lon="11.1237">
        <ele>232.02773</ele>
        <time>2023-04-19T10:13:26.754Z</time>
      </trkpt>
      <trkpt lat="46.01709" lon="11.1237">
        <ele>232.053016</ele>
        <time>2023-04-19T10:13:28.771Z</time>
      </trkpt>
      <trkpt lat="46.01722" lon="11.12371">
        <ele>232.078887</ele>
        <time>2023-04-19T10:13:30.773Z</time>
      </trkpt>
      <trkpt lat="46.01735" lon="11.12371">
        <ele>232.104365</ele>
        <time>2023-04-19T10:13:32.791Z</time>
      </trkpt>
      <trkpt lat="46.01748" lon="11.1237">
        <ele>232.129063</ele>
        <time>2023-04-19T10:13:34.767Z</time>
      </trkpt>
      <trkpt lat="46.01761" lon="11.1237">
        <ele>232.154753</ele>
        <time>2023-04-19T10:13:36.779Z</time>
      </trkpt>
      <trkpt lat="46.01774" lon="11.1237">
        <ele>232.179253</ele>
        <time>2023-04-19T10:13:38.768Z</time>
      </trkpt>
      <trkpt lat="46.01787" lon="11.1237">
        <ele>232.204539</ele>
        <time>2023-04-19T10:13:40.779Z</time>
      </trkpt>
      <trkpt lat="46.01799" lon="11.1237">
        <ele>232.229035</ele>
        <time>2023-04-19T10:13:42.766Z</time>
      </trkpt>
      <trkpt lat="46.01812" lon="11.12369">
        <ele>232.253737</ele>
        <time>2023-04-19T10:13:44.768Z</time>
      </trkpt>
      <trkpt lat="46.01824" lon="11.12369">
        <ele>232.278431</ele>
        <time>2023-04-19T10:13:46.775Z</time>
      </trkpt>
      <trkpt lat="46.01837" lon="11.12369">
        <ele>232.302537</ele>
        <time>2023-04-19T10:13:48.784Z</time>
      </trkpt>
      <trkpt lat="46.01849" lon="11.12369">
        <ele>232.326449</ele>
        <time>2023-04-19T10:13:50.765Z</time>
      </trkpt>
      <trkpt lat="46.01861" lon="11.12369">
        <ele>232.350749</ele>
        <time>2023-04-19T10:13:52.755Z</time>
      </trkpt>
      <trkpt lat="46.01874" lon="11.1237">
        <ele>232.375445</ele>
        <time>2023-04-19T10:13:54.753Z</time>
      </trkpt>
      <trkpt lat="46.01886" lon="11.1237">
        <ele>232.421783</ele>
        <time>2023-04-19T10:13:56.771Z</time>
      </trkpt>
      <trkpt lat="46.01898" lon="11.1237">
        <ele>232.46746</ele>
        <time>2023-04-19T10:13:58.762Z</time>
      </trkpt>
      <trkpt lat="46.01911" lon="11.1237">
        <ele>232.513881</ele>
        <time>2023-04-19T10:14:00.772Z</time>
      </trkpt>
      <trkpt lat="46.01923" lon="11.1237">
        <ele>232.561049</ele>
        <time>2023-04-19T10:14:02.772Z</time>
      </trkpt>
      <trkpt lat="46.01936" lon="11.1237">
        <ele>232.607842</ele>
        <time>2023-04-19T10:14:04.773Z</time>
      </trkpt>
      <trkpt lat="46.01948" lon="11.1237">
        <ele>232.653519</ele>
        <time>2023-04-19T10:14:06.765Z</time>
      </trkpt>
      <trkpt lat="46.0196" lon="11.1237">
        <ele>232.699563</ele>
        <time>2023-04-19T10:14:08.771Z</time>
      </trkpt>
      <trkpt lat="46.01973" lon="11.1237">
        <ele>232.746359</ele>
        <time>2023-04-19T10:14:10.761Z</time>
      </trkpt>
      <trkpt lat="46.01985" lon="11.1237">
        <ele>232.79203</ele>
        <time>2023-04-19T10:14:12.773Z</time>
      </trkpt>
      <trkpt lat="46.01998" lon="11.12369">
        <ele>232.838495</ele>
        <time>2023-04-19T10:14:14.779Z</time>
      </trkpt>
      <trkpt lat="46.0201" lon="11.12369">
        <ele>232.884171</ele>
        <time>2023-04-19T10:14:16.759Z</time>
      </trkpt>
      <trkpt lat="46.02022" lon="11.12369">
        <ele>232.928362</ele>
        <time>2023-04-19T10:14:18.759Z</time>
      </trkpt>
      <trkpt lat="46.02034" lon="11.12369">
        <ele>232.974793</ele>
        <time>2023-04-19T10:14:20.756Z</time>
      </trkpt>
      <trkpt lat="46.02046" lon="11.12369">
        <ele>233.020463</ele>
        <time>2023-04-19T10:14:22.766Z</time>
      </trkpt>
      <trkpt lat="46.02058" lon="11.1237">
        <ele>233.07151</ele>
        <time>2023-04-19T10:14:24.774Z</time>
      </trkpt>
      <trkpt lat="46.0207" lon="11.12369">
        <ele>233.131228</ele>
        <time>2023-04-19T10:14:26.778Z</time>
      </trkpt>
      <trkpt lat="46.02082" lon="11.1237">
        <ele>233.189463</ele>
        <time>2023-04-19T10:14:28.775Z</time>
      </trkpt>
      <trkpt lat="46.02094" lon="11.1237">
        <ele>233.247722</ele>
        <time>2023-04-19T10:14:30.777Z</time>
      </trkpt>
      <trkpt lat="46.02106" lon="11.1237">
        <ele>233.305972</ele>
        <time>2023-04-19T10:14:32.774Z</time>
      </trkpt>
      <trkpt lat="46.02118" lon="11.1237">
        <ele>233.363729</ele>
        <time>2023-04-19T10:14:34.764Z</time>
      </trkpt>
      <trkpt lat="46.02129" lon="11.1237">
        <ele>233.420977</ele>
        <time>2023-04-19T10:14:36.783Z</time>
      </trkpt>
      <trkpt lat="46.02141" lon="11.1237">
        <ele>233.477734</ele>
        <time>2023-04-19T10:14:38.749Z</time>
      </trkpt>
      <trkpt lat="46.02152" lon="11.1237">
        <ele>233.533995</ele>
        <time>2023-04-19T10:14:40.768Z</time>
      </trkpt>
      <trkpt lat="46.02163" lon="11.12369">
        <ele>233.587427</ele>
        <time>2023-04-19T10:14:42.769Z</time>
      </trkpt>
      <trkpt lat="46.02174" lon="11.1237">
        <ele>233.643261</ele>
        <time>2023-04-19T10:14:44.772Z</time>
      </trkpt>
      <trkpt lat="46.02185" lon="11.12371">
        <ele>233.698093</ele>
        <time>2023-04-19T10:14:46.781Z</time>
      </trkpt>
      <trkpt lat="46.02197" lon="11.12371">
        <ele>233.753859</ele>
        <time>2023-04-19T10:14:48.761Z</time>
      </trkpt>
      <trkpt lat="46.02207" lon="11.1237">
        <ele>233.806211</ele>
        <time>2023-04-19T10:14:50.778Z</time>
      </trkpt>
      <trkpt lat="46.02218" lon="11.1237">
        <ele>233.861978</ele>
        <time>2023-04-19T10:14:52.782Z</time>
      </trkpt>
      <trkpt lat="46.0223" lon="11.1237">
        <ele>233.918238</ele>
        <time>2023-04-19T10:14:54.767Z</time>
      </trkpt>
      <trkpt lat="46.02241" lon="11.1237">
        <ele>233.923976</ele>
        <time>2023-04-19T10:14:56.767Z</time>
      </trkpt>
      <trkpt lat="46.02252" lon="11.12371">
        <ele>233.904906</ele>
        <time>2023-04-19T10:14:58.760Z</time>
      </trkpt>
      <trkpt lat="46.02264" lon="11.1237">
        <ele>233.885148</ele>
        <time>2023-04-19T10:15:00.778Z</time>
      </trkpt>
      <trkpt lat="46.02275" lon="11.1237">
        <ele>233.866424</ele>
        <time>2023-04-19T10:15:02.749Z</time>
      </trkpt>
      <trkpt lat="46.02286" lon="11.1237">
        <ele>233.847687</ele>
        <time>2023-04-19T10:15:04.737Z</time>
      </trkpt>
      <trkpt lat="46.02297" lon="11.12371">
        <ele>233.828566</ele>
        <time>2023-04-19T10:15:06.767Z</time>
      </trkpt>
      <trkpt lat="46.02308" lon="11.12371">
        <ele>233.80984</ele>
        <time>2023-04-19T10:15:08.757Z</time>
      </trkpt>
      <trkpt lat="46.02319" lon="11.1237">
        <ele>233.79076</ele>
        <time>2023-04-19T10:15:10.761Z</time>
      </trkpt>
      <trkpt lat="46.02328" lon="11.12371">
        <ele>233.773919</ele>
        <time>2023-04-19T10:15:12.768Z</time>
      </trkpt>
      <trkpt lat="46.02338" lon="11.12371">
        <ele>233.756739</ele>
        <time>2023-04-19T10:15:14.783Z</time>
      </trkpt>
      <trkpt lat="46.02348" lon="11.1237">
        <ele>233.740924</ele>
        <time>2023-04-19T10:15:16.764Z</time>
      </trkpt>
      <trkpt lat="46.02357" lon="11.1237">
        <ele>233.724598</ele>
        <time>2023-04-19T10:15:18.761Z</time>
      </trkpt>
      <trkpt lat="46.02367" lon="11.1237">
        <ele>233.707582</ele>
        <time>2023-04-19T10:15:20.764Z</time>
      </trkpt>
      <trkpt lat="46.02377" lon="11.1237">
        <ele>233.690572</ele>
        <time>2023-04-19T10:15:22.769Z</time>
      </trkpt>
      <trkpt lat="46.02388" lon="11.12371">
        <ele>233.672178</ele>
        <time>2023-04-19T10:15:24.774Z</time>
      </trkpt>
      <trkpt lat="46.02398" lon="11.12371">
        <ele>233.653966</ele>
        <time>2023-04-19T10:15:26.741Z</time>
      </trkpt>
      <trkpt lat="46.02409" lon="11.12371">
        <ele>233.63507</ele>
        <time>2023-04-19T10:15:28.744Z</time>
      </trkpt>
      <trkpt lat="46.0242" lon="11.12371">
        <ele>233.622578</ele>
        <time>2023-04-19T10:15:30.759Z</time>
      </trkpt>
      <trkpt lat="46.02431" lon="11.12371">
        <ele>233.613897</ele>
        <time>2023-04-19T10:15:32.770Z</time>
      </trkpt>
      <trkpt lat="46.02442" lon="11.12371">
        <ele>233.605297</ele>
        <time>2023-04-19T10:15:34.764Z</time>
      </trkpt>
      <trkpt lat="46.02454" lon="11.12371">
        <ele>233.59654</ele>
        <time>2023-04-19T10:15:36.761Z</time>
      </trkpt>
      <trkpt lat="46.02465" lon="11.12371">
        <ele>233.587706</ele>
        <time>2023-04-19T10:15:38.751Z</time>
      </trkpt>
      <trkpt lat="46.02476" lon="11.12371">
        <ele>233.578791</ele>
        <time>2023-04-19T10:15:40.775Z</time>
      </trkpt>
      <trkpt lat="46.02487" lon="11.12371">
        <ele>233.570185</ele>
        <time>2023-04-19T10:15:42.766Z</time>
      </trkpt>
      <trkpt lat="46.02498" lon="11.12371">
        <ele>233.561507</ele>
        <time>2023-04-19T10:15:44.779Z</time>
      </trkpt>
      <trkpt lat="46.0251" lon="11.12372">
        <ele>233.552355</ele>
        <time>2023-04-19T10:15:46.763Z</time>
      </trkpt>
      <trkpt lat="46.02522" lon="11.12371">
        <ele>233.543208</ele>
        <time>2023-04-19T10:15:48.764Z</time>
      </trkpt>
      <trkpt lat="46.02533" lon="11.12371">
        <ele>233.534059</ele>
        <time>2023-04-19T10:15:50.767Z</time>
      </trkpt>
      <trkpt lat="46.02545" lon="11.12372">
        <ele>233.524987</ele>
        <time>2023-04-19T10:15:52.780Z</time>
      </trkpt>
      <trkpt lat="46.02557" lon="11.12371">
        <ele>233.515918</ele>
        <time>2023-04-19T10:15:54.765Z</time>
      </trkpt>
      <trkpt lat="46.02568" lon="11.12372">
        <ele>233.50669</ele>
        <time>2023-04-19T10:15:56.771Z</time>
      </trkpt>
      <trkpt lat="46.0258" lon="11.12371">
        <ele>233.49762</ele>
        <time>2023-04-19T10:15:58.755Z</time>
      </trkpt>
      <trkpt lat="46.02592" lon="11.12371">
        <ele>233.48863</ele>
        <time>2023-04-19T10:16:00.761Z</time>
      </trkpt>
      <trkpt lat="46.02603" lon="11.12371">
        <ele>233.523683</ele>
        <time>2023-04-19T10:16:02.780Z</time>
      </trkpt>
      <trkpt lat="46.02615" lon="11.12371">
        <ele>233.567656</ele>
        <time>2023-04-19T10:16:04.754Z</time>
      </trkpt>
      <trkpt lat="46.02627" lon="11.12371">
        <ele>233.61163</ele>
        <time>2023-04-19T10:16:06.758Z</time>
      </trkpt>
      <trkpt lat="46.02639" lon="11.12371">
        <ele>233.655603</ele>
        <time>2023-04-19T10:16:08.756Z</time>
      </trkpt>
      <trkpt lat="46.02651" lon="11.12372">
        <ele>233.699216</ele>
        <time>2023-04-19T10:16:10.753Z</time>
      </trkpt>
      <trkpt lat="46.02663" lon="11.12372">
        <ele>233.742468</ele>
        <time>2023-04-19T10:16:12.769Z</time>
      </trkpt>
      <trkpt lat="46.02675" lon="11.12371">
        <ele>233.786826</ele>
        <time>2023-04-19T10:16:14.761Z</time>
      </trkpt>
      <trkpt lat="46.02687" lon="11.12371">
        <ele>233.830433</ele>
        <time>2023-04-19T10:16:16.764Z</time>
      </trkpt>
      <trkpt lat="46.02699" lon="11.12371">
        <ele>233.873673</ele>
        <time>2023-04-19T10:16:18.746Z</time>
      </trkpt>
      <trkpt lat="46.02711" lon="11.12372">
        <ele>233.918019</ele>
        <time>2023-04-19T10:16:20.763Z</time>
      </trkpt>
      <trkpt lat="46.02723" lon="11.12372">
        <ele>233.96126</ele>
        <time>2023-04-19T10:16:22.761Z</time>
      </trkpt>
      <trkpt lat="46.02734" lon="11.12371">
        <ele>234.00342</ele>
        <time>2023-04-19T10:16:24.778Z</time>
      </trkpt>
      <trkpt lat="46.02746" lon="11.12371">
        <ele>234.047396</ele>
        <time>2023-04-19T10:16:26.773Z</time>
      </trkpt>
      <trkpt lat="46.02758" lon="11.12371">
        <ele>234.092102</ele>
        <time>2023-04-19T10:16:28.762Z</time>
      </trkpt>
      <trkpt lat="46.0277" lon="11.12371">
        <ele>234.136443</ele>
        <time>2023-04-19T10:16:30.770Z</time>
      </trkpt>
      <trkpt lat="46.02783" lon="11.12371">
        <ele>234.288996</ele>
        <time>2023-04-19T10:16:32.765Z</time>
      </trkpt>
      <trkpt lat="46.02795" lon="11.12372">
        <ele>234.46933</ele>
        <time>2023-04-19T10:16:34.755Z</time>
      </trkpt>
      <trkpt lat="46.02807" lon="11.12372">
        <ele>234.64794</ele>
        <time>2023-04-19T10:16:36.773Z</time>
      </trkpt>
      <trkpt lat="46.02819" lon="11.12372">
        <ele>234.826558</ele>
        <time>2023-04-19T10:16:38.753Z</time>
      </trkpt>
      <trkpt lat="46.02831" lon="11.12371">
        <ele>235.002191</ele>
        <time>2023-04-19T10:16:40.767Z</time>
      </trkpt>
      <trkpt lat="46.02843" lon="11.12371">
        <ele>235.183774</ele>
        <time>2023-04-19T10:16:42.762Z</time>
      </trkpt>
      <trkpt lat="46.02855" lon="11.12372">
        <ele>235.363881</ele>
        <time>2023-04-19T10:16:44.767Z</time>
      </trkpt>
      <trkpt lat="46.02867" lon="11.12372">
        <ele>235.543987</ele>
        <time>2023-04-19T10:16:46.761Z</time>
      </trkpt>
      <trkpt lat="46.02879" lon="11.12371">
        <ele>235.716791</ele>
        <time>2023-04-19T10:16:48.759Z</time>
      </trkpt>
      <trkpt lat="46.0289" lon="11.12371">
        <ele>235.884992</ele>
        <time>2023-04-19T10:16:50.758Z</time>
      </trkpt>
      <trkpt lat="46.02899" lon="11.12369">
        <ele>236.028729</ele>
        <time>2023-04-19T10:16:52.752Z</time>
      </trkpt>
      <trkpt lat="46.02911" lon="11.12367">
        <ele>236.201536</ele>
        <time>2023-04-19T10:16:55.759Z</time>
      </trkpt>
      <trkpt lat="46.02924" lon="11.12369">
        <ele>236.391923</ele>
        <time>2023-04-19T10:16:58.750Z</time>
      </trkpt>
      <trkpt lat="46.02936" lon="11.1237">
        <ele>236.583066</ele>
        <time>2023-04-19T10:17:01.773Z</time>
      </trkpt>
      <trkpt lat="46.02949" lon="11.12373">
        <ele>236.768252</ele>
        <time>2023-04-19T10:17:04.764Z</time>
      </trkpt>
      <trkpt lat="46.02961" lon="11.12374">
        <ele>236.844786</ele>
        <time>2023-04-19T10:17:07.770Z</time>
      </trkpt>
      <trkpt lat="46.02972" lon="11.12377">
        <ele>236.873286</ele>
        <time>2023-04-19T10:17:10.735Z</time>
      </trkpt>
      <trkpt lat="46.02982" lon="11.1238">
        <ele>236.900587</ele>
        <time>2023-04-19T10:17:13.765Z</time>
      </trkpt>
      <trkpt lat="46.02992" lon="11.12381">
        <ele>236.926037</ele>
        <time>2023-04-19T10:17:16.748Z</time>
      </trkpt>
      <trkpt lat="46.03001" lon="11.12385">
        <ele>236.951148</ele>
        <time>2023-04-19T10:17:19.755Z</time>
      </trkpt>
      <trkpt lat="46.03012" lon="11.1239">
        <ele>236.980482</ele>
        <time>2023-04-19T10:17:22.750Z</time>
      </trkpt>
      <trkpt lat="46.03026" lon="11.12394">
        <ele>237.015081</ele>
        <time>2023-04-19T10:17:25.755Z</time>
      </trkpt>
      <trkpt lat="46.03036" lon="11.12396">
        <ele>237.041629</ele>
        <time>2023-04-19T10:17:27.750Z</time>
      </trkpt>
      <trkpt lat="46.03046" lon="11.124">
        <ele>237.069144</ele>
        <time>2023-04-19T10:17:29.759Z</time>
      </trkpt>
      <trkpt lat="46.03057" lon="11.12403">
        <ele>237.097298</ele>
        <time>2023-04-19T10:17:31.767Z</time>
      </trkpt>
      <trkpt lat="46.03068" lon="11.12407">
        <ele>237.126427</ele>
        <time>2023-04-19T10:17:33.767Z</time>
      </trkpt>
      <trkpt lat="46.03079" lon="11.12411">
        <ele>237.155638</ele>
        <time>2023-04-19T10:17:35.755Z</time>
      </trkpt>
      <trkpt lat="46.03091" lon="11.12415">
        <ele>237.185475</ele>
        <time>2023-04-19T10:17:37.763Z</time>
      </trkpt>
      <trkpt lat="46.03102" lon="11.12419">
        <ele>237.215268</ele>
        <time>2023-04-19T10:17:39.766Z</time>
      </trkpt>
      <trkpt lat="46.03113" lon="11.12423">
        <ele>237.245145</ele>
        <time>2023-04-19T10:17:41.758Z</time>
      </trkpt>
      <trkpt lat="46.03124" lon="11.12426">
        <ele>237.273817</ele>
        <time>2023-04-19T10:17:43.759Z</time>
      </trkpt>
      <trkpt lat="46.03136" lon="11.12431">
        <ele>237.27201</ele>
        <time>2023-04-19T10:17:45.735Z</time>
      </trkpt>
      <trkpt lat="46.03148" lon="11.12435">
        <ele>237.255485</ele>
        <time>2023-04-19T10:17:47.766Z</time>
      </trkpt>
      <trkpt lat="46.03159" lon="11.12438">
        <ele>237.239004</ele>
        <time>2023-04-19T10:17:49.754Z</time>
      </trkpt>
      <trkpt lat="46.03171" lon="11.12442">
        <ele>237.222902</ele>
        <time>2023-04-19T10:17:51.777Z</time>
      </trkpt>
      <trkpt lat="46.03182" lon="11.12446">
        <ele>237.206934</ele>
        <time>2023-04-19T10:17:53.769Z</time>
      </trkpt>
      <trkpt lat="46.03194" lon="11.1245">
        <ele>237.190608</ele>
        <time>2023-04-19T10:17:55.767Z</time>
      </trkpt>
      <trkpt lat="46.03205" lon="11.12452">
        <ele>237.17449</ele>
        <time>2023-04-19T10:17:57.761Z</time>
      </trkpt>
      <trkpt lat="46.03217" lon="11.12455">
        <ele>237.158794</ele>
        <time>2023-04-19T10:17:59.760Z</time>
      </trkpt>
      <trkpt lat="46.03228" lon="11.12458">
        <ele>237.142917</ele>
        <time>2023-04-19T10:18:01.788Z</time>
      </trkpt>
      <trkpt lat="46.03239" lon="11.12458">
        <ele>237.127365</ele>
        <time>2023-04-19T10:18:03.750Z</time>
      </trkpt>
      <trkpt lat="46.0325" lon="11.1246">
        <ele>237.111993</ele>
        <time>2023-04-19T10:18:05.755Z</time>
      </trkpt>
      <trkpt lat="46.03262" lon="11.12462">
        <ele>237.096415</ele>
        <time>2023-04-19T10:18:07.772Z</time>
      </trkpt>
      <trkpt lat="46.03273" lon="11.12462">
        <ele>237.081147</ele>
        <time>2023-04-19T10:18:09.775Z</time>
      </trkpt>
      <trkpt lat="46.03284" lon="11.12462">
        <ele>237.065619</ele>
        <time>2023-04-19T10:18:11.779Z</time>
      </trkpt>
      <trkpt lat="46.03295" lon="11.12462">
        <ele>237.050361</ele>
        <time>2023-04-19T10:18:13.757Z</time>
      </trkpt>
      <trkpt lat="46.03306" lon="11.12462">
        <ele>237.036881</ele>
        <time>2023-04-19T10:18:15.746Z</time>
      </trkpt>
      <trkpt lat="46.03318" lon="11.12461">
        <ele>237.045076</ele>
        <time>2023-04-19T10:18:17.778Z</time>
      </trkpt>
      <trkpt lat="46.03329" lon="11.12459">
        <ele>237.053101</ele>
        <time>2023-04-19T10:18:19.778Z</time>
      </trkpt>
      <trkpt lat="46.0334" lon="11.12457">
        <ele>237.061118</ele>
        <time>2023-04-19T10:18:21.740Z</time>
      </trkpt>
      <trkpt lat="46.03351" lon="11.12454">
        <ele>237.069134</ele>
        <time>2023-04-19T10:18:23.759Z</time>
      </trkpt>
      <trkpt lat="46.03363" lon="11.12451">
        <ele>237.077205</ele>
        <time>2023-04-19T10:18:25.774Z</time>
      </trkpt>
      <trkpt lat="46.03373" lon="11.12448">
        <ele>237.084834</ele>
        <time>2023-04-19T10:18:27.774Z</time>
      </trkpt>
      <trkpt lat="46.03384" lon="11.12445">
        <ele>237.092648</ele>
        <time>2023-04-19T10:18:29.766Z</time>
      </trkpt>
      <trkpt lat="46.03394" lon="11.12442">
        <ele>237.100235</ele>
        <time>2023-04-19T10:18:31.776Z</time>
      </trkpt>
      <trkpt lat="46.03405" lon="11.12443">
        <ele>237.108002</ele>
        <time>2023-04-19T10:18:33.752Z</time>
      </trkpt>
      <trkpt lat="46.03416" lon="11.12445">
        <ele>237.115729</ele>
        <time>2023-04-19T10:18:35.746Z</time>
      </trkpt>
      <trkpt lat="46.03427" lon="11.12447">
        <ele>237.123537</ele>
        <time>2023-04-19T10:18:37.769Z</time>
      </trkpt>
      <trkpt lat="46.03438" lon="11.12449">
        <ele>237.131415</ele>
        <time>2023-04-19T10:18:39.773Z</time>
      </trkpt>
      <trkpt lat="46.0345" lon="11.12451">
        <ele>237.140077</ele>
        <time>2023-04-19T10:18:41.774Z</time>
      </trkpt>
      <trkpt lat="46.03463" lon="11.12453">
        <ele>237.149783</ele>
        <time>2023-04-19T10:18:43.756Z</time>
      </trkpt>
      <trkpt lat="46.03477" lon="11.12458">
        <ele>237.16009</ele>
        <time>2023-04-19T10:18:45.744Z</time>
      </trkpt>
      <trkpt lat="46.0349" lon="11.12459">
        <ele>237.194514</ele>
        <time>2023-04-19T10:18:47.776Z</time>
      </trkpt>
      <trkpt lat="46.03501" lon="11.12462">
        <ele>237.24754</ele>
        <time>2023-04-19T10:18:49.780Z</time>
      </trkpt>
      <trkpt lat="46.0351" lon="11.12463">
        <ele>237.290049</ele>
        <time>2023-04-19T10:18:51.749Z</time>
      </trkpt>
      <trkpt lat="46.03523" lon="11.12462">
        <ele>237.347178</ele>
        <time>2023-04-19T10:18:54.756Z</time>
      </trkpt>
      <trkpt lat="46.03534" lon="11.12458">
        <ele>237.400203</ele>
        <time>2023-04-19T10:18:57.753Z</time>
      </trkpt>
      <trkpt lat="46.03544" lon="11.12459">
        <ele>237.447264</ele>
        <time>2023-04-19T10:19:00.766Z</time>
      </trkpt>
      <trkpt lat="46.03553" lon="11.12459">
        <ele>237.489111</ele>
        <time>2023-04-19T10:19:03.774Z</time>
      </trkpt>
      <trkpt lat="46.03565" lon="11.12458">
        <ele>237.541082</ele>
        <time>2023-04-19T10:19:07.773Z</time>
      </trkpt>
      <trkpt lat="46.03575" lon="11.1246">
        <ele>237.590434</ele>
        <time>2023-04-19T10:19:11.778Z</time>
      </trkpt>
      <trkpt lat="46.03586" lon="11.12461">
        <ele>237.64036</ele>
        <time>2023-04-19T10:19:15.750Z</time>
      </trkpt>
      <trkpt lat="46.03598" lon="11.12462">
        <ele>237.694276</ele>
        <time>2023-04-19T10:19:18.748Z</time>
      </trkpt>
      <trkpt lat="46.03607" lon="11.12463">
        <ele>237.738036</ele>
        <time>2023-04-19T10:19:20.759Z</time>
      </trkpt>
      <trkpt lat="46.03617" lon="11.12464">
        <ele>237.783141</ele>
        <time>2023-04-19T10:19:22.769Z</time>
      </trkpt>
      <trkpt lat="46.03626" lon="11.12463">
        <ele>237.826003</ele>
        <time>2023-04-19T10:19:24.766Z</time>
      </trkpt>
      <trkpt lat="46.03636" lon="11.12462">
        <ele>237.870263</ele>
        <time>2023-04-19T10:19:26.767Z</time>
      </trkpt>
      <trkpt lat="46.03646" lon="11.12463">
        <ele>237.914941</ele>
        <time>2023-04-19T10:19:28.759Z</time>
      </trkpt>
      <trkpt lat="46.03657" lon="11.12464">
        <ele>237.965187</ele>
        <time>2023-04-19T10:19:30.827Z</time>
      </trkpt>
      <trkpt lat="46.03668" lon="11.12464">
        <ele>237.947636</ele>
        <time>2023-04-19T10:19:32.763Z</time>
      </trkpt>
      <trkpt lat="46.03682" lon="11.12462">
        <ele>237.851342</ele>
        <time>2023-04-19T10:19:34.767Z</time>
      </trkpt>
      <trkpt lat="46.03695" lon="11.12459">
        <ele>237.752288</ele>
        <time>2023-04-19T10:19:36.750Z</time>
      </trkpt>
      <trkpt lat="46.03707" lon="11.12466">
        <ele>237.661195</ele>
        <time>2023-04-19T10:19:38.747Z</time>
      </trkpt>
      <trkpt lat="46.03722" lon="11.1247">
        <ele>237.554316</ele>
        <time>2023-04-19T10:19:40.744Z</time>
      </trkpt>
      <trkpt lat="46.03734" lon="11.12466">
        <ele>237.468814</ele>
        <time>2023-04-19T10:19:42.760Z</time>
      </trkpt>
      <trkpt lat="46.03745" lon="11.12459">
        <ele>237.382468</ele>
        <time>2023-04-19T10:19:45.758Z</time>
      </trkpt>
      <trkpt lat="46.03755" lon="11.12456">
        <ele>237.310309</ele>
        <time>2023-04-19T10:19:48.766Z</time>
      </trkpt>
      <trkpt lat="46.03764" lon="11.12453">
        <ele>237.24029</ele>
        <time>2023-04-19T10:19:51.766Z</time>
      </trkpt>
      <trkpt lat="46.03775" lon="11.12451">
        <ele>237.160212</ele>
        <time>2023-04-19T10:19:54.767Z</time>
      </trkpt>
      <trkpt lat="46.03787" lon="11.12449">
        <ele>237.075613</ele>
        <time>2023-04-19T10:19:57.761Z</time>
      </trkpt>
      <trkpt lat="46.03797" lon="11.12445">
        <ele>236.997991</ele>
        <time>2023-04-19T10:20:00.767Z</time>
      </trkpt>
      <trkpt lat="46.03803" lon="11.12433">
        <ele>236.926931</ele>
        <time>2023-04-19T10:20:03.760Z</time>
      </trkpt>
      <trkpt lat="46.03814" lon="11.12436">
        <ele>236.852408</ele>
        <time>2023-04-19T10:20:06.766Z</time>
      </trkpt>
      <trkpt lat="46.03823" lon="11.12444">
        <ele>236.777846</ele>
        <time>2023-04-19T10:20:09.750Z</time>
      </trkpt>
      <trkpt lat="46.03834" lon="11.12441">
        <ele>236.70297</ele>
        <time>2023-04-19T10:20:12.745Z</time>
      </trkpt>
      <trkpt lat="46.03846" lon="11.12438">
        <ele>236.695679</ele>
        <time>2023-04-19T10:20:15.733Z</time>
      </trkpt>
      <trkpt lat="46.03859" lon="11.12435">
        <ele>236.687723</ele>
        <time>2023-04-19T10:20:18.751Z</time>
      </trkpt>
      <trkpt lat="46.03868" lon="11.12433">
        <ele>236.682177</ele>
        <time>2023-04-19T10:20:20.772Z</time>
      </trkpt>
      <trkpt lat="46.03878" lon="11.12431">
        <ele>236.676598</ele>
        <time>2023-04-19T10:20:22.788Z</time>
      </trkpt>
      <trkpt lat="46.03887" lon="11.12429">
        <ele>236.671125</ele>
        <time>2023-04-19T10:20:24.758Z</time>
      </trkpt>
      <trkpt lat="46.03896" lon="11.12427">
        <ele>236.665665</ele>
        <time>2023-04-19T10:20:26.762Z</time>
      </trkpt>
      <trkpt lat="46.03905" lon="11.12425">
        <ele>236.659717</ele>
        <time>2023-04-19T10:20:28.765Z</time>
      </trkpt>
      <trkpt lat="46.03915" lon="11.12423">
        <ele>236.653691</ele>
        <time>2023-04-19T10:20:30.767Z</time>
      </trkpt>
      <trkpt lat="46.03925" lon="11.12419">
        <ele>236.647532</ele>
        <time>2023-04-19T10:20:32.767Z</time>
      </trkpt>
      <trkpt lat="46.03935" lon="11.12416">
        <ele>236.641392</ele>
        <time>2023-04-19T10:20:34.761Z</time>
      </trkpt>
      <trkpt lat="46.03945" lon="11.12413">
        <ele>236.635277</ele>
        <time>2023-04-19T10:20:36.771Z</time>
      </trkpt>
      <trkpt lat="46.03955" lon="11.12411">
        <ele>236.62925</ele>
        <time>2023-04-19T10:20:38.747Z</time>
      </trkpt>
      <trkpt lat="46.03965" lon="11.12408">
        <ele>236.623303</ele>
        <time>2023-04-19T10:20:40.760Z</time>
      </trkpt>
      <trkpt lat="46.03975" lon="11.12406">
        <ele>236.616908</ele>
        <time>2023-04-19T10:20:42.766Z</time>
      </trkpt>
      <trkpt lat="46.03986" lon="11.12403">
        <ele>236.610631</ele>
        <time>2023-04-19T10:20:44.765Z</time>
      </trkpt>
      <trkpt lat="46.03997" lon="11.12401">
        <ele>236.60404</ele>
        <time>2023-04-19T10:20:46.762Z</time>
      </trkpt>
      <trkpt lat="46.04007" lon="11.12399">
        <ele>236.597776</ele>
        <time>2023-04-19T10:20:48.755Z</time>
      </trkpt>
      <trkpt lat="46.04018" lon="11.12396">
        <ele>236.672487</ele>
        <time>2023-04-19T10:20:50.746Z</time>
      </trkpt>
      <trkpt lat="46.04029" lon="11.12393">
        <ele>236.783966</ele>
        <time>2023-04-19T10:20:52.768Z</time>
      </trkpt>
      <trkpt lat="46.04041" lon="11.12391">
        <ele>236.899319</ele>
        <time>2023-04-19T10:20:54.772Z</time>
      </trkpt>
      <trkpt lat="46.04052" lon="11.12387">
        <ele>237.010722</ele>
        <time>2023-04-19T10:20:56.779Z</time>
      </trkpt>
      <trkpt lat="46.04063" lon="11.12384">
        <ele>237.118571</ele>
        <time>2023-04-19T10:20:58.762Z</time>
      </trkpt>
      <trkpt lat="46.04073" lon="11.12382">
        <ele>237.226818</ele>
        <time>2023-04-19T10:21:00.763Z</time>
      </trkpt>
      <trkpt lat="46.04084" lon="11.12379">
        <ele>237.330941</ele>
        <time>2023-04-19T10:21:02.774Z</time>
      </trkpt>
      <trkpt lat="46.04094" lon="11.12377">
        <ele>237.432091</ele>
        <time>2023-04-19T10:21:04.763Z</time>
      </trkpt>
      <trkpt lat="46.04105" lon="11.12375">
        <ele>237.536353</ele>
        <time>2023-04-19T10:21:06.777Z</time>
      </trkpt>
      <trkpt lat="46.04115" lon="11.12372">
        <ele>237.63965</ele>
        <time>2023-04-19T10:21:08.759Z</time>
      </trkpt>
      <trkpt lat="46.04125" lon="11.12368">
        <ele>237.74213</ele>
        <time>2023-04-19T10:21:10.750Z</time>
      </trkpt>
      <trkpt lat="46.04135" lon="11.12367">
        <ele>237.842783</ele>
        <time>2023-04-19T10:21:12.769Z</time>
      </trkpt>
      <trkpt lat="46.04145" lon="11.12363">
        <ele>237.938626</ele>
        <time>2023-04-19T10:21:14.760Z</time>
      </trkpt>
      <trkpt lat="46.04155" lon="11.12361">
        <ele>238.042133</ele>
        <time>2023-04-19T10:21:16.758Z</time>
      </trkpt>
      <trkpt lat="46.04165" lon="11.12358">
        <ele>238.144331</ele>
        <time>2023-04-19T10:21:18.753Z</time>
      </trkpt>
      <trkpt lat="46.04175" lon="11.12355">
        <ele>238.243639</ele>
        <time>2023-04-19T10:21:20.774Z</time>
      </trkpt>
      <trkpt lat="46.04185" lon="11.12353">
        <ele>238.342308</ele>
        <time>2023-04-19T10:21:22.737Z</time>
      </trkpt>
      <trkpt lat="46.04195" lon="11.12349">
        <ele>238.407985</ele>
        <time>2023-04-19T10:21:24.765Z</time>
      </trkpt>
      <trkpt lat="46.04204" lon="11.12343">
        <ele>238.4676</ele>
        <time>2023-04-19T10:21:26.758Z</time>
      </trkpt>
      <trkpt lat="46.04212" lon="11.12336">
        <ele>238.527577</ele>
        <time>2023-04-19T10:21:28.744Z</time>
      </trkpt>
      <trkpt lat="46.04222" lon="11.12329">
        <ele>238.589475</ele>
        <time>2023-04-19T10:21:30.754Z</time>
      </trkpt>
      <trkpt lat="46.04231" lon="11.12325">
        <ele>238.648467</ele>
        <time>2023-04-19T10:21:32.741Z</time>
      </trkpt>
      <trkpt lat="46.04241" lon="11.12321">
        <ele>238.706013</ele>
        <time>2023-04-19T10:21:34.757Z</time>
      </trkpt>
      <trkpt lat="46.0425" lon="11.12317">
        <ele>238.764654</ele>
        <time>2023-04-19T10:21:36.761Z</time>
      </trkpt>
      <trkpt lat="46.0426" lon="11.12312">
        <ele>238.824418</ele>
        <time>2023-04-19T10:21:38.753Z</time>
      </trkpt>
      <trkpt lat="46.04269" lon="11.12307">
        <ele>238.885449</ele>
        <time>2023-04-19T10:21:40.771Z</time>
      </trkpt>
      <trkpt lat="46.04279" lon="11.12302">
        <ele>238.947766</ele>
        <time>2023-04-19T10:21:42.774Z</time>
      </trkpt>
      <trkpt lat="46.04289" lon="11.12296">
        <ele>239.011526</ele>
        <time>2023-04-19T10:21:44.768Z</time>
      </trkpt>
      <trkpt lat="46.04299" lon="11.1229">
        <ele>239.074738</ele>
        <time>2023-04-19T10:21:46.780Z</time>
      </trkpt>
      <trkpt lat="46.04309" lon="11.12285">
        <ele>239.138281</ele>
        <time>2023-04-19T10:21:48.766Z</time>
      </trkpt>
      <trkpt lat="46.04319" lon="11.12279">
        <ele>239.201825</ele>
        <time>2023-04-19T10:21:50.773Z</time>
      </trkpt>
      <trkpt lat="46.04328" lon="11.12273">
        <ele>239.263623</ele>
        <time>2023-04-19T10:21:52.761Z</time>
      </trkpt>
      <trkpt lat="46.04338" lon="11.12268">
        <ele>239.325658</ele>
        <time>2023-04-19T10:21:54.767Z</time>
      </trkpt>
      <trkpt lat="46.04348" lon="11.12261">
        <ele>239.38934</ele>
        <time>2023-04-19T10:21:56.772Z</time>
      </trkpt>
      <trkpt lat="46.04358" lon="11.12254">
        <ele>239.46963</ele>
        <time>2023-04-19T10:21:58.757Z</time>
      </trkpt>
      <trkpt lat="46.04367" lon="11.12247">
        <ele>239.565715</ele>
        <time>2023-04-19T10:22:00.780Z</time>
      </trkpt>
      <trkpt lat="46.04376" lon="11.1224">
        <ele>239.665975</ele>
        <time>2023-04-19T10:22:02.780Z</time>
      </trkpt>
      <trkpt lat="46.04385" lon="11.12233">
        <ele>239.762102</ele>
        <time>2023-04-19T10:22:04.777Z</time>
      </trkpt>
      <trkpt lat="46.04394" lon="11.12226">
        <ele>239.860591</ele>
        <time>2023-04-19T10:22:06.774Z</time>
      </trkpt>
      <trkpt lat="46.04404" lon="11.12219">
        <ele>239.960365</ele>
        <time>2023-04-19T10:22:08.757Z</time>
      </trkpt>
      <trkpt lat="46.04413" lon="11.12212">
        <ele>240.056897</ele>
        <time>2023-04-19T10:22:10.764Z</time>
      </trkpt>
      <trkpt lat="46.04422" lon="11.12204">
        <ele>240.157328</ele>
        <time>2023-04-19T10:22:12.755Z</time>
      </trkpt>
      <trkpt lat="46.04431" lon="11.12197">
        <ele>240.253042</ele>
        <time>2023-04-19T10:22:14.772Z</time>
      </trkpt>
      <trkpt lat="46.04441" lon="11.1219">
        <ele>240.355886</ele>
        <time>2023-04-19T10:22:16.768Z</time>
      </trkpt>
      <trkpt lat="46.04451" lon="11.12182">
        <ele>240.458917</ele>
        <time>2023-04-19T10:22:18.757Z</time>
      </trkpt>
      <trkpt lat="46.0446" lon="11.12175">
        <ele>240.55627</ele>
        <time>2023-04-19T10:22:20.766Z</time>
      </trkpt>
      <trkpt lat="46.04469" lon="11.12169">
        <ele>240.654612</ele>
        <time>2023-04-19T10:22:22.767Z</time>
      </trkpt>
      <trkpt lat="46.04478" lon="11.12163">
        <ele>240.748266</ele>
        <time>2023-04-19T10:22:24.763Z</time>
      </trkpt>
      <trkpt lat="46.04487" lon="11.12156">
        <ele>240.83881</ele>
        <time>2023-04-19T10:22:26.763Z</time>
      </trkpt>
      <trkpt lat="46.04495" lon="11.12149">
        <ele>240.927958</ele>
        <time>2023-04-19T10:22:28.757Z</time>
      </trkpt>
      <trkpt lat="46.04502" lon="11.12139">
        <ele>241.022414</ele>
        <time>2023-04-19T10:22:30.746Z</time>
      </trkpt>
      <trkpt lat="46.04511" lon="11.1213">
        <ele>241.118835</ele>
        <time>2023-04-19T10:22:32.767Z</time>
      </trkpt>
      <trkpt lat="46.04519" lon="11.12124">
        <ele>241.235382</ele>
        <time>2023-04-19T10:22:34.753Z</time>
      </trkpt>
      <trkpt lat="46.04528" lon="11.12117">
        <ele>241.345691</ele>
        <time>2023-04-19T10:22:36.777Z</time>
      </trkpt>
      <trkpt lat="46.04536" lon="11.1211">
        <ele>241.457775</ele>
        <time>2023-04-19T10:22:38.764Z</time>
      </trkpt>
      <trkpt lat="46.04548" lon="11.12102">
        <ele>241.607602</ele>
        <time>2023-04-19T10:22:41.756Z</time>
      </trkpt>
      <trkpt lat="46.04558" lon="11.12094">
        <ele>241.738142</ele>
        <time>2023-04-19T10:22:44.781Z</time>
      </trkpt>
      <trkpt lat="46.04567" lon="11.12086">
        <ele>241.865271</ele>
        <time>2023-04-19T10:22:47.776Z</time>
      </trkpt>
      <trkpt lat="46.04578" lon="11.12078">
        <ele>242.003972</ele>
        <time>2023-04-19T10:22:50.770Z</time>
      </trkpt>
      <trkpt lat="46.04588" lon="11.1207">
        <ele>242.144102</ele>
        <time>2023-04-19T10:22:53.774Z</time>
      </trkpt>
      <trkpt lat="46.04599" lon="11.12062">
        <ele>242.283866</ele>
        <time>2023-04-19T10:22:56.775Z</time>
      </trkpt>
      <trkpt lat="46.04611" lon="11.12052">
        <ele>242.437445</ele>
        <time>2023-04-19T10:22:59.775Z</time>
      </trkpt>
      <trkpt lat="46.04622" lon="11.12044">
        <ele>242.58589</ele>
        <time>2023-04-19T10:23:02.761Z</time>
      </trkpt>
      <trkpt lat="46.04634" lon="11.12036">
        <ele>242.736063</ele>
        <time>2023-04-19T10:23:05.765Z</time>
      </trkpt>
      <trkpt lat="46.04646" lon="11.12027">
        <ele>242.893601</ele>
        <time>2023-04-19T10:23:08.762Z</time>
      </trkpt>
      <trkpt lat="46.04655" lon="11.12021">
        <ele>243.004497</ele>
        <time>2023-04-19T10:23:10.764Z</time>
      </trkpt>
      <trkpt lat="46.04666" lon="11.12011">
        <ele>243.154857</ele>
        <time>2023-04-19T10:23:13.776Z</time>
      </trkpt>
      <trkpt lat="46.04674" lon="11.12006">
        <ele>243.256589</ele>
        <time>2023-04-19T10:23:15.741Z</time>
      </trkpt>
      <trkpt lat="46.04682" lon="11.11999">
        <ele>243.356122</ele>
        <time>2023-04-19T10:23:17.751Z</time>
      </trkpt>
      <trkpt lat="46.04693" lon="11.1199">
        <ele>243.502654</ele>
        <time>2023-04-19T10:23:20.768Z</time>
      </trkpt>
      <trkpt lat="46.04705" lon="11.11981">
        <ele>243.644551</ele>
        <time>2023-04-19T10:23:23.783Z</time>
      </trkpt>
      <trkpt lat="46.04716" lon="11.11972">
        <ele>243.785037</ele>
        <time>2023-04-19T10:23:26.754Z</time>
      </trkpt>
      <trkpt lat="46.04726" lon="11.11963">
        <ele>243.914047</ele>
        <time>2023-04-19T10:23:29.767Z</time>
      </trkpt>
      <trkpt lat="46.04736" lon="11.11962">
        <ele>244.024385</ele>
        <time>2023-04-19T10:23:32.756Z</time>
      </trkpt>
      <trkpt lat="46.04743" lon="11.11972">
        <ele>244.128241</ele>
        <time>2023-04-19T10:23:35.754Z</time>
      </trkpt>
      <trkpt lat="46.04751" lon="11.11966">
        <ele>244.230927</ele>
        <time>2023-04-19T10:23:38.759Z</time>
      </trkpt>
      <trkpt lat="46.04761" lon="11.11961">
        <ele>244.347666</ele>
        <time>2023-04-19T10:23:41.788Z</time>
      </trkpt>
      <trkpt lat="46.04771" lon="11.11957">
        <ele>244.460347</ele>
        <time>2023-04-19T10:23:44.760Z</time>
      </trkpt>
      <trkpt lat="46.04781" lon="11.11954">
        <ele>244.575724</ele>
        <time>2023-04-19T10:23:47.752Z</time>
      </trkpt>
      <trkpt lat="46.04792" lon="11.11952">
        <ele>244.695312</ele>
        <time>2023-04-19T10:23:50.771Z</time>
      </trkpt>
      <trkpt lat="46.04803" lon="11.1195">
        <ele>244.819598</ele>
        <time>2023-04-19T10:23:53.774Z</time>
      </trkpt>
      <trkpt lat="46.04814" lon="11.1195">
        <ele>244.945272</ele>
        <time>2023-04-19T10:23:56.760Z</time>
      </trkpt>
      <trkpt lat="46.04824" lon="11.1195">
        <ele>245.051097</ele>
        <time>2023-04-19T10:23:59.766Z</time>
      </trkpt>
      <trkpt lat="46.04835" lon="11.11952">
        <ele>245.168915</ele>
        <time>2023-04-19T10:24:03.772Z</time>
      </trkpt>
      <trkpt lat="46.04844" lon="11.11952">
        <ele>245.220682</ele>
        <time>2023-04-19T10:24:07.774Z</time>
      </trkpt>
      <trkpt lat="46.04855" lon="11.11955">
        <ele>245.272865</ele>
        <time>2023-04-19T10:24:11.769Z</time>
      </trkpt>
      <trkpt lat="46.04865" lon="11.11958">
        <ele>245.323419</ele>
        <time>2023-04-19T10:24:16.765Z</time>
      </trkpt>
      <trkpt lat="46.04874" lon="11.11961">
        <ele>245.368609</ele>
        <time>2023-04-19T10:24:22.770Z</time>
      </trkpt>
      <trkpt lat="46.0489" lon="11.11965">
        <ele>245.44464</ele>
        <time>2023-04-19T10:24:53.782Z</time>
      </trkpt>
      <trkpt lat="46.049" lon="11.11969">
        <ele>245.492622</ele>
        <time>2023-04-19T10:24:56.761Z</time>
      </trkpt>
      <trkpt lat="46.04909" lon="11.11973">
        <ele>245.541877</ele>
        <time>2023-04-19T10:24:59.774Z</time>
      </trkpt>
      <trkpt lat="46.04922" lon="11.11977">
        <ele>245.603543</ele>
        <time>2023-04-19T10:25:02.769Z</time>
      </trkpt>
      <trkpt lat="46.04934" lon="11.11982">
        <ele>245.664276</ele>
        <time>2023-04-19T10:25:05.770Z</time>
      </trkpt>
      <trkpt lat="46.04945" lon="11.11985">
        <ele>245.719536</ele>
        <time>2023-04-19T10:25:08.757Z</time>
      </trkpt>
      <trkpt lat="46.04955" lon="11.11989">
        <ele>245.767066</ele>
        <time>2023-04-19T10:25:11.752Z</time>
      </trkpt>
      <trkpt lat="46.04966" lon="11.11993">
        <ele>245.820412</ele>
        <time>2023-04-19T10:25:15.765Z</time>
      </trkpt>
      <trkpt lat="46.04975" lon="11.11998">
        <ele>245.866822</ele>
        <time>2023-04-19T10:25:19.757Z</time>
      </trkpt>
      <trkpt lat="46.04982" lon="11.12005">
        <ele>245.910235</ele>
        <time>2023-04-19T10:25:22.765Z</time>
      </trkpt>
      <trkpt lat="46.04991" lon="11.12017">
        <ele>245.965835</ele>
        <time>2023-04-19T10:25:25.749Z</time>
      </trkpt>
      <trkpt lat="46.04999" lon="11.12024">
        <ele>246.012185</ele>
        <time>2023-04-19T10:25:27.785Z</time>
      </trkpt>
      <trkpt lat="46.05009" lon="11.12033">
        <ele>246.155617</ele>
        <time>2023-04-19T10:25:29.777Z</time>
      </trkpt>
      <trkpt lat="46.05022" lon="11.12041">
        <ele>246.440572</ele>
        <time>2023-04-19T10:25:31.766Z</time>
      </trkpt>
      <trkpt lat="46.05035" lon="11.12048">
        <ele>246.742484</ele>
        <time>2023-04-19T10:25:33.740Z</time>
      </trkpt>
      <trkpt lat="46.05049" lon="11.12055">
        <ele>247.041003</ele>
        <time>2023-04-19T10:25:35.757Z</time>
      </trkpt>
      <trkpt lat="46.05061" lon="11.12059">
        <ele>247.281427</ele>
        <time>2023-04-19T10:25:37.756Z</time>
      </trkpt>
      <trkpt lat="46.05071" lon="11.12058">
        <ele>247.486958</ele>
        <time>2023-04-19T10:25:39.756Z</time>
      </trkpt>
      <trkpt lat="46.05083" lon="11.12059">
        <ele>247.737594</ele>
        <time>2023-04-19T10:25:42.756Z</time>
      </trkpt>
      <trkpt lat="46.05094" lon="11.12061">
        <ele>247.964127</ele>
        <time>2023-04-19T10:25:45.755Z</time>
      </trkpt>
      <trkpt lat="46.05104" lon="11.12063">
        <ele>248.170273</ele>
        <time>2023-04-19T10:25:48.776Z</time>
      </trkpt>
      <trkpt lat="46.05114" lon="11.12066">
        <ele>248.380895</ele>
        <time>2023-04-19T10:25:51.771Z</time>
      </trkpt>
      <trkpt lat="46.05124" lon="11.12071">
        <ele>248.599865</ele>
        <time>2023-04-19T10:25:54.759Z</time>
      </trkpt>
      <trkpt lat="46.05134" lon="11.12076">
        <ele>248.823642</ele>
        <time>2023-04-19T10:25:57.756Z</time>
      </trkpt>
      <trkpt lat="46.05145" lon="11.12082">
        <ele>249.054723</ele>
        <time>2023-04-19T10:26:00.763Z</time>
      </trkpt>
      <trkpt lat="46.05156" lon="11.12089">
        <ele>249.31125</ele>
        <time>2023-04-19T10:26:03.750Z</time>
      </trkpt>
      <trkpt lat="46.05165" lon="11.12096">
        <ele>249.513076</ele>
        <time>2023-04-19T10:26:05.762Z</time>
      </trkpt>
      <trkpt lat="46.05173" lon="11.12102">
        <ele>249.710839</ele>
        <time>2023-04-19T10:26:07.819Z</time>
      </trkpt>
      <trkpt lat="46.05183" lon="11.12108">
        <ele>249.852625</ele>
        <time>2023-04-19T10:26:09.745Z</time>
      </trkpt>
      <trkpt lat="46.05193" lon="11.12114">
        <ele>249.991335</ele>
        <time>2023-04-19T10:26:11.761Z</time>
      </trkpt>
      <trkpt lat="46.05202" lon="11.12121">
        <ele>250.121617</ele>
        <time>2023-04-19T10:26:13.763Z</time>
      </trkpt>
      <trkpt lat="46.05211" lon="11.12127">
        <ele>250.251097</ele>
        <time>2023-04-19T10:26:15.759Z</time>
      </trkpt>
      <trkpt lat="46.0522" lon="11.12134">
        <ele>250.377122</ele>
        <time>2023-04-19T10:26:17.775Z</time>
      </trkpt>
      <trkpt lat="46.0523" lon="11.12139">
        <ele>250.50985</ele>
        <time>2023-04-19T10:26:19.770Z</time>
      </trkpt>
      <trkpt lat="46.05238" lon="11.12145">
        <ele>250.631029</ele>
        <time>2023-04-19T10:26:21.754Z</time>
      </trkpt>
      <trkpt lat="46.05249" lon="11.1215">
        <ele>250.766348</ele>
        <time>2023-04-19T10:26:24.761Z</time>
      </trkpt>
      <trkpt lat="46.05258" lon="11.12155">
        <ele>250.891427</ele>
        <time>2023-04-19T10:26:28.753Z</time>
      </trkpt>
      <trkpt lat="46.05265" lon="11.12144">
        <ele>251.022019</ele>
        <time>2023-04-19T10:26:33.759Z</time>
      </trkpt>
      <trkpt lat="46.0527" lon="11.12131">
        <ele>251.157767</ele>
        <time>2023-04-19T10:26:38.761Z</time>
      </trkpt>
      <trkpt lat="46.05279" lon="11.12132">
        <ele>251.275253</ele>
        <time>2023-04-19T10:26:47.751Z</time>
      </trkpt>
      <trkpt lat="46.05286" lon="11.12142">
        <ele>251.40512</ele>
        <time>2023-04-19T10:26:54.758Z</time>
      </trkpt>
      <trkpt lat="46.05295" lon="11.12149">
        <ele>251.537346</ele>
        <time>2023-04-19T10:26:57.805Z</time>
      </trkpt>
      <trkpt lat="46.05304" lon="11.12156">
        <ele>251.662021</ele>
        <time>2023-04-19T10:26:59.745Z</time>
      </trkpt>
      <trkpt lat="46.05313" lon="11.12163">
        <ele>251.791742</ele>
        <time>2023-04-19T10:27:01.778Z</time>
      </trkpt>
      <trkpt lat="46.05322" lon="11.12169">
        <ele>251.915577</ele>
        <time>2023-04-19T10:27:03.763Z</time>
      </trkpt>
      <trkpt lat="46.0533" lon="11.12176">
        <ele>252.020868</ele>
        <time>2023-04-19T10:27:05.774Z</time>
      </trkpt>
      <trkpt lat="46.05339" lon="11.12183">
        <ele>252.045346</ele>
        <time>2023-04-19T10:27:07.765Z</time>
      </trkpt>
      <trkpt lat="46.05348" lon="11.12188">
        <ele>252.069073</ele>
        <time>2023-04-19T10:27:09.764Z</time>
      </trkpt>
      <trkpt lat="46.05356" lon="11.12194">
        <ele>252.091685</ele>
        <time>2023-04-19T10:27:11.768Z</time>
      </trkpt>
      <trkpt lat="46.05365" lon="11.12201">
        <ele>252.114716</ele>
        <time>2023-04-19T10:27:13.767Z</time>
      </trkpt>
      <trkpt lat="46.05373" lon="11.12208">
        <ele>252.138035</ele>
        <time>2023-04-19T10:27:15.757Z</time>
      </trkpt>
      <trkpt lat="46.05381" lon="11.12214">
        <ele>252.16007</ele>
        <time>2023-04-19T10:27:17.767Z</time>
      </trkpt>
      <trkpt lat="46.05389" lon="11.1222">
        <ele>252.1824</ele>
        <time>2023-04-19T10:27:19.766Z</time>
      </trkpt>
      <trkpt lat="46.05397" lon="11.12227">
        <ele>252.20433</ele>
        <time>2023-04-19T10:27:21.767Z</time>
      </trkpt>
      <trkpt lat="46.05408" lon="11.12235">
        <ele>252.235831</ele>
        <time>2023-04-19T10:27:24.771Z</time>
      </trkpt>
      <trkpt lat="46.05419" lon="11.12243">
        <ele>252.26623</ele>
        <time>2023-04-19T10:27:27.755Z</time>
      </trkpt>
      <trkpt lat="46.05429" lon="11.12251">
        <ele>252.293401</ele>
        <time>2023-04-19T10:27:30.772Z</time>
      </trkpt>
      <trkpt lat="46.05439" lon="11.12259">
        <ele>252.321938</ele>
        <time>2023-04-19T10:27:33.774Z</time>
      </trkpt>
      <trkpt lat="46.05449" lon="11.12271">
        <ele>252.353802</ele>
        <time>2023-04-19T10:27:36.761Z</time>
      </trkpt>
      <trkpt lat="46.05459" lon="11.12282">
        <ele>252.384434</ele>
        <time>2023-04-19T10:27:39.766Z</time>
      </trkpt>
      <trkpt lat="46.05469" lon="11.1229">
        <ele>252.412504</ele>
        <time>2023-04-19T10:27:42.776Z</time>
      </trkpt>
      <trkpt lat="46.05478" lon="11.12298">
        <ele>252.438548</ele>
        <time>2023-04-19T10:27:45.763Z</time>
      </trkpt>
      <trkpt lat="46.05488" lon="11.12303">
        <ele>252.482818</ele>
        <time>2023-04-19T10:27:48.742Z</time>
      </trkpt>
      <trkpt lat="46.05501" lon="11.12313">
        <ele>252.589246</ele>
        <time>2023-04-19T10:27:51.799Z</time>
      </trkpt>
      <trkpt lat="46.0551" lon="11.12321">
        <ele>252.672563</ele>
        <time>2023-04-19T10:27:53.743Z</time>
      </trkpt>
      <trkpt lat="46.05519" lon="11.12334">
        <ele>252.766954</ele>
        <time>2023-04-19T10:27:56.776Z</time>
      </trkpt>
      <trkpt lat="46.05527" lon="11.12346">
        <ele>252.855371</ele>
        <time>2023-04-19T10:27:59.751Z</time>
      </trkpt>
      <trkpt lat="46.05538" lon="11.12355">
        <ele>252.951217</ele>
        <time>2023-04-19T10:28:02.778Z</time>
      </trkpt>
      <trkpt lat="46.05546" lon="11.12361">
        <ele>253.020566</ele>
        <time>2023-04-19T10:28:04.763Z</time>
      </trkpt>
      <trkpt lat="46.05553" lon="11.1237">
        <ele>253.090399</ele>
        <time>2023-04-19T10:28:06.770Z</time>
      </trkpt>
      <trkpt lat="46.05564" lon="11.12381">
        <ele>253.188917</ele>
        <time>2023-04-19T10:28:09.772Z</time>
      </trkpt>
      <trkpt lat="46.05574" lon="11.1239">
        <ele>253.282713</ele>
        <time>2023-04-19T10:28:12.756Z</time>
      </trkpt>
      <trkpt lat="46.05585" lon="11.12399">
        <ele>253.373955</ele>
        <time>2023-04-19T10:28:15.767Z</time>
      </trkpt>
      <trkpt lat="46.05595" lon="11.12409">
        <ele>253.467964</ele>
        <time>2023-04-19T10:28:18.776Z</time>
      </trkpt>
      <trkpt lat="46.05606" lon="11.12418">
        <ele>253.564715</ele>
        <time>2023-04-19T10:28:21.762Z</time>
      </trkpt>
      <trkpt lat="46.05616" lon="11.12428">
        <ele>253.65562</ele>
        <time>2023-04-19T10:28:24.775Z</time>
      </trkpt>
      <trkpt lat="46.05625" lon="11.12437">
        <ele>253.741292</ele>
        <time>2023-04-19T10:28:27.769Z</time>
      </trkpt>
      <trkpt lat="46.05636" lon="11.12446">
        <ele>253.867423</ele>
        <time>2023-04-19T10:28:30.770Z</time>
      </trkpt>
      <trkpt lat="46.05646" lon="11.12455">
        <ele>254.087151</ele>
        <time>2023-04-19T10:28:33.755Z</time>
      </trkpt>
      <trkpt lat="46.05656" lon="11.12463">
        <ele>254.310504</ele>
        <time>2023-04-19T10:28:36.749Z</time>
      </trkpt>
      <trkpt lat="46.05665" lon="11.1247">
        <ele>254.512112</ele>
        <time>2023-04-19T10:28:39.752Z</time>
      </trkpt>
      <trkpt lat="46.05674" lon="11.12461">
        <ele>254.737329</ele>
        <time>2023-04-19T10:28:43.759Z</time>
      </trkpt>
      <trkpt lat="46.05684" lon="11.12451">
        <ele>254.966149</ele>
        <time>2023-04-19T10:28:47.757Z</time>
      </trkpt>
      <trkpt lat="46.05693" lon="11.12454">
        <ele>255.155793</ele>
        <time>2023-04-19T10:28:50.764Z</time>
      </trkpt>
      <trkpt lat="46.05702" lon="11.12461">
        <ele>255.353087</ele>
        <time>2023-04-19T10:28:53.751Z</time>
      </trkpt>
      <trkpt lat="46.05712" lon="11.12471">
        <ele>255.586162</ele>
        <time>2023-04-19T10:28:56.757Z</time>
      </trkpt>
      <trkpt lat="46.05718" lon="11.12484">
        <ele>255.792779</ele>
        <time>2023-04-19T10:28:59.747Z</time>
      </trkpt>
      <trkpt lat="46.05726" lon="11.12493">
        <ele>255.989333</ele>
        <time>2023-04-19T10:29:02.757Z</time>
      </trkpt>
      <trkpt lat="46.05734" lon="11.12501">
        <ele>256.189667</ele>
        <time>2023-04-19T10:29:05.767Z</time>
      </trkpt>
      <trkpt lat="46.05743" lon="11.12505">
        <ele>256.37975</ele>
        <time>2023-04-19T10:29:08.751Z</time>
      </trkpt>
      <trkpt lat="46.05753" lon="11.12508">
        <ele>256.568023</ele>
        <time>2023-04-19T10:29:11.750Z</time>
      </trkpt>
      <trkpt lat="46.05761" lon="11.12516">
        <ele>256.755579</ele>
        <time>2023-04-19T10:29:14.757Z</time>
      </trkpt>
      <trkpt lat="46.0577" lon="11.12526">
        <ele>256.979828</ele>
        <time>2023-04-19T10:29:18.765Z</time>
      </trkpt>
      <trkpt lat="46.05776" lon="11.1254">
        <ele>257.208993</ele>
        <time>2023-04-19T10:29:22.754Z</time>
      </trkpt>
      <trkpt lat="46.05783" lon="11.1255">
        <ele>257.323974</ele>
        <time>2023-04-19T10:29:25.751Z</time>
      </trkpt>
      <trkpt lat="46.0579" lon="11.1256">
        <ele>257.272227</ele>
        <time>2023-04-19T10:29:28.765Z</time>
      </trkpt>
      <trkpt lat="46.058" lon="11.12568">
        <ele>257.213662</ele>
        <time>2023-04-19T10:29:31.756Z</time>
      </trkpt>
      <trkpt lat="46.0581" lon="11.12575">
        <ele>257.157196</ele>
        <time>2023-04-19T10:29:34.749Z</time>
      </trkpt>
      <trkpt lat="46.05819" lon="11.12583">
        <ele>257.103378</ele>
        <time>2023-04-19T10:29:37.755Z</time>
      </trkpt>
      <trkpt lat="46.05827" lon="11.12593">
        <ele>257.049546</ele>
        <time>2023-04-19T10:29:40.755Z</time>
      </trkpt>
      <trkpt lat="46.05834" lon="11.12603">
        <ele>256.997115</ele>
        <time>2023-04-19T10:29:43.761Z</time>
      </trkpt>
      <trkpt lat="46.0584" lon="11.12616">
        <ele>256.942799</ele>
        <time>2023-04-19T10:29:46.758Z</time>
      </trkpt>
      <trkpt lat="46.05845" lon="11.12627">
        <ele>256.89502</ele>
        <time>2023-04-19T10:29:49.751Z</time>
      </trkpt>
      <trkpt lat="46.05851" lon="11.12638">
        <ele>256.844225</ele>
        <time>2023-04-19T10:29:52.758Z</time>
      </trkpt>
      <trkpt lat="46.05859" lon="11.12648">
        <ele>256.791152</ele>
        <time>2023-04-19T10:29:55.764Z</time>
      </trkpt>
      <trkpt lat="46.05867" lon="11.12656">
        <ele>256.738802</ele>
        <time>2023-04-19T10:29:58.762Z</time>
      </trkpt>
      <trkpt lat="46.05876" lon="11.12667">
        <ele>256.6812</ele>
        <time>2023-04-19T10:30:01.849Z</time>
      </trkpt>
      <trkpt lat="46.05884" lon="11.12676">
        <ele>256.627048</ele>
        <time>2023-04-19T10:30:04.744Z</time>
      </trkpt>
      <trkpt lat="46.05892" lon="11.12688">
        <ele>256.571409</ele>
        <time>2023-04-19T10:30:08.753Z</time>
      </trkpt>
      <trkpt lat="46.05893" lon="11.12703">
        <ele>256.518114</ele>
        <time>2023-04-19T10:30:21.747Z</time>
      </trkpt>
      <trkpt lat="46.05902" lon="11.12716">
        <ele>256.449435</ele>
        <time>2023-04-19T10:30:56.777Z</time>
      </trkpt>
      <trkpt lat="46.0591" lon="11.12729">
        <ele>256.366595</ele>
        <time>2023-04-19T10:31:00.757Z</time>
      </trkpt>
      <trkpt lat="46.05918" lon="11.12739">
        <ele>256.276628</ele>
        <time>2023-04-19T10:31:03.772Z</time>
      </trkpt>
      <trkpt lat="46.05925" lon="11.12751">
        <ele>256.174958</ele>
        <time>2023-04-19T10:31:06.764Z</time>
      </trkpt>
      <trkpt lat="46.05933" lon="11.12762">
        <ele>256.083681</ele>
        <time>2023-04-19T10:31:09.752Z</time>
      </trkpt>
      <trkpt lat="46.05942" lon="11.12772">
        <ele>255.982034</ele>
        <time>2023-04-19T10:31:12.761Z</time>
      </trkpt>
      <trkpt lat="46.0595" lon="11.12784">
        <ele>255.877793</ele>
        <time>2023-04-19T10:31:15.765Z</time>
      </trkpt>
      <trkpt lat="46.05957" lon="11.12796">
        <ele>255.778848</ele>
        <time>2023-04-19T10:31:18.761Z</time>
      </trkpt>
      <trkpt lat="46.05964" lon="11.12805">
        <ele>255.693813</ele>
        <time>2023-04-19T10:31:21.768Z</time>
      </trkpt>
      <trkpt lat="46.05972" lon="11.12818">
        <ele>255.590583</ele>
        <time>2023-04-19T10:31:25.778Z</time>
      </trkpt>
      <trkpt lat="46.05981" lon="11.12822">
        <ele>255.506838</ele>
        <time>2023-04-19T10:31:34.774Z</time>
      </trkpt>
      <trkpt lat="46.0599" lon="11.12813">
        <ele>255.410206</ele>
        <time>2023-04-19T10:31:38.763Z</time>
      </trkpt>
      <trkpt lat="46.06" lon="11.12803">
        <ele>255.301389</ele>
        <time>2023-04-19T10:31:41.765Z</time>
      </trkpt>
      <trkpt lat="46.0601" lon="11.12791">
        <ele>255.183118</ele>
        <time>2023-04-19T10:31:44.787Z</time>
      </trkpt>
      <trkpt lat="46.06021" lon="11.12781">
        <ele>255.066225</ele>
        <time>2023-04-19T10:31:47.761Z</time>
      </trkpt>
      <trkpt lat="46.06032" lon="11.12771">
        <ele>254.951906</ele>
        <time>2023-04-19T10:31:50.765Z</time>
      </trkpt>
      <trkpt lat="46.06043" lon="11.1276">
        <ele>254.836098</ele>
        <time>2023-04-19T10:31:53.757Z</time>
      </trkpt>
      <trkpt lat="46.06051" lon="11.12753">
        <ele>254.900003</ele>
        <time>2023-04-19T10:31:55.757Z</time>
      </trkpt>
      <trkpt lat="46.06059" lon="11.12745">
        <ele>255.023292</ele>
        <time>2023-04-19T10:31:59.772Z</time>
      </trkpt>
      <trkpt lat="46.06059" lon="11.12732">
        <ele>255.131671</ele>
        <time>2023-04-19T10:32:06.769Z</time>
      </trkpt>
      <trkpt lat="46.0607" lon="11.12732">
        <ele>255.254176</ele>
        <time>2023-04-19T10:32:13.766Z</time>
      </trkpt>
      <trkpt lat="46.0608" lon="11.12723">
        <ele>255.405086</ele>
        <time>2023-04-19T10:32:17.751Z</time>
      </trkpt>
      <trkpt lat="46.06088" lon="11.12716">
        <ele>255.516412</ele>
        <time>2023-04-19T10:32:19.753Z</time>
      </trkpt>
      <trkpt lat="46.06096" lon="11.12709">
        <ele>255.628794</ele>
        <time>2023-04-19T10:32:21.756Z</time>
      </trkpt>
      <trkpt lat="46.06104" lon="11.12701">
        <ele>255.736954</ele>
        <time>2023-04-19T10:32:23.762Z</time>
      </trkpt>
      <trkpt lat="46.06115" lon="11.12691">
        <ele>255.894289</ele>
        <time>2023-04-19T10:32:26.764Z</time>
      </trkpt>
      <trkpt lat="46.06125" lon="11.12682">
        <ele>256.045637</ele>
        <time>2023-04-19T10:32:29.758Z</time>
      </trkpt>
      <trkpt lat="46.06137" lon="11.12673">
        <ele>256.202662</ele>
        <time>2023-04-19T10:32:32.746Z</time>
      </trkpt>
      <trkpt lat="46.06149" lon="11.12665">
        <ele>256.356362</ele>
        <time>2023-04-19T10:32:35.748Z</time>
      </trkpt>
      <trkpt lat="46.06158" lon="11.12654">
        <ele>256.503218</ele>
        <time>2023-04-19T10:32:38.767Z</time>
      </trkpt>
      <trkpt lat="46.06168" lon="11.12644">
        <ele>256.653252</ele>
        <time>2023-04-19T10:32:41.774Z</time>
      </trkpt>
      <trkpt lat="46.06177" lon="11.12633">
        <ele>256.786466</ele>
        <time>2023-04-19T10:32:44.768Z</time>
      </trkpt>
      <trkpt lat="46.06186" lon="11.12628">
        <ele>256.904323</ele>
        <time>2023-04-19T10:32:47.772Z</time>
      </trkpt>
      <trkpt lat="46.06196" lon="11.12622">
        <ele>256.926003</ele>
        <time>2023-04-19T10:32:50.769Z</time>
      </trkpt>
      <trkpt lat="46.06205" lon="11.12615">
        <ele>256.825276</ele>
        <time>2023-04-19T10:32:53.758Z</time>
      </trkpt>
      <trkpt lat="46.06215" lon="11.12605">
        <ele>256.704753</ele>
        <time>2023-04-19T10:32:56.760Z</time>
      </trkpt>
      <trkpt lat="46.06226" lon="11.12596">
        <ele>256.583085</ele>
        <time>2023-04-19T10:32:59.763Z</time>
      </trkpt>
      <trkpt lat="46.06235" lon="11.1259">
        <ele>256.483307</ele>
        <time>2023-04-19T10:33:03.766Z</time>
      </trkpt>
      <trkpt lat="46.06245" lon="11.12598">
        <ele>256.37162</ele>
        <time>2023-04-19T10:33:07.767Z</time>
      </trkpt>
      <trkpt lat="46.06249" lon="11.1261">
        <ele>256.282861</ele>
        <time>2023-04-19T10:33:10.753Z</time>
      </trkpt>
      <trkpt lat="46.06255" lon="11.12623">
        <ele>256.179182</ele>
        <time>2023-04-19T10:33:13.769Z</time>
      </trkpt>
      <trkpt lat="46.06259" lon="11.12637">
        <ele>256.074825</ele>
        <time>2023-04-19T10:33:16.763Z</time>
      </trkpt>
      <trkpt lat="46.06266" lon="11.12649">
        <ele>255.970784</ele>
        <time>2023-04-19T10:33:19.775Z</time>
      </trkpt>
      <trkpt lat="46.06271" lon="11.12661">
        <ele>255.873113</ele>
        <time>2023-04-19T10:33:22.763Z</time>
      </trkpt>
      <trkpt lat="46.06277" lon="11.12673">
        <ele>255.768222</ele>
        <time>2023-04-19T10:33:25.746Z</time>
      </trkpt>
      <trkpt lat="46.06286" lon="11.12683">
        <ele>255.663635</ele>
        <time>2023-04-19T10:33:28.749Z</time>
      </trkpt>
      <trkpt lat="46.06293" lon="11.12692">
        <ele>255.572558</ele>
        <time>2023-04-19T10:33:31.778Z</time>
      </trkpt>
      <trkpt lat="46.06302" lon="11.12702">
        <ele>255.462408</ele>
        <time>2023-04-19T10:33:35.766Z</time>
      </trkpt>
      <trkpt lat="46.06308" lon="11.12711">
        <ele>255.369928</ele>
        <time>2023-04-19T10:33:40.757Z</time>
      </trkpt>
      <trkpt lat="46.06306" lon="11.12725">
        <ele>255.274821</ele>
        <time>2023-04-19T10:33:44.760Z</time>
      </trkpt>
      <trkpt lat="46.06298" lon="11.12735">
        <ele>255.256681</ele>
        <time>2023-04-19T10:33:48.760Z</time>
      </trkpt>
      <trkpt lat="46.06313" lon="11.12734">
        <ele>255.372636</ele>
        <time>2023-04-19T10:34:08.755Z</time>
      </trkpt>
      <trkpt lat="46.06323" lon="11.12729">
        <ele>255.461683</ele>
        <time>2023-04-19T10:34:11.745Z</time>
      </trkpt>
      <trkpt lat="46.06334" lon="11.12727">
        <ele>255.545486</ele>
        <time>2023-04-19T10:34:14.762Z</time>
      </trkpt>
      <trkpt lat="46.06346" lon="11.12735">
        <ele>255.650046</ele>
        <time>2023-04-19T10:34:17.763Z</time>
      </trkpt>
      <trkpt lat="46.06355" lon="11.12739">
        <ele>255.722612</ele>
        <time>2023-04-19T10:34:19.768Z</time>
      </trkpt>
      <trkpt lat="46.06367" lon="11.12745">
        <ele>255.829139</ele>
        <time>2023-04-19T10:34:22.778Z</time>
      </trkpt>
      <trkpt lat="46.06376" lon="11.1275">
        <ele>255.903589</ele>
        <time>2023-04-19T10:34:24.767Z</time>
      </trkpt>
      <trkpt lat="46.06387" lon="11.12755">
        <ele>255.995369</ele>
        <time>2023-04-19T10:34:27.764Z</time>
      </trkpt>
      <trkpt lat="46.064" lon="11.1276">
        <ele>256.10218</ele>
        <time>2023-04-19T10:34:30.770Z</time>
      </trkpt>
      <trkpt lat="46.06413" lon="11.12764">
        <ele>256.204368</ele>
        <time>2023-04-19T10:34:33.766Z</time>
      </trkpt>
      <trkpt lat="46.06425" lon="11.12769">
        <ele>256.305581</ele>
        <time>2023-04-19T10:34:36.761Z</time>
      </trkpt>
      <trkpt lat="46.06436" lon="11.12776">
        <ele>256.400512</ele>
        <time>2023-04-19T10:34:39.754Z</time>
      </trkpt>
      <trkpt lat="46.06445" lon="11.12784">
        <ele>256.485306</ele>
        <time>2023-04-19T10:34:43.782Z</time>
      </trkpt>
      <trkpt lat="46.06455" lon="11.1279">
        <ele>256.567761</ele>
        <time>2023-04-19T10:34:47.749Z</time>
      </trkpt>
      <trkpt lat="46.06464" lon="11.12794">
        <ele>256.640385</ele>
        <time>2023-04-19T10:34:50.774Z</time>
      </trkpt>
      <trkpt lat="46.06475" lon="11.12799">
        <ele>256.322949</ele>
        <time>2023-04-19T10:34:53.774Z</time>
      </trkpt>
      <trkpt lat="46.06485" lon="11.12806">
        <ele>255.995747</ele>
        <time>2023-04-19T10:34:56.757Z</time>
      </trkpt>
      <trkpt lat="46.06494" lon="11.12814">
        <ele>255.709046</ele>
        <time>2023-04-19T10:35:00.754Z</time>
      </trkpt>
      <trkpt lat="46.06503" lon="11.12816">
        <ele>255.456737</ele>
        <time>2023-04-19T10:35:06.751Z</time>
      </trkpt>
      <trkpt lat="46.06512" lon="11.12809">
        <ele>255.162509</ele>
        <time>2023-04-19T10:35:11.761Z</time>
      </trkpt>
      <trkpt lat="46.06522" lon="11.12816">
        <ele>254.856284</ele>
        <time>2023-04-19T10:35:14.762Z</time>
      </trkpt>
      <trkpt lat="46.06531" lon="11.12822">
        <ele>254.566955</ele>
        <time>2023-04-19T10:35:17.755Z</time>
      </trkpt>
      <trkpt lat="46.06541" lon="11.12828">
        <ele>254.266795</ele>
        <time>2023-04-19T10:35:20.767Z</time>
      </trkpt>
      <trkpt lat="46.06551" lon="11.12833">
        <ele>253.967324</ele>
        <time>2023-04-19T10:35:23.786Z</time>
      </trkpt>
      <trkpt lat="46.06561" lon="11.12839">
        <ele>253.689841</ele>
        <time>2023-04-19T10:35:26.756Z</time>
      </trkpt>
      <trkpt lat="46.06568" lon="11.12828">
        <ele>253.382444</ele>
        <time>2023-04-19T10:35:30.752Z</time>
      </trkpt>
      <trkpt lat="46.06574" lon="11.12811">
        <ele>253.020998</ele>
        <time>2023-04-19T10:35:33.761Z</time>
      </trkpt>
      <trkpt lat="46.06578" lon="11.12798">
        <ele>252.756572</ele>
        <time>2023-04-19T10:35:35.772Z</time>
      </trkpt>
      <trkpt lat="46.06581" lon="11.12786">
        <ele>252.4997</ele>
        <time>2023-04-19T10:35:37.734Z</time>
      </trkpt>
      <trkpt lat="46.06584" lon="11.12774">
        <ele>252.243247</ele>
        <time>2023-04-19T10:35:39.765Z</time>
      </trkpt>
      <trkpt lat="46.06588" lon="11.12762">
        <ele>251.989518</ele>
        <time>2023-04-19T10:35:41.753Z</time>
      </trkpt>
      <trkpt lat="46.06592" lon="11.12745">
        <ele>251.642748</ele>
        <time>2023-04-19T10:35:44.779Z</time>
      </trkpt>
      <trkpt lat="46.06596" lon="11.12733">
        <ele>251.487475</ele>
        <time>2023-04-19T10:35:47.750Z</time>
      </trkpt>
      <trkpt lat="46.06605" lon="11.12726">
        <ele>251.334836</ele>
        <time>2023-04-19T10:35:53.744Z</time>
      </trkpt>
      <trkpt lat="46.06616" lon="11.12726">
        <ele>251.171069</ele>
        <time>2023-04-19T10:35:56.764Z</time>
      </trkpt>
      <trkpt lat="46.06626" lon="11.12733">
        <ele>250.995967</ele>
        <time>2023-04-19T10:35:59.747Z</time>
      </trkpt>
      <trkpt lat="46.06635" lon="11.12738">
        <ele>250.861152</ele>
        <time>2023-04-19T10:36:01.756Z</time>
      </trkpt>
      <trkpt lat="46.06644" lon="11.12743">
        <ele>250.712576</ele>
        <time>2023-04-19T10:36:03.756Z</time>
      </trkpt>
      <trkpt lat="46.06654" lon="11.12749">
        <ele>250.551581</ele>
        <time>2023-04-19T10:36:05.754Z</time>
      </trkpt>
      <trkpt lat="46.06664" lon="11.12755">
        <ele>250.384712</ele>
        <time>2023-04-19T10:36:07.766Z</time>
      </trkpt>
      <trkpt lat="46.06675" lon="11.12762">
        <ele>250.220984</ele>
        <time>2023-04-19T10:36:09.758Z</time>
      </trkpt>
      <trkpt lat="46.06685" lon="11.12767">
        <ele>250.061425</ele>
        <time>2023-04-19T10:36:11.753Z</time>
      </trkpt>
      <trkpt lat="46.06694" lon="11.12772">
        <ele>249.908848</ele>
        <time>2023-04-19T10:36:13.768Z</time>
      </trkpt>
      <trkpt lat="46.06704" lon="11.12776">
        <ele>249.761314</ele>
        <time>2023-04-19T10:36:15.772Z</time>
      </trkpt>
      <trkpt lat="46.06713" lon="11.1278">
        <ele>249.618547</ele>
        <time>2023-04-19T10:36:17.755Z</time>
      </trkpt>
      <trkpt lat="46.06722" lon="11.12786">
        <ele>249.468754</ele>
        <time>2023-04-19T10:36:20.794Z</time>
      </trkpt>
      <trkpt lat="46.06729" lon="11.12795">
        <ele>249.329612</ele>
        <time>2023-04-19T10:36:28.760Z</time>
      </trkpt>
      <trkpt lat="46.06735" lon="11.12784">
        <ele>249.189831</ele>
        <time>2023-04-19T10:36:32.759Z</time>
      </trkpt>
      <trkpt lat="46.06738" lon="11.12772">
        <ele>249.048422</ele>
        <time>2023-04-19T10:36:35.763Z</time>
      </trkpt>
      <trkpt lat="46.06742" lon="11.12755">
        <ele>248.895528</ele>
        <time>2023-04-19T10:36:38.749Z</time>
      </trkpt>
      <trkpt lat="46.06744" lon="11.12738">
        <ele>248.79371</ele>
        <time>2023-04-19T10:36:41.775Z</time>
      </trkpt>
      <trkpt lat="46.06746" lon="11.12722">
        <ele>248.699915</ele>
        <time>2023-04-19T10:36:44.779Z</time>
      </trkpt>
      <trkpt lat="46.06749" lon="11.12706">
        <ele>248.60629</ele>
        <time>2023-04-19T10:36:48.758Z</time>
      </trkpt>
      <trkpt lat="46.06752" lon="11.12692">
        <ele>248.523177</ele>
        <time>2023-04-19T10:36:52.763Z</time>
      </trkpt>
      <trkpt lat="46.06746" lon="11.12704">
        <ele>248.443113</ele>
        <time>2023-04-19T10:37:05.760Z</time>
      </trkpt>
      <trkpt lat="46.06745" lon="11.1269">
        <ele>248.362066</ele>
        <time>2023-04-19T10:37:18.764Z</time>
      </trkpt>
      <trkpt lat="46.06752" lon="11.12678">
        <ele>248.277868</ele>
        <time>2023-04-19T10:37:23.755Z</time>
      </trkpt>
      <trkpt lat="46.06754" lon="11.1266">
        <ele>248.171787</ele>
        <time>2023-04-19T10:38:26.759Z</time>
      </trkpt>
      <trkpt lat="46.06753" lon="11.12646">
        <ele>248.089786</ele>
        <time>2023-04-19T10:38:29.770Z</time>
      </trkpt>
      <trkpt lat="46.0676" lon="11.12633">
        <ele>247.991582</ele>
        <time>2023-04-19T10:38:32.753Z</time>
      </trkpt>
      <trkpt lat="46.06769" lon="11.1262">
        <ele>247.885581</ele>
        <time>2023-04-19T10:38:35.764Z</time>
      </trkpt>
      <trkpt lat="46.06779" lon="11.12607">
        <ele>247.778784</ele>
        <time>2023-04-19T10:38:38.757Z</time>
      </trkpt>
      <trkpt lat="46.06787" lon="11.12592">
        <ele>247.666476</ele>
        <time>2023-04-19T10:38:41.752Z</time>
      </trkpt>
      <trkpt lat="46.06793" lon="11.12581">
        <ele>247.588328</ele>
        <time>2023-04-19T10:38:43.756Z</time>
      </trkpt>
      <trkpt lat="46.068" lon="11.12571">
        <ele>247.507536</ele>
        <time>2023-04-19T10:38:45.759Z</time>
      </trkpt>
      <trkpt lat="46.0681" lon="11.1256">
        <ele>247.165969</ele>
        <time>2023-04-19T10:38:48.758Z</time>
      </trkpt>
      <trkpt lat="46.06817" lon="11.12553">
        <ele>246.631348</ele>
        <time>2023-04-19T10:38:50.769Z</time>
      </trkpt>
      <trkpt lat="46.06828" lon="11.12542">
        <ele>245.856373</ele>
        <time>2023-04-19T10:38:53.781Z</time>
      </trkpt>
      <trkpt lat="46.06837" lon="11.12531">
        <ele>245.170263</ele>
        <time>2023-04-19T10:38:56.757Z</time>
      </trkpt>
      <trkpt lat="46.06844" lon="11.12521">
        <ele>244.600191</ele>
        <time>2023-04-19T10:38:59.755Z</time>
      </trkpt>
      <trkpt lat="46.06845" lon="11.12508">
        <ele>244.055488</ele>
        <time>2023-04-19T10:39:02.743Z</time>
      </trkpt>
      <trkpt lat="46.06844" lon="11.12492">
        <ele>243.406535</ele>
        <time>2023-04-19T10:39:06.777Z</time>
      </trkpt>
      <trkpt lat="46.06844" lon="11.12477">
        <ele>242.772398</ele>
        <time>2023-04-19T10:39:10.765Z</time>
      </trkpt>
      <trkpt lat="46.06844" lon="11.12462">
        <ele>242.153951</ele>
        <time>2023-04-19T10:39:14.766Z</time>
      </trkpt>
      <trkpt lat="46.06845" lon="11.12445">
        <ele>241.467561</ele>
        <time>2023-04-19T10:39:18.754Z</time>
      </trkpt>
      <trkpt lat="46.06845" lon="11.12431">
        <ele>240.854255</ele>
        <time>2023-04-19T10:39:22.742Z</time>
      </trkpt>
      <trkpt lat="46.06845" lon="11.12416">
        <ele>240.244026</ele>
        <time>2023-04-19T10:39:28.750Z</time>
      </trkpt>
      <trkpt lat="46.06842" lon="11.124">
        <ele>239.563392</ele>
        <time>2023-04-19T10:39:32.750Z</time>
      </trkpt>
      <trkpt lat="46.06841" lon="11.12387">
        <ele>239.026836</ele>
        <time>2023-04-19T10:39:36.761Z</time>
      </trkpt>
      <trkpt lat="46.06836" lon="11.12376">
        <ele>238.492228</ele>
        <time>2023-04-19T10:39:42.758Z</time>
      </trkpt>
      <trkpt lat="46.06834" lon="11.12361">
        <ele>237.847838</ele>
        <time>2023-04-19T10:39:47.756Z</time>
      </trkpt>
      <trkpt lat="46.06833" lon="11.12347">
        <ele>237.291872</ele>
        <time>2023-04-19T10:39:53.754Z</time>
      </trkpt>
      <trkpt lat="46.06834" lon="11.12334">
        <ele>236.743382</ele>
        <time>2023-04-19T10:40:05.750Z</time>
      </trkpt>
      <trkpt lat="46.06831" lon="11.1233">
        <ele>236.573526</ele>
        <time>2023-04-19T10:40:28.976Z</time>
      </trkpt>
      <trkpt lat="46.06827" lon="11.12316">
        <ele>236.10716</ele>
        <time>2023-04-19T11:17:07.807Z</time>
      </trkpt>
      <trkpt lat="46.06825" lon="11.12299">
        <ele>235.579435</ele>
        <time>2023-04-19T11:17:11.755Z</time>
      </trkpt>
      <trkpt lat="46.06823" lon="11.12284">
        <ele>235.102699</ele>
        <time>2023-04-19T11:17:15.756Z</time>
      </trkpt>
      <trkpt lat="46.06821" lon="11.1227">
        <ele>234.689075</ele>
        <time>2023-04-19T11:17:19.763Z</time>
      </trkpt>
      <trkpt lat="46.06829" lon="11.12263">
        <ele>234.255862</ele>
        <time>2023-04-19T11:17:25.758Z</time>
      </trkpt>
      <trkpt lat="46.0684" lon="11.12265">
        <ele>233.766561</ele>
        <time>2023-04-19T11:17:29.765Z</time>
      </trkpt>
      <trkpt lat="46.06851" lon="11.12266">
        <ele>233.309912</ele>
        <time>2023-04-19T11:17:33.764Z</time>
      </trkpt>
      <trkpt lat="46.06862" lon="11.12267">
        <ele>232.823845</ele>
        <time>2023-04-19T11:17:37.740Z</time>
      </trkpt>
      <trkpt lat="46.0687" lon="11.12262">
        <ele>232.406077</ele>
        <time>2023-04-19T11:17:40.734Z</time>
      </trkpt>
      <trkpt lat="46.0688" lon="11.12258">
        <ele>231.975196</ele>
        <time>2023-04-19T11:17:43.760Z</time>
      </trkpt>
      <trkpt lat="46.06891" lon="11.12259">
        <ele>231.4937</ele>
        <time>2023-04-19T11:17:48.750Z</time>
      </trkpt>
      <trkpt lat="46.06901" lon="11.12257">
        <ele>231.055656</ele>
        <time>2023-04-19T11:17:52.757Z</time>
      </trkpt>
      <trkpt lat="46.0691" lon="11.12253">
        <ele>230.610058</ele>
        <time>2023-04-19T11:17:58.753Z</time>
      </trkpt>
      <trkpt lat="46.06921" lon="11.12249">
        <ele>230.118766</ele>
        <time>2023-04-19T11:18:02.756Z</time>
      </trkpt>
      <trkpt lat="46.06931" lon="11.12249">
        <ele>229.707463</ele>
        <time>2023-04-19T11:18:05.761Z</time>
      </trkpt>
      <trkpt lat="46.0694" lon="11.1225">
        <ele>229.276911</ele>
        <time>2023-04-19T11:18:09.741Z</time>
      </trkpt>
      <trkpt lat="46.06949" lon="11.12253">
        <ele>228.865295</ele>
        <time>2023-04-19T11:18:13.753Z</time>
      </trkpt>
      <trkpt lat="46.0696" lon="11.12252">
        <ele>229.055888</ele>
        <time>2023-04-19T11:18:17.753Z</time>
      </trkpt>
      <trkpt lat="46.0697" lon="11.12257">
        <ele>229.302826</ele>
        <time>2023-04-19T11:18:23.757Z</time>
      </trkpt>
      <trkpt lat="46.0698" lon="11.12255">
        <ele>229.535327</ele>
        <time>2023-04-19T11:18:27.749Z</time>
      </trkpt>
      <trkpt lat="46.06982" lon="11.12242">
        <ele>229.748172</ele>
        <time>2023-04-19T11:18:33.748Z</time>
      </trkpt>
      <trkpt lat="46.06979" lon="11.12228">
        <ele>229.973198</ele>
        <time>2023-04-19T11:18:37.752Z</time>
      </trkpt>
      <trkpt lat="46.06978" lon="11.12213">
        <ele>230.221861</ele>
        <time>2023-04-19T11:18:43.765Z</time>
      </trkpt>
      <trkpt lat="46.06975" lon="11.12197">
        <ele>230.484263</ele>
        <time>2023-04-19T11:18:48.774Z</time>
      </trkpt>
      <trkpt lat="46.06975" lon="11.12182">
        <ele>230.734699</ele>
        <time>2023-04-19T11:18:52.763Z</time>
      </trkpt>
      <trkpt lat="46.06981" lon="11.12171">
        <ele>230.975074</ele>
        <time>2023-04-19T11:18:56.750Z</time>
      </trkpt>
      <trkpt lat="46.06991" lon="11.12168">
        <ele>231.208994</ele>
        <time>2023-04-19T11:19:00.741Z</time>
      </trkpt>
      <trkpt lat="46.07001" lon="11.12166">
        <ele>231.428677</ele>
        <time>2023-04-19T11:19:04.751Z</time>
      </trkpt>
      <trkpt lat="46.07012" lon="11.12165">
        <ele>231.686396</ele>
        <time>2023-04-19T11:19:08.757Z</time>
      </trkpt>
      <trkpt lat="46.0702" lon="11.12161">
        <ele>231.898982</ele>
        <time>2023-04-19T11:19:11.745Z</time>
      </trkpt>
      <trkpt lat="46.07037" lon="11.12147">
        <ele>232.351602</ele>
        <time>2023-04-19T11:19:52.777Z</time>
      </trkpt>
      <trkpt lat="46.0705" lon="11.12146">
        <ele>232.64103</ele>
        <time>2023-04-19T11:19:56.765Z</time>
      </trkpt>
      <trkpt lat="46.07059" lon="11.12143">
        <ele>232.865021</ele>
        <time>2023-04-19T11:19:59.740Z</time>
      </trkpt>
      <trkpt lat="46.07068" lon="11.12139">
        <ele>233.104725</ele>
        <time>2023-04-19T11:20:02.745Z</time>
      </trkpt>
      <trkpt lat="46.07077" lon="11.12136">
        <ele>233.361956</ele>
        <time>2023-04-19T11:20:05.762Z</time>
      </trkpt>
      <trkpt lat="46.07087" lon="11.12132">
        <ele>233.646316</ele>
        <time>2023-04-19T11:20:08.750Z</time>
      </trkpt>
      <trkpt lat="46.07097" lon="11.12127">
        <ele>233.965106</ele>
        <time>2023-04-19T11:20:11.766Z</time>
      </trkpt>
      <trkpt lat="46.07108" lon="11.12122">
        <ele>234.274992</ele>
        <time>2023-04-19T11:20:14.758Z</time>
      </trkpt>
      <trkpt lat="46.07118" lon="11.12119">
        <ele>234.568192</ele>
        <time>2023-04-19T11:20:17.787Z</time>
      </trkpt>
      <trkpt lat="46.07128" lon="11.12117">
        <ele>234.852347</ele>
        <time>2023-04-19T11:20:20.760Z</time>
      </trkpt>
      <trkpt lat="46.07137" lon="11.12113">
        <ele>235.110208</ele>
        <time>2023-04-19T11:20:23.759Z</time>
      </trkpt>
      <trkpt lat="46.07146" lon="11.12103">
        <ele>235.418332</ele>
        <time>2023-04-19T11:20:27.754Z</time>
      </trkpt>
      <trkpt lat="46.07155" lon="11.12107">
        <ele>235.701645</ele>
        <time>2023-04-19T11:20:30.752Z</time>
      </trkpt>
      <trkpt lat="46.07164" lon="11.12112">
        <ele>235.974881</ele>
        <time>2023-04-19T11:20:33.746Z</time>
      </trkpt>
      <trkpt lat="46.07175" lon="11.12119">
        <ele>236.30093</ele>
        <time>2023-04-19T11:20:37.738Z</time>
      </trkpt>
      <trkpt lat="46.07185" lon="11.12126">
        <ele>236.614244</ele>
        <time>2023-04-19T11:20:41.781Z</time>
      </trkpt>
      <trkpt lat="46.07192" lon="11.12134">
        <ele>236.868573</ele>
        <time>2023-04-19T11:20:44.749Z</time>
      </trkpt>
      <trkpt lat="46.072" lon="11.12141">
        <ele>237.132501</ele>
        <time>2023-04-19T11:20:47.755Z</time>
      </trkpt>
      <trkpt lat="46.07209" lon="11.12149">
        <ele>237.429038</ele>
        <time>2023-04-19T11:20:50.761Z</time>
      </trkpt>
      <trkpt lat="46.07218" lon="11.12158">
        <ele>237.728364</ele>
        <time>2023-04-19T11:20:53.740Z</time>
      </trkpt>
      <trkpt lat="46.07227" lon="11.12165">
        <ele>238.02491</ele>
        <time>2023-04-19T11:20:56.767Z</time>
      </trkpt>
      <trkpt lat="46.07235" lon="11.12174">
        <ele>238.280894</ele>
        <time>2023-04-19T11:20:59.759Z</time>
      </trkpt>
      <trkpt lat="46.07243" lon="11.12182">
        <ele>238.504767</ele>
        <time>2023-04-19T11:21:02.758Z</time>
      </trkpt>
      <trkpt lat="46.07253" lon="11.12188">
        <ele>238.771173</ele>
        <time>2023-04-19T11:21:05.754Z</time>
      </trkpt>
      <trkpt lat="46.07265" lon="11.12191">
        <ele>239.065685</ele>
        <time>2023-04-19T11:21:08.764Z</time>
      </trkpt>
      <trkpt lat="46.07276" lon="11.12197">
        <ele>239.324307</ele>
        <time>2023-04-19T11:21:11.777Z</time>
      </trkpt>
      <trkpt lat="46.07287" lon="11.12203">
        <ele>239.611119</ele>
        <time>2023-04-19T11:21:14.764Z</time>
      </trkpt>
      <trkpt lat="46.07296" lon="11.12208">
        <ele>239.84105</ele>
        <time>2023-04-19T11:21:17.771Z</time>
      </trkpt>
      <trkpt lat="46.07305" lon="11.12214">
        <ele>240.073575</ele>
        <time>2023-04-19T11:21:23.744Z</time>
      </trkpt>
      <trkpt lat="46.07316" lon="11.12221">
        <ele>240.356374</ele>
        <time>2023-04-19T11:21:41.749Z</time>
      </trkpt>
      <trkpt lat="46.07325" lon="11.12225">
        <ele>240.574847</ele>
        <time>2023-04-19T11:21:44.782Z</time>
      </trkpt>
      <trkpt lat="46.07336" lon="11.12231">
        <ele>240.848332</ele>
        <time>2023-04-19T11:21:47.749Z</time>
      </trkpt>
      <trkpt lat="46.07346" lon="11.1224">
        <ele>241.126884</ele>
        <time>2023-04-19T11:21:50.763Z</time>
      </trkpt>
      <trkpt lat="46.07356" lon="11.12248">
        <ele>241.397434</ele>
        <time>2023-04-19T11:21:53.757Z</time>
      </trkpt>
      <trkpt lat="46.07367" lon="11.12256">
        <ele>241.697969</ele>
        <time>2023-04-19T11:21:56.754Z</time>
      </trkpt>
      <trkpt lat="46.07379" lon="11.12263">
        <ele>242.008288</ele>
        <time>2023-04-19T11:21:59.765Z</time>
      </trkpt>
      <trkpt lat="46.07391" lon="11.1227">
        <ele>242.309614</ele>
        <time>2023-04-19T11:22:02.742Z</time>
      </trkpt>
      <trkpt lat="46.07403" lon="11.12277">
        <ele>241.976988</ele>
        <time>2023-04-19T11:22:05.735Z</time>
      </trkpt>
      <trkpt lat="46.07414" lon="11.12283">
        <ele>241.628391</ele>
        <time>2023-04-19T11:22:08.750Z</time>
      </trkpt>
      <trkpt lat="46.07423" lon="11.12289">
        <ele>241.31502</ele>
        <time>2023-04-19T11:22:11.755Z</time>
      </trkpt>
      <trkpt lat="46.07431" lon="11.12295">
        <ele>241.027252</ele>
        <time>2023-04-19T11:22:14.750Z</time>
      </trkpt>
      <trkpt lat="46.07442" lon="11.12303">
        <ele>240.66778</ele>
        <time>2023-04-19T11:22:18.771Z</time>
      </trkpt>
      <trkpt lat="46.07451" lon="11.1231">
        <ele>240.352866</ele>
        <time>2023-04-19T11:22:21.759Z</time>
      </trkpt>
      <trkpt lat="46.07459" lon="11.12318">
        <ele>240.041891</ele>
        <time>2023-04-19T11:22:24.762Z</time>
      </trkpt>
      <trkpt lat="46.0747" lon="11.12325">
        <ele>239.68444</ele>
        <time>2023-04-19T11:22:27.756Z</time>
      </trkpt>
      <trkpt lat="46.07479" lon="11.12334">
        <ele>239.355168</ele>
        <time>2023-04-19T11:22:30.771Z</time>
      </trkpt>
      <trkpt lat="46.07489" lon="11.1234">
        <ele>239.035394</ele>
        <time>2023-04-19T11:22:33.744Z</time>
      </trkpt>
      <trkpt lat="46.075" lon="11.12348">
        <ele>238.663343</ele>
        <time>2023-04-19T11:22:36.769Z</time>
      </trkpt>
      <trkpt lat="46.07508" lon="11.12355">
        <ele>238.356833</ele>
        <time>2023-04-19T11:22:39.768Z</time>
      </trkpt>
      <trkpt lat="46.0752" lon="11.12359">
        <ele>237.998023</ele>
        <time>2023-04-19T11:22:43.757Z</time>
      </trkpt>
      <trkpt lat="46.07531" lon="11.12361">
        <ele>237.654598</ele>
        <time>2023-04-19T11:22:47.758Z</time>
      </trkpt>
      <trkpt lat="46.0754" lon="11.12364">
        <ele>237.369456</ele>
        <time>2023-04-19T11:22:53.759Z</time>
      </trkpt>
      <trkpt lat="46.07548" lon="11.12376">
        <ele>237.027283</ele>
        <time>2023-04-19T11:22:57.765Z</time>
      </trkpt>
      <trkpt lat="46.07557" lon="11.12384">
        <ele>236.932565</ele>
        <time>2023-04-19T11:23:00.785Z</time>
      </trkpt>
      <trkpt lat="46.07568" lon="11.12389">
        <ele>237.148775</ele>
        <time>2023-04-19T11:23:03.753Z</time>
      </trkpt>
      <trkpt lat="46.07578" lon="11.12395">
        <ele>237.338131</ele>
        <time>2023-04-19T11:23:06.777Z</time>
      </trkpt>
      <trkpt lat="46.0759" lon="11.12394">
        <ele>237.549866</ele>
        <time>2023-04-19T11:23:10.744Z</time>
      </trkpt>
      <trkpt lat="46.07599" lon="11.12387">
        <ele>237.738319</ele>
        <time>2023-04-19T11:23:13.758Z</time>
      </trkpt>
      <trkpt lat="46.07606" lon="11.12378">
        <ele>237.915377</ele>
        <time>2023-04-19T11:23:16.756Z</time>
      </trkpt>
      <trkpt lat="46.07613" lon="11.12365">
        <ele>238.119936</ele>
        <time>2023-04-19T11:23:19.765Z</time>
      </trkpt>
      <trkpt lat="46.07619" lon="11.12351">
        <ele>238.322789</ele>
        <time>2023-04-19T11:23:22.766Z</time>
      </trkpt>
      <trkpt lat="46.07625" lon="11.12337">
        <ele>238.523498</ele>
        <time>2023-04-19T11:23:25.743Z</time>
      </trkpt>
      <trkpt lat="46.07631" lon="11.12326">
        <ele>238.696234</ele>
        <time>2023-04-19T11:23:28.770Z</time>
      </trkpt>
      <trkpt lat="46.07639" lon="11.12318">
        <ele>238.87377</ele>
        <time>2023-04-19T11:23:32.765Z</time>
      </trkpt>
      <trkpt lat="46.07648" lon="11.12318">
        <ele>239.036833</ele>
        <time>2023-04-19T11:23:36.751Z</time>
      </trkpt>
      <trkpt lat="46.07657" lon="11.12313">
        <ele>239.215572</ele>
        <time>2023-04-19T11:23:46.773Z</time>
      </trkpt>
      <trkpt lat="46.07668" lon="11.1232">
        <ele>239.432172</ele>
        <time>2023-04-19T11:23:50.778Z</time>
      </trkpt>
      <trkpt lat="46.07679" lon="11.12327">
        <ele>239.634595</ele>
        <time>2023-04-19T11:23:53.758Z</time>
      </trkpt>
      <trkpt lat="46.07689" lon="11.12335">
        <ele>239.844785</ele>
        <time>2023-04-19T11:23:56.752Z</time>
      </trkpt>
      <trkpt lat="46.07697" lon="11.12341">
        <ele>240.018688</ele>
        <time>2023-04-19T11:23:58.777Z</time>
      </trkpt>
      <trkpt lat="46.07708" lon="11.12351">
        <ele>240.371303</ele>
        <time>2023-04-19T11:24:01.760Z</time>
      </trkpt>
      <trkpt lat="46.07719" lon="11.12361">
        <ele>240.743253</ele>
        <time>2023-04-19T11:24:04.754Z</time>
      </trkpt>
      <trkpt lat="46.07729" lon="11.12363">
        <ele>241.060086</ele>
        <time>2023-04-19T11:24:07.753Z</time>
      </trkpt>
      <trkpt lat="46.07742" lon="11.12358">
        <ele>241.455704</ele>
        <time>2023-04-19T11:24:10.753Z</time>
      </trkpt>
      <trkpt lat="46.07752" lon="11.12353">
        <ele>241.750566</ele>
        <time>2023-04-19T11:24:12.758Z</time>
      </trkpt>
      <trkpt lat="46.07764" lon="11.12346">
        <ele>242.150974</ele>
        <time>2023-04-19T11:24:15.751Z</time>
      </trkpt>
      <trkpt lat="46.07776" lon="11.12338">
        <ele>242.536633</ele>
        <time>2023-04-19T11:24:18.751Z</time>
      </trkpt>
      <trkpt lat="46.07788" lon="11.12328">
        <ele>242.955049</ele>
        <time>2023-04-19T11:24:21.764Z</time>
      </trkpt>
      <trkpt lat="46.07797" lon="11.12321">
        <ele>243.273828</ele>
        <time>2023-04-19T11:24:23.750Z</time>
      </trkpt>
      <trkpt lat="46.07806" lon="11.12316">
        <ele>243.557553</ele>
        <time>2023-04-19T11:24:25.765Z</time>
      </trkpt>
      <trkpt lat="46.07815" lon="11.12312">
        <ele>243.82918</ele>
        <time>2023-04-19T11:24:27.756Z</time>
      </trkpt>
      <trkpt lat="46.07824" lon="11.12306">
        <ele>244.121604</ele>
        <time>2023-04-19T11:24:29.754Z</time>
      </trkpt>
      <trkpt lat="46.07833" lon="11.12299">
        <ele>244.443644</ele>
        <time>2023-04-19T11:24:31.734Z</time>
      </trkpt>
      <trkpt lat="46.07842" lon="11.12292">
        <ele>244.740687</ele>
        <time>2023-04-19T11:24:33.752Z</time>
      </trkpt>
      <trkpt lat="46.07851" lon="11.12286">
        <ele>245.030144</ele>
        <time>2023-04-19T11:24:35.770Z</time>
      </trkpt>
      <trkpt lat="46.0786" lon="11.1228">
        <ele>245.325905</ele>
        <time>2023-04-19T11:24:37.767Z</time>
      </trkpt>
      <trkpt lat="46.07869" lon="11.12274">
        <ele>245.276578</ele>
        <time>2023-04-19T11:24:39.753Z</time>
      </trkpt>
      <trkpt lat="46.07878" lon="11.12268">
        <ele>244.984163</ele>
        <time>2023-04-19T11:24:41.763Z</time>
      </trkpt>
      <trkpt lat="46.07887" lon="11.12263">
        <ele>244.688289</ele>
        <time>2023-04-19T11:24:43.762Z</time>
      </trkpt>
      <trkpt lat="46.07896" lon="11.12257">
        <ele>244.410072</ele>
        <time>2023-04-19T11:24:45.754Z</time>
      </trkpt>
      <trkpt lat="46.07905" lon="11.12252">
        <ele>244.129953</ele>
        <time>2023-04-19T11:24:47.756Z</time>
      </trkpt>
      <trkpt lat="46.07915" lon="11.12246">
        <ele>243.831715</ele>
        <time>2023-04-19T11:24:49.769Z</time>
      </trkpt>
      <trkpt lat="46.07924" lon="11.12241">
        <ele>243.531947</ele>
        <time>2023-04-19T11:24:51.760Z</time>
      </trkpt>
      <trkpt lat="46.07933" lon="11.12235">
        <ele>243.242499</ele>
        <time>2023-04-19T11:24:53.763Z</time>
      </trkpt>
      <trkpt lat="46.07943" lon="11.1223">
        <ele>242.953874</ele>
        <time>2023-04-19T11:24:55.757Z</time>
      </trkpt>
      <trkpt lat="46.07951" lon="11.12224">
        <ele>242.673755</ele>
        <time>2023-04-19T11:24:57.754Z</time>
      </trkpt>
      <trkpt lat="46.07961" lon="11.12219">
        <ele>242.369042</ele>
        <time>2023-04-19T11:24:59.762Z</time>
      </trkpt>
      <trkpt lat="46.0797" lon="11.12214">
        <ele>242.090467</ele>
        <time>2023-04-19T11:25:01.748Z</time>
      </trkpt>
      <trkpt lat="46.0798" lon="11.12211">
        <ele>241.788756</ele>
        <time>2023-04-19T11:25:03.752Z</time>
      </trkpt>
      <trkpt lat="46.0799" lon="11.12206">
        <ele>241.489716</ele>
        <time>2023-04-19T11:25:05.755Z</time>
      </trkpt>
      <trkpt lat="46.07999" lon="11.12199">
        <ele>241.192473</ele>
        <time>2023-04-19T11:25:07.748Z</time>
      </trkpt>
      <trkpt lat="46.08009" lon="11.12193">
        <ele>240.887288</ele>
        <time>2023-04-19T11:25:09.755Z</time>
      </trkpt>
      <trkpt lat="46.08018" lon="11.12188">
        <ele>240.591685</ele>
        <time>2023-04-19T11:25:11.753Z</time>
      </trkpt>
      <trkpt lat="46.08028" lon="11.12183">
        <ele>240.285176</ele>
        <time>2023-04-19T11:25:13.756Z</time>
      </trkpt>
      <trkpt lat="46.08037" lon="11.12177">
        <ele>240.174136</ele>
        <time>2023-04-19T11:25:15.760Z</time>
      </trkpt>
      <trkpt lat="46.08047" lon="11.12171">
        <ele>240.113109</ele>
        <time>2023-04-19T11:25:17.752Z</time>
      </trkpt>
      <trkpt lat="46.08057" lon="11.12165">
        <ele>240.04941</ele>
        <time>2023-04-19T11:25:19.754Z</time>
      </trkpt>
      <trkpt lat="46.08067" lon="11.1216">
        <ele>239.988235</ele>
        <time>2023-04-19T11:25:21.755Z</time>
      </trkpt>
      <trkpt lat="46.08077" lon="11.12154">
        <ele>239.926519</ele>
        <time>2023-04-19T11:25:23.757Z</time>
      </trkpt>
      <trkpt lat="46.08087" lon="11.12148">
        <ele>239.862662</ele>
        <time>2023-04-19T11:25:25.756Z</time>
      </trkpt>
      <trkpt lat="46.08097" lon="11.12142">
        <ele>239.801488</ele>
        <time>2023-04-19T11:25:27.757Z</time>
      </trkpt>
      <trkpt lat="46.08106" lon="11.12137">
        <ele>239.740707</ele>
        <time>2023-04-19T11:25:29.772Z</time>
      </trkpt>
      <trkpt lat="46.08115" lon="11.12132">
        <ele>239.684305</ele>
        <time>2023-04-19T11:25:31.763Z</time>
      </trkpt>
      <trkpt lat="46.08125" lon="11.12126">
        <ele>239.625336</ele>
        <time>2023-04-19T11:25:33.769Z</time>
      </trkpt>
      <trkpt lat="46.08134" lon="11.12122">
        <ele>239.568284</ele>
        <time>2023-04-19T11:25:35.751Z</time>
      </trkpt>
      <trkpt lat="46.08143" lon="11.12115">
        <ele>239.51096</ele>
        <time>2023-04-19T11:25:37.765Z</time>
      </trkpt>
      <trkpt lat="46.08152" lon="11.1211">
        <ele>239.451795</ele>
        <time>2023-04-19T11:25:39.757Z</time>
      </trkpt>
      <trkpt lat="46.08162" lon="11.12106">
        <ele>239.395536</ele>
        <time>2023-04-19T11:25:41.751Z</time>
      </trkpt>
      <trkpt lat="46.08171" lon="11.12101">
        <ele>239.338342</ele>
        <time>2023-04-19T11:25:43.750Z</time>
      </trkpt>
      <trkpt lat="46.0818" lon="11.12095">
        <ele>239.279399</ele>
        <time>2023-04-19T11:25:45.732Z</time>
      </trkpt>
      <trkpt lat="46.0819" lon="11.1209">
        <ele>239.219475</ele>
        <time>2023-04-19T11:25:47.755Z</time>
      </trkpt>
      <trkpt lat="46.08199" lon="11.12085">
        <ele>239.197774</ele>
        <time>2023-04-19T11:25:49.747Z</time>
      </trkpt>
      <trkpt lat="46.08208" lon="11.1208">
        <ele>239.312155</ele>
        <time>2023-04-19T11:25:51.765Z</time>
      </trkpt>
      <trkpt lat="46.08218" lon="11.12074">
        <ele>239.432602</ele>
        <time>2023-04-19T11:25:53.759Z</time>
      </trkpt>
      <trkpt lat="46.08228" lon="11.1207">
        <ele>239.560857</ele>
        <time>2023-04-19T11:25:55.756Z</time>
      </trkpt>
      <trkpt lat="46.08238" lon="11.12065">
        <ele>239.684333</ele>
        <time>2023-04-19T11:25:57.733Z</time>
      </trkpt>
      <trkpt lat="46.08247" lon="11.12059">
        <ele>239.803022</ele>
        <time>2023-04-19T11:25:59.774Z</time>
      </trkpt>
      <trkpt lat="46.08256" lon="11.12053">
        <ele>239.917074</ele>
        <time>2023-04-19T11:26:01.753Z</time>
      </trkpt>
      <trkpt lat="46.08266" lon="11.12047">
        <ele>240.035336</ele>
        <time>2023-04-19T11:26:03.768Z</time>
      </trkpt>
      <trkpt lat="46.08275" lon="11.12041">
        <ele>240.15748</ele>
        <time>2023-04-19T11:26:05.756Z</time>
      </trkpt>
      <trkpt lat="46.08284" lon="11.12037">
        <ele>240.269631</ele>
        <time>2023-04-19T11:26:07.769Z</time>
      </trkpt>
      <trkpt lat="46.08293" lon="11.12032">
        <ele>240.385376</ele>
        <time>2023-04-19T11:26:09.751Z</time>
      </trkpt>
      <trkpt lat="46.08303" lon="11.12027">
        <ele>240.508597</ele>
        <time>2023-04-19T11:26:11.756Z</time>
      </trkpt>
      <trkpt lat="46.08313" lon="11.12022">
        <ele>240.628029</ele>
        <time>2023-04-19T11:26:13.761Z</time>
      </trkpt>
      <trkpt lat="46.08323" lon="11.12016">
        <ele>240.755128</ele>
        <time>2023-04-19T11:26:15.756Z</time>
      </trkpt>
      <trkpt lat="46.08331" lon="11.1201">
        <ele>240.862085</ele>
        <time>2023-04-19T11:26:17.753Z</time>
      </trkpt>
      <trkpt lat="46.08343" lon="11.12004">
        <ele>241.009042</ele>
        <time>2023-04-19T11:26:20.751Z</time>
      </trkpt>
      <trkpt lat="46.08355" lon="11.11996">
        <ele>241.166121</ele>
        <time>2023-04-19T11:26:23.762Z</time>
      </trkpt>
      <trkpt lat="46.08364" lon="11.11983">
        <ele>241.271174</ele>
        <time>2023-04-19T11:26:26.746Z</time>
      </trkpt>
      <trkpt lat="46.08372" lon="11.11977">
        <ele>241.218494</ele>
        <time>2023-04-19T11:26:28.754Z</time>
      </trkpt>
      <trkpt lat="46.08382" lon="11.11972">
        <ele>241.163031</ele>
        <time>2023-04-19T11:26:30.757Z</time>
      </trkpt>
      <trkpt lat="46.0839" lon="11.11967">
        <ele>241.110197</ele>
        <time>2023-04-19T11:26:32.749Z</time>
      </trkpt>
      <trkpt lat="46.08403" lon="11.1196">
        <ele>241.035767</ele>
        <time>2023-04-19T11:26:35.756Z</time>
      </trkpt>
      <trkpt lat="46.08411" lon="11.11955">
        <ele>240.982265</ele>
        <time>2023-04-19T11:26:37.754Z</time>
      </trkpt>
      <trkpt lat="46.0842" lon="11.1195">
        <ele>240.929575</ele>
        <time>2023-04-19T11:26:39.749Z</time>
      </trkpt>
      <trkpt lat="46.08429" lon="11.11944">
        <ele>240.873087</ele>
        <time>2023-04-19T11:26:41.742Z</time>
      </trkpt>
      <trkpt lat="46.08438" lon="11.11939">
        <ele>240.817634</ele>
        <time>2023-04-19T11:26:43.766Z</time>
      </trkpt>
      <trkpt lat="46.08447" lon="11.11934">
        <ele>240.765752</ele>
        <time>2023-04-19T11:26:45.757Z</time>
      </trkpt>
      <trkpt lat="46.08459" lon="11.11928">
        <ele>240.691308</ele>
        <time>2023-04-19T11:26:48.753Z</time>
      </trkpt>
      <trkpt lat="46.0847" lon="11.11922">
        <ele>240.62721</ele>
        <time>2023-04-19T11:26:51.762Z</time>
      </trkpt>
      <trkpt lat="46.08481" lon="11.11917">
        <ele>240.563129</ele>
        <time>2023-04-19T11:26:54.778Z</time>
      </trkpt>
      <trkpt lat="46.0849" lon="11.11912">
        <ele>240.507914</ele>
        <time>2023-04-19T11:26:58.756Z</time>
      </trkpt>
      <trkpt lat="46.08496" lon="11.11925">
        <ele>240.447128</ele>
        <time>2023-04-19T11:28:27.746Z</time>
      </trkpt>
      <trkpt lat="46.08505" lon="11.11932">
        <ele>240.390307</ele>
        <time>2023-04-19T11:28:32.756Z</time>
      </trkpt>
      <trkpt lat="46.08521" lon="11.11922">
        <ele>240.288723</ele>
        <time>2023-04-19T11:28:55.747Z</time>
      </trkpt>
      <trkpt lat="46.08533" lon="11.11917">
        <ele>240.13845</ele>
        <time>2023-04-19T11:28:59.761Z</time>
      </trkpt>
      <trkpt lat="46.08544" lon="11.11919">
        <ele>239.974265</ele>
        <time>2023-04-19T11:29:02.762Z</time>
      </trkpt>
      <trkpt lat="46.08555" lon="11.11924">
        <ele>239.797252</ele>
        <time>2023-04-19T11:29:05.747Z</time>
      </trkpt>
      <trkpt lat="46.08564" lon="11.11934">
        <ele>239.626344</ele>
        <time>2023-04-19T11:29:08.747Z</time>
      </trkpt>
      <trkpt lat="46.0857" lon="11.11949">
        <ele>239.45051</ele>
        <time>2023-04-19T11:29:11.759Z</time>
      </trkpt>
      <trkpt lat="46.08573" lon="11.11961">
        <ele>239.308143</ele>
        <time>2023-04-19T11:29:13.744Z</time>
      </trkpt>
      <trkpt lat="46.08578" lon="11.1198">
        <ele>239.101915</ele>
        <time>2023-04-19T11:29:16.774Z</time>
      </trkpt>
      <trkpt lat="46.08581" lon="11.11994">
        <ele>238.95176</ele>
        <time>2023-04-19T11:29:18.762Z</time>
      </trkpt>
      <trkpt lat="46.08585" lon="11.12006">
        <ele>238.805595</ele>
        <time>2023-04-19T11:29:20.777Z</time>
      </trkpt>
      <trkpt lat="46.08588" lon="11.12021">
        <ele>238.651413</ele>
        <time>2023-04-19T11:29:22.760Z</time>
      </trkpt>
      <trkpt lat="46.08591" lon="11.12034">
        <ele>238.504621</ele>
        <time>2023-04-19T11:29:24.764Z</time>
      </trkpt>
      <trkpt lat="46.08596" lon="11.12046">
        <ele>238.361771</ele>
        <time>2023-04-19T11:29:26.756Z</time>
      </trkpt>
      <trkpt lat="46.08605" lon="11.12052">
        <ele>238.211946</ele>
        <time>2023-04-19T11:29:28.750Z</time>
      </trkpt>
      <trkpt lat="46.08619" lon="11.12046">
        <ele>237.99926</ele>
        <time>2023-04-19T11:29:31.750Z</time>
      </trkpt>
      <trkpt lat="46.0863" lon="11.1204">
        <ele>237.818649</ele>
        <time>2023-04-19T11:29:33.749Z</time>
      </trkpt>
      <trkpt lat="46.08642" lon="11.12033">
        <ele>237.629345</ele>
        <time>2023-04-19T11:29:35.767Z</time>
      </trkpt>
      <trkpt lat="46.08653" lon="11.12026">
        <ele>237.48032</ele>
        <time>2023-04-19T11:29:37.759Z</time>
      </trkpt>
      <trkpt lat="46.08665" lon="11.1202">
        <ele>237.351634</ele>
        <time>2023-04-19T11:29:39.746Z</time>
      </trkpt>
      <trkpt lat="46.08676" lon="11.12014">
        <ele>237.224299</ele>
        <time>2023-04-19T11:29:41.756Z</time>
      </trkpt>
      <trkpt lat="46.08687" lon="11.12008">
        <ele>237.098475</ele>
        <time>2023-04-19T11:29:43.758Z</time>
      </trkpt>
      <trkpt lat="46.08699" lon="11.12001">
        <ele>236.965383</ele>
        <time>2023-04-19T11:29:45.773Z</time>
      </trkpt>
      <trkpt lat="46.0871" lon="11.11995">
        <ele>236.835311</ele>
        <time>2023-04-19T11:29:47.757Z</time>
      </trkpt>
      <trkpt lat="46.08721" lon="11.11988">
        <ele>236.7081</ele>
        <time>2023-04-19T11:29:49.751Z</time>
      </trkpt>
      <trkpt lat="46.08732" lon="11.11982">
        <ele>236.578277</ele>
        <time>2023-04-19T11:29:51.772Z</time>
      </trkpt>
      <trkpt lat="46.08744" lon="11.11975">
        <ele>236.442095</ele>
        <time>2023-04-19T11:29:53.766Z</time>
      </trkpt>
      <trkpt lat="46.08756" lon="11.11968">
        <ele>236.304963</ele>
        <time>2023-04-19T11:29:55.773Z</time>
      </trkpt>
      <trkpt lat="46.08767" lon="11.11961">
        <ele>236.177262</ele>
        <time>2023-04-19T11:29:57.759Z</time>
      </trkpt>
      <trkpt lat="46.08779" lon="11.11956">
        <ele>236.047684</ele>
        <time>2023-04-19T11:29:59.754Z</time>
      </trkpt>
      <trkpt lat="46.0879" lon="11.1195">
        <ele>235.916569</ele>
        <time>2023-04-19T11:30:01.757Z</time>
      </trkpt>
      <trkpt lat="46.08802" lon="11.11945">
        <ele>235.790463</ele>
        <time>2023-04-19T11:30:03.755Z</time>
      </trkpt>
      <trkpt lat="46.08814" lon="11.11941">
        <ele>235.66137</ele>
        <time>2023-04-19T11:30:05.758Z</time>
      </trkpt>
      <trkpt lat="46.08826" lon="11.11936">
        <ele>235.593491</ele>
        <time>2023-04-19T11:30:07.760Z</time>
      </trkpt>
      <trkpt lat="46.08838" lon="11.11931">
        <ele>235.525572</ele>
        <time>2023-04-19T11:30:09.758Z</time>
      </trkpt>
      <trkpt lat="46.0885" lon="11.11928">
        <ele>235.457386</ele>
        <time>2023-04-19T11:30:11.772Z</time>
      </trkpt>
      <trkpt lat="46.08862" lon="11.11925">
        <ele>235.391652</ele>
        <time>2023-04-19T11:30:13.777Z</time>
      </trkpt>
      <trkpt lat="46.08874" lon="11.1192">
        <ele>235.324698</ele>
        <time>2023-04-19T11:30:15.772Z</time>
      </trkpt>
      <trkpt lat="46.08885" lon="11.11916">
        <ele>235.260705</ele>
        <time>2023-04-19T11:30:17.756Z</time>
      </trkpt>
      <trkpt lat="46.08897" lon="11.11911">
        <ele>235.194409</ele>
        <time>2023-04-19T11:30:19.762Z</time>
      </trkpt>
      <trkpt lat="46.08908" lon="11.11907">
        <ele>235.130885</ele>
        <time>2023-04-19T11:30:21.772Z</time>
      </trkpt>
      <trkpt lat="46.0892" lon="11.11903">
        <ele>235.065969</ele>
        <time>2023-04-19T11:30:23.769Z</time>
      </trkpt>
      <trkpt lat="46.08931" lon="11.11899">
        <ele>235.002178</ele>
        <time>2023-04-19T11:30:25.762Z</time>
      </trkpt>
      <trkpt lat="46.08942" lon="11.11896">
        <ele>234.945253</ele>
        <time>2023-04-19T11:30:27.755Z</time>
      </trkpt>
      <trkpt lat="46.08952" lon="11.11892">
        <ele>234.887294</ele>
        <time>2023-04-19T11:30:29.747Z</time>
      </trkpt>
      <trkpt lat="46.08963" lon="11.11887">
        <ele>234.823506</ele>
        <time>2023-04-19T11:30:31.741Z</time>
      </trkpt>
      <trkpt lat="46.08973" lon="11.1188">
        <ele>234.761378</ele>
        <time>2023-04-19T11:30:33.770Z</time>
      </trkpt>
      <trkpt lat="46.08983" lon="11.11876">
        <ele>234.704055</ele>
        <time>2023-04-19T11:30:35.748Z</time>
      </trkpt>
      <trkpt lat="46.08993" lon="11.11871">
        <ele>234.741571</ele>
        <time>2023-04-19T11:30:37.768Z</time>
      </trkpt>
      <trkpt lat="46.09003" lon="11.11865">
        <ele>234.831052</ele>
        <time>2023-04-19T11:30:39.773Z</time>
      </trkpt>
      <trkpt lat="46.09013" lon="11.11858">
        <ele>234.922749</ele>
        <time>2023-04-19T11:30:41.739Z</time>
      </trkpt>
      <trkpt lat="46.09023" lon="11.11852">
        <ele>235.016043</ele>
        <time>2023-04-19T11:30:43.792Z</time>
      </trkpt>
      <trkpt lat="46.09032" lon="11.11847">
        <ele>235.100252</ele>
        <time>2023-04-19T11:30:45.739Z</time>
      </trkpt>
      <trkpt lat="46.09042" lon="11.11854">
        <ele>235.195275</ele>
        <time>2023-04-19T11:30:48.757Z</time>
      </trkpt>
      <trkpt lat="46.09045" lon="11.11868">
        <ele>235.280865</ele>
        <time>2023-04-19T11:30:50.759Z</time>
      </trkpt>
      <trkpt lat="46.09048" lon="11.11881">
        <ele>235.360579</ele>
        <time>2023-04-19T11:30:52.748Z</time>
      </trkpt>
      <trkpt lat="46.09051" lon="11.11895">
        <ele>235.445682</ele>
        <time>2023-04-19T11:30:54.763Z</time>
      </trkpt>
      <trkpt lat="46.09054" lon="11.11908">
        <ele>235.527063</ele>
        <time>2023-04-19T11:30:56.756Z</time>
      </trkpt>
      <trkpt lat="46.09058" lon="11.1192">
        <ele>235.607912</ele>
        <time>2023-04-19T11:30:58.752Z</time>
      </trkpt>
      <trkpt lat="46.09064" lon="11.11938">
        <ele>235.721804</ele>
        <time>2023-04-19T11:31:01.744Z</time>
      </trkpt>
      <trkpt lat="46.09067" lon="11.1195">
        <ele>235.798248</ele>
        <time>2023-04-19T11:31:03.757Z</time>
      </trkpt>
      <trkpt lat="46.09071" lon="11.11967">
        <ele>235.904639</ele>
        <time>2023-04-19T11:31:06.745Z</time>
      </trkpt>
      <trkpt lat="46.09076" lon="11.11982">
        <ele>236.000168</ele>
        <time>2023-04-19T11:31:09.759Z</time>
      </trkpt>
      <trkpt lat="46.09079" lon="11.11995">
        <ele>236.084605</ele>
        <time>2023-04-19T11:31:16.765Z</time>
      </trkpt>
      <trkpt lat="46.09084" lon="11.1201">
        <ele>236.181626</ele>
        <time>2023-04-19T11:31:20.745Z</time>
      </trkpt>
      <trkpt lat="46.09089" lon="11.12027">
        <ele>236.157643</ele>
        <time>2023-04-19T11:31:23.753Z</time>
      </trkpt>
      <trkpt lat="46.09093" lon="11.12045">
        <ele>236.086963</ele>
        <time>2023-04-19T11:31:26.753Z</time>
      </trkpt>
      <trkpt lat="46.09096" lon="11.12062">
        <ele>236.021949</ele>
        <time>2023-04-19T11:31:29.756Z</time>
      </trkpt>
      <trkpt lat="46.09105" lon="11.12079">
        <ele>235.938151</ele>
        <time>2023-04-19T11:32:12.741Z</time>
      </trkpt>
      <trkpt lat="46.09116" lon="11.12079">
        <ele>235.880282</ele>
        <time>2023-04-19T11:32:15.820Z</time>
      </trkpt>
      <trkpt lat="46.09128" lon="11.1208">
        <ele>235.813646</ele>
        <time>2023-04-19T11:32:18.763Z</time>
      </trkpt>
      <trkpt lat="46.0914" lon="11.12081">
        <ele>235.745291</ele>
        <time>2023-04-19T11:32:21.741Z</time>
      </trkpt>
      <trkpt lat="46.09153" lon="11.12081">
        <ele>235.674839</ele>
        <time>2023-04-19T11:32:24.770Z</time>
      </trkpt>
      <trkpt lat="46.09167" lon="11.12079">
        <ele>235.601442</ele>
        <time>2023-04-19T11:32:27.751Z</time>
      </trkpt>
      <trkpt lat="46.09176" lon="11.12078">
        <ele>235.548352</ele>
        <time>2023-04-19T11:32:29.754Z</time>
      </trkpt>
      <trkpt lat="46.09186" lon="11.12076">
        <ele>235.494579</ele>
        <time>2023-04-19T11:32:31.760Z</time>
      </trkpt>
      <trkpt lat="46.09197" lon="11.12074">
        <ele>235.43738</ele>
        <time>2023-04-19T11:32:33.752Z</time>
      </trkpt>
      <trkpt lat="46.09206" lon="11.12073">
        <ele>235.383566</ele>
        <time>2023-04-19T11:32:35.761Z</time>
      </trkpt>
      <trkpt lat="46.09216" lon="11.12072">
        <ele>235.329324</ele>
        <time>2023-04-19T11:32:37.754Z</time>
      </trkpt>
      <trkpt lat="46.09227" lon="11.12071">
        <ele>235.273113</ele>
        <time>2023-04-19T11:32:39.750Z</time>
      </trkpt>
      <trkpt lat="46.09237" lon="11.12071">
        <ele>235.195521</ele>
        <time>2023-04-19T11:32:41.743Z</time>
      </trkpt>
      <trkpt lat="46.09248" lon="11.12072">
        <ele>235.040967</ele>
        <time>2023-04-19T11:32:43.746Z</time>
      </trkpt>
      <trkpt lat="46.09258" lon="11.12072">
        <ele>234.885037</ele>
        <time>2023-04-19T11:32:45.741Z</time>
      </trkpt>
      <trkpt lat="46.09269" lon="11.12073">
        <ele>234.72898</ele>
        <time>2023-04-19T11:32:47.747Z</time>
      </trkpt>
      <trkpt lat="46.0928" lon="11.12074">
        <ele>234.570103</ele>
        <time>2023-04-19T11:32:49.749Z</time>
      </trkpt>
      <trkpt lat="46.09291" lon="11.12075">
        <ele>234.411081</ele>
        <time>2023-04-19T11:32:51.753Z</time>
      </trkpt>
      <trkpt lat="46.09302" lon="11.12076">
        <ele>234.256359</ele>
        <time>2023-04-19T11:32:53.751Z</time>
      </trkpt>
      <trkpt lat="46.09312" lon="11.12077">
        <ele>234.09721</ele>
        <time>2023-04-19T11:32:55.749Z</time>
      </trkpt>
      <trkpt lat="46.09323" lon="11.12078">
        <ele>233.94697</ele>
        <time>2023-04-19T11:32:57.752Z</time>
      </trkpt>
      <trkpt lat="46.09334" lon="11.12078">
        <ele>233.789458</ele>
        <time>2023-04-19T11:32:59.768Z</time>
      </trkpt>
      <trkpt lat="46.09345" lon="11.12079">
        <ele>233.62193</ele>
        <time>2023-04-19T11:33:01.741Z</time>
      </trkpt>
      <trkpt lat="46.09356" lon="11.12079">
        <ele>233.457293</ele>
        <time>2023-04-19T11:33:03.754Z</time>
      </trkpt>
      <trkpt lat="46.09367" lon="11.12079">
        <ele>233.29559</ele>
        <time>2023-04-19T11:33:05.755Z</time>
      </trkpt>
      <trkpt lat="46.09379" lon="11.1208">
        <ele>233.133761</ele>
        <time>2023-04-19T11:33:07.750Z</time>
      </trkpt>
      <trkpt lat="46.0939" lon="11.12081">
        <ele>232.966151</ele>
        <time>2023-04-19T11:33:09.757Z</time>
      </trkpt>
      <trkpt lat="46.09401" lon="11.1208">
        <ele>232.802992</ele>
        <time>2023-04-19T11:33:11.758Z</time>
      </trkpt>
      <trkpt lat="46.09413" lon="11.12079">
        <ele>232.634895</ele>
        <time>2023-04-19T11:33:13.759Z</time>
      </trkpt>
      <trkpt lat="46.09424" lon="11.12077">
        <ele>232.611329</ele>
        <time>2023-04-19T11:33:15.749Z</time>
      </trkpt>
      <trkpt lat="46.09436" lon="11.12073">
        <ele>232.615182</ele>
        <time>2023-04-19T11:33:17.769Z</time>
      </trkpt>
      <trkpt lat="46.09447" lon="11.1207">
        <ele>232.618732</ele>
        <time>2023-04-19T11:33:19.759Z</time>
      </trkpt>
      <trkpt lat="46.09457" lon="11.12065">
        <ele>232.622193</ele>
        <time>2023-04-19T11:33:21.758Z</time>
      </trkpt>
      <trkpt lat="46.09467" lon="11.12061">
        <ele>232.625667</ele>
        <time>2023-04-19T11:33:23.760Z</time>
      </trkpt>
      <trkpt lat="46.09478" lon="11.12056">
        <ele>232.629169</ele>
        <time>2023-04-19T11:33:25.759Z</time>
      </trkpt>
      <trkpt lat="46.09488" lon="11.12051">
        <ele>232.632736</ele>
        <time>2023-04-19T11:33:27.756Z</time>
      </trkpt>
      <trkpt lat="46.09499" lon="11.12047">
        <ele>232.636235</ele>
        <time>2023-04-19T11:33:29.770Z</time>
      </trkpt>
      <trkpt lat="46.09509" lon="11.12043">
        <ele>232.639597</ele>
        <time>2023-04-19T11:33:31.749Z</time>
      </trkpt>
      <trkpt lat="46.09518" lon="11.12038">
        <ele>232.642698</ele>
        <time>2023-04-19T11:33:33.733Z</time>
      </trkpt>
      <trkpt lat="46.09526" lon="11.12034">
        <ele>232.645626</ele>
        <time>2023-04-19T11:33:35.756Z</time>
      </trkpt>
      <trkpt lat="46.09536" lon="11.12031">
        <ele>232.648875</ele>
        <time>2023-04-19T11:33:38.749Z</time>
      </trkpt>
      <trkpt lat="46.09546" lon="11.12027">
        <ele>232.65196</ele>
        <time>2023-04-19T11:33:44.749Z</time>
      </trkpt>
      <trkpt lat="46.09557" lon="11.12025">
        <ele>232.655739</ele>
        <time>2023-04-19T11:33:48.758Z</time>
      </trkpt>
      <trkpt lat="46.09569" lon="11.12022">
        <ele>232.65963</ele>
        <time>2023-04-19T11:33:52.759Z</time>
      </trkpt>
      <trkpt lat="46.0958" lon="11.12022">
        <ele>232.663039</ele>
        <time>2023-04-19T11:33:55.751Z</time>
      </trkpt>
      <trkpt lat="46.0959" lon="11.12019">
        <ele>232.66433</ele>
        <time>2023-04-19T11:33:58.739Z</time>
      </trkpt>
      <trkpt lat="46.09598" lon="11.1201">
        <ele>232.640321</ele>
        <time>2023-04-19T11:34:02.760Z</time>
      </trkpt>
      <trkpt lat="46.09604" lon="11.12">
        <ele>232.618642</ele>
        <time>2023-04-19T11:34:06.762Z</time>
      </trkpt>
      <trkpt lat="46.09607" lon="11.11983">
        <ele>232.589769</ele>
        <time>2023-04-19T11:34:10.746Z</time>
      </trkpt>
      <trkpt lat="46.0961" lon="11.11968">
        <ele>232.563695</ele>
        <time>2023-04-19T11:34:13.747Z</time>
      </trkpt>
      <trkpt lat="46.09615" lon="11.11952">
        <ele>232.535636</ele>
        <time>2023-04-19T11:34:16.740Z</time>
      </trkpt>
      <trkpt lat="46.09619" lon="11.11935">
        <ele>232.506458</ele>
        <time>2023-04-19T11:34:19.735Z</time>
      </trkpt>
      <trkpt lat="46.09623" lon="11.11919">
        <ele>232.477856</ele>
        <time>2023-04-19T11:34:22.750Z</time>
      </trkpt>
      <trkpt lat="46.09628" lon="11.11903">
        <ele>232.449479</ele>
        <time>2023-04-19T11:34:25.761Z</time>
      </trkpt>
      <trkpt lat="46.09634" lon="11.11887">
        <ele>232.420668</ele>
        <time>2023-04-19T11:34:28.749Z</time>
      </trkpt>
      <trkpt lat="46.09641" lon="11.11872">
        <ele>232.390186</ele>
        <time>2023-04-19T11:34:31.751Z</time>
      </trkpt>
      <trkpt lat="46.09647" lon="11.11855">
        <ele>232.360622</ele>
        <time>2023-04-19T11:34:34.757Z</time>
      </trkpt>
      <trkpt lat="46.09648" lon="11.11838">
        <ele>232.331716</ele>
        <time>2023-04-19T11:34:37.756Z</time>
      </trkpt>
      <trkpt lat="46.09651" lon="11.11822">
        <ele>232.304221</ele>
        <time>2023-04-19T11:34:40.743Z</time>
      </trkpt>
      <trkpt lat="46.09655" lon="11.11806">
        <ele>232.277897</ele>
        <time>2023-04-19T11:34:43.759Z</time>
      </trkpt>
      <trkpt lat="46.09659" lon="11.11789">
        <ele>232.248485</ele>
        <time>2023-04-19T11:34:46.750Z</time>
      </trkpt>
      <trkpt lat="46.09662" lon="11.11772">
        <ele>232.269201</ele>
        <time>2023-04-19T11:34:49.747Z</time>
      </trkpt>
      <trkpt lat="46.09666" lon="11.11753">
        <ele>232.305255</ele>
        <time>2023-04-19T11:34:52.774Z</time>
      </trkpt>
      <trkpt lat="46.09668" lon="11.11735">
        <ele>232.339764</ele>
        <time>2023-04-19T11:34:55.755Z</time>
      </trkpt>
      <trkpt lat="46.0967" lon="11.11716">
        <ele>232.376</ele>
        <time>2023-04-19T11:34:58.748Z</time>
      </trkpt>
      <trkpt lat="46.0967" lon="11.11702">
        <ele>232.401966</ele>
        <time>2023-04-19T11:35:00.768Z</time>
      </trkpt>
      <trkpt lat="46.09671" lon="11.11689">
        <ele>232.427223</ele>
        <time>2023-04-19T11:35:02.751Z</time>
      </trkpt>
      <trkpt lat="46.09672" lon="11.11676">
        <ele>232.45241</ele>
        <time>2023-04-19T11:35:04.767Z</time>
      </trkpt>
      <trkpt lat="46.09675" lon="11.11662">
        <ele>232.478847</ele>
        <time>2023-04-19T11:35:06.754Z</time>
      </trkpt>
      <trkpt lat="46.09678" lon="11.11649">
        <ele>232.505201</ele>
        <time>2023-04-19T11:35:08.744Z</time>
      </trkpt>
      <trkpt lat="46.0968" lon="11.11636">
        <ele>232.530102</ele>
        <time>2023-04-19T11:35:10.765Z</time>
      </trkpt>
      <trkpt lat="46.09682" lon="11.11623">
        <ele>232.555049</ele>
        <time>2023-04-19T11:35:12.768Z</time>
      </trkpt>
      <trkpt lat="46.09686" lon="11.11608">
        <ele>232.585215</ele>
        <time>2023-04-19T11:35:15.752Z</time>
      </trkpt>
      <trkpt lat="46.0969" lon="11.11595">
        <ele>232.611565</ele>
        <time>2023-04-19T11:35:18.757Z</time>
      </trkpt>
      <trkpt lat="46.09695" lon="11.11584">
        <ele>232.636127</ele>
        <time>2023-04-19T11:35:21.754Z</time>
      </trkpt>
      <trkpt lat="46.09705" lon="11.11585">
        <ele>232.664314</ele>
        <time>2023-04-19T11:35:26.756Z</time>
      </trkpt>
      <trkpt lat="46.09716" lon="11.11584">
        <ele>232.692568</ele>
        <time>2023-04-19T11:35:30.768Z</time>
      </trkpt>
      <trkpt lat="46.09727" lon="11.11587">
        <ele>232.722851</ele>
        <time>2023-04-19T11:35:34.744Z</time>
      </trkpt>
      <trkpt lat="46.09736" lon="11.1159">
        <ele>232.80399</ele>
        <time>2023-04-19T11:35:37.755Z</time>
      </trkpt>
      <trkpt lat="46.09746" lon="11.11591">
        <ele>232.916209</ele>
        <time>2023-04-19T11:35:40.821Z</time>
      </trkpt>
      <trkpt lat="46.09756" lon="11.11592">
        <ele>233.030413</ele>
        <time>2023-04-19T11:35:43.739Z</time>
      </trkpt>
      <trkpt lat="46.09766" lon="11.1159">
        <ele>233.142784</ele>
        <time>2023-04-19T11:35:46.764Z</time>
      </trkpt>
      <trkpt lat="46.09777" lon="11.11585">
        <ele>233.258048</ele>
        <time>2023-04-19T11:35:49.762Z</time>
      </trkpt>
      <trkpt lat="46.09788" lon="11.11582">
        <ele>233.384215</ele>
        <time>2023-04-19T11:35:52.761Z</time>
      </trkpt>
      <trkpt lat="46.09798" lon="11.11583">
        <ele>233.497528</ele>
        <time>2023-04-19T11:35:55.768Z</time>
      </trkpt>
      <trkpt lat="46.09808" lon="11.11591">
        <ele>233.620524</ele>
        <time>2023-04-19T11:35:59.754Z</time>
      </trkpt>
      <trkpt lat="46.09817" lon="11.116">
        <ele>233.740747</ele>
        <time>2023-04-19T11:36:03.769Z</time>
      </trkpt>
      <trkpt lat="46.09827" lon="11.11606">
        <ele>233.860027</ele>
        <time>2023-04-19T11:36:07.756Z</time>
      </trkpt>
      <trkpt lat="46.09834" lon="11.11616">
        <ele>233.968346</ele>
        <time>2023-04-19T11:36:11.766Z</time>
      </trkpt>
      <trkpt lat="46.09842" lon="11.11624">
        <ele>234.073416</ele>
        <time>2023-04-19T11:36:17.747Z</time>
      </trkpt>
      <trkpt lat="46.09851" lon="11.11628">
        <ele>234.176102</ele>
        <time>2023-04-19T11:36:22.756Z</time>
      </trkpt>
      <trkpt lat="46.09861" lon="11.1163">
        <ele>234.28572</ele>
        <time>2023-04-19T11:36:29.758Z</time>
      </trkpt>
      <trkpt lat="46.09871" lon="11.11631">
        <ele>234.398688</ele>
        <time>2023-04-19T11:36:35.747Z</time>
      </trkpt>
      <trkpt lat="46.09879" lon="11.11645">
        <ele>234.537215</ele>
        <time>2023-04-19T11:38:10.050Z</time>
      </trkpt>
      <trkpt lat="46.09884" lon="11.11658">
        <ele>234.655719</ele>
        <time>2023-04-19T11:38:28.739Z</time>
      </trkpt>
      <trkpt lat="46.09884" lon="11.11673">
        <ele>234.667323</ele>
        <time>2023-04-19T11:38:32.759Z</time>
      </trkpt>
      <trkpt lat="46.09885" lon="11.11688">
        <ele>234.603456</ele>
        <time>2023-04-19T11:38:37.764Z</time>
      </trkpt>
      <trkpt lat="46.09886" lon="11.11701">
        <ele>234.550158</ele>
        <time>2023-04-19T11:38:42.736Z</time>
      </trkpt>
      <trkpt lat="46.09888" lon="11.11717">
        <ele>234.485977</ele>
        <time>2023-04-19T11:38:46.745Z</time>
      </trkpt>
      <trkpt lat="46.09889" lon="11.11733">
        <ele>234.419141</ele>
        <time>2023-04-19T11:38:49.750Z</time>
      </trkpt>
      <trkpt lat="46.09891" lon="11.11748">
        <ele>234.357338</ele>
        <time>2023-04-19T11:38:52.756Z</time>
      </trkpt>
      <trkpt lat="46.09888" lon="11.11764">
        <ele>234.289125</ele>
        <time>2023-04-19T11:38:56.742Z</time>
      </trkpt>
      <trkpt lat="46.0988" lon="11.1177">
        <ele>234.23463</ele>
        <time>2023-04-19T11:38:59.740Z</time>
      </trkpt>
      <trkpt lat="46.09869" lon="11.11773">
        <ele>234.173728</ele>
        <time>2023-04-19T11:39:02.739Z</time>
      </trkpt>
      <trkpt lat="46.09861" lon="11.11782">
        <ele>234.113429</ele>
        <time>2023-04-19T11:39:06.756Z</time>
      </trkpt>
      <trkpt lat="46.09868" lon="11.11791">
        <ele>234.059499</ele>
        <time>2023-04-19T11:39:12.740Z</time>
      </trkpt>
      <trkpt lat="46.09877" lon="11.11793">
        <ele>234.004485</ele>
        <time>2023-04-19T11:39:18.747Z</time>
      </trkpt>
      <trkpt lat="46.09888" lon="11.11788">
        <ele>233.933302</ele>
        <time>2023-04-19T11:39:22.748Z</time>
      </trkpt>
      <trkpt lat="46.09898" lon="11.11782">
        <ele>233.871122</ele>
        <time>2023-04-19T11:39:26.741Z</time>
      </trkpt>
      <trkpt lat="46.09911" lon="11.11779">
        <ele>233.793935</ele>
        <time>2023-04-19T11:39:30.758Z</time>
      </trkpt>
      <trkpt lat="46.0992" lon="11.11776">
        <ele>233.737836</ele>
        <time>2023-04-19T11:39:32.752Z</time>
      </trkpt>
      <trkpt lat="46.09929" lon="11.11771">
        <ele>233.683081</ele>
        <time>2023-04-19T11:39:34.756Z</time>
      </trkpt>
      <trkpt lat="46.09941" lon="11.11768">
        <ele>233.558819</ele>
        <time>2023-04-19T11:39:37.749Z</time>
      </trkpt>
      <trkpt lat="46.09953" lon="11.11765">
        <ele>233.339598</ele>
        <time>2023-04-19T11:39:40.763Z</time>
      </trkpt>
      <trkpt lat="46.09966" lon="11.11759">
        <ele>233.104139</ele>
        <time>2023-04-19T11:39:43.748Z</time>
      </trkpt>
      <trkpt lat="46.09977" lon="11.11748">
        <ele>232.868119</ele>
        <time>2023-04-19T11:39:46.749Z</time>
      </trkpt>
      <trkpt lat="46.09985" lon="11.11743">
        <ele>232.707269</ele>
        <time>2023-04-19T11:39:48.746Z</time>
      </trkpt>
      <trkpt lat="46.09995" lon="11.11738">
        <ele>232.522399</ele>
        <time>2023-04-19T11:39:50.741Z</time>
      </trkpt>
      <trkpt lat="46.10005" lon="11.11733">
        <ele>232.346417</ele>
        <time>2023-04-19T11:39:52.735Z</time>
      </trkpt>
      <trkpt lat="46.10015" lon="11.11729">
        <ele>232.165939</ele>
        <time>2023-04-19T11:39:54.745Z</time>
      </trkpt>
      <trkpt lat="46.10024" lon="11.11724">
        <ele>231.982969</ele>
        <time>2023-04-19T11:39:56.742Z</time>
      </trkpt>
      <trkpt lat="46.10034" lon="11.11719">
        <ele>231.804924</ele>
        <time>2023-04-19T11:39:58.739Z</time>
      </trkpt>
      <trkpt lat="46.10046" lon="11.11717">
        <ele>231.584274</ele>
        <time>2023-04-19T11:40:01.746Z</time>
      </trkpt>
      <trkpt lat="46.10057" lon="11.11717">
        <ele>231.402029</ele>
        <time>2023-04-19T11:40:04.732Z</time>
      </trkpt>
      <trkpt lat="46.10068" lon="11.11722">
        <ele>231.204947</ele>
        <time>2023-04-19T11:40:07.740Z</time>
      </trkpt>
      <trkpt lat="46.10075" lon="11.11731">
        <ele>231.034277</ele>
        <time>2023-04-19T11:40:10.761Z</time>
      </trkpt>
      <trkpt lat="46.10086" lon="11.11723">
        <ele>230.807851</ele>
        <time>2023-04-19T11:40:13.765Z</time>
      </trkpt>
      <trkpt lat="46.10097" lon="11.11713">
        <ele>230.579806</ele>
        <time>2023-04-19T11:40:16.760Z</time>
      </trkpt>
      <trkpt lat="46.10109" lon="11.11704">
        <ele>230.453134</ele>
        <time>2023-04-19T11:40:19.763Z</time>
      </trkpt>
      <trkpt lat="46.10121" lon="11.11695">
        <ele>230.396292</ele>
        <time>2023-04-19T11:40:22.760Z</time>
      </trkpt>
      <trkpt lat="46.10133" lon="11.11687">
        <ele>230.339694</ele>
        <time>2023-04-19T11:40:25.746Z</time>
      </trkpt>
      <trkpt lat="46.10141" lon="11.11682">
        <ele>230.299885</ele>
        <time>2023-04-19T11:40:27.756Z</time>
      </trkpt>
      <trkpt lat="46.1015" lon="11.11676">
        <ele>230.258965</ele>
        <time>2023-04-19T11:40:29.751Z</time>
      </trkpt>
      <trkpt lat="46.10158" lon="11.1167">
        <ele>230.220469</ele>
        <time>2023-04-19T11:40:31.742Z</time>
      </trkpt>
      <trkpt lat="46.10169" lon="11.11662">
        <ele>230.166937</ele>
        <time>2023-04-19T11:40:34.769Z</time>
      </trkpt>
      <trkpt lat="46.10178" lon="11.11654">
        <ele>230.125333</ele>
        <time>2023-04-19T11:40:36.732Z</time>
      </trkpt>
      <trkpt lat="46.10187" lon="11.11648">
        <ele>230.081873</ele>
        <time>2023-04-19T11:40:38.747Z</time>
      </trkpt>
      <trkpt lat="46.10196" lon="11.11641">
        <ele>230.038151</ele>
        <time>2023-04-19T11:40:40.744Z</time>
      </trkpt>
      <trkpt lat="46.10205" lon="11.11635">
        <ele>229.996474</ele>
        <time>2023-04-19T11:40:42.755Z</time>
      </trkpt>
      <trkpt lat="46.10218" lon="11.1163">
        <ele>229.940305</ele>
        <time>2023-04-19T11:40:45.754Z</time>
      </trkpt>
      <trkpt lat="46.10227" lon="11.11626">
        <ele>229.900604</ele>
        <time>2023-04-19T11:40:47.762Z</time>
      </trkpt>
      <trkpt lat="46.10236" lon="11.11622">
        <ele>229.859598</ele>
        <time>2023-04-19T11:40:49.751Z</time>
      </trkpt>
      <trkpt lat="46.10246" lon="11.11619">
        <ele>229.818486</ele>
        <time>2023-04-19T11:40:51.747Z</time>
      </trkpt>
      <trkpt lat="46.10256" lon="11.11615">
        <ele>229.77469</ele>
        <time>2023-04-19T11:40:53.748Z</time>
      </trkpt>
      <trkpt lat="46.10265" lon="11.11611">
        <ele>229.732132</ele>
        <time>2023-04-19T11:40:55.779Z</time>
      </trkpt>
      <trkpt lat="46.10275" lon="11.11607">
        <ele>229.721478</ele>
        <time>2023-04-19T11:40:57.775Z</time>
      </trkpt>
      <trkpt lat="46.10284" lon="11.11603">
        <ele>229.720818</ele>
        <time>2023-04-19T11:40:59.753Z</time>
      </trkpt>
      <trkpt lat="46.10293" lon="11.11599">
        <ele>229.720207</ele>
        <time>2023-04-19T11:41:01.747Z</time>
      </trkpt>
      <trkpt lat="46.10304" lon="11.11594">
        <ele>229.719431</ele>
        <time>2023-04-19T11:41:04.749Z</time>
      </trkpt>
      <trkpt lat="46.10311" lon="11.11582">
        <ele>229.718733</ele>
        <time>2023-04-19T11:41:08.749Z</time>
      </trkpt>
      <trkpt lat="46.10321" lon="11.11578">
        <ele>229.718043</ele>
        <time>2023-04-19T11:41:13.744Z</time>
      </trkpt>
      <trkpt lat="46.10334" lon="11.11577">
        <ele>229.717195</ele>
        <time>2023-04-19T11:41:16.756Z</time>
      </trkpt>
      <trkpt lat="46.10347" lon="11.11577">
        <ele>229.716303</ele>
        <time>2023-04-19T11:41:19.763Z</time>
      </trkpt>
      <trkpt lat="46.10357" lon="11.11578">
        <ele>229.715648</ele>
        <time>2023-04-19T11:41:21.741Z</time>
      </trkpt>
      <trkpt lat="46.10367" lon="11.11578">
        <ele>229.715013</ele>
        <time>2023-04-19T11:41:23.764Z</time>
      </trkpt>
      <trkpt lat="46.10376" lon="11.11578">
        <ele>229.714405</ele>
        <time>2023-04-19T11:41:25.758Z</time>
      </trkpt>
      <trkpt lat="46.10386" lon="11.11578">
        <ele>229.713778</ele>
        <time>2023-04-19T11:41:27.745Z</time>
      </trkpt>
      <trkpt lat="46.10395" lon="11.11577">
        <ele>229.713134</ele>
        <time>2023-04-19T11:41:29.745Z</time>
      </trkpt>
      <trkpt lat="46.10405" lon="11.11575">
        <ele>229.712481</ele>
        <time>2023-04-19T11:41:31.734Z</time>
      </trkpt>
      <trkpt lat="46.10415" lon="11.11572">
        <ele>229.711814</ele>
        <time>2023-04-19T11:41:33.731Z</time>
      </trkpt>
      <trkpt lat="46.10424" lon="11.11568">
        <ele>229.711192</ele>
        <time>2023-04-19T11:41:35.753Z</time>
      </trkpt>
      <trkpt lat="46.10432" lon="11.11563">
        <ele>229.710597</ele>
        <time>2023-04-19T11:41:37.728Z</time>
      </trkpt>
      <trkpt lat="46.10444" lon="11.11556">
        <ele>229.84038</ele>
        <time>2023-04-19T11:41:40.772Z</time>
      </trkpt>
      <trkpt lat="46.10457" lon="11.11551">
        <ele>230.15849</ele>
        <time>2023-04-19T11:41:43.750Z</time>
      </trkpt>
      <trkpt lat="46.10469" lon="11.11545">
        <ele>230.464387</ele>
        <time>2023-04-19T11:41:46.750Z</time>
      </trkpt>
      <trkpt lat="46.10479" lon="11.11545">
        <ele>230.711725</ele>
        <time>2023-04-19T11:41:49.740Z</time>
      </trkpt>
      <trkpt lat="46.10489" lon="11.11553">
        <ele>231.012908</ele>
        <time>2023-04-19T11:41:52.746Z</time>
      </trkpt>
      <trkpt lat="46.10497" lon="11.1156">
        <ele>231.231347</ele>
        <time>2023-04-19T11:41:54.730Z</time>
      </trkpt>
      <trkpt lat="46.10509" lon="11.11567">
        <ele>231.549955</ele>
        <time>2023-04-19T11:41:57.753Z</time>
      </trkpt>
      <trkpt lat="46.10518" lon="11.11565">
        <ele>231.771689</ele>
        <time>2023-04-19T11:41:59.745Z</time>
      </trkpt>
      <trkpt lat="46.10531" lon="11.11561">
        <ele>232.094658</ele>
        <time>2023-04-19T11:42:02.743Z</time>
      </trkpt>
      <trkpt lat="46.10543" lon="11.11556">
        <ele>232.398268</ele>
        <time>2023-04-19T11:42:05.783Z</time>
      </trkpt>
      <trkpt lat="46.10554" lon="11.11552">
        <ele>232.677392</ele>
        <time>2023-04-19T11:42:08.749Z</time>
      </trkpt>
      <trkpt lat="46.10565" lon="11.11545">
        <ele>232.970968</ele>
        <time>2023-04-19T11:42:11.742Z</time>
      </trkpt>
      <trkpt lat="46.10572" lon="11.11535">
        <ele>233.213039</ele>
        <time>2023-04-19T11:42:14.753Z</time>
      </trkpt>
      <trkpt lat="46.10582" lon="11.11532">
        <ele>233.464261</ele>
        <time>2023-04-19T11:42:18.738Z</time>
      </trkpt>
      <trkpt lat="46.1059" lon="11.1154">
        <ele>233.702286</ele>
        <time>2023-04-19T11:42:21.742Z</time>
      </trkpt>
      <trkpt lat="46.106" lon="11.11537">
        <ele>233.963038</ele>
        <time>2023-04-19T11:42:25.774Z</time>
      </trkpt>
      <trkpt lat="46.106" lon="11.11524">
        <ele>234.21544</ele>
        <time>2023-04-19T11:42:29.749Z</time>
      </trkpt>
      <trkpt lat="46.10605" lon="11.11512">
        <ele>234.54457</ele>
        <time>2023-04-19T11:42:33.744Z</time>
      </trkpt>
      <trkpt lat="46.1061" lon="11.11524">
        <ele>234.874325</ele>
        <time>2023-04-19T11:42:40.748Z</time>
      </trkpt>
      <trkpt lat="46.10616" lon="11.11534">
        <ele>235.177256</ele>
        <time>2023-04-19T11:42:54.745Z</time>
      </trkpt>
      <trkpt lat="46.10625" lon="11.11529">
        <ele>235.504924</ele>
        <time>2023-04-19T11:42:58.749Z</time>
      </trkpt>
      <trkpt lat="46.10631" lon="11.11519">
        <ele>235.819571</ele>
        <time>2023-04-19T11:43:01.750Z</time>
      </trkpt>
      <trkpt lat="46.10639" lon="11.11506">
        <ele>236.199831</ele>
        <time>2023-04-19T11:43:04.756Z</time>
      </trkpt>
      <trkpt lat="46.10647" lon="11.11493">
        <ele>236.607411</ele>
        <time>2023-04-19T11:43:07.741Z</time>
      </trkpt>
      <trkpt lat="46.10655" lon="11.1148">
        <ele>236.993603</ele>
        <time>2023-04-19T11:43:10.760Z</time>
      </trkpt>
      <trkpt lat="46.10662" lon="11.11466">
        <ele>237.384813</ele>
        <time>2023-04-19T11:43:13.749Z</time>
      </trkpt>
      <trkpt lat="46.10669" lon="11.11452">
        <ele>237.787099</ele>
        <time>2023-04-19T11:43:16.738Z</time>
      </trkpt>
      <trkpt lat="46.10676" lon="11.11438">
        <ele>238.180143</ele>
        <time>2023-04-19T11:43:19.767Z</time>
      </trkpt>
      <trkpt lat="46.10683" lon="11.11425">
        <ele>238.563747</ele>
        <time>2023-04-19T11:43:22.748Z</time>
      </trkpt>
      <trkpt lat="46.1069" lon="11.11411">
        <ele>238.961204</ele>
        <time>2023-04-19T11:43:25.764Z</time>
      </trkpt>
      <trkpt lat="46.10699" lon="11.11398">
        <ele>239.371005</ele>
        <time>2023-04-19T11:43:28.766Z</time>
      </trkpt>
      <trkpt lat="46.10705" lon="11.11383">
        <ele>239.771456</ele>
        <time>2023-04-19T11:43:31.743Z</time>
      </trkpt>
      <trkpt lat="46.10712" lon="11.11369">
        <ele>240.048208</ele>
        <time>2023-04-19T11:43:34.762Z</time>
      </trkpt>
      <trkpt lat="46.10719" lon="11.11356">
        <ele>240.068066</ele>
        <time>2023-04-19T11:43:37.751Z</time>
      </trkpt>
      <trkpt lat="46.10724" lon="11.1134">
        <ele>240.088035</ele>
        <time>2023-04-19T11:43:40.746Z</time>
      </trkpt>
      <trkpt lat="46.10722" lon="11.11323">
        <ele>240.107999</ele>
        <time>2023-04-19T11:43:43.740Z</time>
      </trkpt>
      <trkpt lat="46.10718" lon="11.11307">
        <ele>240.128925</ele>
        <time>2023-04-19T11:43:46.747Z</time>
      </trkpt>
      <trkpt lat="46.10714" lon="11.11291">
        <ele>240.148848</ele>
        <time>2023-04-19T11:43:49.755Z</time>
      </trkpt>
      <trkpt lat="46.1071" lon="11.11276">
        <ele>240.167546</ele>
        <time>2023-04-19T11:43:52.747Z</time>
      </trkpt>
      <trkpt lat="46.10706" lon="11.11261">
        <ele>240.18571</ele>
        <time>2023-04-19T11:43:55.761Z</time>
      </trkpt>
      <trkpt lat="46.10703" lon="11.11245">
        <ele>240.205533</ele>
        <time>2023-04-19T11:43:58.768Z</time>
      </trkpt>
      <trkpt lat="46.107" lon="11.11229">
        <ele>240.224876</ele>
        <time>2023-04-19T11:44:01.753Z</time>
      </trkpt>
      <trkpt lat="46.10703" lon="11.11213">
        <ele>240.244736</ele>
        <time>2023-04-19T11:44:04.742Z</time>
      </trkpt>
      <trkpt lat="46.10713" lon="11.11202">
        <ele>240.266527</ele>
        <time>2023-04-19T11:44:07.751Z</time>
      </trkpt>
      <trkpt lat="46.10726" lon="11.11198">
        <ele>240.287729</ele>
        <time>2023-04-19T11:44:10.745Z</time>
      </trkpt>
      <trkpt lat="46.10738" lon="11.11194">
        <ele>240.308821</ele>
        <time>2023-04-19T11:44:13.754Z</time>
      </trkpt>
      <trkpt lat="46.10749" lon="11.1119">
        <ele>240.329363</ele>
        <time>2023-04-19T11:44:16.758Z</time>
      </trkpt>
      <trkpt lat="46.10762" lon="11.11186">
        <ele>240.322231</ele>
        <time>2023-04-19T11:44:19.735Z</time>
      </trkpt>
      <trkpt lat="46.10775" lon="11.11183">
        <ele>240.171986</ele>
        <time>2023-04-19T11:44:22.744Z</time>
      </trkpt>
      <trkpt lat="46.10787" lon="11.11179">
        <ele>240.028233</ele>
        <time>2023-04-19T11:44:25.758Z</time>
      </trkpt>
      <trkpt lat="46.10799" lon="11.11176">
        <ele>239.887513</ele>
        <time>2023-04-19T11:44:28.765Z</time>
      </trkpt>
      <trkpt lat="46.10812" lon="11.11173">
        <ele>239.737533</ele>
        <time>2023-04-19T11:44:31.750Z</time>
      </trkpt>
      <trkpt lat="46.10823" lon="11.11169">
        <ele>239.602371</ele>
        <time>2023-04-19T11:44:34.763Z</time>
      </trkpt>
      <trkpt lat="46.10834" lon="11.11166">
        <ele>239.475079</ele>
        <time>2023-04-19T11:44:37.762Z</time>
      </trkpt>
      <trkpt lat="46.10846" lon="11.11164">
        <ele>239.332673</ele>
        <time>2023-04-19T11:44:40.754Z</time>
      </trkpt>
      <trkpt lat="46.10856" lon="11.1116">
        <ele>239.211032</ele>
        <time>2023-04-19T11:44:43.746Z</time>
      </trkpt>
      <trkpt lat="46.10868" lon="11.11157">
        <ele>239.073631</ele>
        <time>2023-04-19T11:44:46.765Z</time>
      </trkpt>
      <trkpt lat="46.10878" lon="11.11152">
        <ele>238.94628</ele>
        <time>2023-04-19T11:44:49.764Z</time>
      </trkpt>
      <trkpt lat="46.10889" lon="11.11146">
        <ele>238.813164</ele>
        <time>2023-04-19T11:44:52.753Z</time>
      </trkpt>
      <trkpt lat="46.10897" lon="11.11139">
        <ele>238.707483</ele>
        <time>2023-04-19T11:44:55.739Z</time>
      </trkpt>
      <trkpt lat="46.10905" lon="11.11134">
        <ele>238.602176</ele>
        <time>2023-04-19T11:45:01.739Z</time>
      </trkpt>
      <trkpt lat="46.10914" lon="11.11126">
        <ele>238.478725</ele>
        <time>2023-04-19T11:45:07.743Z</time>
      </trkpt>
      <trkpt lat="46.10924" lon="11.11118">
        <ele>238.347738</ele>
        <time>2023-04-19T11:45:10.762Z</time>
      </trkpt>
      <trkpt lat="46.10936" lon="11.11108">
        <ele>238.22324</ele>
        <time>2023-04-19T11:45:13.772Z</time>
      </trkpt>
      <trkpt lat="46.10944" lon="11.111">
        <ele>238.159787</ele>
        <time>2023-04-19T11:45:15.776Z</time>
      </trkpt>
      <trkpt lat="46.10953" lon="11.1109">
        <ele>238.090319</ele>
        <time>2023-04-19T11:45:17.742Z</time>
      </trkpt>
      <trkpt lat="46.10961" lon="11.1108">
        <ele>238.017786</ele>
        <time>2023-04-19T11:45:19.748Z</time>
      </trkpt>
      <trkpt lat="46.10969" lon="11.1107">
        <ele>237.949368</ele>
        <time>2023-04-19T11:45:21.738Z</time>
      </trkpt>
      <trkpt lat="46.10978" lon="11.11061">
        <ele>237.879381</ele>
        <time>2023-04-19T11:45:23.738Z</time>
      </trkpt>
      <trkpt lat="46.10987" lon="11.11051">
        <ele>237.807041</ele>
        <time>2023-04-19T11:45:25.774Z</time>
      </trkpt>
      <trkpt lat="46.10996" lon="11.11043">
        <ele>237.738715</ele>
        <time>2023-04-19T11:45:27.763Z</time>
      </trkpt>
      <trkpt lat="46.11005" lon="11.11036">
        <ele>237.674672</ele>
        <time>2023-04-19T11:45:29.764Z</time>
      </trkpt>
      <trkpt lat="46.11013" lon="11.11029">
        <ele>237.611919</ele>
        <time>2023-04-19T11:45:31.741Z</time>
      </trkpt>
      <trkpt lat="46.11022" lon="11.11021">
        <ele>237.54469</ele>
        <time>2023-04-19T11:45:33.770Z</time>
      </trkpt>
      <trkpt lat="46.11031" lon="11.11012">
        <ele>237.475407</ele>
        <time>2023-04-19T11:45:35.732Z</time>
      </trkpt>
      <trkpt lat="46.11039" lon="11.11005">
        <ele>237.412369</ele>
        <time>2023-04-19T11:45:37.761Z</time>
      </trkpt>
      <trkpt lat="46.11047" lon="11.10997">
        <ele>237.347559</ele>
        <time>2023-04-19T11:45:39.752Z</time>
      </trkpt>
      <trkpt lat="46.11057" lon="11.10994">
        <ele>237.283099</ele>
        <time>2023-04-19T11:45:41.749Z</time>
      </trkpt>
      <trkpt lat="46.11069" lon="11.10985">
        <ele>237.198053</ele>
        <time>2023-04-19T11:45:44.737Z</time>
      </trkpt>
      <trkpt lat="46.11077" lon="11.10979">
        <ele>237.137864</ele>
        <time>2023-04-19T11:45:46.763Z</time>
      </trkpt>
      <trkpt lat="46.11086" lon="11.10975">
        <ele>237.099345</ele>
        <time>2023-04-19T11:45:48.744Z</time>
      </trkpt>
      <trkpt lat="46.11095" lon="11.1097">
        <ele>237.088939</ele>
        <time>2023-04-19T11:45:50.746Z</time>
      </trkpt>
      <trkpt lat="46.11103" lon="11.10965">
        <ele>237.078506</ele>
        <time>2023-04-19T11:45:52.748Z</time>
      </trkpt>
      <trkpt lat="46.11115" lon="11.10957">
        <ele>237.063796</ele>
        <time>2023-04-19T11:45:55.745Z</time>
      </trkpt>
      <trkpt lat="46.11126" lon="11.10951">
        <ele>237.050011</ele>
        <time>2023-04-19T11:45:58.755Z</time>
      </trkpt>
      <trkpt lat="46.11137" lon="11.10944">
        <ele>237.035888</ele>
        <time>2023-04-19T11:46:01.751Z</time>
      </trkpt>
      <trkpt lat="46.11149" lon="11.10936">
        <ele>237.021511</ele>
        <time>2023-04-19T11:46:04.749Z</time>
      </trkpt>
      <trkpt lat="46.1116" lon="11.1093">
        <ele>237.00783</ele>
        <time>2023-04-19T11:46:07.760Z</time>
      </trkpt>
      <trkpt lat="46.1117" lon="11.10922">
        <ele>236.994364</ele>
        <time>2023-04-19T11:46:10.722Z</time>
      </trkpt>
      <trkpt lat="46.11179" lon="11.10918">
        <ele>236.984008</ele>
        <time>2023-04-19T11:46:12.752Z</time>
      </trkpt>
      <trkpt lat="46.11187" lon="11.10912">
        <ele>236.973122</ele>
        <time>2023-04-19T11:46:14.762Z</time>
      </trkpt>
      <trkpt lat="46.11196" lon="11.10906">
        <ele>236.962072</ele>
        <time>2023-04-19T11:46:16.738Z</time>
      </trkpt>
      <trkpt lat="46.11204" lon="11.10899">
        <ele>236.951261</ele>
        <time>2023-04-19T11:46:18.742Z</time>
      </trkpt>
      <trkpt lat="46.11216" lon="11.10888">
        <ele>236.934682</ele>
        <time>2023-04-19T11:46:21.728Z</time>
      </trkpt>
      <trkpt lat="46.11225" lon="11.1088">
        <ele>236.922834</ele>
        <time>2023-04-19T11:46:23.735Z</time>
      </trkpt>
      <trkpt lat="46.11234" lon="11.10872">
        <ele>236.910879</ele>
        <time>2023-04-19T11:46:25.750Z</time>
      </trkpt>
      <trkpt lat="46.11241" lon="11.10863">
        <ele>236.900046</ele>
        <time>2023-04-19T11:46:27.752Z</time>
      </trkpt>
      <trkpt lat="46.11249" lon="11.10856">
        <ele>236.987422</ele>
        <time>2023-04-19T11:46:29.755Z</time>
      </trkpt>
      <trkpt lat="46.11257" lon="11.1085">
        <ele>237.109228</ele>
        <time>2023-04-19T11:46:31.743Z</time>
      </trkpt>
      <trkpt lat="46.11266" lon="11.10842">
        <ele>237.232407</ele>
        <time>2023-04-19T11:46:33.758Z</time>
      </trkpt>
      <trkpt lat="46.11274" lon="11.10835">
        <ele>237.347058</ele>
        <time>2023-04-19T11:46:35.753Z</time>
      </trkpt>
      <trkpt lat="46.11282" lon="11.10827">
        <ele>237.468155</ele>
        <time>2023-04-19T11:46:37.750Z</time>
      </trkpt>
      <trkpt lat="46.1129" lon="11.10819">
        <ele>237.589174</ele>
        <time>2023-04-19T11:46:39.823Z</time>
      </trkpt>
      <trkpt lat="46.11298" lon="11.10811">
        <ele>237.708872</ele>
        <time>2023-04-19T11:46:41.754Z</time>
      </trkpt>
      <trkpt lat="46.11306" lon="11.10803">
        <ele>237.828475</ele>
        <time>2023-04-19T11:46:43.761Z</time>
      </trkpt>
      <trkpt lat="46.11315" lon="11.10797">
        <ele>237.948916</ele>
        <time>2023-04-19T11:46:45.741Z</time>
      </trkpt>
      <trkpt lat="46.11323" lon="11.10789">
        <ele>238.066005</ele>
        <time>2023-04-19T11:46:47.751Z</time>
      </trkpt>
      <trkpt lat="46.11331" lon="11.10782">
        <ele>238.179422</ele>
        <time>2023-04-19T11:46:49.752Z</time>
      </trkpt>
      <trkpt lat="46.11339" lon="11.10775">
        <ele>238.292839</ele>
        <time>2023-04-19T11:46:51.745Z</time>
      </trkpt>
      <trkpt lat="46.1135" lon="11.10766">
        <ele>238.452833</ele>
        <time>2023-04-19T11:46:54.758Z</time>
      </trkpt>
      <trkpt lat="46.1136" lon="11.10756">
        <ele>238.604596</ele>
        <time>2023-04-19T11:46:57.749Z</time>
      </trkpt>
      <trkpt lat="46.11372" lon="11.10749">
        <ele>238.754412</ele>
        <time>2023-04-19T11:47:00.756Z</time>
      </trkpt>
      <trkpt lat="46.11383" lon="11.10742">
        <ele>238.904998</ele>
        <time>2023-04-19T11:47:03.791Z</time>
      </trkpt>
      <trkpt lat="46.11393" lon="11.10732">
        <ele>239.053776</ele>
        <time>2023-04-19T11:47:06.749Z</time>
      </trkpt>
      <trkpt lat="46.11403" lon="11.10738">
        <ele>239.16051</ele>
        <time>2023-04-19T11:47:10.757Z</time>
      </trkpt>
      <trkpt lat="46.11412" lon="11.10745">
        <ele>239.248734</ele>
        <time>2023-04-19T11:47:16.757Z</time>
      </trkpt>
      <trkpt lat="46.11416" lon="11.10731">
        <ele>239.340745</ele>
        <time>2023-04-19T11:47:22.746Z</time>
      </trkpt>
      <trkpt lat="46.11427" lon="11.10728">
        <ele>239.433569</ele>
        <time>2023-04-19T11:47:26.740Z</time>
      </trkpt>
      <trkpt lat="46.1144" lon="11.1073">
        <ele>239.549675</ele>
        <time>2023-04-19T11:47:29.745Z</time>
      </trkpt>
      <trkpt lat="46.1145" lon="11.10735">
        <ele>239.640573</ele>
        <time>2023-04-19T11:47:31.749Z</time>
      </trkpt>
      <trkpt lat="46.1146" lon="11.10741">
        <ele>239.732994</ele>
        <time>2023-04-19T11:47:33.730Z</time>
      </trkpt>
      <trkpt lat="46.1147" lon="11.10746">
        <ele>239.826948</ele>
        <time>2023-04-19T11:47:35.759Z</time>
      </trkpt>
      <trkpt lat="46.11482" lon="11.10747">
        <ele>239.929945</ele>
        <time>2023-04-19T11:47:38.735Z</time>
      </trkpt>
      <trkpt lat="46.11504" lon="11.10742">
        <ele>240.121964</ele>
        <time>2023-04-19T11:47:42.750Z</time>
      </trkpt>
      <trkpt lat="46.11511" lon="11.10733">
        <ele>240.205837</ele>
        <time>2023-04-19T11:47:46.746Z</time>
      </trkpt>
      <trkpt lat="46.1152" lon="11.10736">
        <ele>240.292904</ele>
        <time>2023-04-19T11:47:49.764Z</time>
      </trkpt>
      <trkpt lat="46.1153" lon="11.10737">
        <ele>240.37874</ele>
        <time>2023-04-19T11:47:52.747Z</time>
      </trkpt>
      <trkpt lat="46.11541" lon="11.10738">
        <ele>240.475534</ele>
        <time>2023-04-19T11:47:55.754Z</time>
      </trkpt>
      <trkpt lat="46.11551" lon="11.10739">
        <ele>240.557613</ele>
        <time>2023-04-19T11:47:58.746Z</time>
      </trkpt>
      <trkpt lat="46.11563" lon="11.10739">
        <ele>240.663793</ele>
        <time>2023-04-19T11:48:02.755Z</time>
      </trkpt>
      <trkpt lat="46.11574" lon="11.1074">
        <ele>240.974756</ele>
        <time>2023-04-19T11:48:05.734Z</time>
      </trkpt>
      <trkpt lat="46.11586" lon="11.10741">
        <ele>241.341471</ele>
        <time>2023-04-19T11:48:08.751Z</time>
      </trkpt>
      <trkpt lat="46.11598" lon="11.10743">
        <ele>241.714504</ele>
        <time>2023-04-19T11:48:11.740Z</time>
      </trkpt>
      <trkpt lat="46.11609" lon="11.10747">
        <ele>242.08414</ele>
        <time>2023-04-19T11:48:14.752Z</time>
      </trkpt>
      <trkpt lat="46.11621" lon="11.10752">
        <ele>242.443928</ele>
        <time>2023-04-19T11:48:17.760Z</time>
      </trkpt>
      <trkpt lat="46.11632" lon="11.10757">
        <ele>242.802045</ele>
        <time>2023-04-19T11:48:20.755Z</time>
      </trkpt>
      <trkpt lat="46.11641" lon="11.10763">
        <ele>243.100083</ele>
        <time>2023-04-19T11:48:23.763Z</time>
      </trkpt>
      <trkpt lat="46.11649" lon="11.1077">
        <ele>243.391449</ele>
        <time>2023-04-19T11:48:26.741Z</time>
      </trkpt>
      <trkpt lat="46.11657" lon="11.10776">
        <ele>243.67052</ele>
        <time>2023-04-19T11:48:29.764Z</time>
      </trkpt>
      <trkpt lat="46.11664" lon="11.10784">
        <ele>243.948604</ele>
        <time>2023-04-19T11:48:32.749Z</time>
      </trkpt>
      <trkpt lat="46.11673" lon="11.10794">
        <ele>244.299</ele>
        <time>2023-04-19T11:48:36.774Z</time>
      </trkpt>
      <trkpt lat="46.11681" lon="11.10802">
        <ele>244.595718</ele>
        <time>2023-04-19T11:48:40.757Z</time>
      </trkpt>
      <trkpt lat="46.11691" lon="11.108">
        <ele>244.901731</ele>
        <time>2023-04-19T11:48:45.770Z</time>
      </trkpt>
      <trkpt lat="46.117" lon="11.10791">
        <ele>245.238375</ele>
        <time>2023-04-19T11:48:49.745Z</time>
      </trkpt>
      <trkpt lat="46.11712" lon="11.10788">
        <ele>245.617806</ele>
        <time>2023-04-19T11:48:53.746Z</time>
      </trkpt>
      <trkpt lat="46.11725" lon="11.10788">
        <ele>246.002362</ele>
        <time>2023-04-19T11:48:56.764Z</time>
      </trkpt>
      <trkpt lat="46.11734" lon="11.10789">
        <ele>246.196428</ele>
        <time>2023-04-19T11:48:58.769Z</time>
      </trkpt>
      <trkpt lat="46.11744" lon="11.1079">
        <ele>246.17694</ele>
        <time>2023-04-19T11:49:00.763Z</time>
      </trkpt>
      <trkpt lat="46.11755" lon="11.1079">
        <ele>246.157085</ele>
        <time>2023-04-19T11:49:02.764Z</time>
      </trkpt>
      <trkpt lat="46.11766" lon="11.10791">
        <ele>246.136102</ele>
        <time>2023-04-19T11:49:04.755Z</time>
      </trkpt>
      <trkpt lat="46.11777" lon="11.10792">
        <ele>246.114565</ele>
        <time>2023-04-19T11:49:06.755Z</time>
      </trkpt>
      <trkpt lat="46.11789" lon="11.10792">
        <ele>246.092858</ele>
        <time>2023-04-19T11:49:08.757Z</time>
      </trkpt>
      <trkpt lat="46.118" lon="11.10792">
        <ele>246.071707</ele>
        <time>2023-04-19T11:49:10.759Z</time>
      </trkpt>
      <trkpt lat="46.11812" lon="11.10793">
        <ele>246.050179</ele>
        <time>2023-04-19T11:49:12.755Z</time>
      </trkpt>
      <trkpt lat="46.11823" lon="11.10794">
        <ele>246.029165</ele>
        <time>2023-04-19T11:49:14.751Z</time>
      </trkpt>
      <trkpt lat="46.11835" lon="11.10795">
        <ele>246.007428</ele>
        <time>2023-04-19T11:49:16.773Z</time>
      </trkpt>
      <trkpt lat="46.11845" lon="11.10796">
        <ele>245.987396</ele>
        <time>2023-04-19T11:49:18.753Z</time>
      </trkpt>
      <trkpt lat="46.11857" lon="11.10797">
        <ele>245.966204</ele>
        <time>2023-04-19T11:49:20.764Z</time>
      </trkpt>
      <trkpt lat="46.11868" lon="11.10798">
        <ele>245.94502</ele>
        <time>2023-04-19T11:49:22.751Z</time>
      </trkpt>
      <trkpt lat="46.11879" lon="11.10799">
        <ele>245.923445</ele>
        <time>2023-04-19T11:49:24.764Z</time>
      </trkpt>
      <trkpt lat="46.11891" lon="11.10799">
        <ele>245.902675</ele>
        <time>2023-04-19T11:49:26.754Z</time>
      </trkpt>
      <trkpt lat="46.11902" lon="11.10799">
        <ele>245.881714</ele>
        <time>2023-04-19T11:49:28.767Z</time>
      </trkpt>
      <trkpt lat="46.11913" lon="11.108">
        <ele>245.868086</ele>
        <time>2023-04-19T11:49:30.736Z</time>
      </trkpt>
      <trkpt lat="46.11923" lon="11.10801">
        <ele>245.886082</ele>
        <time>2023-04-19T11:49:32.758Z</time>
      </trkpt>
      <trkpt lat="46.11934" lon="11.10802">
        <ele>245.903458</ele>
        <time>2023-04-19T11:49:34.750Z</time>
      </trkpt>
      <trkpt lat="46.11943" lon="11.10808">
        <ele>245.920378</ele>
        <time>2023-04-19T11:49:36.757Z</time>
      </trkpt>
      <trkpt lat="46.11951" lon="11.10815">
        <ele>245.936491</ele>
        <time>2023-04-19T11:49:38.745Z</time>
      </trkpt>
      <trkpt lat="46.1196" lon="11.10817">
        <ele>245.952082</ele>
        <time>2023-04-19T11:49:40.756Z</time>
      </trkpt>
      <trkpt lat="46.1197" lon="11.10819">
        <ele>245.968286</ele>
        <time>2023-04-19T11:49:42.742Z</time>
      </trkpt>
      <trkpt lat="46.1198" lon="11.10821">
        <ele>245.984536</ele>
        <time>2023-04-19T11:49:44.755Z</time>
      </trkpt>
      <trkpt lat="46.11989" lon="11.10823">
        <ele>246.000488</ele>
        <time>2023-04-19T11:49:46.753Z</time>
      </trkpt>
      <trkpt lat="46.11998" lon="11.10825">
        <ele>246.016409</ele>
        <time>2023-04-19T11:49:48.759Z</time>
      </trkpt>
      <trkpt lat="46.12008" lon="11.10827">
        <ele>246.032561</ele>
        <time>2023-04-19T11:49:50.751Z</time>
      </trkpt>
      <trkpt lat="46.12017" lon="11.10829">
        <ele>246.047634</ele>
        <time>2023-04-19T11:49:52.767Z</time>
      </trkpt>
      <trkpt lat="46.12026" lon="11.10831">
        <ele>246.063041</ele>
        <time>2023-04-19T11:49:54.760Z</time>
      </trkpt>
      <trkpt lat="46.12038" lon="11.10833">
        <ele>246.084152</ele>
        <time>2023-04-19T11:49:57.764Z</time>
      </trkpt>
      <trkpt lat="46.12051" lon="11.10836">
        <ele>246.10586</ele>
        <time>2023-04-19T11:50:00.734Z</time>
      </trkpt>
      <trkpt lat="46.1206" lon="11.10838">
        <ele>246.121253</ele>
        <time>2023-04-19T11:50:02.754Z</time>
      </trkpt>
      <trkpt lat="46.12072" lon="11.10839">
        <ele>246.141653</ele>
        <time>2023-04-19T11:50:05.739Z</time>
      </trkpt>
      <trkpt lat="46.12082" lon="11.10842">
        <ele>246.158378</ele>
        <time>2023-04-19T11:50:08.765Z</time>
      </trkpt>
      <trkpt lat="46.12093" lon="11.10846">
        <ele>246.260251</ele>
        <time>2023-04-19T11:50:12.746Z</time>
      </trkpt>
      <trkpt lat="46.12104" lon="11.10847">
        <ele>246.415181</ele>
        <time>2023-04-19T11:50:15.748Z</time>
      </trkpt>
      <trkpt lat="46.12116" lon="11.1085">
        <ele>246.592949</ele>
        <time>2023-04-19T11:50:18.755Z</time>
      </trkpt>
      <trkpt lat="46.12128" lon="11.10852">
        <ele>246.779186</ele>
        <time>2023-04-19T11:50:21.751Z</time>
      </trkpt>
      <trkpt lat="46.12141" lon="11.10855">
        <ele>246.975593</ele>
        <time>2023-04-19T11:50:24.750Z</time>
      </trkpt>
      <trkpt lat="46.12154" lon="11.10858">
        <ele>247.161704</ele>
        <time>2023-04-19T11:50:27.758Z</time>
      </trkpt>
      <trkpt lat="46.12167" lon="11.10861">
        <ele>247.350223</ele>
        <time>2023-04-19T11:50:30.749Z</time>
      </trkpt>
      <trkpt lat="46.12176" lon="11.10863">
        <ele>247.485144</ele>
        <time>2023-04-19T11:50:32.753Z</time>
      </trkpt>
      <trkpt lat="46.12189" lon="11.10865">
        <ele>247.684615</ele>
        <time>2023-04-19T11:50:35.748Z</time>
      </trkpt>
      <trkpt lat="46.12198" lon="11.10867">
        <ele>247.81635</ele>
        <time>2023-04-19T11:50:37.760Z</time>
      </trkpt>
      <trkpt lat="46.12211" lon="11.1087">
        <ele>248.012591</ele>
        <time>2023-04-19T11:50:40.755Z</time>
      </trkpt>
      <trkpt lat="46.1222" lon="11.10872">
        <ele>248.146536</ele>
        <time>2023-04-19T11:50:42.773Z</time>
      </trkpt>
      <trkpt lat="46.12234" lon="11.10874">
        <ele>248.341636</ele>
        <time>2023-04-19T11:50:45.736Z</time>
      </trkpt>
      <trkpt lat="46.12243" lon="11.10876">
        <ele>248.478009</ele>
        <time>2023-04-19T11:50:47.746Z</time>
      </trkpt>
      <trkpt lat="46.12256" lon="11.10879">
        <ele>248.680046</ele>
        <time>2023-04-19T11:50:50.747Z</time>
      </trkpt>
      <trkpt lat="46.12265" lon="11.10881">
        <ele>248.813544</ele>
        <time>2023-04-19T11:50:52.755Z</time>
      </trkpt>
      <trkpt lat="46.12275" lon="11.10883">
        <ele>248.953599</ele>
        <time>2023-04-19T11:50:54.755Z</time>
      </trkpt>
      <trkpt lat="46.12284" lon="11.10885">
        <ele>249.09754</ele>
        <time>2023-04-19T11:50:56.761Z</time>
      </trkpt>
      <trkpt lat="46.12297" lon="11.10888">
        <ele>249.298632</ele>
        <time>2023-04-19T11:50:59.750Z</time>
      </trkpt>
      <trkpt lat="46.1231" lon="11.10892">
        <ele>249.488421</ele>
        <time>2023-04-19T11:51:02.746Z</time>
      </trkpt>
      <trkpt lat="46.12323" lon="11.10893">
        <ele>249.683106</ele>
        <time>2023-04-19T11:51:05.740Z</time>
      </trkpt>
      <trkpt lat="46.12335" lon="11.10898">
        <ele>249.871256</ele>
        <time>2023-04-19T11:51:08.759Z</time>
      </trkpt>
      <trkpt lat="46.12347" lon="11.109">
        <ele>250.056845</ele>
        <time>2023-04-19T11:51:11.757Z</time>
      </trkpt>
      <trkpt lat="46.12359" lon="11.10904">
        <ele>250.244516</ele>
        <time>2023-04-19T11:51:14.754Z</time>
      </trkpt>
      <trkpt lat="46.12371" lon="11.10907">
        <ele>250.427133</ele>
        <time>2023-04-19T11:51:17.754Z</time>
      </trkpt>
      <trkpt lat="46.12384" lon="11.10912">
        <ele>250.626512</ele>
        <time>2023-04-19T11:51:20.758Z</time>
      </trkpt>
      <trkpt lat="46.12393" lon="11.10915">
        <ele>250.76642</ele>
        <time>2023-04-19T11:51:22.742Z</time>
      </trkpt>
      <trkpt lat="46.12405" lon="11.1092">
        <ele>250.960138</ele>
        <time>2023-04-19T11:51:25.760Z</time>
      </trkpt>
      <trkpt lat="46.12417" lon="11.10922">
        <ele>251.144085</ele>
        <time>2023-04-19T11:51:28.764Z</time>
      </trkpt>
      <trkpt lat="46.1243" lon="11.10922">
        <ele>251.330539</ele>
        <time>2023-04-19T11:51:31.742Z</time>
      </trkpt>
      <trkpt lat="46.12442" lon="11.10922">
        <ele>251.523341</ele>
        <time>2023-04-19T11:51:34.728Z</time>
      </trkpt>
      <trkpt lat="46.12455" lon="11.10922">
        <ele>251.912137</ele>
        <time>2023-04-19T11:51:37.774Z</time>
      </trkpt>
      <trkpt lat="46.12467" lon="11.10921">
        <ele>252.292201</ele>
        <time>2023-04-19T11:51:40.761Z</time>
      </trkpt>
      <trkpt lat="46.1248" lon="11.10923">
        <ele>252.675578</ele>
        <time>2023-04-19T11:51:43.740Z</time>
      </trkpt>
      <trkpt lat="46.12491" lon="11.10923">
        <ele>253.009476</ele>
        <time>2023-04-19T11:51:46.751Z</time>
      </trkpt>
      <trkpt lat="46.125" lon="11.10923">
        <ele>253.287967</ele>
        <time>2023-04-19T11:51:49.757Z</time>
      </trkpt>
      <trkpt lat="46.12511" lon="11.10927">
        <ele>253.634109</ele>
        <time>2023-04-19T11:51:52.745Z</time>
      </trkpt>
      <trkpt lat="46.12521" lon="11.10932">
        <ele>253.952283</ele>
        <time>2023-04-19T11:51:55.743Z</time>
      </trkpt>
      <trkpt lat="46.12532" lon="11.10937">
        <ele>254.312767</ele>
        <time>2023-04-19T11:51:59.755Z</time>
      </trkpt>
      <trkpt lat="46.1254" lon="11.10942">
        <ele>254.59166</ele>
        <time>2023-04-19T11:52:02.756Z</time>
      </trkpt>
      <trkpt lat="46.1255" lon="11.10952">
        <ele>254.959779</ele>
        <time>2023-04-19T11:52:06.749Z</time>
      </trkpt>
      <trkpt lat="46.12559" lon="11.10961">
        <ele>255.282427</ele>
        <time>2023-04-19T11:52:09.745Z</time>
      </trkpt>
      <trkpt lat="46.12569" lon="11.10968">
        <ele>255.621233</ele>
        <time>2023-04-19T11:52:12.762Z</time>
      </trkpt>
      <trkpt lat="46.12578" lon="11.10974">
        <ele>255.920088</ele>
        <time>2023-04-19T11:52:15.738Z</time>
      </trkpt>
      <trkpt lat="46.12585" lon="11.10982">
        <ele>256.209311</ele>
        <time>2023-04-19T11:52:19.756Z</time>
      </trkpt>
      <trkpt lat="46.1259" lon="11.10994">
        <ele>256.503947</ele>
        <time>2023-04-19T11:52:33.743Z</time>
      </trkpt>
      <trkpt lat="46.12591" lon="11.11008">
        <ele>256.791366</ele>
        <time>2023-04-19T11:52:37.775Z</time>
      </trkpt>
      <trkpt lat="46.12591" lon="11.11024">
        <ele>257.09039</ele>
        <time>2023-04-19T11:52:41.756Z</time>
      </trkpt>
      <trkpt lat="46.12589" lon="11.11038">
        <ele>257.293817</ele>
        <time>2023-04-19T11:52:44.769Z</time>
      </trkpt>
      <trkpt lat="46.12588" lon="11.11055">
        <ele>257.524504</ele>
        <time>2023-04-19T11:52:47.732Z</time>
      </trkpt>
      <trkpt lat="46.12592" lon="11.11073">
        <ele>257.781408</ele>
        <time>2023-04-19T11:52:50.744Z</time>
      </trkpt>
      <trkpt lat="46.126" lon="11.11088">
        <ele>258.036742</ele>
        <time>2023-04-19T11:52:53.741Z</time>
      </trkpt>
      <trkpt lat="46.12609" lon="11.11096">
        <ele>258.248481</ele>
        <time>2023-04-19T11:52:56.745Z</time>
      </trkpt>
      <trkpt lat="46.12619" lon="11.11105">
        <ele>258.47214</ele>
        <time>2023-04-19T11:52:59.733Z</time>
      </trkpt>
      <trkpt lat="46.12628" lon="11.11112">
        <ele>258.669309</ele>
        <time>2023-04-19T11:53:02.777Z</time>
      </trkpt>
      <trkpt lat="46.12636" lon="11.1112">
        <ele>258.863926</ele>
        <time>2023-04-19T11:53:05.766Z</time>
      </trkpt>
      <trkpt lat="46.12644" lon="11.11128">
        <ele>259.051079</ele>
        <time>2023-04-19T11:53:08.755Z</time>
      </trkpt>
      <trkpt lat="46.12655" lon="11.11134">
        <ele>259.281534</ele>
        <time>2023-04-19T11:53:11.739Z</time>
      </trkpt>
      <trkpt lat="46.12665" lon="11.11138">
        <ele>259.478643</ele>
        <time>2023-04-19T11:53:13.753Z</time>
      </trkpt>
      <trkpt lat="46.12675" lon="11.1114">
        <ele>259.693472</ele>
        <time>2023-04-19T11:53:15.744Z</time>
      </trkpt>
      <trkpt lat="46.12686" lon="11.11143">
        <ele>259.908058</ele>
        <time>2023-04-19T11:53:17.746Z</time>
      </trkpt>
      <trkpt lat="46.12696" lon="11.11146">
        <ele>260.113545</ele>
        <time>2023-04-19T11:53:19.754Z</time>
      </trkpt>
      <trkpt lat="46.12706" lon="11.11149">
        <ele>260.310039</ele>
        <time>2023-04-19T11:53:21.742Z</time>
      </trkpt>
      <trkpt lat="46.12716" lon="11.11153">
        <ele>260.498339</ele>
        <time>2023-04-19T11:53:23.759Z</time>
      </trkpt>
      <trkpt lat="46.12728" lon="11.11157">
        <ele>260.611513</ele>
        <time>2023-04-19T11:53:26.746Z</time>
      </trkpt>
      <trkpt lat="46.12741" lon="11.11161">
        <ele>260.704388</ele>
        <time>2023-04-19T11:53:29.734Z</time>
      </trkpt>
      <trkpt lat="46.12754" lon="11.11164">
        <ele>260.793966</ele>
        <time>2023-04-19T11:53:32.764Z</time>
      </trkpt>
      <trkpt lat="46.12767" lon="11.11167">
        <ele>260.884756</ele>
        <time>2023-04-19T11:53:35.733Z</time>
      </trkpt>
      <trkpt lat="46.12777" lon="11.11169">
        <ele>260.951622</ele>
        <time>2023-04-19T11:53:37.751Z</time>
      </trkpt>
      <trkpt lat="46.12787" lon="11.1117">
        <ele>261.022778</ele>
        <time>2023-04-19T11:53:39.746Z</time>
      </trkpt>
      <trkpt lat="46.12797" lon="11.11172">
        <ele>261.089644</ele>
        <time>2023-04-19T11:53:41.758Z</time>
      </trkpt>
      <trkpt lat="46.12806" lon="11.11175">
        <ele>261.159275</ele>
        <time>2023-04-19T11:53:43.751Z</time>
      </trkpt>
      <trkpt lat="46.12816" lon="11.11177">
        <ele>261.225878</ele>
        <time>2023-04-19T11:53:45.736Z</time>
      </trkpt>
      <trkpt lat="46.12825" lon="11.11179">
        <ele>261.290903</ele>
        <time>2023-04-19T11:53:47.752Z</time>
      </trkpt>
      <trkpt lat="46.12835" lon="11.11181">
        <ele>261.359955</ele>
        <time>2023-04-19T11:53:49.763Z</time>
      </trkpt>
      <trkpt lat="46.12844" lon="11.11185">
        <ele>261.424864</ele>
        <time>2023-04-19T11:53:51.733Z</time>
      </trkpt>
      <trkpt lat="46.12853" lon="11.11187">
        <ele>261.487989</ele>
        <time>2023-04-19T11:53:53.754Z</time>
      </trkpt>
      <trkpt lat="46.12862" lon="11.1119">
        <ele>261.551326</ele>
        <time>2023-04-19T11:53:55.748Z</time>
      </trkpt>
      <trkpt lat="46.12871" lon="11.11194">
        <ele>261.615798</ele>
        <time>2023-04-19T11:53:57.759Z</time>
      </trkpt>
      <trkpt lat="46.1288" lon="11.11197">
        <ele>261.680278</ele>
        <time>2023-04-19T11:53:59.730Z</time>
      </trkpt>
      <trkpt lat="46.12889" lon="11.11199">
        <ele>261.746196</ele>
        <time>2023-04-19T11:54:01.751Z</time>
      </trkpt>
      <trkpt lat="46.129" lon="11.112">
        <ele>261.856253</ele>
        <time>2023-04-19T11:54:03.749Z</time>
      </trkpt>
      <trkpt lat="46.12911" lon="11.11204">
        <ele>262.003757</ele>
        <time>2023-04-19T11:54:05.736Z</time>
      </trkpt>
      <trkpt lat="46.12921" lon="11.1121">
        <ele>262.141429</ele>
        <time>2023-04-19T11:54:07.742Z</time>
      </trkpt>
      <trkpt lat="46.12931" lon="11.11217">
        <ele>262.273797</ele>
        <time>2023-04-19T11:54:09.754Z</time>
      </trkpt>
      <trkpt lat="46.1294" lon="11.11224">
        <ele>262.402481</ele>
        <time>2023-04-19T11:54:11.758Z</time>
      </trkpt>
      <trkpt lat="46.12949" lon="11.11231">
        <ele>262.534933</ele>
        <time>2023-04-19T11:54:13.758Z</time>
      </trkpt>
      <trkpt lat="46.12957" lon="11.11238">
        <ele>262.660803</ele>
        <time>2023-04-19T11:54:15.759Z</time>
      </trkpt>
      <trkpt lat="46.12966" lon="11.11244">
        <ele>262.78322</ele>
        <time>2023-04-19T11:54:17.749Z</time>
      </trkpt>
      <trkpt lat="46.12976" lon="11.11249">
        <ele>262.911639</ele>
        <time>2023-04-19T11:54:19.736Z</time>
      </trkpt>
      <trkpt lat="46.12988" lon="11.11254">
        <ele>263.075574</ele>
        <time>2023-04-19T11:54:22.758Z</time>
      </trkpt>
      <trkpt lat="46.13" lon="11.1126">
        <ele>263.234479</ele>
        <time>2023-04-19T11:54:25.748Z</time>
      </trkpt>
      <trkpt lat="46.13011" lon="11.11265">
        <ele>263.388011</ele>
        <time>2023-04-19T11:54:28.749Z</time>
      </trkpt>
      <trkpt lat="46.13023" lon="11.1127">
        <ele>263.541457</ele>
        <time>2023-04-19T11:54:31.751Z</time>
      </trkpt>
      <trkpt lat="46.13032" lon="11.11275">
        <ele>263.668045</ele>
        <time>2023-04-19T11:54:33.760Z</time>
      </trkpt>
      <trkpt lat="46.13043" lon="11.1128">
        <ele>263.811953</ele>
        <time>2023-04-19T11:54:35.733Z</time>
      </trkpt>
      <trkpt lat="46.13054" lon="11.11285">
        <ele>263.952227</ele>
        <time>2023-04-19T11:54:37.759Z</time>
      </trkpt>
      <trkpt lat="46.13064" lon="11.11289">
        <ele>264.084661</ele>
        <time>2023-04-19T11:54:39.749Z</time>
      </trkpt>
      <trkpt lat="46.13075" lon="11.11293">
        <ele>264.198728</ele>
        <time>2023-04-19T11:54:41.746Z</time>
      </trkpt>
      <trkpt lat="46.13085" lon="11.11298">
        <ele>264.310435</ele>
        <time>2023-04-19T11:54:43.743Z</time>
      </trkpt>
      <trkpt lat="46.13094" lon="11.11303">
        <ele>264.415805</ele>
        <time>2023-04-19T11:54:45.744Z</time>
      </trkpt>
      <trkpt lat="46.13103" lon="11.11308">
        <ele>264.517116</ele>
        <time>2023-04-19T11:54:47.745Z</time>
      </trkpt>
      <trkpt lat="46.13113" lon="11.11312">
        <ele>264.618354</ele>
        <time>2023-04-19T11:54:49.748Z</time>
      </trkpt>
      <trkpt lat="46.13122" lon="11.11316">
        <ele>264.715682</ele>
        <time>2023-04-19T11:54:51.729Z</time>
      </trkpt>
      <trkpt lat="46.1313" lon="11.1132">
        <ele>264.809824</ele>
        <time>2023-04-19T11:54:53.773Z</time>
      </trkpt>
      <trkpt lat="46.13142" lon="11.11327">
        <ele>264.942989</ele>
        <time>2023-04-19T11:54:56.750Z</time>
      </trkpt>
      <trkpt lat="46.13154" lon="11.11331">
        <ele>265.071857</ele>
        <time>2023-04-19T11:54:59.752Z</time>
      </trkpt>
      <trkpt lat="46.13165" lon="11.11336">
        <ele>265.18656</ele>
        <time>2023-04-19T11:55:02.754Z</time>
      </trkpt>
      <trkpt lat="46.13176" lon="11.11341">
        <ele>265.308547</ele>
        <time>2023-04-19T11:55:05.734Z</time>
      </trkpt>
      <trkpt lat="46.13187" lon="11.11346">
        <ele>265.429628</ele>
        <time>2023-04-19T11:55:08.730Z</time>
      </trkpt>
      <trkpt lat="46.13198" lon="11.11352">
        <ele>265.55071</ele>
        <time>2023-04-19T11:55:11.731Z</time>
      </trkpt>
      <trkpt lat="46.13209" lon="11.11356">
        <ele>265.671154</ele>
        <time>2023-04-19T11:55:14.731Z</time>
      </trkpt>
      <trkpt lat="46.13221" lon="11.11361">
        <ele>265.800979</ele>
        <time>2023-04-19T11:55:17.747Z</time>
      </trkpt>
      <trkpt lat="46.13233" lon="11.11367">
        <ele>265.933226</ele>
        <time>2023-04-19T11:55:20.731Z</time>
      </trkpt>
      <trkpt lat="46.13245" lon="11.11372">
        <ele>266.092853</ele>
        <time>2023-04-19T11:55:23.750Z</time>
      </trkpt>
      <trkpt lat="46.13257" lon="11.11377">
        <ele>266.255498</ele>
        <time>2023-04-19T11:55:26.751Z</time>
      </trkpt>
      <trkpt lat="46.13269" lon="11.11383">
        <ele>266.416251</ele>
        <time>2023-04-19T11:55:29.754Z</time>
      </trkpt>
      <trkpt lat="46.13281" lon="11.11389">
        <ele>266.58207</ele>
        <time>2023-04-19T11:55:32.754Z</time>
      </trkpt>
      <trkpt lat="46.13294" lon="11.11389">
        <ele>266.751188</ele>
        <time>2023-04-19T11:55:35.724Z</time>
      </trkpt>
      <trkpt lat="46.13306" lon="11.11382">
        <ele>266.922805</ele>
        <time>2023-04-19T11:55:38.755Z</time>
      </trkpt>
      <trkpt lat="46.13315" lon="11.11368">
        <ele>267.095214</ele>
        <time>2023-04-19T11:55:41.749Z</time>
      </trkpt>
      <trkpt lat="46.13319" lon="11.11356">
        <ele>267.215957</ele>
        <time>2023-04-19T11:55:43.742Z</time>
      </trkpt>
      <trkpt lat="46.13321" lon="11.11343">
        <ele>267.335869</ele>
        <time>2023-04-19T11:55:45.743Z</time>
      </trkpt>
      <trkpt lat="46.13321" lon="11.11329">
        <ele>267.454909</ele>
        <time>2023-04-19T11:55:47.741Z</time>
      </trkpt>
      <trkpt lat="46.13322" lon="11.11317">
        <ele>267.571795</ele>
        <time>2023-04-19T11:55:49.750Z</time>
      </trkpt>
      <trkpt lat="46.13324" lon="11.11304">
        <ele>267.690689</ele>
        <time>2023-04-19T11:55:51.737Z</time>
      </trkpt>
      <trkpt lat="46.13326" lon="11.11284">
        <ele>267.865257</ele>
        <time>2023-04-19T11:55:54.732Z</time>
      </trkpt>
      <trkpt lat="46.13328" lon="11.11266">
        <ele>268.037228</ele>
        <time>2023-04-19T11:55:57.770Z</time>
      </trkpt>
      <trkpt lat="46.1333" lon="11.11249">
        <ele>268.183687</ele>
        <time>2023-04-19T11:56:00.764Z</time>
      </trkpt>
      <trkpt lat="46.13331" lon="11.11233">
        <ele>268.400272</ele>
        <time>2023-04-19T11:56:03.750Z</time>
      </trkpt>
      <trkpt lat="46.13332" lon="11.11217">
        <ele>268.724133</ele>
        <time>2023-04-19T11:56:06.754Z</time>
      </trkpt>
      <trkpt lat="46.13332" lon="11.11203">
        <ele>268.99722</ele>
        <time>2023-04-19T11:56:09.745Z</time>
      </trkpt>
      <trkpt lat="46.13332" lon="11.11189">
        <ele>269.258731</ele>
        <time>2023-04-19T11:56:12.768Z</time>
      </trkpt>
      <trkpt lat="46.13332" lon="11.11172">
        <ele>269.58033</ele>
        <time>2023-04-19T11:56:16.748Z</time>
      </trkpt>
      <trkpt lat="46.13336" lon="11.11161">
        <ele>269.832996</ele>
        <time>2023-04-19T11:56:19.735Z</time>
      </trkpt>
      <trkpt lat="46.13345" lon="11.11153">
        <ele>270.136563</ele>
        <time>2023-04-19T11:56:23.746Z</time>
      </trkpt>
      <trkpt lat="46.13356" lon="11.11155">
        <ele>270.449184</ele>
        <time>2023-04-19T11:56:27.742Z</time>
      </trkpt>
      <trkpt lat="46.13367" lon="11.11157">
        <ele>270.748753</ele>
        <time>2023-04-19T11:56:31.761Z</time>
      </trkpt>
      <trkpt lat="46.13378" lon="11.11153">
        <ele>271.072156</ele>
        <time>2023-04-19T11:56:35.749Z</time>
      </trkpt>
      <trkpt lat="46.13387" lon="11.11145">
        <ele>271.359164</ele>
        <time>2023-04-19T11:56:39.739Z</time>
      </trkpt>
      <trkpt lat="46.13395" lon="11.11141">
        <ele>271.612285</ele>
        <time>2023-04-19T11:56:44.750Z</time>
      </trkpt>
      <trkpt lat="46.1341" lon="11.11136">
        <ele>272.031282</ele>
        <time>2023-04-19T11:57:12.758Z</time>
      </trkpt>
      <trkpt lat="46.13419" lon="11.11127">
        <ele>272.330495</ele>
        <time>2023-04-19T11:57:17.745Z</time>
      </trkpt>
      <trkpt lat="46.13423" lon="11.11113">
        <ele>272.62953</ele>
        <time>2023-04-19T11:57:27.736Z</time>
      </trkpt>
      <trkpt lat="46.13432" lon="11.11108">
        <ele>272.891102</ele>
        <time>2023-04-19T11:57:31.753Z</time>
      </trkpt>
      <trkpt lat="46.13443" lon="11.11107">
        <ele>273.196469</ele>
        <time>2023-04-19T11:57:35.758Z</time>
      </trkpt>
      <trkpt lat="46.13455" lon="11.11104">
        <ele>273.522802</ele>
        <time>2023-04-19T11:57:39.750Z</time>
      </trkpt>
      <trkpt lat="46.13465" lon="11.11097">
        <ele>273.834313</ele>
        <time>2023-04-19T11:57:43.746Z</time>
      </trkpt>
      <trkpt lat="46.13474" lon="11.11091">
        <ele>274.101423</ele>
        <time>2023-04-19T11:57:47.750Z</time>
      </trkpt>
      <trkpt lat="46.13483" lon="11.11086">
        <ele>274.350202</ele>
        <time>2023-04-19T11:57:51.743Z</time>
      </trkpt>
      <trkpt lat="46.13494" lon="11.1108">
        <ele>274.695249</ele>
        <time>2023-04-19T11:59:37.750Z</time>
      </trkpt>
      <trkpt lat="46.13504" lon="11.11074">
        <ele>274.980804</ele>
        <time>2023-04-19T11:59:41.744Z</time>
      </trkpt>
      <trkpt lat="46.13515" lon="11.11069">
        <ele>275.29381</ele>
        <time>2023-04-19T11:59:45.739Z</time>
      </trkpt>
      <trkpt lat="46.13525" lon="11.11064">
        <ele>275.58778</ele>
        <time>2023-04-19T11:59:49.762Z</time>
      </trkpt>
      <trkpt lat="46.13535" lon="11.11059">
        <ele>275.862214</ele>
        <time>2023-04-19T11:59:53.753Z</time>
      </trkpt>
      <trkpt lat="46.13546" lon="11.11054">
        <ele>276.183916</ele>
        <time>2023-04-19T11:59:57.756Z</time>
      </trkpt>
      <trkpt lat="46.13555" lon="11.1105">
        <ele>276.433448</ele>
        <time>2023-04-19T12:00:00.748Z</time>
      </trkpt>
      <trkpt lat="46.13565" lon="11.11045">
        <ele>276.72777</ele>
        <time>2023-04-19T12:00:04.771Z</time>
      </trkpt>
      <trkpt lat="46.13573" lon="11.1104">
        <ele>276.976634</ele>
        <time>2023-04-19T12:00:08.769Z</time>
      </trkpt>
      <trkpt lat="46.13582" lon="11.11036">
        <ele>277.229259</ele>
        <time>2023-04-19T12:00:13.758Z</time>
      </trkpt>
      <trkpt lat="46.13591" lon="11.1102">
        <ele>277.602516</ele>
        <time>2023-04-19T12:00:44.751Z</time>
      </trkpt>
      <trkpt lat="46.13599" lon="11.11014">
        <ele>277.860542</ele>
        <time>2023-04-19T12:00:48.743Z</time>
      </trkpt>
      <trkpt lat="46.13609" lon="11.11009">
        <ele>278.14539</ele>
        <time>2023-04-19T12:00:52.762Z</time>
      </trkpt>
      <trkpt lat="46.1362" lon="11.11004">
        <ele>278.093488</ele>
        <time>2023-04-19T12:00:55.757Z</time>
      </trkpt>
      <trkpt lat="46.13632" lon="11.10999">
        <ele>277.960625</ele>
        <time>2023-04-19T12:00:58.760Z</time>
      </trkpt>
      <trkpt lat="46.13643" lon="11.10994">
        <ele>277.831052</ele>
        <time>2023-04-19T12:01:01.739Z</time>
      </trkpt>
      <trkpt lat="46.13655" lon="11.10988">
        <ele>277.694022</ele>
        <time>2023-04-19T12:01:04.762Z</time>
      </trkpt>
      <trkpt lat="46.13668" lon="11.10981">
        <ele>277.540229</ele>
        <time>2023-04-19T12:01:07.753Z</time>
      </trkpt>
      <trkpt lat="46.13679" lon="11.10975">
        <ele>277.414541</ele>
        <time>2023-04-19T12:01:09.757Z</time>
      </trkpt>
      <trkpt lat="46.13689" lon="11.10967">
        <ele>277.284865</ele>
        <time>2023-04-19T12:01:11.738Z</time>
      </trkpt>
      <trkpt lat="46.13698" lon="11.10957">
        <ele>277.16063</ele>
        <time>2023-04-19T12:01:13.761Z</time>
      </trkpt>
      <trkpt lat="46.13708" lon="11.10951">
        <ele>277.041906</ele>
        <time>2023-04-19T12:01:15.735Z</time>
      </trkpt>
      <trkpt lat="46.1372" lon="11.10951">
        <ele>276.913515</ele>
        <time>2023-04-19T12:01:17.739Z</time>
      </trkpt>
      <trkpt lat="46.13731" lon="11.10948">
        <ele>276.78177</ele>
        <time>2023-04-19T12:01:19.755Z</time>
      </trkpt>
      <trkpt lat="46.13743" lon="11.10941">
        <ele>276.641193</ele>
        <time>2023-04-19T12:01:21.763Z</time>
      </trkpt>
      <trkpt lat="46.13755" lon="11.10933">
        <ele>276.495982</ele>
        <time>2023-04-19T12:01:23.765Z</time>
      </trkpt>
      <trkpt lat="46.13768" lon="11.10926">
        <ele>276.347281</ele>
        <time>2023-04-19T12:01:25.746Z</time>
      </trkpt>
      <trkpt lat="46.13779" lon="11.10919">
        <ele>276.211827</ele>
        <time>2023-04-19T12:01:27.757Z</time>
      </trkpt>
      <trkpt lat="46.13796" lon="11.10909">
        <ele>275.918042</ele>
        <time>2023-04-19T12:01:30.765Z</time>
      </trkpt>
      <trkpt lat="46.13809" lon="11.10904">
        <ele>275.684739</ele>
        <time>2023-04-19T12:01:32.753Z</time>
      </trkpt>
      <trkpt lat="46.13819" lon="11.10901">
        <ele>275.526786</ele>
        <time>2023-04-19T12:01:33.763Z</time>
      </trkpt>
      <trkpt lat="46.1383" lon="11.10892">
        <ele>275.317093</ele>
        <time>2023-04-19T12:01:35.767Z</time>
      </trkpt>
      <trkpt lat="46.13839" lon="11.1088">
        <ele>275.114533</ele>
        <time>2023-04-19T12:01:37.790Z</time>
      </trkpt>
      <trkpt lat="46.13846" lon="11.1087">
        <ele>274.953926</ele>
        <time>2023-04-19T12:01:39.752Z</time>
      </trkpt>
      <trkpt lat="46.13856" lon="11.1086">
        <ele>274.748439</ele>
        <time>2023-04-19T12:01:42.754Z</time>
      </trkpt>
      <trkpt lat="46.13866" lon="11.10852">
        <ele>274.564115</ele>
        <time>2023-04-19T12:01:45.753Z</time>
      </trkpt>
      <trkpt lat="46.13877" lon="11.10843">
        <ele>274.35913</ele>
        <time>2023-04-19T12:01:48.754Z</time>
      </trkpt>
      <trkpt lat="46.13888" lon="11.10835">
        <ele>274.156662</ele>
        <time>2023-04-19T12:01:51.743Z</time>
      </trkpt>
      <trkpt lat="46.13899" lon="11.10824">
        <ele>273.952525</ele>
        <time>2023-04-19T12:01:54.766Z</time>
      </trkpt>
      <trkpt lat="46.13908" lon="11.10813">
        <ele>273.757286</ele>
        <time>2023-04-19T12:01:57.763Z</time>
      </trkpt>
      <trkpt lat="46.13915" lon="11.10801">
        <ele>273.570907</ele>
        <time>2023-04-19T12:02:00.735Z</time>
      </trkpt>
      <trkpt lat="46.13922" lon="11.10787">
        <ele>273.377103</ele>
        <time>2023-04-19T12:02:03.749Z</time>
      </trkpt>
      <trkpt lat="46.1393" lon="11.10773">
        <ele>273.092056</ele>
        <time>2023-04-19T12:02:06.755Z</time>
      </trkpt>
      <trkpt lat="46.13938" lon="11.10758">
        <ele>272.714562</ele>
        <time>2023-04-19T12:02:09.761Z</time>
      </trkpt>
      <trkpt lat="46.13943" lon="11.10746">
        <ele>272.456418</ele>
        <time>2023-04-19T12:02:11.768Z</time>
      </trkpt>
      <trkpt lat="46.13948" lon="11.10734">
        <ele>272.173859</ele>
        <time>2023-04-19T12:02:13.780Z</time>
      </trkpt>
      <trkpt lat="46.13953" lon="11.10722">
        <ele>271.909262</ele>
        <time>2023-04-19T12:02:15.744Z</time>
      </trkpt>
      <trkpt lat="46.13957" lon="11.1071">
        <ele>271.63821</ele>
        <time>2023-04-19T12:02:17.748Z</time>
      </trkpt>
      <trkpt lat="46.13963" lon="11.10698">
        <ele>271.360939</ele>
        <time>2023-04-19T12:02:19.764Z</time>
      </trkpt>
      <trkpt lat="46.13968" lon="11.10684">
        <ele>271.059532</ele>
        <time>2023-04-19T12:02:21.749Z</time>
      </trkpt>
      <trkpt lat="46.13973" lon="11.10671">
        <ele>270.752815</ele>
        <time>2023-04-19T12:02:23.756Z</time>
      </trkpt>
      <trkpt lat="46.13979" lon="11.10657">
        <ele>270.441986</ele>
        <time>2023-04-19T12:02:25.776Z</time>
      </trkpt>
      <trkpt lat="46.13982" lon="11.10642">
        <ele>270.139436</ele>
        <time>2023-04-19T12:02:27.748Z</time>
      </trkpt>
      <trkpt lat="46.13981" lon="11.10626">
        <ele>269.835537</ele>
        <time>2023-04-19T12:02:29.759Z</time>
      </trkpt>
      <trkpt lat="46.13982" lon="11.10611">
        <ele>269.541479</ele>
        <time>2023-04-19T12:02:31.761Z</time>
      </trkpt>
      <trkpt lat="46.13986" lon="11.10597">
        <ele>269.251075</ele>
        <time>2023-04-19T12:02:33.749Z</time>
      </trkpt>
      <trkpt lat="46.13993" lon="11.10587">
        <ele>268.973304</ele>
        <time>2023-04-19T12:02:35.747Z</time>
      </trkpt>
      <trkpt lat="46.14" lon="11.10577">
        <ele>268.694624</ele>
        <time>2023-04-19T12:02:37.739Z</time>
      </trkpt>
      <trkpt lat="46.14005" lon="11.10564">
        <ele>268.402218</ele>
        <time>2023-04-19T12:02:39.732Z</time>
      </trkpt>
      <trkpt lat="46.14011" lon="11.10551">
        <ele>268.164409</ele>
        <time>2023-04-19T12:02:41.744Z</time>
      </trkpt>
      <trkpt lat="46.14017" lon="11.10537">
        <ele>268.014827</ele>
        <time>2023-04-19T12:02:43.749Z</time>
      </trkpt>
      <trkpt lat="46.14024" lon="11.10522">
        <ele>267.850609</ele>
        <time>2023-04-19T12:02:45.756Z</time>
      </trkpt>
      <trkpt lat="46.1403" lon="11.10509">
        <ele>267.695019</ele>
        <time>2023-04-19T12:02:47.742Z</time>
      </trkpt>
      <trkpt lat="46.14037" lon="11.10495">
        <ele>267.546365</ele>
        <time>2023-04-19T12:02:49.761Z</time>
      </trkpt>
      <trkpt lat="46.14041" lon="11.10482">
        <ele>267.405309</ele>
        <time>2023-04-19T12:02:51.739Z</time>
      </trkpt>
      <trkpt lat="46.14047" lon="11.10467">
        <ele>267.243975</ele>
        <time>2023-04-19T12:02:54.760Z</time>
      </trkpt>
      <trkpt lat="46.14053" lon="11.10453">
        <ele>267.086789</ele>
        <time>2023-04-19T12:02:58.759Z</time>
      </trkpt>
      <trkpt lat="46.14057" lon="11.10441">
        <ele>266.965487</ele>
        <time>2023-04-19T12:03:01.734Z</time>
      </trkpt>
      <trkpt lat="46.14062" lon="11.10429">
        <ele>266.839534</ele>
        <time>2023-04-19T12:03:06.765Z</time>
      </trkpt>
      <trkpt lat="46.14068" lon="11.10418">
        <ele>266.715336</ele>
        <time>2023-04-19T12:03:29.745Z</time>
      </trkpt>
      <trkpt lat="46.14076" lon="11.10428">
        <ele>266.57253</ele>
        <time>2023-04-19T12:03:34.747Z</time>
      </trkpt>
      <trkpt lat="46.14083" lon="11.10437">
        <ele>266.447221</ele>
        <time>2023-04-19T12:03:37.735Z</time>
      </trkpt>
      <trkpt lat="46.1409" lon="11.10446">
        <ele>266.317024</ele>
        <time>2023-04-19T12:03:40.774Z</time>
      </trkpt>
      <trkpt lat="46.14097" lon="11.10456">
        <ele>266.188725</ele>
        <time>2023-04-19T12:03:43.737Z</time>
      </trkpt>
      <trkpt lat="46.14105" lon="11.10462">
        <ele>266.061789</ele>
        <time>2023-04-19T12:03:46.748Z</time>
      </trkpt>
      <trkpt lat="46.14116" lon="11.10464">
        <ele>265.922269</ele>
        <time>2023-04-19T12:03:49.737Z</time>
      </trkpt>
      <trkpt lat="46.14128" lon="11.10461">
        <ele>265.726953</ele>
        <time>2023-04-19T12:03:52.745Z</time>
      </trkpt>
      <trkpt lat="46.14141" lon="11.10457">
        <ele>265.4925</ele>
        <time>2023-04-19T12:03:55.754Z</time>
      </trkpt>
      <trkpt lat="46.1415" lon="11.10453">
        <ele>265.325491</ele>
        <time>2023-04-19T12:03:57.761Z</time>
      </trkpt>
      <trkpt lat="46.14159" lon="11.1045">
        <ele>265.156384</ele>
        <time>2023-04-19T12:03:59.745Z</time>
      </trkpt>
      <trkpt lat="46.14171" lon="11.10445">
        <ele>264.920811</ele>
        <time>2023-04-19T12:04:02.763Z</time>
      </trkpt>
      <trkpt lat="46.14182" lon="11.10438">
        <ele>264.703979</ele>
        <time>2023-04-19T12:04:05.768Z</time>
      </trkpt>
      <trkpt lat="46.14192" lon="11.10432">
        <ele>264.501791</ele>
        <time>2023-04-19T12:04:08.759Z</time>
      </trkpt>
      <trkpt lat="46.14201" lon="11.1042">
        <ele>264.286127</ele>
        <time>2023-04-19T12:04:11.809Z</time>
      </trkpt>
      <trkpt lat="46.14208" lon="11.1041">
        <ele>264.098814</ele>
        <time>2023-04-19T12:04:14.747Z</time>
      </trkpt>
      <trkpt lat="46.14218" lon="11.10411">
        <ele>263.929114</ele>
        <time>2023-04-19T12:04:26.742Z</time>
      </trkpt>
      <trkpt lat="46.14228" lon="11.10407">
        <ele>263.740515</ele>
        <time>2023-04-19T12:04:30.752Z</time>
      </trkpt>
      <trkpt lat="46.14231" lon="11.1039">
        <ele>263.516204</ele>
        <time>2023-04-19T12:04:34.757Z</time>
      </trkpt>
      <trkpt lat="46.14238" lon="11.10375">
        <ele>263.299782</ele>
        <time>2023-04-19T12:04:37.755Z</time>
      </trkpt>
      <trkpt lat="46.14244" lon="11.1036">
        <ele>263.077297</ele>
        <time>2023-04-19T12:04:40.749Z</time>
      </trkpt>
      <trkpt lat="46.14249" lon="11.10348">
        <ele>262.908078</ele>
        <time>2023-04-19T12:04:42.748Z</time>
      </trkpt>
      <trkpt lat="46.14253" lon="11.10336">
        <ele>262.729572</ele>
        <time>2023-04-19T12:04:44.749Z</time>
      </trkpt>
      <trkpt lat="46.14259" lon="11.10323">
        <ele>262.539152</ele>
        <time>2023-04-19T12:04:46.761Z</time>
      </trkpt>
      <trkpt lat="46.14264" lon="11.1031">
        <ele>262.343682</ele>
        <time>2023-04-19T12:04:48.757Z</time>
      </trkpt>
      <trkpt lat="46.1427" lon="11.10295">
        <ele>262.131779</ele>
        <time>2023-04-19T12:04:50.734Z</time>
      </trkpt>
      <trkpt lat="46.14275" lon="11.1028">
        <ele>261.921492</ele>
        <time>2023-04-19T12:04:52.732Z</time>
      </trkpt>
      <trkpt lat="46.14282" lon="11.10264">
        <ele>261.692001</ele>
        <time>2023-04-19T12:04:54.746Z</time>
      </trkpt>
      <trkpt lat="46.14289" lon="11.10248">
        <ele>261.458044</ele>
        <time>2023-04-19T12:04:56.752Z</time>
      </trkpt>
      <trkpt lat="46.14295" lon="11.10231">
        <ele>261.222437</ele>
        <time>2023-04-19T12:04:58.758Z</time>
      </trkpt>
      <trkpt lat="46.14302" lon="11.10215">
        <ele>260.981379</ele>
        <time>2023-04-19T12:05:00.766Z</time>
      </trkpt>
      <trkpt lat="46.14309" lon="11.10199">
        <ele>260.742889</ele>
        <time>2023-04-19T12:05:02.743Z</time>
      </trkpt>
      <trkpt lat="46.14316" lon="11.10182">
        <ele>260.502245</ele>
        <time>2023-04-19T12:05:04.752Z</time>
      </trkpt>
      <trkpt lat="46.14322" lon="11.10166">
        <ele>260.26772</ele>
        <time>2023-04-19T12:05:06.775Z</time>
      </trkpt>
      <trkpt lat="46.14328" lon="11.10149">
        <ele>260.035841</ele>
        <time>2023-04-19T12:05:08.772Z</time>
      </trkpt>
      <trkpt lat="46.14335" lon="11.10133">
        <ele>259.796094</ele>
        <time>2023-04-19T12:05:10.755Z</time>
      </trkpt>
      <trkpt lat="46.14342" lon="11.10116">
        <ele>259.551311</ele>
        <time>2023-04-19T12:05:12.748Z</time>
      </trkpt>
      <trkpt lat="46.1435" lon="11.101">
        <ele>259.309399</ele>
        <time>2023-04-19T12:05:14.751Z</time>
      </trkpt>
      <trkpt lat="46.14358" lon="11.10085">
        <ele>259.279823</ele>
        <time>2023-04-19T12:05:16.761Z</time>
      </trkpt>
      <trkpt lat="46.14365" lon="11.1007">
        <ele>259.251696</ele>
        <time>2023-04-19T12:05:18.765Z</time>
      </trkpt>
      <trkpt lat="46.14374" lon="11.10056">
        <ele>259.222528</ele>
        <time>2023-04-19T12:05:20.746Z</time>
      </trkpt>
      <trkpt lat="46.14383" lon="11.10043">
        <ele>259.193948</ele>
        <time>2023-04-19T12:05:22.773Z</time>
      </trkpt>
      <trkpt lat="46.14391" lon="11.10031">
        <ele>259.166612</ele>
        <time>2023-04-19T12:05:24.770Z</time>
      </trkpt>
      <trkpt lat="46.144" lon="11.10019">
        <ele>259.139921</ele>
        <time>2023-04-19T12:05:26.757Z</time>
      </trkpt>
      <trkpt lat="46.14408" lon="11.10009">
        <ele>259.115169</ele>
        <time>2023-04-19T12:05:28.755Z</time>
      </trkpt>
      <trkpt lat="46.14417" lon="11.09998">
        <ele>259.090498</ele>
        <time>2023-04-19T12:05:30.763Z</time>
      </trkpt>
      <trkpt lat="46.14425" lon="11.0999">
        <ele>259.067287</ele>
        <time>2023-04-19T12:05:32.765Z</time>
      </trkpt>
      <trkpt lat="46.14434" lon="11.09985">
        <ele>259.045695</ele>
        <time>2023-04-19T12:05:34.746Z</time>
      </trkpt>
      <trkpt lat="46.14444" lon="11.09984">
        <ele>259.024344</ele>
        <time>2023-04-19T12:05:36.751Z</time>
      </trkpt>
      <trkpt lat="46.14454" lon="11.09984">
        <ele>259.00143</ele>
        <time>2023-04-19T12:05:38.856Z</time>
      </trkpt>
      <trkpt lat="46.14465" lon="11.09982">
        <ele>258.976948</ele>
        <time>2023-04-19T12:05:40.777Z</time>
      </trkpt>
      <trkpt lat="46.14476" lon="11.09979">
        <ele>258.950523</ele>
        <time>2023-04-19T12:05:42.753Z</time>
      </trkpt>
      <trkpt lat="46.14488" lon="11.09978">
        <ele>258.924653</ele>
        <time>2023-04-19T12:05:44.757Z</time>
      </trkpt>
      <trkpt lat="46.145" lon="11.09977">
        <ele>258.868025</ele>
        <time>2023-04-19T12:05:46.752Z</time>
      </trkpt>
      <trkpt lat="46.14513" lon="11.09975">
        <ele>258.757564</ele>
        <time>2023-04-19T12:05:48.752Z</time>
      </trkpt>
      <trkpt lat="46.14525" lon="11.09974">
        <ele>258.654104</ele>
        <time>2023-04-19T12:05:50.751Z</time>
      </trkpt>
      <trkpt lat="46.14536" lon="11.09974">
        <ele>258.550887</ele>
        <time>2023-04-19T12:05:52.780Z</time>
      </trkpt>
      <trkpt lat="46.14548" lon="11.09974">
        <ele>258.445025</ele>
        <time>2023-04-19T12:05:55.729Z</time>
      </trkpt>
      <trkpt lat="46.14559" lon="11.09952">
        <ele>258.280222</ele>
        <time>2023-04-19T12:06:20.759Z</time>
      </trkpt>
      <trkpt lat="46.1456" lon="11.09934">
        <ele>258.169429</ele>
        <time>2023-04-19T12:06:23.748Z</time>
      </trkpt>
      <trkpt lat="46.14561" lon="11.09916">
        <ele>258.060476</ele>
        <time>2023-04-19T12:06:26.734Z</time>
      </trkpt>
      <trkpt lat="46.14567" lon="11.09902">
        <ele>257.958421</ele>
        <time>2023-04-19T12:06:29.738Z</time>
      </trkpt>
      <trkpt lat="46.1458" lon="11.099">
        <ele>257.842162</ele>
        <time>2023-04-19T12:06:32.746Z</time>
      </trkpt>
      <trkpt lat="46.14589" lon="11.09898">
        <ele>257.759476</ele>
        <time>2023-04-19T12:06:34.744Z</time>
      </trkpt>
      <trkpt lat="46.146" lon="11.09895">
        <ele>257.668873</ele>
        <time>2023-04-19T12:06:36.745Z</time>
      </trkpt>
      <trkpt lat="46.1461" lon="11.09894">
        <ele>257.576095</ele>
        <time>2023-04-19T12:06:38.740Z</time>
      </trkpt>
      <trkpt lat="46.14621" lon="11.09896">
        <ele>257.476986</ele>
        <time>2023-04-19T12:06:40.742Z</time>
      </trkpt>
      <trkpt lat="46.14632" lon="11.09896">
        <ele>257.378179</ele>
        <time>2023-04-19T12:06:42.780Z</time>
      </trkpt>
      <trkpt lat="46.14644" lon="11.09897">
        <ele>257.243314</ele>
        <time>2023-04-19T12:06:44.748Z</time>
      </trkpt>
      <trkpt lat="46.14656" lon="11.099">
        <ele>257.060675</ele>
        <time>2023-04-19T12:06:46.754Z</time>
      </trkpt>
      <trkpt lat="46.14667" lon="11.09902">
        <ele>256.879467</ele>
        <time>2023-04-19T12:06:48.749Z</time>
      </trkpt>
      <trkpt lat="46.14679" lon="11.09904">
        <ele>256.702966</ele>
        <time>2023-04-19T12:06:50.763Z</time>
      </trkpt>
      <trkpt lat="46.1469" lon="11.09908">
        <ele>256.525337</ele>
        <time>2023-04-19T12:06:52.760Z</time>
      </trkpt>
      <trkpt lat="46.14701" lon="11.09911">
        <ele>256.353282</ele>
        <time>2023-04-19T12:06:54.769Z</time>
      </trkpt>
      <trkpt lat="46.14712" lon="11.09914">
        <ele>256.180604</ele>
        <time>2023-04-19T12:06:56.733Z</time>
      </trkpt>
      <trkpt lat="46.14723" lon="11.09918">
        <ele>256.009498</ele>
        <time>2023-04-19T12:06:58.764Z</time>
      </trkpt>
      <trkpt lat="46.14734" lon="11.0992">
        <ele>255.839869</ele>
        <time>2023-04-19T12:07:00.744Z</time>
      </trkpt>
      <trkpt lat="46.14744" lon="11.09924">
        <ele>255.682957</ele>
        <time>2023-04-19T12:07:02.754Z</time>
      </trkpt>
      <trkpt lat="46.14754" lon="11.09928">
        <ele>255.521988</ele>
        <time>2023-04-19T12:07:05.726Z</time>
      </trkpt>
      <trkpt lat="46.14762" lon="11.09921">
        <ele>255.369717</ele>
        <time>2023-04-19T12:07:10.759Z</time>
      </trkpt>
      <trkpt lat="46.14767" lon="11.09905">
        <ele>255.189067</ele>
        <time>2023-04-19T12:07:13.757Z</time>
      </trkpt>
      <trkpt lat="46.1477" lon="11.09888">
        <ele>255.000054</ele>
        <time>2023-04-19T12:07:16.754Z</time>
      </trkpt>
      <trkpt lat="46.14773" lon="11.09869">
        <ele>254.789048</ele>
        <time>2023-04-19T12:07:19.747Z</time>
      </trkpt>
      <trkpt lat="46.14774" lon="11.09855">
        <ele>254.639801</ele>
        <time>2023-04-19T12:07:21.741Z</time>
      </trkpt>
      <trkpt lat="46.14777" lon="11.09842">
        <ele>254.554761</ele>
        <time>2023-04-19T12:07:23.744Z</time>
      </trkpt>
      <trkpt lat="46.14779" lon="11.09828">
        <ele>254.554761</ele>
        <time>2023-04-19T12:07:25.747Z</time>
      </trkpt>
      <trkpt lat="46.14781" lon="11.09813">
        <ele>254.554761</ele>
        <time>2023-04-19T12:07:27.739Z</time>
      </trkpt>
      <trkpt lat="46.14783" lon="11.09799">
        <ele>254.554761</ele>
        <time>2023-04-19T12:07:29.735Z</time>
      </trkpt>
      <trkpt lat="46.14786" lon="11.09785">
        <ele>254.554761</ele>
        <time>2023-04-19T12:07:31.746Z</time>
      </trkpt>
      <trkpt lat="46.14789" lon="11.09771">
        <ele>254.554761</ele>
        <time>2023-04-19T12:07:33.747Z</time>
      </trkpt>
      <trkpt lat="46.14791" lon="11.09756">
        <ele>254.554761</ele>
        <time>2023-04-19T12:07:35.756Z</time>
      </trkpt>
      <trkpt lat="46.14795" lon="11.09742">
        <ele>254.554761</ele>
        <time>2023-04-19T12:07:37.923Z</time>
      </trkpt>
      <trkpt lat="46.148" lon="11.09729">
        <ele>254.554761</ele>
        <time>2023-04-19T12:07:40.743Z</time>
      </trkpt>
      <trkpt lat="46.14803" lon="11.09704">
        <ele>254.554761</ele>
        <time>2023-04-19T12:08:01.744Z</time>
      </trkpt>
      <trkpt lat="46.14809" lon="11.09688">
        <ele>254.554761</ele>
        <time>2023-04-19T12:08:04.752Z</time>
      </trkpt>
      <trkpt lat="46.14812" lon="11.09676">
        <ele>254.554761</ele>
        <time>2023-04-19T12:08:06.737Z</time>
      </trkpt>
      <trkpt lat="46.14814" lon="11.0966">
        <ele>254.554761</ele>
        <time>2023-04-19T12:08:09.737Z</time>
      </trkpt>
      <trkpt lat="46.14819" lon="11.09647">
        <ele>254.554761</ele>
        <time>2023-04-19T12:08:13.742Z</time>
      </trkpt>
      <trkpt lat="46.14826" lon="11.09638">
        <ele>254.554761</ele>
        <time>2023-04-19T12:08:17.748Z</time>
      </trkpt>
      <trkpt lat="46.14825" lon="11.09635">
        <ele>254.554761</ele>
        <time>2023-04-19T12:08:21.439Z</time>
      </trkpt>
    </trkseg>
  </trk>
</gpx>